<?xml version="1.0" encoding="UTF-8" standalone="no" ?>
<gpx xmlns="http://www.topografix.com/GPX/1/1" xmlns:xsi="http://www.w3.org/2001/XMLSchema-instance" xsi:schemaLocation="http://www.topografix.com/GPX/1/1 http://www.topografix.com/GPX/1/1/gpx.xsd" version="1.1" creator="VisuGPX - https://www.visugpx.com">
  <metadata>
    <name>De Vincennes à Poitiers</name>
  </metadata>
  <trk>
    <name><![CDATA[De Vincennes à Poitiers]]></name>
    <trkseg>
      <trkpt lat="46.58052" lon="0.34027">
        <ele>120.588054</ele>
        <time>2021-12-03T20:09:44.200Z</time>
      </trkpt>
      <trkpt lat="46.58048" lon="0.34056">
        <ele>120.588054</ele>
        <time>2021-12-03T20:09:50.218Z</time>
      </trkpt>
      <trkpt lat="46.58056" lon="0.3406">
        <ele>120.588054</ele>
        <time>2021-12-03T20:09:52.032Z</time>
      </trkpt>
      <trkpt lat="46.58057" lon="0.34069">
        <ele>120.588054</ele>
        <time>2021-12-03T20:09:53.278Z</time>
      </trkpt>
      <trkpt lat="46.58089" lon="0.34089">
        <ele>120.588054</ele>
        <time>2021-12-03T20:10:01.163Z</time>
      </trkpt>
      <trkpt lat="46.58093" lon="0.34092">
        <ele>120.588054</ele>
        <time>2021-12-03T20:10:02.213Z</time>
      </trkpt>
      <trkpt lat="46.58097" lon="0.34095">
        <ele>120.588054</ele>
        <time>2021-12-03T20:10:03.308Z</time>
      </trkpt>
      <trkpt lat="46.58157" lon="0.3413">
        <ele>119.798643</ele>
        <time>2021-12-03T20:10:16.946Z</time>
      </trkpt>
      <trkpt lat="46.58163" lon="0.34133">
        <ele>119.711612</ele>
        <time>2021-12-03T20:10:18.137Z</time>
      </trkpt>
      <trkpt lat="46.58165" lon="0.34134">
        <ele>119.679136</ele>
        <time>2021-12-03T20:10:18.600Z</time>
      </trkpt>
      <trkpt lat="46.58172" lon="0.34138">
        <ele>119.565848</ele>
        <time>2021-12-03T20:10:20.141Z</time>
      </trkpt>
      <trkpt lat="46.58172" lon="0.34137">
        <ele>119.556642</ele>
        <time>2021-12-03T20:10:20.268Z</time>
      </trkpt>
      <trkpt lat="46.58235" lon="0.34142">
        <ele>118.63084</ele>
        <time>2021-12-03T20:10:32.706Z</time>
      </trkpt>
      <trkpt lat="46.58239" lon="0.34142">
        <ele>118.576449</ele>
        <time>2021-12-03T20:10:33.495Z</time>
      </trkpt>
      <trkpt lat="46.58229" lon="0.34215">
        <ele>117.75303</ele>
        <time>2021-12-03T20:10:44.389Z</time>
      </trkpt>
      <trkpt lat="46.58228" lon="0.34236">
        <ele>117.414849</ele>
        <time>2021-12-03T20:10:47.394Z</time>
      </trkpt>
      <trkpt lat="46.58229" lon="0.34286">
        <ele>116.621245</ele>
        <time>2021-12-03T20:10:54.380Z</time>
      </trkpt>
      <trkpt lat="46.58232" lon="0.34296">
        <ele>116.454049</ele>
        <time>2021-12-03T20:10:55.840Z</time>
      </trkpt>
      <trkpt lat="46.58254" lon="0.34326">
        <ele>115.744239</ele>
        <time>2021-12-03T20:11:01.445Z</time>
      </trkpt>
      <trkpt lat="46.58264" lon="0.34334">
        <ele>115.494383</ele>
        <time>2021-12-03T20:11:03.406Z</time>
      </trkpt>
      <trkpt lat="46.58303" lon="0.34356">
        <ele>114.538542</ele>
        <time>2021-12-03T20:11:10.741Z</time>
      </trkpt>
      <trkpt lat="46.58307" lon="0.34363">
        <ele>114.388285</ele>
        <time>2021-12-03T20:11:11.875Z</time>
      </trkpt>
      <trkpt lat="46.58291" lon="0.34434">
        <ele>112.595786</ele>
        <time>2021-12-03T20:11:20.840Z</time>
      </trkpt>
      <trkpt lat="46.58285" lon="0.34455">
        <ele>111.877123</ele>
        <time>2021-12-03T20:11:23.730Z</time>
      </trkpt>
      <trkpt lat="46.58282" lon="0.34468">
        <ele>111.457688</ele>
        <time>2021-12-03T20:11:25.289Z</time>
      </trkpt>
      <trkpt lat="46.58264" lon="0.3457">
        <ele>108.158588</ele>
        <time>2021-12-03T20:11:37.007Z</time>
      </trkpt>
      <trkpt lat="46.58244" lon="0.34669">
        <ele>104.633254</ele>
        <time>2021-12-03T20:11:48.119Z</time>
      </trkpt>
      <trkpt lat="46.58226" lon="0.34742">
        <ele>101.254297</ele>
        <time>2021-12-03T20:11:56.292Z</time>
      </trkpt>
      <trkpt lat="46.58204" lon="0.34833">
        <ele>96.995854</ele>
        <time>2021-12-03T20:12:06.546Z</time>
      </trkpt>
      <trkpt lat="46.58199" lon="0.34888">
        <ele>94.596378</ele>
        <time>2021-12-03T20:12:12.308Z</time>
      </trkpt>
      <trkpt lat="46.58188" lon="0.34944">
        <ele>91.981459</ele>
        <time>2021-12-03T20:12:18.454Z</time>
      </trkpt>
      <trkpt lat="46.58175" lon="0.35019">
        <ele>88.551499</ele>
        <time>2021-12-03T20:12:26.439Z</time>
      </trkpt>
      <trkpt lat="46.58173" lon="0.35032">
        <ele>87.951162</ele>
        <time>2021-12-03T20:12:27.841Z</time>
      </trkpt>
      <trkpt lat="46.58172" lon="0.35034">
        <ele>87.826107</ele>
        <time>2021-12-03T20:12:28.153Z</time>
      </trkpt>
      <trkpt lat="46.58159" lon="0.35097">
        <ele>84.884894</ele>
        <time>2021-12-03T20:12:35.455Z</time>
      </trkpt>
      <trkpt lat="46.58128" lon="0.35209">
        <ele>80.786851</ele>
        <time>2021-12-03T20:12:49.280Z</time>
      </trkpt>
      <trkpt lat="46.58123" lon="0.35228">
        <ele>80.292039</ele>
        <time>2021-12-03T20:12:51.664Z</time>
      </trkpt>
      <trkpt lat="46.58119" lon="0.35243">
        <ele>79.887535</ele>
        <time>2021-12-03T20:12:53.617Z</time>
      </trkpt>
      <trkpt lat="46.58109" lon="0.35284">
        <ele>78.813505</ele>
        <time>2021-12-03T20:12:58.904Z</time>
      </trkpt>
      <trkpt lat="46.58161" lon="0.35292">
        <ele>76.906661</ele>
        <time>2021-12-03T20:13:08.267Z</time>
      </trkpt>
      <trkpt lat="46.58178" lon="0.35282">
        <ele>76.242918</ele>
        <time>2021-12-03T20:13:11.760Z</time>
      </trkpt>
      <trkpt lat="46.58189" lon="0.35271">
        <ele>75.917726</ele>
        <time>2021-12-03T20:13:14.343Z</time>
      </trkpt>
      <trkpt lat="46.582" lon="0.35263">
        <ele>75.920992</ele>
        <time>2021-12-03T20:13:16.878Z</time>
      </trkpt>
      <trkpt lat="46.58211" lon="0.35259">
        <ele>75.923851</ele>
        <time>2021-12-03T20:13:19.095Z</time>
      </trkpt>
      <trkpt lat="46.58262" lon="0.35242">
        <ele>75.937753</ele>
        <time>2021-12-03T20:13:31.108Z</time>
      </trkpt>
      <trkpt lat="46.58273" lon="0.35238">
        <ele>75.940913</ele>
        <time>2021-12-03T20:13:34.311Z</time>
      </trkpt>
      <trkpt lat="46.5828" lon="0.35236">
        <ele>75.942769</ele>
        <time>2021-12-03T20:13:36.174Z</time>
      </trkpt>
      <trkpt lat="46.58349" lon="0.35212">
        <ele>75.961573</ele>
        <time>2021-12-03T20:13:55.648Z</time>
      </trkpt>
      <trkpt lat="46.58371" lon="0.35203">
        <ele>76.208317</ele>
        <time>2021-12-03T20:14:01.467Z</time>
      </trkpt>
      <trkpt lat="46.58404" lon="0.35188">
        <ele>76.889205</ele>
        <time>2021-12-03T20:14:10.620Z</time>
      </trkpt>
      <trkpt lat="46.58407" lon="0.35204">
        <ele>77.104393</ele>
        <time>2021-12-03T20:14:14.049Z</time>
      </trkpt>
      <trkpt lat="46.58415" lon="0.35242">
        <ele>77.650288</ele>
        <time>2021-12-03T20:14:23.985Z</time>
      </trkpt>
      <trkpt lat="46.58444" lon="0.35269">
        <ele>78.319393</ele>
        <time>2021-12-03T20:14:34.766Z</time>
      </trkpt>
      <trkpt lat="46.58443" lon="0.35272">
        <ele>78.363443</ele>
        <time>2021-12-03T20:14:35.486Z</time>
      </trkpt>
      <trkpt lat="46.58429" lon="0.35349">
        <ele>79.444794</ele>
        <time>2021-12-03T20:15:03.366Z</time>
      </trkpt>
      <trkpt lat="46.58419" lon="0.35403">
        <ele>81.587252</ele>
        <time>2021-12-03T20:15:24.161Z</time>
      </trkpt>
      <trkpt lat="46.58413" lon="0.35434">
        <ele>82.876347</ele>
        <time>2021-12-03T20:15:36.881Z</time>
      </trkpt>
      <trkpt lat="46.58442" lon="0.35433">
        <ele>84.573078</ele>
        <time>2021-12-03T20:15:50.462Z</time>
      </trkpt>
      <trkpt lat="46.58418" lon="0.3547">
        <ele>86.617915</ele>
        <time>2021-12-03T20:16:09.277Z</time>
      </trkpt>
      <trkpt lat="46.5843" lon="0.35537">
        <ele>89.432515</ele>
        <time>2021-12-03T20:16:43.019Z</time>
      </trkpt>
      <trkpt lat="46.5851" lon="0.35553">
        <ele>95.449118</ele>
        <time>2021-12-03T20:17:46.050Z</time>
      </trkpt>
      <trkpt lat="46.58541" lon="0.35571">
        <ele>97.995879</ele>
        <time>2021-12-03T20:18:09.692Z</time>
      </trkpt>
      <trkpt lat="46.58571" lon="0.3561">
        <ele>101.104395</ele>
        <time>2021-12-03T20:18:34.527Z</time>
      </trkpt>
      <trkpt lat="46.58597" lon="0.35631">
        <ele>103.412849</ele>
        <time>2021-12-03T20:18:52.797Z</time>
      </trkpt>
      <trkpt lat="46.58616" lon="0.35639">
        <ele>104.710491</ele>
        <time>2021-12-03T20:19:06.415Z</time>
      </trkpt>
      <trkpt lat="46.58633" lon="0.35532">
        <ele>109.086997</ele>
        <time>2021-12-03T20:19:56.105Z</time>
      </trkpt>
      <trkpt lat="46.58641" lon="0.3553">
        <ele>109.608692</ele>
        <time>2021-12-03T20:20:01.703Z</time>
      </trkpt>
      <trkpt lat="46.58684" lon="0.35521">
        <ele>112.076675</ele>
        <time>2021-12-03T20:20:25.019Z</time>
      </trkpt>
      <trkpt lat="46.58735" lon="0.35509">
        <ele>114.828919</ele>
        <time>2021-12-03T20:20:49.262Z</time>
      </trkpt>
      <trkpt lat="46.58776" lon="0.3551">
        <ele>116.387207</ele>
        <time>2021-12-03T20:21:10.180Z</time>
      </trkpt>
      <trkpt lat="46.58846" lon="0.35521">
        <ele>119.011808</ele>
        <time>2021-12-03T20:21:47.029Z</time>
      </trkpt>
      <trkpt lat="46.58877" lon="0.35527">
        <ele>120.183692</ele>
        <time>2021-12-03T20:22:00.365Z</time>
      </trkpt>
      <trkpt lat="46.58953" lon="0.35541">
        <ele>121.488303</ele>
        <time>2021-12-03T20:22:27.648Z</time>
      </trkpt>
      <trkpt lat="46.58977" lon="0.35546">
        <ele>121.6588</ele>
        <time>2021-12-03T20:22:34.743Z</time>
      </trkpt>
      <trkpt lat="46.5897" lon="0.35609">
        <ele>121.975911</ele>
        <time>2021-12-03T20:22:45.643Z</time>
      </trkpt>
      <trkpt lat="46.5897" lon="0.35619">
        <ele>122.02757</ele>
        <time>2021-12-03T20:22:47.156Z</time>
      </trkpt>
      <trkpt lat="46.58962" lon="0.35706">
        <ele>122.419144</ele>
        <time>2021-12-03T20:23:00.357Z</time>
      </trkpt>
      <trkpt lat="46.5896" lon="0.35721">
        <ele>122.421427</ele>
        <time>2021-12-03T20:23:02.455Z</time>
      </trkpt>
      <trkpt lat="46.58947" lon="0.35859">
        <ele>122.44297</ele>
        <time>2021-12-03T20:23:23.459Z</time>
      </trkpt>
      <trkpt lat="46.58944" lon="0.35897">
        <ele>122.448913</ele>
        <time>2021-12-03T20:23:29.916Z</time>
      </trkpt>
      <trkpt lat="46.58941" lon="0.3593">
        <ele>122.454089</ele>
        <time>2021-12-03T20:23:35.780Z</time>
      </trkpt>
      <trkpt lat="46.58937" lon="0.35965">
        <ele>122.544357</ele>
        <time>2021-12-03T20:23:42.515Z</time>
      </trkpt>
      <trkpt lat="46.58937" lon="0.3597">
        <ele>122.583662</ele>
        <time>2021-12-03T20:23:43.454Z</time>
      </trkpt>
      <trkpt lat="46.58935" lon="0.35986">
        <ele>122.71483</ele>
        <time>2021-12-03T20:23:46.536Z</time>
      </trkpt>
      <trkpt lat="46.58948" lon="0.35995">
        <ele>122.887623</ele>
        <time>2021-12-03T20:23:50.923Z</time>
      </trkpt>
      <trkpt lat="46.58953" lon="0.36">
        <ele>122.962456</ele>
        <time>2021-12-03T20:23:52.803Z</time>
      </trkpt>
      <trkpt lat="46.59001" lon="0.36041">
        <ele>123.628299</ele>
        <time>2021-12-03T20:24:09.966Z</time>
      </trkpt>
      <trkpt lat="46.59037" lon="0.36079">
        <ele>124.163128</ele>
        <time>2021-12-03T20:24:24.448Z</time>
      </trkpt>
      <trkpt lat="46.59051" lon="0.36096">
        <ele>124.381875</ele>
        <time>2021-12-03T20:24:30.332Z</time>
      </trkpt>
      <trkpt lat="46.59097" lon="0.36152">
        <ele>124.669772</ele>
        <time>2021-12-03T20:24:48.202Z</time>
      </trkpt>
      <trkpt lat="46.59158" lon="0.36209">
        <ele>124.758825</ele>
        <time>2021-12-03T20:25:06.858Z</time>
      </trkpt>
      <trkpt lat="46.59168" lon="0.36216">
        <ele>124.772621</ele>
        <time>2021-12-03T20:25:09.395Z</time>
      </trkpt>
      <trkpt lat="46.59257" lon="0.36274">
        <ele>124.025384</ele>
        <time>2021-12-03T20:25:29.451Z</time>
      </trkpt>
      <trkpt lat="46.59341" lon="0.36324">
        <ele>122.239602</ele>
        <time>2021-12-03T20:25:45.691Z</time>
      </trkpt>
      <trkpt lat="46.59343" lon="0.36335">
        <ele>122.079637</ele>
        <time>2021-12-03T20:25:47.182Z</time>
      </trkpt>
      <trkpt lat="46.59352" lon="0.36341">
        <ele>121.891578</ele>
        <time>2021-12-03T20:25:48.917Z</time>
      </trkpt>
      <trkpt lat="46.59362" lon="0.36327">
        <ele>121.624423</ele>
        <time>2021-12-03T20:25:51.357Z</time>
      </trkpt>
      <trkpt lat="46.59378" lon="0.36332">
        <ele>121.303007</ele>
        <time>2021-12-03T20:25:54.392Z</time>
      </trkpt>
      <trkpt lat="46.59415" lon="0.36343">
        <ele>120.673167</ele>
        <time>2021-12-03T20:26:01.422Z</time>
      </trkpt>
      <trkpt lat="46.59434" lon="0.36348">
        <ele>120.358501</ele>
        <time>2021-12-03T20:26:04.919Z</time>
      </trkpt>
      <trkpt lat="46.5947" lon="0.36354">
        <ele>119.763213</ele>
        <time>2021-12-03T20:26:11.671Z</time>
      </trkpt>
      <trkpt lat="46.59504" lon="0.36345">
        <ele>119.189646</ele>
        <time>2021-12-03T20:26:18.306Z</time>
      </trkpt>
      <trkpt lat="46.59533" lon="0.3635">
        <ele>118.707906</ele>
        <time>2021-12-03T20:26:23.958Z</time>
      </trkpt>
      <trkpt lat="46.59559" lon="0.36364">
        <ele>118.276876</ele>
        <time>2021-12-03T20:26:29.597Z</time>
      </trkpt>
      <trkpt lat="46.59583" lon="0.36388">
        <ele>118.02044</ele>
        <time>2021-12-03T20:26:35.751Z</time>
      </trkpt>
      <trkpt lat="46.59593" lon="0.36396">
        <ele>117.930065</ele>
        <time>2021-12-03T20:26:37.958Z</time>
      </trkpt>
      <trkpt lat="46.59598" lon="0.36397">
        <ele>117.88031</ele>
        <time>2021-12-03T20:26:39.168Z</time>
      </trkpt>
      <trkpt lat="46.59639" lon="0.36411">
        <ele>117.51287</ele>
        <time>2021-12-03T20:26:48.398Z</time>
      </trkpt>
      <trkpt lat="46.59709" lon="0.36437">
        <ele>116.890426</ele>
        <time>2021-12-03T20:27:02.920Z</time>
      </trkpt>
      <trkpt lat="46.59737" lon="0.36451">
        <ele>116.602397</ele>
        <time>2021-12-03T20:27:08.878Z</time>
      </trkpt>
      <trkpt lat="46.59805" lon="0.36489">
        <ele>115.849787</ele>
        <time>2021-12-03T20:27:23.438Z</time>
      </trkpt>
      <trkpt lat="46.59811" lon="0.36492">
        <ele>115.784688</ele>
        <time>2021-12-03T20:27:24.766Z</time>
      </trkpt>
      <trkpt lat="46.59814" lon="0.36515">
        <ele>115.620759</ele>
        <time>2021-12-03T20:27:27.874Z</time>
      </trkpt>
      <trkpt lat="46.59825" lon="0.36522">
        <ele>115.500988</ele>
        <time>2021-12-03T20:27:30.219Z</time>
      </trkpt>
      <trkpt lat="46.59836" lon="0.36515">
        <ele>115.377698</ele>
        <time>2021-12-03T20:27:32.730Z</time>
      </trkpt>
      <trkpt lat="46.59843" lon="0.36526">
        <ele>115.271185</ele>
        <time>2021-12-03T20:27:34.727Z</time>
      </trkpt>
      <trkpt lat="46.59856" lon="0.36527">
        <ele>115.140787</ele>
        <time>2021-12-03T20:27:39.152Z</time>
      </trkpt>
      <trkpt lat="46.59906" lon="0.36565">
        <ele>114.730908</ele>
        <time>2021-12-03T20:27:59.368Z</time>
      </trkpt>
      <trkpt lat="46.59984" lon="0.36626">
        <ele>114.292328</ele>
        <time>2021-12-03T20:28:31.706Z</time>
      </trkpt>
      <trkpt lat="46.60028" lon="0.3666">
        <ele>114.046798</ele>
        <time>2021-12-03T20:28:50.305Z</time>
      </trkpt>
      <trkpt lat="46.60067" lon="0.36682">
        <ele>113.975894</ele>
        <time>2021-12-03T20:29:06.174Z</time>
      </trkpt>
      <trkpt lat="46.60137" lon="0.36682">
        <ele>113.917401</ele>
        <time>2021-12-03T20:29:32.462Z</time>
      </trkpt>
      <trkpt lat="46.60201" lon="0.36701">
        <ele>113.862579</ele>
        <time>2021-12-03T20:29:57.130Z</time>
      </trkpt>
      <trkpt lat="46.60296" lon="0.36756">
        <ele>114.086534</ele>
        <time>2021-12-03T20:30:37.205Z</time>
      </trkpt>
      <trkpt lat="46.60389" lon="0.36802">
        <ele>114.306948</ele>
        <time>2021-12-03T20:31:17.112Z</time>
      </trkpt>
      <trkpt lat="46.60447" lon="0.3683">
        <ele>114.276506</ele>
        <time>2021-12-03T20:31:32.481Z</time>
      </trkpt>
      <trkpt lat="46.60575" lon="0.36926">
        <ele>113.876693</ele>
        <time>2021-12-03T20:32:04.321Z</time>
      </trkpt>
      <trkpt lat="46.60664" lon="0.36977">
        <ele>112.925347</ele>
        <time>2021-12-03T20:32:37.468Z</time>
      </trkpt>
      <trkpt lat="46.60715" lon="0.36997">
        <ele>112.392243</ele>
        <time>2021-12-03T20:32:55.622Z</time>
      </trkpt>
      <trkpt lat="46.60901" lon="0.37042">
        <ele>110.60944</ele>
        <time>2021-12-03T20:34:01.421Z</time>
      </trkpt>
      <trkpt lat="46.6106" lon="0.37073">
        <ele>110.366965</ele>
        <time>2021-12-03T20:35:03.556Z</time>
      </trkpt>
      <trkpt lat="46.61128" lon="0.37111">
        <ele>109.141042</ele>
        <time>2021-12-03T20:35:30.551Z</time>
      </trkpt>
      <trkpt lat="46.61184" lon="0.37137">
        <ele>108.050668</ele>
        <time>2021-12-03T20:35:50.959Z</time>
      </trkpt>
      <trkpt lat="46.61418" lon="0.37223">
        <ele>98.4507</ele>
        <time>2021-12-03T20:37:02.242Z</time>
      </trkpt>
      <trkpt lat="46.61426" lon="0.37203">
        <ele>97.374376</ele>
        <time>2021-12-03T20:37:06.697Z</time>
      </trkpt>
      <trkpt lat="46.61459" lon="0.37296">
        <ele>92.613196</ele>
        <time>2021-12-03T20:37:26.052Z</time>
      </trkpt>
      <trkpt lat="46.61484" lon="0.37329">
        <ele>90.373637</ele>
        <time>2021-12-03T20:37:35.289Z</time>
      </trkpt>
      <trkpt lat="46.61481" lon="0.37391">
        <ele>87.57069</ele>
        <time>2021-12-03T20:37:46.940Z</time>
      </trkpt>
      <trkpt lat="46.61491" lon="0.37429">
        <ele>86.294817</ele>
        <time>2021-12-03T20:37:54.432Z</time>
      </trkpt>
      <trkpt lat="46.61505" lon="0.37436">
        <ele>85.762679</ele>
        <time>2021-12-03T20:37:58.929Z</time>
      </trkpt>
      <trkpt lat="46.61508" lon="0.37434">
        <ele>85.65772</ele>
        <time>2021-12-03T20:37:59.798Z</time>
      </trkpt>
      <trkpt lat="46.61556" lon="0.37394">
        <ele>83.710373</ele>
        <time>2021-12-03T20:38:09.853Z</time>
      </trkpt>
      <trkpt lat="46.61566" lon="0.37387">
        <ele>83.32725</ele>
        <time>2021-12-03T20:38:13.497Z</time>
      </trkpt>
      <trkpt lat="46.6157" lon="0.3737">
        <ele>82.895865</ele>
        <time>2021-12-03T20:38:17.428Z</time>
      </trkpt>
      <trkpt lat="46.61574" lon="0.37356">
        <ele>82.541999</ele>
        <time>2021-12-03T20:38:20.527Z</time>
      </trkpt>
      <trkpt lat="46.61584" lon="0.37347">
        <ele>82.121494</ele>
        <time>2021-12-03T20:38:24.644Z</time>
      </trkpt>
      <trkpt lat="46.61626" lon="0.37328">
        <ele>80.614304</ele>
        <time>2021-12-03T20:38:38.952Z</time>
      </trkpt>
      <trkpt lat="46.61636" lon="0.37306">
        <ele>80.342328</ele>
        <time>2021-12-03T20:38:45.231Z</time>
      </trkpt>
      <trkpt lat="46.61771" lon="0.37269">
        <ele>78.331843</ele>
        <time>2021-12-03T20:39:31.636Z</time>
      </trkpt>
      <trkpt lat="46.61799" lon="0.37234">
        <ele>78.203297</ele>
        <time>2021-12-03T20:39:44.530Z</time>
      </trkpt>
      <trkpt lat="46.61816" lon="0.37271">
        <ele>78.638343</ele>
        <time>2021-12-03T20:39:55.758Z</time>
      </trkpt>
      <trkpt lat="46.61824" lon="0.37277">
        <ele>78.773603</ele>
        <time>2021-12-03T20:39:59.314Z</time>
      </trkpt>
      <trkpt lat="46.61885" lon="0.37268">
        <ele>79.660145</ele>
        <time>2021-12-03T20:40:27.077Z</time>
      </trkpt>
      <trkpt lat="46.61911" lon="0.37268">
        <ele>80.026209</ele>
        <time>2021-12-03T20:40:40.363Z</time>
      </trkpt>
      <trkpt lat="46.61929" lon="0.37276">
        <ele>80.307353</ele>
        <time>2021-12-03T20:40:50.916Z</time>
      </trkpt>
      <trkpt lat="46.62049" lon="0.37379">
        <ele>87.026846</ele>
        <time>2021-12-03T20:42:24.253Z</time>
      </trkpt>
      <trkpt lat="46.62121" lon="0.37472">
        <ele>92.909814</ele>
        <time>2021-12-03T20:43:40.164Z</time>
      </trkpt>
      <trkpt lat="46.6221" lon="0.37545">
        <ele>100.44253</ele>
        <time>2021-12-03T20:45:07.355Z</time>
      </trkpt>
      <trkpt lat="46.62261" lon="0.37575">
        <ele>104.292864</ele>
        <time>2021-12-03T20:45:52.844Z</time>
      </trkpt>
      <trkpt lat="46.62311" lon="0.37619">
        <ele>107.455692</ele>
        <time>2021-12-03T20:46:38.505Z</time>
      </trkpt>
      <trkpt lat="46.62483" lon="0.37714">
        <ele>115.480275</ele>
        <time>2021-12-03T20:48:38.080Z</time>
      </trkpt>
      <trkpt lat="46.62628" lon="0.37783">
        <ele>118.583128</ele>
        <time>2021-12-03T20:49:49.855Z</time>
      </trkpt>
      <trkpt lat="46.6284" lon="0.37864">
        <ele>119.335248</ele>
        <time>2021-12-03T20:51:15.864Z</time>
      </trkpt>
      <trkpt lat="46.62958" lon="0.37917">
        <ele>119.223381</ele>
        <time>2021-12-03T20:51:45.189Z</time>
      </trkpt>
      <trkpt lat="46.63177" lon="0.38032">
        <ele>117.879117</ele>
        <time>2021-12-03T20:52:38.779Z</time>
      </trkpt>
      <trkpt lat="46.63326" lon="0.38087">
        <ele>115.133228</ele>
        <time>2021-12-03T20:53:10.385Z</time>
      </trkpt>
      <trkpt lat="46.63749" lon="0.38252">
        <ele>100.628381</ele>
        <time>2021-12-03T20:55:24.819Z</time>
      </trkpt>
      <trkpt lat="46.63915" lon="0.38273">
        <ele>92.148155</ele>
        <time>2021-12-03T20:56:12.628Z</time>
      </trkpt>
      <trkpt lat="46.64078" lon="0.38339">
        <ele>82.946256</ele>
        <time>2021-12-03T20:56:59.583Z</time>
      </trkpt>
      <trkpt lat="46.64116" lon="0.38364">
        <ele>80.689175</ele>
        <time>2021-12-03T20:57:11.810Z</time>
      </trkpt>
      <trkpt lat="46.64245" lon="0.38431">
        <ele>76.959517</ele>
        <time>2021-12-03T20:57:37.329Z</time>
      </trkpt>
      <trkpt lat="46.64374" lon="0.38516">
        <ele>76.119864</ele>
        <time>2021-12-03T20:58:08.910Z</time>
      </trkpt>
      <trkpt lat="46.64404" lon="0.38547">
        <ele>76.435598</ele>
        <time>2021-12-03T20:58:19.683Z</time>
      </trkpt>
      <trkpt lat="46.64462" lon="0.38595">
        <ele>77.005506</ele>
        <time>2021-12-03T20:58:43.045Z</time>
      </trkpt>
      <trkpt lat="46.6449" lon="0.38609">
        <ele>78.344584</ele>
        <time>2021-12-03T20:58:56.049Z</time>
      </trkpt>
      <trkpt lat="46.64534" lon="0.38634">
        <ele>80.711498</ele>
        <time>2021-12-03T20:59:20.387Z</time>
      </trkpt>
      <trkpt lat="46.64567" lon="0.38661">
        <ele>82.586961</ele>
        <time>2021-12-03T20:59:42.967Z</time>
      </trkpt>
      <trkpt lat="46.6467" lon="0.38806">
        <ele>89.894443</ele>
        <time>2021-12-03T21:01:10.322Z</time>
      </trkpt>
      <trkpt lat="46.64745" lon="0.38967">
        <ele>96.157156</ele>
        <time>2021-12-03T21:02:20.714Z</time>
      </trkpt>
      <trkpt lat="46.64798" lon="0.3907">
        <ele>98.637121</ele>
        <time>2021-12-03T21:02:57.055Z</time>
      </trkpt>
      <trkpt lat="46.65075" lon="0.39591">
        <ele>106.709743</ele>
        <time>2021-12-03T21:06:34.592Z</time>
      </trkpt>
      <trkpt lat="46.65094" lon="0.39615">
        <ele>107.044515</ele>
        <time>2021-12-03T21:06:45.662Z</time>
      </trkpt>
      <trkpt lat="46.65097" lon="0.39628">
        <ele>107.175692</ele>
        <time>2021-12-03T21:06:48.820Z</time>
      </trkpt>
      <trkpt lat="46.65151" lon="0.39703">
        <ele>108.205282</ele>
        <time>2021-12-03T21:07:23.347Z</time>
      </trkpt>
      <trkpt lat="46.65194" lon="0.39749">
        <ele>108.89366</ele>
        <time>2021-12-03T21:07:48.076Z</time>
      </trkpt>
      <trkpt lat="46.65479" lon="0.40034">
        <ele>111.229352</ele>
        <time>2021-12-03T21:10:18.858Z</time>
      </trkpt>
      <trkpt lat="46.65697" lon="0.40244">
        <ele>103.994394</ele>
        <time>2021-12-03T21:11:39.554Z</time>
      </trkpt>
      <trkpt lat="46.6588" lon="0.40431">
        <ele>98.52941</ele>
        <time>2021-12-03T21:12:50.859Z</time>
      </trkpt>
      <trkpt lat="46.65999" lon="0.40518">
        <ele>96.765703</ele>
        <time>2021-12-03T21:13:37.170Z</time>
      </trkpt>
      <trkpt lat="46.66019" lon="0.40533">
        <ele>96.589141</ele>
        <time>2021-12-03T21:13:45.582Z</time>
      </trkpt>
      <trkpt lat="46.66192" lon="0.40688">
        <ele>95.148477</ele>
        <time>2021-12-03T21:14:59.595Z</time>
      </trkpt>
      <trkpt lat="46.6627" lon="0.40761">
        <ele>94.624592</ele>
        <time>2021-12-03T21:15:32.370Z</time>
      </trkpt>
      <trkpt lat="46.66362" lon="0.40889">
        <ele>94.125198</ele>
        <time>2021-12-03T21:16:18.444Z</time>
      </trkpt>
      <trkpt lat="46.66437" lon="0.40972">
        <ele>94.95376</ele>
        <time>2021-12-03T21:16:59.242Z</time>
      </trkpt>
      <trkpt lat="46.66513" lon="0.41051">
        <ele>96.044871</ele>
        <time>2021-12-03T21:17:43.511Z</time>
      </trkpt>
      <trkpt lat="46.66516" lon="0.41043">
        <ele>96.120599</ele>
        <time>2021-12-03T21:17:45.591Z</time>
      </trkpt>
      <trkpt lat="46.66667" lon="0.41184">
        <ele>98.95334</ele>
        <time>2021-12-03T21:19:11.004Z</time>
      </trkpt>
      <trkpt lat="46.66831" lon="0.41338">
        <ele>101.967049</ele>
        <time>2021-12-03T21:20:42.706Z</time>
      </trkpt>
      <trkpt lat="46.66987" lon="0.41479">
        <ele>105.439016</ele>
        <time>2021-12-03T21:22:15.551Z</time>
      </trkpt>
      <trkpt lat="46.67112" lon="0.41604">
        <ele>107.725681</ele>
        <time>2021-12-03T21:23:04.851Z</time>
      </trkpt>
      <trkpt lat="46.67287" lon="0.41771">
        <ele>109.013826</ele>
        <time>2021-12-03T21:24:31.919Z</time>
      </trkpt>
      <trkpt lat="46.67356" lon="0.41841">
        <ele>108.705629</ele>
        <time>2021-12-03T21:25:03.217Z</time>
      </trkpt>
      <trkpt lat="46.67526" lon="0.42074">
        <ele>107.028805</ele>
        <time>2021-12-03T21:26:26.330Z</time>
      </trkpt>
      <trkpt lat="46.67884" lon="0.42462">
        <ele>101.554838</ele>
        <time>2021-12-03T21:29:01.933Z</time>
      </trkpt>
      <trkpt lat="46.68014" lon="0.42604">
        <ele>97.498994</ele>
        <time>2021-12-03T21:29:52.996Z</time>
      </trkpt>
      <trkpt lat="46.68156" lon="0.42761">
        <ele>92.972733</ele>
        <time>2021-12-03T21:30:47.334Z</time>
      </trkpt>
      <trkpt lat="46.68489" lon="0.43114">
        <ele>92.962735</ele>
        <time>2021-12-03T21:33:29.557Z</time>
      </trkpt>
      <trkpt lat="46.68583" lon="0.43233">
        <ele>94.710988</ele>
        <time>2021-12-03T21:34:29.293Z</time>
      </trkpt>
      <trkpt lat="46.68666" lon="0.43312">
        <ele>97.192131</ele>
        <time>2021-12-03T21:35:22.685Z</time>
      </trkpt>
      <trkpt lat="46.68914" lon="0.4354">
        <ele>104.433354</ele>
        <time>2021-12-03T21:38:09.265Z</time>
      </trkpt>
      <trkpt lat="46.69094" lon="0.43722">
        <ele>103.768364</ele>
        <time>2021-12-03T21:39:29.138Z</time>
      </trkpt>
      <trkpt lat="46.69233" lon="0.43883">
        <ele>99.46595</ele>
        <time>2021-12-03T21:40:24.304Z</time>
      </trkpt>
      <trkpt lat="46.69332" lon="0.43984">
        <ele>96.078336</ele>
        <time>2021-12-03T21:41:02.150Z</time>
      </trkpt>
      <trkpt lat="46.69407" lon="0.44086">
        <ele>93.558649</ele>
        <time>2021-12-03T21:41:35.447Z</time>
      </trkpt>
      <trkpt lat="46.69497" lon="0.44146">
        <ele>91.50271</ele>
        <time>2021-12-03T21:42:07.787Z</time>
      </trkpt>
      <trkpt lat="46.69655" lon="0.44285">
        <ele>88.42797</ele>
        <time>2021-12-03T21:43:09.132Z</time>
      </trkpt>
      <trkpt lat="46.69838" lon="0.44427">
        <ele>86.223486</ele>
        <time>2021-12-03T21:43:54.121Z</time>
      </trkpt>
      <trkpt lat="46.69954" lon="0.44558">
        <ele>85.015719</ele>
        <time>2021-12-03T21:44:26.248Z</time>
      </trkpt>
      <trkpt lat="46.69884" lon="0.44797">
        <ele>83.805178</ele>
        <time>2021-12-03T21:45:03.225Z</time>
      </trkpt>
      <trkpt lat="46.69821" lon="0.45065">
        <ele>82.848792</ele>
        <time>2021-12-03T21:45:45.966Z</time>
      </trkpt>
      <trkpt lat="46.69814" lon="0.45125">
        <ele>82.642589</ele>
        <time>2021-12-03T21:45:54.930Z</time>
      </trkpt>
      <trkpt lat="46.69812" lon="0.45202">
        <ele>82.381441</ele>
        <time>2021-12-03T21:46:05.979Z</time>
      </trkpt>
      <trkpt lat="46.69807" lon="0.45684">
        <ele>80.003764</ele>
        <time>2021-12-03T21:47:14.842Z</time>
      </trkpt>
      <trkpt lat="46.69814" lon="0.45733">
        <ele>79.771911</ele>
        <time>2021-12-03T21:47:22.211Z</time>
      </trkpt>
      <trkpt lat="46.69843" lon="0.45853">
        <ele>79.574464</ele>
        <time>2021-12-03T21:47:41.290Z</time>
      </trkpt>
      <trkpt lat="46.69901" lon="0.45851">
        <ele>79.443319</ele>
        <time>2021-12-03T21:48:03.156Z</time>
      </trkpt>
      <trkpt lat="46.69968" lon="0.45861">
        <ele>79.46516</ele>
        <time>2021-12-03T21:48:28.720Z</time>
      </trkpt>
      <trkpt lat="46.70006" lon="0.45872">
        <ele>79.57483</ele>
        <time>2021-12-03T21:48:43.686Z</time>
      </trkpt>
      <trkpt lat="46.7013" lon="0.45935">
        <ele>79.916802</ele>
        <time>2021-12-03T21:49:37.084Z</time>
      </trkpt>
      <trkpt lat="46.70186" lon="0.45947">
        <ele>80.012727</ele>
        <time>2021-12-03T21:50:00.157Z</time>
      </trkpt>
      <trkpt lat="46.70259" lon="0.45952">
        <ele>80.13519</ele>
        <time>2021-12-03T21:50:28.571Z</time>
      </trkpt>
      <trkpt lat="46.70327" lon="0.45948">
        <ele>79.877669</ele>
        <time>2021-12-03T21:50:53.994Z</time>
      </trkpt>
      <trkpt lat="46.70472" lon="0.45903">
        <ele>78.803913</ele>
        <time>2021-12-03T21:51:46.163Z</time>
      </trkpt>
      <trkpt lat="46.70651" lon="0.45871">
        <ele>77.478619</ele>
        <time>2021-12-03T21:52:49.550Z</time>
      </trkpt>
      <trkpt lat="46.70544" lon="0.46045">
        <ele>78.308732</ele>
        <time>2021-12-03T21:53:58.611Z</time>
      </trkpt>
      <trkpt lat="46.70846" lon="0.46428">
        <ele>80.688367</ele>
        <time>2021-12-03T21:56:49.584Z</time>
      </trkpt>
      <trkpt lat="46.70951" lon="0.46594">
        <ele>79.646058</ele>
        <time>2021-12-03T21:57:44.003Z</time>
      </trkpt>
      <trkpt lat="46.70958" lon="0.4659">
        <ele>79.551282</ele>
        <time>2021-12-03T21:57:45.529Z</time>
      </trkpt>
      <trkpt lat="46.70963" lon="0.466">
        <ele>79.450539</ele>
        <time>2021-12-03T21:57:48.213Z</time>
      </trkpt>
      <trkpt lat="46.71231" lon="0.46849">
        <ele>75.653825</ele>
        <time>2021-12-03T21:59:37.578Z</time>
      </trkpt>
      <trkpt lat="46.71598" lon="0.47184">
        <ele>72.544958</ele>
        <time>2021-12-03T22:02:12.988Z</time>
      </trkpt>
      <trkpt lat="46.71596" lon="0.47258">
        <ele>72.386909</ele>
        <time>2021-12-03T22:02:24.535Z</time>
      </trkpt>
      <trkpt lat="46.71607" lon="0.47348">
        <ele>72.1891</ele>
        <time>2021-12-03T22:02:39.674Z</time>
      </trkpt>
      <trkpt lat="46.71597" lon="0.47385">
        <ele>72.454045</ele>
        <time>2021-12-03T22:02:46.290Z</time>
      </trkpt>
      <trkpt lat="46.71556" lon="0.47458">
        <ele>73.707643</ele>
        <time>2021-12-03T22:03:03.700Z</time>
      </trkpt>
      <trkpt lat="46.71581" lon="0.4752">
        <ele>74.651799</ele>
        <time>2021-12-03T22:03:20.591Z</time>
      </trkpt>
      <trkpt lat="46.71599" lon="0.47625">
        <ele>77.427753</ele>
        <time>2021-12-03T22:03:54.881Z</time>
      </trkpt>
      <trkpt lat="46.71738" lon="0.47654">
        <ele>87.717069</ele>
        <time>2021-12-03T22:05:56.499Z</time>
      </trkpt>
      <trkpt lat="46.71814" lon="0.47647">
        <ele>93.389346</ele>
        <time>2021-12-03T22:07:09.770Z</time>
      </trkpt>
      <trkpt lat="46.71869" lon="0.47649">
        <ele>97.429546</ele>
        <time>2021-12-03T22:07:56.062Z</time>
      </trkpt>
      <trkpt lat="46.7192" lon="0.47663">
        <ele>101.252525</ele>
        <time>2021-12-03T22:08:36.471Z</time>
      </trkpt>
      <trkpt lat="46.7194" lon="0.47679">
        <ele>102.428828</ele>
        <time>2021-12-03T22:08:51.730Z</time>
      </trkpt>
      <trkpt lat="46.71959" lon="0.47723">
        <ele>103.312391</ele>
        <time>2021-12-03T22:09:12.605Z</time>
      </trkpt>
      <trkpt lat="46.71984" lon="0.47752">
        <ele>104.089375</ele>
        <time>2021-12-03T22:09:29.125Z</time>
      </trkpt>
      <trkpt lat="46.72125" lon="0.47892">
        <ele>106.984747</ele>
        <time>2021-12-03T22:10:47.743Z</time>
      </trkpt>
      <trkpt lat="46.72197" lon="0.47941">
        <ele>107.428957</ele>
        <time>2021-12-03T22:11:21.168Z</time>
      </trkpt>
      <trkpt lat="46.72287" lon="0.48056">
        <ele>105.958341</ele>
        <time>2021-12-03T22:12:03.697Z</time>
      </trkpt>
      <trkpt lat="46.7234" lon="0.48139">
        <ele>104.515233</ele>
        <time>2021-12-03T22:12:28.564Z</time>
      </trkpt>
      <trkpt lat="46.72436" lon="0.48325">
        <ele>98.897448</ele>
        <time>2021-12-03T22:13:16.470Z</time>
      </trkpt>
      <trkpt lat="46.72463" lon="0.48455">
        <ele>96.072034</ele>
        <time>2021-12-03T22:13:44.740Z</time>
      </trkpt>
      <trkpt lat="46.72554" lon="0.48382">
        <ele>93.305985</ele>
        <time>2021-12-03T22:14:17.783Z</time>
      </trkpt>
      <trkpt lat="46.72719" lon="0.48236">
        <ele>90.526923</ele>
        <time>2021-12-03T22:15:24.073Z</time>
      </trkpt>
      <trkpt lat="46.72878" lon="0.47927">
        <ele>89.29035</ele>
        <time>2021-12-03T22:17:01.185Z</time>
      </trkpt>
      <trkpt lat="46.72919" lon="0.47961">
        <ele>89.1491</ele>
        <time>2021-12-03T22:17:12.360Z</time>
      </trkpt>
      <trkpt lat="46.73051" lon="0.48092">
        <ele>87.386139</ele>
        <time>2021-12-03T22:17:49.516Z</time>
      </trkpt>
      <trkpt lat="46.7312" lon="0.48167">
        <ele>85.687281</ele>
        <time>2021-12-03T22:18:05.747Z</time>
      </trkpt>
      <trkpt lat="46.73271" lon="0.48491">
        <ele>75.387539</ele>
        <time>2021-12-03T22:18:51.771Z</time>
      </trkpt>
      <trkpt lat="46.73342" lon="0.48647">
        <ele>72.957114</ele>
        <time>2021-12-03T22:19:21.174Z</time>
      </trkpt>
      <trkpt lat="46.73349" lon="0.48657">
        <ele>72.918391</ele>
        <time>2021-12-03T22:19:24.032Z</time>
      </trkpt>
      <trkpt lat="46.73365" lon="0.48664">
        <ele>72.849139</ele>
        <time>2021-12-03T22:19:29.076Z</time>
      </trkpt>
      <trkpt lat="46.73404" lon="0.4866">
        <ele>72.687433</ele>
        <time>2021-12-03T22:19:44.638Z</time>
      </trkpt>
      <trkpt lat="46.73468" lon="0.48537">
        <ele>72.078841</ele>
        <time>2021-12-03T22:20:21.454Z</time>
      </trkpt>
      <trkpt lat="46.73486" lon="0.48467">
        <ele>71.662424</ele>
        <time>2021-12-03T22:20:38.486Z</time>
      </trkpt>
      <trkpt lat="46.73511" lon="0.48424">
        <ele>71.34815</ele>
        <time>2021-12-03T22:20:52.149Z</time>
      </trkpt>
      <trkpt lat="46.73573" lon="0.48445">
        <ele>70.918908</ele>
        <time>2021-12-03T22:21:16.371Z</time>
      </trkpt>
      <trkpt lat="46.73622" lon="0.48471">
        <ele>70.80402</ele>
        <time>2021-12-03T22:21:38.022Z</time>
      </trkpt>
      <trkpt lat="46.73775" lon="0.48588">
        <ele>69.869128</ele>
        <time>2021-12-03T22:22:41.140Z</time>
      </trkpt>
      <trkpt lat="46.73881" lon="0.48685">
        <ele>68.455984</ele>
        <time>2021-12-03T22:23:23.727Z</time>
      </trkpt>
      <trkpt lat="46.73875" lon="0.48712">
        <ele>68.228646</ele>
        <time>2021-12-03T22:23:28.181Z</time>
      </trkpt>
      <trkpt lat="46.73853" lon="0.48767">
        <ele>67.732491</ele>
        <time>2021-12-03T22:23:36.812Z</time>
      </trkpt>
      <trkpt lat="46.73892" lon="0.48818">
        <ele>67.142318</ele>
        <time>2021-12-03T22:23:54.735Z</time>
      </trkpt>
      <trkpt lat="46.73915" lon="0.48836">
        <ele>66.846582</ele>
        <time>2021-12-03T22:24:04.360Z</time>
      </trkpt>
      <trkpt lat="46.73982" lon="0.48908">
        <ele>66.034618</ele>
        <time>2021-12-03T22:24:34.597Z</time>
      </trkpt>
      <trkpt lat="46.74036" lon="0.48951">
        <ele>65.496976</ele>
        <time>2021-12-03T22:24:55.757Z</time>
      </trkpt>
      <trkpt lat="46.7408" lon="0.49001">
        <ele>65.015471</ele>
        <time>2021-12-03T22:25:15.501Z</time>
      </trkpt>
      <trkpt lat="46.74101" lon="0.49036">
        <ele>64.827532</ele>
        <time>2021-12-03T22:25:27.033Z</time>
      </trkpt>
      <trkpt lat="46.74213" lon="0.4927">
        <ele>63.962481</ele>
        <time>2021-12-03T22:26:39.082Z</time>
      </trkpt>
      <trkpt lat="46.74347" lon="0.49401">
        <ele>63.39023</ele>
        <time>2021-12-03T22:27:15.797Z</time>
      </trkpt>
      <trkpt lat="46.74423" lon="0.49488">
        <ele>63.608958</ele>
        <time>2021-12-03T22:27:38.968Z</time>
      </trkpt>
      <trkpt lat="46.74458" lon="0.49917">
        <ele>66.14983</ele>
        <time>2021-12-03T22:29:48.913Z</time>
      </trkpt>
      <trkpt lat="46.74471" lon="0.49937">
        <ele>66.382547</ele>
        <time>2021-12-03T22:29:57.369Z</time>
      </trkpt>
      <trkpt lat="46.74528" lon="0.49995">
        <ele>67.259325</ele>
        <time>2021-12-03T22:30:29.868Z</time>
      </trkpt>
      <trkpt lat="46.74601" lon="0.50059">
        <ele>68.336049</ele>
        <time>2021-12-03T22:31:09.587Z</time>
      </trkpt>
      <trkpt lat="46.7462" lon="0.50067">
        <ele>68.578314</ele>
        <time>2021-12-03T22:31:18.501Z</time>
      </trkpt>
      <trkpt lat="46.74865" lon="0.50302">
        <ele>71.960222</ele>
        <time>2021-12-03T22:33:30.848Z</time>
      </trkpt>
      <trkpt lat="46.74902" lon="0.50318">
        <ele>72.235159</ele>
        <time>2021-12-03T22:33:46.947Z</time>
      </trkpt>
      <trkpt lat="46.75074" lon="0.5043">
        <ele>73.565159</ele>
        <time>2021-12-03T22:35:05.928Z</time>
      </trkpt>
      <trkpt lat="46.75192" lon="0.50518">
        <ele>74.573667</ele>
        <time>2021-12-03T22:36:03.123Z</time>
      </trkpt>
      <trkpt lat="46.75212" lon="0.50531">
        <ele>74.688714</ele>
        <time>2021-12-03T22:36:12.377Z</time>
      </trkpt>
      <trkpt lat="46.75267" lon="0.50597">
        <ele>75.038096</ele>
        <time>2021-12-03T22:36:41.974Z</time>
      </trkpt>
      <trkpt lat="46.75335" lon="0.50657">
        <ele>75.431925</ele>
        <time>2021-12-03T22:37:14.284Z</time>
      </trkpt>
      <trkpt lat="46.75429" lon="0.50755">
        <ele>75.627677</ele>
        <time>2021-12-03T22:37:59.455Z</time>
      </trkpt>
      <trkpt lat="46.75631" lon="0.50924">
        <ele>75.666858</ele>
        <time>2021-12-03T22:39:28.726Z</time>
      </trkpt>
      <trkpt lat="46.75921" lon="0.51155">
        <ele>73.717664</ele>
        <time>2021-12-03T22:41:30.321Z</time>
      </trkpt>
      <trkpt lat="46.75962" lon="0.512">
        <ele>73.199484</ele>
        <time>2021-12-03T22:41:47.211Z</time>
      </trkpt>
      <trkpt lat="46.76006" lon="0.51232">
        <ele>71.303948</ele>
        <time>2021-12-03T22:42:02.928Z</time>
      </trkpt>
      <trkpt lat="46.76134" lon="0.51298">
        <ele>66.096267</ele>
        <time>2021-12-03T22:42:43.037Z</time>
      </trkpt>
      <trkpt lat="46.76191" lon="0.51298">
        <ele>63.76046</ele>
        <time>2021-12-03T22:42:59.344Z</time>
      </trkpt>
      <trkpt lat="46.76242" lon="0.51321">
        <ele>61.585105</ele>
        <time>2021-12-03T22:43:08.536Z</time>
      </trkpt>
      <trkpt lat="46.7628" lon="0.51377">
        <ele>59.334445</ele>
        <time>2021-12-03T22:43:18.305Z</time>
      </trkpt>
      <trkpt lat="46.76335" lon="0.51491">
        <ele>57.497643</ele>
        <time>2021-12-03T22:43:36.610Z</time>
      </trkpt>
      <trkpt lat="46.76443" lon="0.51773">
        <ele>55.197509</ele>
        <time>2021-12-03T22:44:25.431Z</time>
      </trkpt>
      <trkpt lat="46.76516" lon="0.51929">
        <ele>54.86655</ele>
        <time>2021-12-03T22:44:56.155Z</time>
      </trkpt>
      <trkpt lat="46.76553" lon="0.52009">
        <ele>54.839316</ele>
        <time>2021-12-03T22:45:12.487Z</time>
      </trkpt>
      <trkpt lat="46.7659" lon="0.52082">
        <ele>54.794965</ele>
        <time>2021-12-03T22:45:28.303Z</time>
      </trkpt>
      <trkpt lat="46.76683" lon="0.52215">
        <ele>54.645984</ele>
        <time>2021-12-03T22:45:59.222Z</time>
      </trkpt>
      <trkpt lat="46.767" lon="0.52247">
        <ele>54.607111</ele>
        <time>2021-12-03T22:46:05.590Z</time>
      </trkpt>
      <trkpt lat="46.76768" lon="0.52319">
        <ele>54.248108</ele>
        <time>2021-12-03T22:46:24.965Z</time>
      </trkpt>
      <trkpt lat="46.76812" lon="0.524">
        <ele>53.948041</ele>
        <time>2021-12-03T22:46:40.833Z</time>
      </trkpt>
      <trkpt lat="46.76872" lon="0.52549">
        <ele>53.69657</ele>
        <time>2021-12-03T22:47:08.179Z</time>
      </trkpt>
      <trkpt lat="46.76899" lon="0.52625">
        <ele>53.600091</ele>
        <time>2021-12-03T22:47:22.437Z</time>
      </trkpt>
      <trkpt lat="46.76974" lon="0.52876">
        <ele>53.870715</ele>
        <time>2021-12-03T22:48:10.039Z</time>
      </trkpt>
      <trkpt lat="46.77" lon="0.52949">
        <ele>54.061824</ele>
        <time>2021-12-03T22:48:24.246Z</time>
      </trkpt>
      <trkpt lat="46.77028" lon="0.53018">
        <ele>54.284147</ele>
        <time>2021-12-03T22:48:38.173Z</time>
      </trkpt>
      <trkpt lat="46.77061" lon="0.53091">
        <ele>54.527225</ele>
        <time>2021-12-03T22:48:53.255Z</time>
      </trkpt>
      <trkpt lat="46.77184" lon="0.53273">
        <ele>55.149632</ele>
        <time>2021-12-03T22:49:38.292Z</time>
      </trkpt>
      <trkpt lat="46.77158" lon="0.53349">
        <ele>55.242896</ele>
        <time>2021-12-03T22:49:52.471Z</time>
      </trkpt>
      <trkpt lat="46.77167" lon="0.53356">
        <ele>55.238435</ele>
        <time>2021-12-03T22:49:54.874Z</time>
      </trkpt>
      <trkpt lat="46.77206" lon="0.53389">
        <ele>55.218586</ele>
        <time>2021-12-03T22:50:05.421Z</time>
      </trkpt>
      <trkpt lat="46.77207" lon="0.53405">
        <ele>55.213653</ele>
        <time>2021-12-03T22:50:08.115Z</time>
      </trkpt>
      <trkpt lat="46.77241" lon="0.53484">
        <ele>55.185468</ele>
        <time>2021-12-03T22:50:24.120Z</time>
      </trkpt>
      <trkpt lat="46.77302" lon="0.53687">
        <ele>54.620706</ele>
        <time>2021-12-03T22:50:58.189Z</time>
      </trkpt>
      <trkpt lat="46.77306" lon="0.53688">
        <ele>54.604005</ele>
        <time>2021-12-03T22:50:59.077Z</time>
      </trkpt>
      <trkpt lat="46.7732" lon="0.53737">
        <ele>54.448236</ele>
        <time>2021-12-03T22:51:07.483Z</time>
      </trkpt>
      <trkpt lat="46.77323" lon="0.53776">
        <ele>54.459443</ele>
        <time>2021-12-03T22:51:13.933Z</time>
      </trkpt>
      <trkpt lat="46.7733" lon="0.53791">
        <ele>54.493994</ele>
        <time>2021-12-03T22:51:17.007Z</time>
      </trkpt>
      <trkpt lat="46.77334" lon="0.53794">
        <ele>54.505496</ele>
        <time>2021-12-03T22:51:18.124Z</time>
      </trkpt>
      <trkpt lat="46.77325" lon="0.53822">
        <ele>54.561861</ele>
        <time>2021-12-03T22:51:23.208Z</time>
      </trkpt>
      <trkpt lat="46.77305" lon="0.53885">
        <ele>54.692158</ele>
        <time>2021-12-03T22:51:34.987Z</time>
      </trkpt>
      <trkpt lat="46.77304" lon="0.53888">
        <ele>54.696832</ele>
        <time>2021-12-03T22:51:35.468Z</time>
      </trkpt>
      <trkpt lat="46.77254" lon="0.54044">
        <ele>55.090366</ele>
        <time>2021-12-03T22:52:06.103Z</time>
      </trkpt>
      <trkpt lat="46.77235" lon="0.54107">
        <ele>55.298018</ele>
        <time>2021-12-03T22:52:19.589Z</time>
      </trkpt>
      <trkpt lat="46.77228" lon="0.54168">
        <ele>55.482927</ele>
        <time>2021-12-03T22:52:30.956Z</time>
      </trkpt>
      <trkpt lat="46.77236" lon="0.54207">
        <ele>55.606467</ele>
        <time>2021-12-03T22:52:37.728Z</time>
      </trkpt>
      <trkpt lat="46.77252" lon="0.54244">
        <ele>55.67122</ele>
        <time>2021-12-03T22:52:44.433Z</time>
      </trkpt>
      <trkpt lat="46.7728" lon="0.54274">
        <ele>55.623466</ele>
        <time>2021-12-03T22:52:52.052Z</time>
      </trkpt>
      <trkpt lat="46.77292" lon="0.54302">
        <ele>55.592659</ele>
        <time>2021-12-03T22:52:57.079Z</time>
      </trkpt>
      <trkpt lat="46.77297" lon="0.54319">
        <ele>55.575545</ele>
        <time>2021-12-03T22:52:59.803Z</time>
      </trkpt>
      <trkpt lat="46.77307" lon="0.54317">
        <ele>55.562194</ele>
        <time>2021-12-03T22:53:01.981Z</time>
      </trkpt>
      <trkpt lat="46.77308" lon="0.54316">
        <ele>55.559885</ele>
        <time>2021-12-03T22:53:02.359Z</time>
      </trkpt>
      <trkpt lat="46.7731" lon="0.54312">
        <ele>55.55551</ele>
        <time>2021-12-03T22:53:03.121Z</time>
      </trkpt>
      <trkpt lat="46.77323" lon="0.54307">
        <ele>55.537526</ele>
        <time>2021-12-03T22:53:06.086Z</time>
      </trkpt>
      <trkpt lat="46.77338" lon="0.54303">
        <ele>55.517509</ele>
        <time>2021-12-03T22:53:09.343Z</time>
      </trkpt>
      <trkpt lat="46.77429" lon="0.54332">
        <ele>55.702498</ele>
        <time>2021-12-03T22:53:30.518Z</time>
      </trkpt>
      <trkpt lat="46.77512" lon="0.54338">
        <ele>56.282899</ele>
        <time>2021-12-03T22:53:52.058Z</time>
      </trkpt>
      <trkpt lat="46.77531" lon="0.5436">
        <ele>56.449501</ele>
        <time>2021-12-03T22:53:58.614Z</time>
      </trkpt>
      <trkpt lat="46.77592" lon="0.54579">
        <ele>59.300086</ele>
        <time>2021-12-03T22:54:55.175Z</time>
      </trkpt>
      <trkpt lat="46.77628" lon="0.5469">
        <ele>60.826082</ele>
        <time>2021-12-03T22:55:26.818Z</time>
      </trkpt>
      <trkpt lat="46.77659" lon="0.54801">
        <ele>62.029745</ele>
        <time>2021-12-03T22:55:54.696Z</time>
      </trkpt>
      <trkpt lat="46.77679" lon="0.54883">
        <ele>62.9108</ele>
        <time>2021-12-03T22:56:11.315Z</time>
      </trkpt>
      <trkpt lat="46.7768" lon="0.54912">
        <ele>63.043216</ele>
        <time>2021-12-03T22:56:15.861Z</time>
      </trkpt>
      <trkpt lat="46.77679" lon="0.54914">
        <ele>63.048718</ele>
        <time>2021-12-03T22:56:16.249Z</time>
      </trkpt>
      <trkpt lat="46.77682" lon="0.54938">
        <ele>63.103932</ele>
        <time>2021-12-03T22:56:20.161Z</time>
      </trkpt>
      <trkpt lat="46.77688" lon="0.54943">
        <ele>63.126526</ele>
        <time>2021-12-03T22:56:21.768Z</time>
      </trkpt>
      <trkpt lat="46.77703" lon="0.54969">
        <ele>63.204823</ele>
        <time>2021-12-03T22:56:27.240Z</time>
      </trkpt>
      <trkpt lat="46.77726" lon="0.5504">
        <ele>63.382066</ele>
        <time>2021-12-03T22:56:39.552Z</time>
      </trkpt>
      <trkpt lat="46.77926" lon="0.55765">
        <ele>65.900327</ele>
        <time>2021-12-03T22:59:01.883Z</time>
      </trkpt>
      <trkpt lat="46.77971" lon="0.55878">
        <ele>65.809928</ele>
        <time>2021-12-03T22:59:21.388Z</time>
      </trkpt>
      <trkpt lat="46.78021" lon="0.5609">
        <ele>64.410905</ele>
        <time>2021-12-03T22:59:52.351Z</time>
      </trkpt>
      <trkpt lat="46.78022" lon="0.56096">
        <ele>64.372297</ele>
        <time>2021-12-03T22:59:53.195Z</time>
      </trkpt>
      <trkpt lat="46.78001" lon="0.56186">
        <ele>63.69103</ele>
        <time>2021-12-03T23:00:06.389Z</time>
      </trkpt>
      <trkpt lat="46.77992" lon="0.56214">
        <ele>63.469296</ele>
        <time>2021-12-03T23:00:10.753Z</time>
      </trkpt>
      <trkpt lat="46.77888" lon="0.56501">
        <ele>60.847496</ele>
        <time>2021-12-03T23:00:55.339Z</time>
      </trkpt>
      <trkpt lat="46.78013" lon="0.56641">
        <ele>58.987261</ele>
        <time>2021-12-03T23:01:25.269Z</time>
      </trkpt>
      <trkpt lat="46.78217" lon="0.5678">
        <ele>57.962789</ele>
        <time>2021-12-03T23:02:14.213Z</time>
      </trkpt>
      <trkpt lat="46.78234" lon="0.56776">
        <ele>57.941865</ele>
        <time>2021-12-03T23:02:18.894Z</time>
      </trkpt>
      <trkpt lat="46.78265" lon="0.56751">
        <ele>58.098776</ele>
        <time>2021-12-03T23:02:28.559Z</time>
      </trkpt>
      <trkpt lat="46.78277" lon="0.56753">
        <ele>58.193339</ele>
        <time>2021-12-03T23:02:31.966Z</time>
      </trkpt>
      <trkpt lat="46.78297" lon="0.56778">
        <ele>58.386486</ele>
        <time>2021-12-03T23:02:39.218Z</time>
      </trkpt>
      <trkpt lat="46.78321" lon="0.56825">
        <ele>58.692847</ele>
        <time>2021-12-03T23:02:50.524Z</time>
      </trkpt>
      <trkpt lat="46.78367" lon="0.5694">
        <ele>59.372176</ele>
        <time>2021-12-03T23:03:16.149Z</time>
      </trkpt>
      <trkpt lat="46.78388" lon="0.56944">
        <ele>59.516068</ele>
        <time>2021-12-03T23:03:22.332Z</time>
      </trkpt>
      <trkpt lat="46.78422" lon="0.56925">
        <ele>59.763918</ele>
        <time>2021-12-03T23:03:32.637Z</time>
      </trkpt>
      <trkpt lat="46.78474" lon="0.56868">
        <ele>60.200658</ele>
        <time>2021-12-03T23:03:49.837Z</time>
      </trkpt>
      <trkpt lat="46.78499" lon="0.56875">
        <ele>60.372346</ele>
        <time>2021-12-03T23:03:56.351Z</time>
      </trkpt>
      <trkpt lat="46.7851" lon="0.56906">
        <ele>60.560881</ele>
        <time>2021-12-03T23:04:02.377Z</time>
      </trkpt>
      <trkpt lat="46.78624" lon="0.56838">
        <ele>62.137805</ele>
        <time>2021-12-03T23:04:53.884Z</time>
      </trkpt>
      <trkpt lat="46.78639" lon="0.56834">
        <ele>62.328978</ele>
        <time>2021-12-03T23:05:01.391Z</time>
      </trkpt>
      <trkpt lat="46.78654" lon="0.56842">
        <ele>62.536447</ele>
        <time>2021-12-03T23:05:09.395Z</time>
      </trkpt>
      <trkpt lat="46.78692" lon="0.56893">
        <ele>64.45702</ele>
        <time>2021-12-03T23:05:38.377Z</time>
      </trkpt>
      <trkpt lat="46.78703" lon="0.56919">
        <ele>65.563673</ele>
        <time>2021-12-03T23:05:50.781Z</time>
      </trkpt>
      <trkpt lat="46.78759" lon="0.57139">
        <ele>75.097875</ele>
        <time>2021-12-03T23:07:52.523Z</time>
      </trkpt>
      <trkpt lat="46.78779" lon="0.57251">
        <ele>81.538987</ele>
        <time>2021-12-03T23:09:07.942Z</time>
      </trkpt>
      <trkpt lat="46.78808" lon="0.57347">
        <ele>87.308176</ele>
        <time>2021-12-03T23:10:11.173Z</time>
      </trkpt>
      <trkpt lat="46.7882" lon="0.57391">
        <ele>89.282721</ele>
        <time>2021-12-03T23:10:33.246Z</time>
      </trkpt>
      <trkpt lat="46.78857" lon="0.57472">
        <ele>93.382141</ele>
        <time>2021-12-03T23:11:14.366Z</time>
      </trkpt>
      <trkpt lat="46.78813" lon="0.57547">
        <ele>97.523834</ele>
        <time>2021-12-03T23:11:54.315Z</time>
      </trkpt>
      <trkpt lat="46.78823" lon="0.57634">
        <ele>99.913305</ele>
        <time>2021-12-03T23:12:23.194Z</time>
      </trkpt>
      <trkpt lat="46.78833" lon="0.57648">
        <ele>100.384903</ele>
        <time>2021-12-03T23:12:28.368Z</time>
      </trkpt>
      <trkpt lat="46.78858" lon="0.57644">
        <ele>101.27283</ele>
        <time>2021-12-03T23:12:39.729Z</time>
      </trkpt>
      <trkpt lat="46.78916" lon="0.57636">
        <ele>103.346266</ele>
        <time>2021-12-03T23:13:04.647Z</time>
      </trkpt>
      <trkpt lat="46.78971" lon="0.57818">
        <ele>107.323523</ele>
        <time>2021-12-03T23:14:03.043Z</time>
      </trkpt>
      <trkpt lat="46.78971" lon="0.57836">
        <ele>107.654805</ele>
        <time>2021-12-03T23:14:07.692Z</time>
      </trkpt>
      <trkpt lat="46.78963" lon="0.57841">
        <ele>107.876957</ele>
        <time>2021-12-03T23:14:10.455Z</time>
      </trkpt>
      <trkpt lat="46.78965" lon="0.57853">
        <ele>108.098672</ele>
        <time>2021-12-03T23:14:13.362Z</time>
      </trkpt>
      <trkpt lat="46.78974" lon="0.57852">
        <ele>108.329924</ele>
        <time>2021-12-03T23:14:16.441Z</time>
      </trkpt>
      <trkpt lat="46.79002" lon="0.57922">
        <ele>109.727285</ele>
        <time>2021-12-03T23:14:37.041Z</time>
      </trkpt>
      <trkpt lat="46.79074" lon="0.5817">
        <ele>113.209532</ele>
        <time>2021-12-03T23:15:42.925Z</time>
      </trkpt>
      <trkpt lat="46.79077" lon="0.58178">
        <ele>113.248598</ele>
        <time>2021-12-03T23:15:44.672Z</time>
      </trkpt>
      <trkpt lat="46.79112" lon="0.58297">
        <ele>113.804442</ele>
        <time>2021-12-03T23:16:08.675Z</time>
      </trkpt>
      <trkpt lat="46.79116" lon="0.58312">
        <ele>113.877344</ele>
        <time>2021-12-03T23:16:11.591Z</time>
      </trkpt>
      <trkpt lat="46.79147" lon="0.58419">
        <ele>114.049316</ele>
        <time>2021-12-03T23:16:29.050Z</time>
      </trkpt>
      <trkpt lat="46.79165" lon="0.58463">
        <ele>113.86124</ele>
        <time>2021-12-03T23:16:36.380Z</time>
      </trkpt>
      <trkpt lat="46.79156" lon="0.58483">
        <ele>113.772148</ele>
        <time>2021-12-03T23:16:39.754Z</time>
      </trkpt>
      <trkpt lat="46.79089" lon="0.58569">
        <ele>113.288945</ele>
        <time>2021-12-03T23:16:58.399Z</time>
      </trkpt>
      <trkpt lat="46.79128" lon="0.58642">
        <ele>113.168215</ele>
        <time>2021-12-03T23:17:13.198Z</time>
      </trkpt>
      <trkpt lat="46.7915" lon="0.58669">
        <ele>113.136302</ele>
        <time>2021-12-03T23:17:20.040Z</time>
      </trkpt>
      <trkpt lat="46.7916" lon="0.58681">
        <ele>113.122803</ele>
        <time>2021-12-03T23:17:23.106Z</time>
      </trkpt>
      <trkpt lat="46.7918" lon="0.58734">
        <ele>113.076339</ele>
        <time>2021-12-03T23:17:33.224Z</time>
      </trkpt>
      <trkpt lat="46.79194" lon="0.58768">
        <ele>113.047037</ele>
        <time>2021-12-03T23:17:43.392Z</time>
      </trkpt>
      <trkpt lat="46.79267" lon="0.58896">
        <ele>113.104987</ele>
        <time>2021-12-03T23:18:29.253Z</time>
      </trkpt>
      <trkpt lat="46.79297" lon="0.58968">
        <ele>113.151818</ele>
        <time>2021-12-03T23:18:51.192Z</time>
      </trkpt>
      <trkpt lat="46.79321" lon="0.59001">
        <ele>113.159732</ele>
        <time>2021-12-03T23:19:03.296Z</time>
      </trkpt>
      <trkpt lat="46.79273" lon="0.59042">
        <ele>113.05162</ele>
        <time>2021-12-03T23:19:23.748Z</time>
      </trkpt>
      <trkpt lat="46.79307" lon="0.5912">
        <ele>112.928126</ele>
        <time>2021-12-03T23:19:47.107Z</time>
      </trkpt>
      <trkpt lat="46.79405" lon="0.59308">
        <ele>113.180772</ele>
        <time>2021-12-03T23:20:50.507Z</time>
      </trkpt>
      <trkpt lat="46.7949" lon="0.59314">
        <ele>113.373967</ele>
        <time>2021-12-03T23:21:26.930Z</time>
      </trkpt>
      <trkpt lat="46.79523" lon="0.59327">
        <ele>113.266077</ele>
        <time>2021-12-03T23:21:40.406Z</time>
      </trkpt>
      <trkpt lat="46.79609" lon="0.5938">
        <ele>112.973528</ele>
        <time>2021-12-03T23:22:14.927Z</time>
      </trkpt>
      <trkpt lat="46.79594" lon="0.59396">
        <ele>112.916712</ele>
        <time>2021-12-03T23:22:20.973Z</time>
      </trkpt>
      <trkpt lat="46.79497" lon="0.59558">
        <ele>111.339465</ele>
        <time>2021-12-03T23:23:11.543Z</time>
      </trkpt>
      <trkpt lat="46.79586" lon="0.59656">
        <ele>110.263278</ele>
        <time>2021-12-03T23:23:51.078Z</time>
      </trkpt>
      <trkpt lat="46.79676" lon="0.59776">
        <ele>109.36058</ele>
        <time>2021-12-03T23:24:34.984Z</time>
      </trkpt>
      <trkpt lat="46.79672" lon="0.59802">
        <ele>109.302277</ele>
        <time>2021-12-03T23:24:38.908Z</time>
      </trkpt>
      <trkpt lat="46.79817" lon="0.60002">
        <ele>109.302367</ele>
        <time>2021-12-03T23:25:53.377Z</time>
      </trkpt>
      <trkpt lat="46.79854" lon="0.60072">
        <ele>110.089972</ele>
        <time>2021-12-03T23:26:20.696Z</time>
      </trkpt>
      <trkpt lat="46.79862" lon="0.60079">
        <ele>110.204343</ele>
        <time>2021-12-03T23:26:24.848Z</time>
      </trkpt>
      <trkpt lat="46.7989" lon="0.60086">
        <ele>110.580689</ele>
        <time>2021-12-03T23:26:38.601Z</time>
      </trkpt>
      <trkpt lat="46.79897" lon="0.60068">
        <ele>110.761421</ele>
        <time>2021-12-03T23:26:46.151Z</time>
      </trkpt>
      <trkpt lat="46.79918" lon="0.60051">
        <ele>111.072623</ele>
        <time>2021-12-03T23:26:58.097Z</time>
      </trkpt>
      <trkpt lat="46.80015" lon="0.6002">
        <ele>113.686676</ele>
        <time>2021-12-03T23:27:54.343Z</time>
      </trkpt>
      <trkpt lat="46.801" lon="0.60001">
        <ele>115.988097</ele>
        <time>2021-12-03T23:28:41.910Z</time>
      </trkpt>
      <trkpt lat="46.80105" lon="0.60009">
        <ele>116.085897</ele>
        <time>2021-12-03T23:28:44.951Z</time>
      </trkpt>
      <trkpt lat="46.80204" lon="0.60158">
        <ele>117.885903</ele>
        <time>2021-12-03T23:29:32.786Z</time>
      </trkpt>
      <trkpt lat="46.80253" lon="0.60221">
        <ele>117.890828</ele>
        <time>2021-12-03T23:29:47.369Z</time>
      </trkpt>
      <trkpt lat="46.80282" lon="0.6026">
        <ele>117.489197</ele>
        <time>2021-12-03T23:29:55.824Z</time>
      </trkpt>
      <trkpt lat="46.80282" lon="0.60266">
        <ele>117.447495</ele>
        <time>2021-12-03T23:29:56.617Z</time>
      </trkpt>
      <trkpt lat="46.80291" lon="0.60277">
        <ele>117.325922</ele>
        <time>2021-12-03T23:29:58.985Z</time>
      </trkpt>
      <trkpt lat="46.80294" lon="0.60277">
        <ele>117.295427</ele>
        <time>2021-12-03T23:29:59.584Z</time>
      </trkpt>
      <trkpt lat="46.80327" lon="0.60306">
        <ele>116.905741</ele>
        <time>2021-12-03T23:30:07.057Z</time>
      </trkpt>
      <trkpt lat="46.80386" lon="0.60407">
        <ele>116.246397</ele>
        <time>2021-12-03T23:30:24.573Z</time>
      </trkpt>
      <trkpt lat="46.80435" lon="0.60511">
        <ele>115.883428</ele>
        <time>2021-12-03T23:30:43.271Z</time>
      </trkpt>
      <trkpt lat="46.80488" lon="0.60589">
        <ele>116.163287</ele>
        <time>2021-12-03T23:31:02.016Z</time>
      </trkpt>
      <trkpt lat="46.80617" lon="0.60785">
        <ele>120.306132</ele>
        <time>2021-12-03T23:32:10.985Z</time>
      </trkpt>
      <trkpt lat="46.80637" lon="0.60804">
        <ele>121.266948</ele>
        <time>2021-12-03T23:32:22.795Z</time>
      </trkpt>
      <trkpt lat="46.80735" lon="0.60939">
        <ele>126.629924</ele>
        <time>2021-12-03T23:33:34.061Z</time>
      </trkpt>
      <trkpt lat="46.80814" lon="0.61037">
        <ele>130.092039</ele>
        <time>2021-12-03T23:34:24.352Z</time>
      </trkpt>
      <trkpt lat="46.80873" lon="0.61126">
        <ele>132.433631</ele>
        <time>2021-12-03T23:34:56.441Z</time>
      </trkpt>
      <trkpt lat="46.81135" lon="0.61484">
        <ele>134.275633</ele>
        <time>2021-12-03T23:36:32.251Z</time>
      </trkpt>
      <trkpt lat="46.81241" lon="0.61634">
        <ele>133.954624</ele>
        <time>2021-12-03T23:37:06.278Z</time>
      </trkpt>
      <trkpt lat="46.81309" lon="0.61717">
        <ele>133.94212</ele>
        <time>2021-12-03T23:37:26.686Z</time>
      </trkpt>
      <trkpt lat="46.81587" lon="0.62079">
        <ele>134.846719</ele>
        <time>2021-12-03T23:39:56.502Z</time>
      </trkpt>
      <trkpt lat="46.81684" lon="0.62219">
        <ele>134.940025</ele>
        <time>2021-12-03T23:40:50.688Z</time>
      </trkpt>
      <trkpt lat="46.81946" lon="0.61892">
        <ele>133.25207</ele>
        <time>2021-12-03T23:42:54.731Z</time>
      </trkpt>
      <trkpt lat="46.82058" lon="0.61981">
        <ele>133.147455</ele>
        <time>2021-12-03T23:43:44.287Z</time>
      </trkpt>
      <trkpt lat="46.82162" lon="0.62109">
        <ele>132.667175</ele>
        <time>2021-12-03T23:44:35.383Z</time>
      </trkpt>
      <trkpt lat="46.82351" lon="0.62157">
        <ele>131.687102</ele>
        <time>2021-12-03T23:45:43.182Z</time>
      </trkpt>
      <trkpt lat="46.82399" lon="0.62197">
        <ele>131.371576</ele>
        <time>2021-12-03T23:46:04.416Z</time>
      </trkpt>
      <trkpt lat="46.82458" lon="0.62237">
        <ele>131.596695</ele>
        <time>2021-12-03T23:46:29.883Z</time>
      </trkpt>
      <trkpt lat="46.82519" lon="0.62255">
        <ele>131.817956</ele>
        <time>2021-12-03T23:46:55.805Z</time>
      </trkpt>
      <trkpt lat="46.82591" lon="0.62259">
        <ele>132.060038</ele>
        <time>2021-12-03T23:47:26.069Z</time>
      </trkpt>
      <trkpt lat="46.82711" lon="0.62011">
        <ele>132.784266</ele>
        <time>2021-12-03T23:48:47.432Z</time>
      </trkpt>
      <trkpt lat="46.82734" lon="0.61973">
        <ele>132.982432</ele>
        <time>2021-12-03T23:49:01.426Z</time>
      </trkpt>
      <trkpt lat="46.82903" lon="0.62275">
        <ele>134.900201</ele>
        <time>2021-12-03T23:50:20.120Z</time>
      </trkpt>
      <trkpt lat="46.8295" lon="0.62361">
        <ele>134.95394</ele>
        <time>2021-12-03T23:50:45.427Z</time>
      </trkpt>
      <trkpt lat="46.83025" lon="0.62495">
        <ele>134.868056</ele>
        <time>2021-12-03T23:51:20.318Z</time>
      </trkpt>
      <trkpt lat="46.83172" lon="0.6271">
        <ele>132.995294</ele>
        <time>2021-12-03T23:52:16.153Z</time>
      </trkpt>
      <trkpt lat="46.83281" lon="0.62865">
        <ele>132.9851</ele>
        <time>2021-12-03T23:53:13.968Z</time>
      </trkpt>
      <trkpt lat="46.8345" lon="0.63076">
        <ele>136.44499</ele>
        <time>2021-12-03T23:55:06.385Z</time>
      </trkpt>
      <trkpt lat="46.83605" lon="0.63381">
        <ele>137.560671</ele>
        <time>2021-12-03T23:56:51.036Z</time>
      </trkpt>
      <trkpt lat="46.8365" lon="0.63468">
        <ele>137.381923</ele>
        <time>2021-12-03T23:57:17.769Z</time>
      </trkpt>
      <trkpt lat="46.83853" lon="0.63728">
        <ele>135.491377</ele>
        <time>2021-12-03T23:58:52.813Z</time>
      </trkpt>
      <trkpt lat="46.83984" lon="0.63835">
        <ele>135.657999</ele>
        <time>2021-12-03T23:59:53.399Z</time>
      </trkpt>
      <trkpt lat="46.84297" lon="0.64224">
        <ele>137.618212</ele>
        <time>2021-12-04T00:02:46.223Z</time>
      </trkpt>
      <trkpt lat="46.84561" lon="0.64419">
        <ele>136.756274</ele>
        <time>2021-12-04T00:04:32.911Z</time>
      </trkpt>
      <trkpt lat="46.84617" lon="0.64486">
        <ele>136.794323</ele>
        <time>2021-12-04T00:05:01.081Z</time>
      </trkpt>
      <trkpt lat="46.84771" lon="0.64759">
        <ele>138.522859</ele>
        <time>2021-12-04T00:06:46.214Z</time>
      </trkpt>
      <trkpt lat="46.84941" lon="0.65152">
        <ele>140.773755</ele>
        <time>2021-12-04T00:09:00.297Z</time>
      </trkpt>
      <trkpt lat="46.84996" lon="0.6531">
        <ele>141.861877</ele>
        <time>2021-12-04T00:09:53.424Z</time>
      </trkpt>
      <trkpt lat="46.85025" lon="0.65437">
        <ele>142.619788</ele>
        <time>2021-12-04T00:10:33.925Z</time>
      </trkpt>
      <trkpt lat="46.85048" lon="0.65493">
        <ele>142.713355</ele>
        <time>2021-12-04T00:10:53.302Z</time>
      </trkpt>
      <trkpt lat="46.853" lon="0.65898">
        <ele>142.130985</ele>
        <time>2021-12-04T00:13:13.803Z</time>
      </trkpt>
      <trkpt lat="46.85571" lon="0.66336">
        <ele>139.438503</ele>
        <time>2021-12-04T00:15:37.420Z</time>
      </trkpt>
      <trkpt lat="46.85731" lon="0.66593">
        <ele>138.727999</ele>
        <time>2021-12-04T00:17:06.371Z</time>
      </trkpt>
      <trkpt lat="46.85774" lon="0.66446">
        <ele>138.925711</ele>
        <time>2021-12-04T00:17:49.289Z</time>
      </trkpt>
      <trkpt lat="46.85827" lon="0.6631">
        <ele>139.020097</ele>
        <time>2021-12-04T00:18:32.267Z</time>
      </trkpt>
      <trkpt lat="46.85847" lon="0.6618">
        <ele>138.861302</ele>
        <time>2021-12-04T00:19:06.546Z</time>
      </trkpt>
      <trkpt lat="46.85963" lon="0.66064">
        <ele>138.383659</ele>
        <time>2021-12-04T00:19:57.573Z</time>
      </trkpt>
      <trkpt lat="46.8605" lon="0.66212">
        <ele>138.242264</ele>
        <time>2021-12-04T00:20:46.227Z</time>
      </trkpt>
      <trkpt lat="46.86068" lon="0.66232">
        <ele>138.425843</ele>
        <time>2021-12-04T00:20:55.935Z</time>
      </trkpt>
      <trkpt lat="46.86115" lon="0.66264">
        <ele>138.840769</ele>
        <time>2021-12-04T00:21:18.255Z</time>
      </trkpt>
      <trkpt lat="46.86131" lon="0.66267">
        <ele>138.968167</ele>
        <time>2021-12-04T00:21:25.416Z</time>
      </trkpt>
      <trkpt lat="46.8616" lon="0.66275">
        <ele>139.205693</ele>
        <time>2021-12-04T00:21:39.139Z</time>
      </trkpt>
      <trkpt lat="46.86184" lon="0.66339">
        <ele>139.954896</ele>
        <time>2021-12-04T00:22:03.419Z</time>
      </trkpt>
      <trkpt lat="46.86195" lon="0.66419">
        <ele>141.129926</ele>
        <time>2021-12-04T00:22:32.191Z</time>
      </trkpt>
      <trkpt lat="46.86255" lon="0.66487">
        <ele>142.735242</ele>
        <time>2021-12-04T00:23:12.853Z</time>
      </trkpt>
      <trkpt lat="46.8639" lon="0.66493">
        <ele>144.944694</ele>
        <time>2021-12-04T00:24:18.498Z</time>
      </trkpt>
      <trkpt lat="46.8642" lon="0.66534">
        <ele>145.579875</ele>
        <time>2021-12-04T00:24:36.887Z</time>
      </trkpt>
      <trkpt lat="46.86461" lon="0.66584">
        <ele>146.292336</ele>
        <time>2021-12-04T00:25:00.382Z</time>
      </trkpt>
      <trkpt lat="46.86514" lon="0.66596">
        <ele>146.921391</ele>
        <time>2021-12-04T00:25:24.085Z</time>
      </trkpt>
      <trkpt lat="46.86491" lon="0.66833">
        <ele>148.921922</ele>
        <time>2021-12-04T00:26:38.930Z</time>
      </trkpt>
      <trkpt lat="46.86821" lon="0.6693">
        <ele>152.580484</ele>
        <time>2021-12-04T00:29:14.342Z</time>
      </trkpt>
      <trkpt lat="46.8756" lon="0.6715">
        <ele>150.155053</ele>
        <time>2021-12-04T00:33:49.939Z</time>
      </trkpt>
      <trkpt lat="46.87821" lon="0.67007">
        <ele>150.402338</ele>
        <time>2021-12-04T00:35:41.705Z</time>
      </trkpt>
      <trkpt lat="46.88349" lon="0.6673">
        <ele>145.469651</ele>
        <time>2021-12-04T00:38:59.650Z</time>
      </trkpt>
      <trkpt lat="46.88231" lon="0.65966">
        <ele>140.394863</ele>
        <time>2021-12-04T00:42:07.132Z</time>
      </trkpt>
      <trkpt lat="46.88285" lon="0.65914">
        <ele>140.352684</ele>
        <time>2021-12-04T00:42:34.678Z</time>
      </trkpt>
      <trkpt lat="46.88421" lon="0.65918">
        <ele>139.9301</ele>
        <time>2021-12-04T00:43:26.270Z</time>
      </trkpt>
      <trkpt lat="46.88552" lon="0.65809">
        <ele>138.36868</ele>
        <time>2021-12-04T00:44:18.158Z</time>
      </trkpt>
      <trkpt lat="46.88593" lon="0.65763">
        <ele>137.874541</ele>
        <time>2021-12-04T00:44:35.348Z</time>
      </trkpt>
      <trkpt lat="46.88593" lon="0.65956">
        <ele>136.61533</ele>
        <time>2021-12-04T00:45:22.795Z</time>
      </trkpt>
      <trkpt lat="46.88677" lon="0.66074">
        <ele>135.664658</ele>
        <time>2021-12-04T00:46:05.115Z</time>
      </trkpt>
      <trkpt lat="46.88715" lon="0.66113">
        <ele>135.279842</ele>
        <time>2021-12-04T00:46:21.318Z</time>
      </trkpt>
      <trkpt lat="46.88723" lon="0.66129">
        <ele>135.12013</ele>
        <time>2021-12-04T00:46:25.908Z</time>
      </trkpt>
      <trkpt lat="46.88718" lon="0.66181">
        <ele>134.534797</ele>
        <time>2021-12-04T00:46:38.056Z</time>
      </trkpt>
      <trkpt lat="46.89056" lon="0.66406">
        <ele>128.549203</ele>
        <time>2021-12-04T00:48:41.869Z</time>
      </trkpt>
      <trkpt lat="46.89169" lon="0.66457">
        <ele>127.184787</ele>
        <time>2021-12-04T00:49:23.536Z</time>
      </trkpt>
      <trkpt lat="46.8931" lon="0.66474">
        <ele>126.698116</ele>
        <time>2021-12-04T00:50:15.809Z</time>
      </trkpt>
      <trkpt lat="46.89312" lon="0.66476">
        <ele>126.691125</ele>
        <time>2021-12-04T00:50:16.668Z</time>
      </trkpt>
      <trkpt lat="46.89345" lon="0.66423">
        <ele>126.582652</ele>
        <time>2021-12-04T00:50:35.497Z</time>
      </trkpt>
      <trkpt lat="46.89403" lon="0.66407">
        <ele>126.844135</ele>
        <time>2021-12-04T00:50:58.532Z</time>
      </trkpt>
      <trkpt lat="46.89811" lon="0.66632">
        <ele>128.785141</ele>
        <time>2021-12-04T00:53:58.395Z</time>
      </trkpt>
      <trkpt lat="46.89865" lon="0.66659">
        <ele>128.940926</ele>
        <time>2021-12-04T00:54:21.060Z</time>
      </trkpt>
      <trkpt lat="46.89967" lon="0.66734">
        <ele>128.793213</ele>
        <time>2021-12-04T00:55:04.305Z</time>
      </trkpt>
      <trkpt lat="46.90147" lon="0.66994">
        <ele>127.583744</ele>
        <time>2021-12-04T00:56:36.712Z</time>
      </trkpt>
      <trkpt lat="46.90141" lon="0.67003">
        <ele>127.50585</ele>
        <time>2021-12-04T00:56:38.750Z</time>
      </trkpt>
      <trkpt lat="46.90148" lon="0.67012">
        <ele>127.423512</ele>
        <time>2021-12-04T00:56:42.194Z</time>
      </trkpt>
      <trkpt lat="46.90248" lon="0.67141">
        <ele>126.261196</ele>
        <time>2021-12-04T00:57:28.843Z</time>
      </trkpt>
      <trkpt lat="46.90342" lon="0.67298">
        <ele>125.003767</ele>
        <time>2021-12-04T00:58:18.670Z</time>
      </trkpt>
      <trkpt lat="46.90501" lon="0.67167">
        <ele>124.248534</ele>
        <time>2021-12-04T00:59:26.553Z</time>
      </trkpt>
      <trkpt lat="46.90604" lon="0.67081">
        <ele>123.77305</ele>
        <time>2021-12-04T01:00:11.013Z</time>
      </trkpt>
      <trkpt lat="46.90768" lon="0.66945">
        <ele>122.700249</ele>
        <time>2021-12-04T01:01:18.778Z</time>
      </trkpt>
      <trkpt lat="46.90779" lon="0.66933">
        <ele>122.609822</ele>
        <time>2021-12-04T01:01:23.421Z</time>
      </trkpt>
      <trkpt lat="46.90781" lon="0.66916">
        <ele>122.527507</ele>
        <time>2021-12-04T01:01:27.751Z</time>
      </trkpt>
      <trkpt lat="46.90801" lon="0.6694">
        <ele>122.349828</ele>
        <time>2021-12-04T01:01:36.984Z</time>
      </trkpt>
      <trkpt lat="46.91103" lon="0.66969">
        <ele>120.377446</ele>
        <time>2021-12-04T01:03:26.654Z</time>
      </trkpt>
      <trkpt lat="46.91128" lon="0.66963">
        <ele>120.19134</ele>
        <time>2021-12-04T01:03:35.658Z</time>
      </trkpt>
      <trkpt lat="46.91539" lon="0.66786">
        <ele>116.146121</ele>
        <time>2021-12-04T01:06:05.978Z</time>
      </trkpt>
      <trkpt lat="46.91601" lon="0.6667">
        <ele>115.321645</ele>
        <time>2021-12-04T01:06:42.850Z</time>
      </trkpt>
      <trkpt lat="46.91624" lon="0.6653">
        <ele>114.391048</ele>
        <time>2021-12-04T01:07:17.351Z</time>
      </trkpt>
      <trkpt lat="46.91658" lon="0.66343">
        <ele>112.375996</ele>
        <time>2021-12-04T01:08:01.100Z</time>
      </trkpt>
      <trkpt lat="46.91762" lon="0.66145">
        <ele>110.826638</ele>
        <time>2021-12-04T01:09:00.430Z</time>
      </trkpt>
      <trkpt lat="46.91791" lon="0.66079">
        <ele>110.607793</ele>
        <time>2021-12-04T01:09:21.936Z</time>
      </trkpt>
      <trkpt lat="46.91801" lon="0.66054">
        <ele>110.747853</ele>
        <time>2021-12-04T01:09:30.095Z</time>
      </trkpt>
      <trkpt lat="46.91812" lon="0.66027">
        <ele>110.897562</ele>
        <time>2021-12-04T01:09:39.016Z</time>
      </trkpt>
      <trkpt lat="46.91984" lon="0.6583">
        <ele>112.087607</ele>
        <time>2021-12-04T01:11:14.061Z</time>
      </trkpt>
      <trkpt lat="46.92157" lon="0.6574">
        <ele>112.25679</ele>
        <time>2021-12-04T01:12:22.570Z</time>
      </trkpt>
      <trkpt lat="46.92209" lon="0.6575">
        <ele>112.199353</ele>
        <time>2021-12-04T01:12:42.261Z</time>
      </trkpt>
      <trkpt lat="46.92256" lon="0.6574">
        <ele>112.299718</ele>
        <time>2021-12-04T01:13:00.862Z</time>
      </trkpt>
      <trkpt lat="46.92305" lon="0.65747">
        <ele>112.693132</ele>
        <time>2021-12-04T01:13:20.948Z</time>
      </trkpt>
      <trkpt lat="46.92303" lon="0.65742">
        <ele>112.725458</ele>
        <time>2021-12-04T01:13:22.616Z</time>
      </trkpt>
      <trkpt lat="46.92319" lon="0.65725">
        <ele>112.889552</ele>
        <time>2021-12-04T01:13:31.473Z</time>
      </trkpt>
      <trkpt lat="46.92656" lon="0.65563">
        <ele>115.977181</ele>
        <time>2021-12-04T01:16:10.454Z</time>
      </trkpt>
      <trkpt lat="46.92669" lon="0.65596">
        <ele>116.079331</ele>
        <time>2021-12-04T01:16:20.954Z</time>
      </trkpt>
      <trkpt lat="46.92694" lon="0.65728">
        <ele>116.208371</ele>
        <time>2021-12-04T01:16:55.357Z</time>
      </trkpt>
      <trkpt lat="46.92649" lon="0.65794">
        <ele>115.835748</ele>
        <time>2021-12-04T01:17:18.068Z</time>
      </trkpt>
      <trkpt lat="46.92633" lon="0.65847">
        <ele>115.599666</ele>
        <time>2021-12-04T01:17:32.236Z</time>
      </trkpt>
      <trkpt lat="46.93079" lon="0.66182">
        <ele>113.11386</ele>
        <time>2021-12-04T01:20:38.984Z</time>
      </trkpt>
      <trkpt lat="46.93087" lon="0.66178">
        <ele>113.000797</ele>
        <time>2021-12-04T01:20:41.849Z</time>
      </trkpt>
      <trkpt lat="46.93207" lon="0.66331">
        <ele>109.417225</ele>
        <time>2021-12-04T01:21:32.747Z</time>
      </trkpt>
      <trkpt lat="46.93339" lon="0.66399">
        <ele>104.997449</ele>
        <time>2021-12-04T01:22:15.061Z</time>
      </trkpt>
      <trkpt lat="46.93354" lon="0.6688">
        <ele>96.368936</ele>
        <time>2021-12-04T01:23:12.812Z</time>
      </trkpt>
      <trkpt lat="46.93391" lon="0.66866">
        <ele>97.233155</ele>
        <time>2021-12-04T01:23:28.895Z</time>
      </trkpt>
      <trkpt lat="46.93452" lon="0.6683">
        <ele>98.747609</ele>
        <time>2021-12-04T01:24:03.740Z</time>
      </trkpt>
      <trkpt lat="46.93495" lon="0.6677">
        <ele>100.104038</ele>
        <time>2021-12-04T01:24:43.049Z</time>
      </trkpt>
      <trkpt lat="46.93607" lon="0.66724">
        <ele>104.904009</ele>
        <time>2021-12-04T01:25:59.678Z</time>
      </trkpt>
      <trkpt lat="46.93628" lon="0.66707">
        <ele>105.917222</ele>
        <time>2021-12-04T01:26:15.178Z</time>
      </trkpt>
      <trkpt lat="46.9366" lon="0.66627">
        <ele>108.336751</ele>
        <time>2021-12-04T01:26:54.654Z</time>
      </trkpt>
      <trkpt lat="46.93717" lon="0.66583">
        <ele>109.734101</ele>
        <time>2021-12-04T01:27:29.758Z</time>
      </trkpt>
      <trkpt lat="46.93745" lon="0.66568">
        <ele>110.409609</ele>
        <time>2021-12-04T01:27:45.013Z</time>
      </trkpt>
      <trkpt lat="46.93775" lon="0.66561">
        <ele>111.071887</ele>
        <time>2021-12-04T01:27:58.920Z</time>
      </trkpt>
      <trkpt lat="46.93811" lon="0.66535">
        <ele>111.95953</ele>
        <time>2021-12-04T01:28:17.211Z</time>
      </trkpt>
      <trkpt lat="46.93843" lon="0.66532">
        <ele>112.022825</ele>
        <time>2021-12-04T01:28:30.955Z</time>
      </trkpt>
      <trkpt lat="46.93935" lon="0.6647">
        <ele>112.223176</ele>
        <time>2021-12-04T01:29:11.381Z</time>
      </trkpt>
      <trkpt lat="46.94037" lon="0.66326">
        <ele>111.543</ele>
        <time>2021-12-04T01:30:02.003Z</time>
      </trkpt>
      <trkpt lat="46.94153" lon="0.66484">
        <ele>110.417481</ele>
        <time>2021-12-04T01:30:57.492Z</time>
      </trkpt>
      <trkpt lat="46.94289" lon="0.66638">
        <ele>109.753619</ele>
        <time>2021-12-04T01:32:01.554Z</time>
      </trkpt>
      <trkpt lat="46.94309" lon="0.66668">
        <ele>109.736036</ele>
        <time>2021-12-04T01:32:12.516Z</time>
      </trkpt>
      <trkpt lat="46.94309" lon="0.66712">
        <ele>109.71719</ele>
        <time>2021-12-04T01:32:24.184Z</time>
      </trkpt>
      <trkpt lat="46.94314" lon="0.66725">
        <ele>109.711197</ele>
        <time>2021-12-04T01:32:27.879Z</time>
      </trkpt>
      <trkpt lat="46.94371" lon="0.66802">
        <ele>109.778171</ele>
        <time>2021-12-04T01:32:58.237Z</time>
      </trkpt>
      <trkpt lat="46.94426" lon="0.66857">
        <ele>109.979127</ele>
        <time>2021-12-04T01:33:24.651Z</time>
      </trkpt>
      <trkpt lat="46.94443" lon="0.66886">
        <ele>110.058921</ele>
        <time>2021-12-04T01:33:35.315Z</time>
      </trkpt>
      <trkpt lat="46.94541" lon="0.66916">
        <ele>110.435667</ele>
        <time>2021-12-04T01:34:15.760Z</time>
      </trkpt>
      <trkpt lat="46.94604" lon="0.669">
        <ele>110.739524</ele>
        <time>2021-12-04T01:34:42.392Z</time>
      </trkpt>
      <trkpt lat="46.94671" lon="0.66914">
        <ele>111.056349</ele>
        <time>2021-12-04T01:35:10.045Z</time>
      </trkpt>
      <trkpt lat="46.94719" lon="0.66913">
        <ele>111.215229</ele>
        <time>2021-12-04T01:35:29.523Z</time>
      </trkpt>
      <trkpt lat="46.94818" lon="0.66897">
        <ele>111.538852</ele>
        <time>2021-12-04T01:36:09.689Z</time>
      </trkpt>
      <trkpt lat="46.9489" lon="0.66904">
        <ele>111.604458</ele>
        <time>2021-12-04T01:36:38.230Z</time>
      </trkpt>
      <trkpt lat="46.95058" lon="0.66689">
        <ele>110.84063</ele>
        <time>2021-12-04T01:37:30.397Z</time>
      </trkpt>
      <trkpt lat="46.95103" lon="0.66621">
        <ele>110.376925</ele>
        <time>2021-12-04T01:37:44.404Z</time>
      </trkpt>
      <trkpt lat="46.95154" lon="0.66555">
        <ele>109.635252</ele>
        <time>2021-12-04T01:37:58.804Z</time>
      </trkpt>
      <trkpt lat="46.95243" lon="0.6643">
        <ele>107.788357</ele>
        <time>2021-12-04T01:38:23.890Z</time>
      </trkpt>
      <trkpt lat="46.95305" lon="0.66355">
        <ele>107.063094</ele>
        <time>2021-12-04T01:38:40.045Z</time>
      </trkpt>
      <trkpt lat="46.95348" lon="0.6626">
        <ele>106.540388</ele>
        <time>2021-12-04T01:38:57.058Z</time>
      </trkpt>
      <trkpt lat="46.9539" lon="0.66337">
        <ele>106.589688</ele>
        <time>2021-12-04T01:39:23.229Z</time>
      </trkpt>
      <trkpt lat="46.95599" lon="0.66711">
        <ele>112.042853</ele>
        <time>2021-12-04T01:42:10.287Z</time>
      </trkpt>
      <trkpt lat="46.95777" lon="0.67026">
        <ele>109.950086</ele>
        <time>2021-12-04T01:43:48.889Z</time>
      </trkpt>
      <trkpt lat="46.95915" lon="0.67268">
        <ele>106.525773</ele>
        <time>2021-12-04T01:45:01.215Z</time>
      </trkpt>
      <trkpt lat="46.95972" lon="0.67373">
        <ele>104.314164</ele>
        <time>2021-12-04T01:45:31.464Z</time>
      </trkpt>
      <trkpt lat="46.96143" lon="0.67373">
        <ele>98.605348</ele>
        <time>2021-12-04T01:46:23.134Z</time>
      </trkpt>
      <trkpt lat="46.9622" lon="0.67359">
        <ele>95.800411</ele>
        <time>2021-12-04T01:46:46.376Z</time>
      </trkpt>
      <trkpt lat="46.96243" lon="0.67323">
        <ele>94.556781</ele>
        <time>2021-12-04T01:46:56.868Z</time>
      </trkpt>
      <trkpt lat="46.96277" lon="0.67357">
        <ele>93.075727</ele>
        <time>2021-12-04T01:47:09.538Z</time>
      </trkpt>
      <trkpt lat="46.96324" lon="0.67369">
        <ele>91.865871</ele>
        <time>2021-12-04T01:47:24.396Z</time>
      </trkpt>
      <trkpt lat="46.96362" lon="0.67388">
        <ele>90.837794</ele>
        <time>2021-12-04T01:47:37.815Z</time>
      </trkpt>
      <trkpt lat="46.96488" lon="0.67518">
        <ele>85.92301</ele>
        <time>2021-12-04T01:48:27.256Z</time>
      </trkpt>
      <trkpt lat="46.96548" lon="0.67572">
        <ele>83.023015</ele>
        <time>2021-12-04T01:48:47.898Z</time>
      </trkpt>
      <trkpt lat="46.96574" lon="0.6758">
        <ele>81.955354</ele>
        <time>2021-12-04T01:48:55.380Z</time>
      </trkpt>
      <trkpt lat="46.96697" lon="0.67667">
        <ele>74.89381</ele>
        <time>2021-12-04T01:49:34.257Z</time>
      </trkpt>
      <trkpt lat="46.96733" lon="0.67678">
        <ele>72.941223</ele>
        <time>2021-12-04T01:49:44.889Z</time>
      </trkpt>
      <trkpt lat="46.96786" lon="0.67708">
        <ele>69.846247</ele>
        <time>2021-12-04T01:50:01.322Z</time>
      </trkpt>
      <trkpt lat="46.96798" lon="0.67731">
        <ele>68.77304</ele>
        <time>2021-12-04T01:50:06.910Z</time>
      </trkpt>
      <trkpt lat="46.96873" lon="0.67781">
        <ele>64.247199</ele>
        <time>2021-12-04T01:50:30.400Z</time>
      </trkpt>
      <trkpt lat="46.96918" lon="0.67794">
        <ele>61.703377</ele>
        <time>2021-12-04T01:50:43.243Z</time>
      </trkpt>
      <trkpt lat="46.96981" lon="0.67865">
        <ele>57.158216</ele>
        <time>2021-12-04T01:50:55.554Z</time>
      </trkpt>
      <trkpt lat="46.97038" lon="0.67919">
        <ele>53.297737</ele>
        <time>2021-12-04T01:51:06.003Z</time>
      </trkpt>
      <trkpt lat="46.97063" lon="0.67963">
        <ele>51.240941</ele>
        <time>2021-12-04T01:51:14.647Z</time>
      </trkpt>
      <trkpt lat="46.97086" lon="0.67984">
        <ele>50.529582</ele>
        <time>2021-12-04T01:51:20.833Z</time>
      </trkpt>
      <trkpt lat="46.97125" lon="0.68">
        <ele>49.464413</ele>
        <time>2021-12-04T01:51:30.432Z</time>
      </trkpt>
      <trkpt lat="46.97217" lon="0.68074">
        <ele>46.733603</ele>
        <time>2021-12-04T01:51:50.536Z</time>
      </trkpt>
      <trkpt lat="46.97245" lon="0.68104">
        <ele>46.554542</ele>
        <time>2021-12-04T01:51:57.707Z</time>
      </trkpt>
      <trkpt lat="46.97247" lon="0.68113">
        <ele>46.525277</ele>
        <time>2021-12-04T01:51:59.171Z</time>
      </trkpt>
      <trkpt lat="46.97258" lon="0.68121">
        <ele>46.47387</ele>
        <time>2021-12-04T01:52:01.733Z</time>
      </trkpt>
      <trkpt lat="46.97265" lon="0.68118">
        <ele>46.443148</ele>
        <time>2021-12-04T01:52:03.261Z</time>
      </trkpt>
      <trkpt lat="46.97295" lon="0.68131">
        <ele>46.306187</ele>
        <time>2021-12-04T01:52:10.217Z</time>
      </trkpt>
      <trkpt lat="46.97513" lon="0.68286">
        <ele>45.678743</ele>
        <time>2021-12-04T01:53:05.331Z</time>
      </trkpt>
      <trkpt lat="46.97571" lon="0.68336">
        <ele>45.629591</ele>
        <time>2021-12-04T01:53:19.903Z</time>
      </trkpt>
      <trkpt lat="46.97614" lon="0.68386">
        <ele>45.621021</ele>
        <time>2021-12-04T01:53:31.721Z</time>
      </trkpt>
      <trkpt lat="46.97701" lon="0.68493">
        <ele>45.880516</ele>
        <time>2021-12-04T01:54:00.380Z</time>
      </trkpt>
      <trkpt lat="46.97797" lon="0.68602">
        <ele>46.988072</ele>
        <time>2021-12-04T01:54:34.517Z</time>
      </trkpt>
      <trkpt lat="46.97829" lon="0.68647">
        <ele>47.458809</ele>
        <time>2021-12-04T01:54:49.012Z</time>
      </trkpt>
      <trkpt lat="46.97833" lon="0.68669">
        <ele>47.672573</ele>
        <time>2021-12-04T01:54:54.377Z</time>
      </trkpt>
      <trkpt lat="46.97841" lon="0.68677">
        <ele>47.800953</ele>
        <time>2021-12-04T01:54:57.678Z</time>
      </trkpt>
      <trkpt lat="46.97857" lon="0.68674">
        <ele>48.008912</ele>
        <time>2021-12-04T01:55:02.646Z</time>
      </trkpt>
      <trkpt lat="46.97899" lon="0.68701">
        <ele>48.624659</ele>
        <time>2021-12-04T01:55:17.197Z</time>
      </trkpt>
      <trkpt lat="46.98006" lon="0.68784">
        <ele>50.324891</ele>
        <time>2021-12-04T01:55:52.987Z</time>
      </trkpt>
      <trkpt lat="46.98023" lon="0.68801">
        <ele>50.64666</ele>
        <time>2021-12-04T01:55:59.403Z</time>
      </trkpt>
      <trkpt lat="46.98039" lon="0.68821">
        <ele>50.964476</ele>
        <time>2021-12-04T01:56:06.129Z</time>
      </trkpt>
      <trkpt lat="46.9804" lon="0.68837">
        <ele>51.134105</ele>
        <time>2021-12-04T01:56:09.477Z</time>
      </trkpt>
      <trkpt lat="46.98049" lon="0.68855">
        <ele>51.371772</ele>
        <time>2021-12-04T01:56:14.162Z</time>
      </trkpt>
      <trkpt lat="46.98061" lon="0.68863">
        <ele>51.575401</ele>
        <time>2021-12-04T01:56:18.606Z</time>
      </trkpt>
      <trkpt lat="46.98068" lon="0.68895">
        <ele>51.929611</ele>
        <time>2021-12-04T01:56:26.289Z</time>
      </trkpt>
      <trkpt lat="46.98063" lon="0.68902">
        <ele>52.026857</ele>
        <time>2021-12-04T01:56:28.738Z</time>
      </trkpt>
      <trkpt lat="46.98079" lon="0.6907">
        <ele>55.254054</ele>
        <time>2021-12-04T01:57:12.956Z</time>
      </trkpt>
      <trkpt lat="46.9808" lon="0.6909">
        <ele>55.682368</ele>
        <time>2021-12-04T01:57:18.885Z</time>
      </trkpt>
      <trkpt lat="46.98079" lon="0.69093">
        <ele>55.749294</ele>
        <time>2021-12-04T01:57:19.756Z</time>
      </trkpt>
      <trkpt lat="46.98068" lon="0.69113">
        <ele>56.309838</ele>
        <time>2021-12-04T01:57:27.672Z</time>
      </trkpt>
      <trkpt lat="46.9807" lon="0.6912">
        <ele>56.469536</ele>
        <time>2021-12-04T01:57:30.002Z</time>
      </trkpt>
      <trkpt lat="46.98085" lon="0.69138">
        <ele>57.085717</ele>
        <time>2021-12-04T01:57:39.451Z</time>
      </trkpt>
      <trkpt lat="46.98086" lon="0.6914">
        <ele>57.151116</ele>
        <time>2021-12-04T01:57:40.395Z</time>
      </trkpt>
      <trkpt lat="46.98087" lon="0.6918">
        <ele>57.996691</ele>
        <time>2021-12-04T01:57:53.706Z</time>
      </trkpt>
      <trkpt lat="46.98087" lon="0.69217">
        <ele>59.232568</ele>
        <time>2021-12-04T01:58:06.850Z</time>
      </trkpt>
      <trkpt lat="46.98095" lon="0.69267">
        <ele>61.033718</ele>
        <time>2021-12-04T01:58:27.204Z</time>
      </trkpt>
      <trkpt lat="46.98107" lon="0.69327">
        <ele>63.20595</ele>
        <time>2021-12-04T01:58:52.204Z</time>
      </trkpt>
      <trkpt lat="46.98112" lon="0.69331">
        <ele>63.510782</ele>
        <time>2021-12-04T01:58:56.022Z</time>
      </trkpt>
      <trkpt lat="46.98124" lon="0.69374">
        <ele>65.131492</ele>
        <time>2021-12-04T01:59:13.856Z</time>
      </trkpt>
      <trkpt lat="46.98148" lon="0.69448">
        <ele>67.537007</ele>
        <time>2021-12-04T01:59:44.510Z</time>
      </trkpt>
      <trkpt lat="46.9815" lon="0.69472">
        <ele>67.879515</ele>
        <time>2021-12-04T01:59:52.480Z</time>
      </trkpt>
      <trkpt lat="46.98172" lon="0.69471">
        <ele>68.359568</ele>
        <time>2021-12-04T02:00:03.782Z</time>
      </trkpt>
      <trkpt lat="46.98265" lon="0.69422">
        <ele>70.46527</ele>
        <time>2021-12-04T02:00:39.889Z</time>
      </trkpt>
      <trkpt lat="46.98303" lon="0.69398">
        <ele>70.704459</ele>
        <time>2021-12-04T02:00:48.988Z</time>
      </trkpt>
      <trkpt lat="46.98338" lon="0.69378">
        <ele>69.716434</ele>
        <time>2021-12-04T02:00:56.127Z</time>
      </trkpt>
      <trkpt lat="46.98399" lon="0.69355">
        <ele>68.019917</ele>
        <time>2021-12-04T02:01:07.814Z</time>
      </trkpt>
      <trkpt lat="46.98431" lon="0.69324">
        <ele>66.997446</ele>
        <time>2021-12-04T02:01:14.666Z</time>
      </trkpt>
      <trkpt lat="46.9844" lon="0.69309">
        <ele>66.629428</ele>
        <time>2021-12-04T02:01:17.118Z</time>
      </trkpt>
      <trkpt lat="46.98457" lon="0.69276">
        <ele>66.078834</ele>
        <time>2021-12-04T02:01:22.089Z</time>
      </trkpt>
      <trkpt lat="46.9848" lon="0.69271">
        <ele>65.767288</ele>
        <time>2021-12-04T02:01:26.369Z</time>
      </trkpt>
      <trkpt lat="46.9849" lon="0.69284">
        <ele>65.587296</ele>
        <time>2021-12-04T02:01:28.796Z</time>
      </trkpt>
      <trkpt lat="46.98517" lon="0.69291">
        <ele>65.223214</ele>
        <time>2021-12-04T02:01:33.797Z</time>
      </trkpt>
      <trkpt lat="46.98538" lon="0.69273">
        <ele>64.90876</ele>
        <time>2021-12-04T02:01:38.468Z</time>
      </trkpt>
      <trkpt lat="46.98544" lon="0.69257">
        <ele>64.749906</ele>
        <time>2021-12-04T02:01:40.868Z</time>
      </trkpt>
      <trkpt lat="46.98557" lon="0.69253">
        <ele>64.572773</ele>
        <time>2021-12-04T02:01:43.993Z</time>
      </trkpt>
      <trkpt lat="46.98577" lon="0.69267">
        <ele>64.274364</ele>
        <time>2021-12-04T02:01:49.338Z</time>
      </trkpt>
      <trkpt lat="46.98621" lon="0.69245">
        <ele>64.345159</ele>
        <time>2021-12-04T02:02:03.608Z</time>
      </trkpt>
      <trkpt lat="46.98686" lon="0.69233">
        <ele>65.986152</ele>
        <time>2021-12-04T02:02:29.731Z</time>
      </trkpt>
      <trkpt lat="46.9878" lon="0.69194">
        <ele>68.412548</ele>
        <time>2021-12-04T02:03:12.595Z</time>
      </trkpt>
      <trkpt lat="46.98834" lon="0.69193">
        <ele>69.303714</ele>
        <time>2021-12-04T02:03:34.399Z</time>
      </trkpt>
      <trkpt lat="46.98949" lon="0.69464">
        <ele>72.548988</ele>
        <time>2021-12-04T02:04:40.794Z</time>
      </trkpt>
      <trkpt lat="46.99006" lon="0.69488">
        <ele>73.306608</ele>
        <time>2021-12-04T02:04:59.076Z</time>
      </trkpt>
      <trkpt lat="46.99031" lon="0.69504">
        <ele>73.657733</ele>
        <time>2021-12-04T02:05:07.947Z</time>
      </trkpt>
      <trkpt lat="46.99133" lon="0.69659">
        <ele>77.113862</ele>
        <time>2021-12-04T02:06:05.139Z</time>
      </trkpt>
      <trkpt lat="46.99232" lon="0.69819">
        <ele>80.588363</ele>
        <time>2021-12-04T02:07:04.457Z</time>
      </trkpt>
      <trkpt lat="46.9925" lon="0.6987">
        <ele>81.516897</ele>
        <time>2021-12-04T02:07:18.873Z</time>
      </trkpt>
      <trkpt lat="46.99244" lon="0.69925">
        <ele>82.336002</ele>
        <time>2021-12-04T02:07:32.387Z</time>
      </trkpt>
      <trkpt lat="46.99263" lon="0.69922">
        <ele>82.662306</ele>
        <time>2021-12-04T02:07:38.493Z</time>
      </trkpt>
      <trkpt lat="46.99298" lon="0.69887">
        <ele>83.414155</ele>
        <time>2021-12-04T02:07:53.660Z</time>
      </trkpt>
      <trkpt lat="46.9932" lon="0.69858">
        <ele>83.927947</ele>
        <time>2021-12-04T02:08:03.321Z</time>
      </trkpt>
      <trkpt lat="46.99384" lon="0.69936">
        <ele>85.422718</ele>
        <time>2021-12-04T02:08:43.359Z</time>
      </trkpt>
      <trkpt lat="46.99457" lon="0.69987">
        <ele>87.377533</ele>
        <time>2021-12-04T02:09:24.804Z</time>
      </trkpt>
      <trkpt lat="46.99505" lon="0.70033">
        <ele>88.742811</ele>
        <time>2021-12-04T02:09:54.956Z</time>
      </trkpt>
      <trkpt lat="46.99608" lon="0.70194">
        <ele>93.687318</ele>
        <time>2021-12-04T02:11:21.147Z</time>
      </trkpt>
      <trkpt lat="46.99699" lon="0.70313">
        <ele>98.401767</ele>
        <time>2021-12-04T02:12:39.007Z</time>
      </trkpt>
      <trkpt lat="46.99761" lon="0.70378">
        <ele>101.62231</ele>
        <time>2021-12-04T02:13:29.049Z</time>
      </trkpt>
      <trkpt lat="46.99778" lon="0.70407">
        <ele>102.718665</ele>
        <time>2021-12-04T02:13:45.443Z</time>
      </trkpt>
      <trkpt lat="46.9979" lon="0.70429">
        <ele>103.533746</ele>
        <time>2021-12-04T02:13:57.441Z</time>
      </trkpt>
      <trkpt lat="46.99794" lon="0.70452">
        <ele>103.934947</ele>
        <time>2021-12-04T02:14:06.919Z</time>
      </trkpt>
      <trkpt lat="46.99786" lon="0.70529">
        <ele>105.153816</ele>
        <time>2021-12-04T02:14:37.204Z</time>
      </trkpt>
      <trkpt lat="46.99789" lon="0.70575">
        <ele>105.880515</ele>
        <time>2021-12-04T02:14:53.904Z</time>
      </trkpt>
      <trkpt lat="46.99813" lon="0.70678">
        <ele>107.575682</ele>
        <time>2021-12-04T02:15:29.323Z</time>
      </trkpt>
      <trkpt lat="46.99823" lon="0.70695">
        <ele>107.754211</ele>
        <time>2021-12-04T02:15:36.151Z</time>
      </trkpt>
      <trkpt lat="47.00037" lon="0.70871">
        <ele>107.535482</ele>
        <time>2021-12-04T02:17:09.599Z</time>
      </trkpt>
      <trkpt lat="47.00416" lon="0.7114">
        <ele>104.831474</ele>
        <time>2021-12-04T02:19:37.906Z</time>
      </trkpt>
      <trkpt lat="47.00486" lon="0.71256">
        <ele>105.440907</ele>
        <time>2021-12-04T02:20:09.337Z</time>
      </trkpt>
      <trkpt lat="47.0058" lon="0.71399">
        <ele>107.160773</ele>
        <time>2021-12-04T02:20:55.849Z</time>
      </trkpt>
      <trkpt lat="47.00806" lon="0.71855">
        <ele>110.465052</ele>
        <time>2021-12-04T02:22:49.115Z</time>
      </trkpt>
      <trkpt lat="47.00865" lon="0.71957">
        <ele>110.808092</ele>
        <time>2021-12-04T02:23:13.041Z</time>
      </trkpt>
      <trkpt lat="47.00994" lon="0.72157">
        <ele>111.23673</ele>
        <time>2021-12-04T02:23:58.862Z</time>
      </trkpt>
      <trkpt lat="47.01087" lon="0.72302">
        <ele>112.168081</ele>
        <time>2021-12-04T02:24:36.794Z</time>
      </trkpt>
      <trkpt lat="47.01225" lon="0.72112">
        <ele>113.717603</ele>
        <time>2021-12-04T02:25:37.084Z</time>
      </trkpt>
      <trkpt lat="47.01435" lon="0.71864">
        <ele>114.459636</ele>
        <time>2021-12-04T02:26:43.863Z</time>
      </trkpt>
      <trkpt lat="47.01452" lon="0.718">
        <ele>114.524727</ele>
        <time>2021-12-04T02:26:54.930Z</time>
      </trkpt>
      <trkpt lat="47.01469" lon="0.71707">
        <ele>114.615363</ele>
        <time>2021-12-04T02:27:10.830Z</time>
      </trkpt>
      <trkpt lat="47.01479" lon="0.71699">
        <ele>114.631008</ele>
        <time>2021-12-04T02:27:13.679Z</time>
      </trkpt>
      <trkpt lat="47.01756" lon="0.71738">
        <ele>115.52224</ele>
        <time>2021-12-04T02:28:31.505Z</time>
      </trkpt>
      <trkpt lat="47.01847" lon="0.71789">
        <ele>115.196997</ele>
        <time>2021-12-04T02:28:54.097Z</time>
      </trkpt>
      <trkpt lat="47.02023" lon="0.71969">
        <ele>111.386705</ele>
        <time>2021-12-04T02:30:04.931Z</time>
      </trkpt>
      <trkpt lat="47.02226" lon="0.7213">
        <ele>106.852246</ele>
        <time>2021-12-04T02:31:18.795Z</time>
      </trkpt>
      <trkpt lat="47.02338" lon="0.72264">
        <ele>106.066357</ele>
        <time>2021-12-04T02:32:12.324Z</time>
      </trkpt>
      <trkpt lat="47.02417" lon="0.72313">
        <ele>107.223708</ele>
        <time>2021-12-04T02:32:53.481Z</time>
      </trkpt>
      <trkpt lat="47.02523" lon="0.72399">
        <ele>108.759927</ele>
        <time>2021-12-04T02:33:54.164Z</time>
      </trkpt>
      <trkpt lat="47.02514" lon="0.7233">
        <ele>109.329526</ele>
        <time>2021-12-04T02:34:17.315Z</time>
      </trkpt>
      <trkpt lat="47.02516" lon="0.72312">
        <ele>109.471454</ele>
        <time>2021-12-04T02:34:22.722Z</time>
      </trkpt>
      <trkpt lat="47.02531" lon="0.72275">
        <ele>109.813734</ele>
        <time>2021-12-04T02:34:35.458Z</time>
      </trkpt>
      <trkpt lat="47.02581" lon="0.7222">
        <ele>110.028059</ele>
        <time>2021-12-04T02:35:00.296Z</time>
      </trkpt>
      <trkpt lat="47.02822" lon="0.72088">
        <ele>108.25873</ele>
        <time>2021-12-04T02:36:29.599Z</time>
      </trkpt>
      <trkpt lat="47.02937" lon="0.71981">
        <ele>108.829965</ele>
        <time>2021-12-04T02:37:23.542Z</time>
      </trkpt>
      <trkpt lat="47.03073" lon="0.71807">
        <ele>112.025007</ele>
        <time>2021-12-04T02:38:56.983Z</time>
      </trkpt>
      <trkpt lat="47.0309" lon="0.71838">
        <ele>112.598965</ele>
        <time>2021-12-04T02:39:07.956Z</time>
      </trkpt>
      <trkpt lat="47.03226" lon="0.71948">
        <ele>115.341208</ele>
        <time>2021-12-04T02:40:03.614Z</time>
      </trkpt>
      <trkpt lat="47.03286" lon="0.72002">
        <ele>116.206931</ele>
        <time>2021-12-04T02:40:26.131Z</time>
      </trkpt>
      <trkpt lat="47.03521" lon="0.72261">
        <ele>115.746172</ele>
        <time>2021-12-04T02:41:42.433Z</time>
      </trkpt>
      <trkpt lat="47.03558" lon="0.72286">
        <ele>114.803528</ele>
        <time>2021-12-04T02:41:50.585Z</time>
      </trkpt>
      <trkpt lat="47.04272" lon="0.72635">
        <ele>79.999394</ele>
        <time>2021-12-04T02:43:59.133Z</time>
      </trkpt>
      <trkpt lat="47.04246" lon="0.72729">
        <ele>76.951997</ele>
        <time>2021-12-04T02:44:10.377Z</time>
      </trkpt>
      <trkpt lat="47.04381" lon="0.72802">
        <ele>71.231685</ele>
        <time>2021-12-04T02:44:36.057Z</time>
      </trkpt>
      <trkpt lat="47.04419" lon="0.72771">
        <ele>69.867902</ele>
        <time>2021-12-04T02:44:43.683Z</time>
      </trkpt>
      <trkpt lat="47.04586" lon="0.72807">
        <ele>65.285381</ele>
        <time>2021-12-04T02:45:15.363Z</time>
      </trkpt>
      <trkpt lat="47.046" lon="0.72809">
        <ele>65.120303</ele>
        <time>2021-12-04T02:45:18.227Z</time>
      </trkpt>
      <trkpt lat="47.04612" lon="0.7281">
        <ele>64.978837</ele>
        <time>2021-12-04T02:45:20.666Z</time>
      </trkpt>
      <trkpt lat="47.04619" lon="0.72748">
        <ele>64.472837</ele>
        <time>2021-12-04T02:45:35.471Z</time>
      </trkpt>
      <trkpt lat="47.04652" lon="0.72666">
        <ele>63.714842</ele>
        <time>2021-12-04T02:45:58.808Z</time>
      </trkpt>
      <trkpt lat="47.04727" lon="0.72537">
        <ele>63.318456</ele>
        <time>2021-12-04T02:46:42.970Z</time>
      </trkpt>
      <trkpt lat="47.04737" lon="0.72409">
        <ele>63.161056</ele>
        <time>2021-12-04T02:47:15.868Z</time>
      </trkpt>
      <trkpt lat="47.04735" lon="0.72341">
        <ele>63.028609</ele>
        <time>2021-12-04T02:47:33.089Z</time>
      </trkpt>
      <trkpt lat="47.04706" lon="0.72258">
        <ele>62.849822</ele>
        <time>2021-12-04T02:47:56.315Z</time>
      </trkpt>
      <trkpt lat="47.04655" lon="0.72145">
        <ele>62.67181</ele>
        <time>2021-12-04T02:48:30.938Z</time>
      </trkpt>
      <trkpt lat="47.04621" lon="0.72103">
        <ele>62.687095</ele>
        <time>2021-12-04T02:48:47.709Z</time>
      </trkpt>
      <trkpt lat="47.04596" lon="0.72047">
        <ele>62.702857</ele>
        <time>2021-12-04T02:49:05.267Z</time>
      </trkpt>
      <trkpt lat="47.04582" lon="0.71996">
        <ele>62.715753</ele>
        <time>2021-12-04T02:49:19.902Z</time>
      </trkpt>
      <trkpt lat="47.04578" lon="0.71942">
        <ele>62.786735</ele>
        <time>2021-12-04T02:49:34.691Z</time>
      </trkpt>
      <trkpt lat="47.04584" lon="0.71883">
        <ele>62.999472</ele>
        <time>2021-12-04T02:49:51.070Z</time>
      </trkpt>
      <trkpt lat="47.04603" lon="0.71838">
        <ele>63.186712</ele>
        <time>2021-12-04T02:50:05.677Z</time>
      </trkpt>
      <trkpt lat="47.04658" lon="0.71759">
        <ele>63.592062</ele>
        <time>2021-12-04T02:50:37.932Z</time>
      </trkpt>
      <trkpt lat="47.04701" lon="0.71731">
        <ele>63.994904</ele>
        <time>2021-12-04T02:50:58.261Z</time>
      </trkpt>
      <trkpt lat="47.04722" lon="0.71726">
        <ele>64.207665</ele>
        <time>2021-12-04T02:51:07.839Z</time>
      </trkpt>
      <trkpt lat="47.0484" lon="0.71727">
        <ele>65.380919</ele>
        <time>2021-12-04T02:52:00.577Z</time>
      </trkpt>
      <trkpt lat="47.04865" lon="0.71742">
        <ele>65.576779</ele>
        <time>2021-12-04T02:52:12.583Z</time>
      </trkpt>
      <trkpt lat="47.04878" lon="0.71764">
        <ele>65.701276</ele>
        <time>2021-12-04T02:52:21.381Z</time>
      </trkpt>
      <trkpt lat="47.0494" lon="0.71828">
        <ele>66.171087</ele>
        <time>2021-12-04T02:52:53.785Z</time>
      </trkpt>
      <trkpt lat="47.04943" lon="0.7185">
        <ele>66.269017</ele>
        <time>2021-12-04T02:53:00.263Z</time>
      </trkpt>
      <trkpt lat="47.04955" lon="0.71875">
        <ele>66.398619</ele>
        <time>2021-12-04T02:53:08.831Z</time>
      </trkpt>
      <trkpt lat="47.05006" lon="0.7204">
        <ele>66.383046</ele>
        <time>2021-12-04T02:53:55.299Z</time>
      </trkpt>
      <trkpt lat="47.05084" lon="0.72211">
        <ele>66.268152</ele>
        <time>2021-12-04T02:54:47.037Z</time>
      </trkpt>
      <trkpt lat="47.05119" lon="0.72265">
        <ele>66.322208</ele>
        <time>2021-12-04T02:55:06.409Z</time>
      </trkpt>
      <trkpt lat="47.05127" lon="0.72293">
        <ele>66.344515</ele>
        <time>2021-12-04T02:55:14.571Z</time>
      </trkpt>
      <trkpt lat="47.0513" lon="0.72348">
        <ele>66.384553</ele>
        <time>2021-12-04T02:55:29.825Z</time>
      </trkpt>
      <trkpt lat="47.05116" lon="0.72428">
        <ele>66.722207</ele>
        <time>2021-12-04T02:55:53.704Z</time>
      </trkpt>
      <trkpt lat="47.05066" lon="0.72541">
        <ele>67.449785</ele>
        <time>2021-12-04T02:56:34.335Z</time>
      </trkpt>
      <trkpt lat="47.05052" lon="0.72599">
        <ele>67.783419</ele>
        <time>2021-12-04T02:56:52.489Z</time>
      </trkpt>
      <trkpt lat="47.0505" lon="0.72728">
        <ele>67.898444</ele>
        <time>2021-12-04T02:57:28.001Z</time>
      </trkpt>
      <trkpt lat="47.05055" lon="0.72756">
        <ele>67.915442</ele>
        <time>2021-12-04T02:57:35.518Z</time>
      </trkpt>
      <trkpt lat="47.05057" lon="0.72944">
        <ele>67.749217</ele>
        <time>2021-12-04T02:58:23.004Z</time>
      </trkpt>
      <trkpt lat="47.05066" lon="0.72992">
        <ele>67.589195</ele>
        <time>2021-12-04T02:58:35.418Z</time>
      </trkpt>
      <trkpt lat="47.0511" lon="0.73091">
        <ele>67.213762</ele>
        <time>2021-12-04T02:59:04.615Z</time>
      </trkpt>
      <trkpt lat="47.05104" lon="0.73152">
        <ele>67.064527</ele>
        <time>2021-12-04T02:59:20.014Z</time>
      </trkpt>
      <trkpt lat="47.05109" lon="0.73183">
        <ele>67.0024</ele>
        <time>2021-12-04T02:59:27.849Z</time>
      </trkpt>
      <trkpt lat="47.05083" lon="0.73295">
        <ele>66.767345</ele>
        <time>2021-12-04T02:59:57.807Z</time>
      </trkpt>
      <trkpt lat="47.05053" lon="0.73462">
        <ele>66.593056</ele>
        <time>2021-12-04T03:00:42.038Z</time>
      </trkpt>
      <trkpt lat="47.05048" lon="0.73561">
        <ele>66.566418</ele>
        <time>2021-12-04T03:01:07.613Z</time>
      </trkpt>
      <trkpt lat="47.0506" lon="0.73719">
        <ele>66.645846</ele>
        <time>2021-12-04T03:01:49.397Z</time>
      </trkpt>
      <trkpt lat="47.05057" lon="0.73915">
        <ele>66.982195</ele>
        <time>2021-12-04T03:02:41.695Z</time>
      </trkpt>
      <trkpt lat="47.05114" lon="0.73892">
        <ele>67.534107</ele>
        <time>2021-12-04T03:03:05.976Z</time>
      </trkpt>
      <trkpt lat="47.05119" lon="0.73891">
        <ele>67.583097</ele>
        <time>2021-12-04T03:03:08.117Z</time>
      </trkpt>
      <trkpt lat="47.05172" lon="0.73869">
        <ele>68.100532</ele>
        <time>2021-12-04T03:03:31.724Z</time>
      </trkpt>
      <trkpt lat="47.05225" lon="0.73812">
        <ele>69.230048</ele>
        <time>2021-12-04T03:04:02.991Z</time>
      </trkpt>
      <trkpt lat="47.05248" lon="0.73763">
        <ele>70.59675</ele>
        <time>2021-12-04T03:04:25.952Z</time>
      </trkpt>
      <trkpt lat="47.05272" lon="0.73745">
        <ele>71.502898</ele>
        <time>2021-12-04T03:04:41.719Z</time>
      </trkpt>
      <trkpt lat="47.05488" lon="0.73611">
        <ele>79.990432</ele>
        <time>2021-12-04T03:07:09.761Z</time>
      </trkpt>
      <trkpt lat="47.0558" lon="0.73534">
        <ele>82.889968</ele>
        <time>2021-12-04T03:08:07.631Z</time>
      </trkpt>
      <trkpt lat="47.0585" lon="0.73388">
        <ele>88.452174</ele>
        <time>2021-12-04T03:10:26.314Z</time>
      </trkpt>
      <trkpt lat="47.05992" lon="0.7329">
        <ele>92.701975</ele>
        <time>2021-12-04T03:11:48.559Z</time>
      </trkpt>
      <trkpt lat="47.05981" lon="0.7324">
        <ele>93.921443</ele>
        <time>2021-12-04T03:12:10.741Z</time>
      </trkpt>
      <trkpt lat="47.06216" lon="0.73066">
        <ele>105.887263</ele>
        <time>2021-12-04T03:14:52.630Z</time>
      </trkpt>
      <trkpt lat="47.06246" lon="0.73198">
        <ele>109.399488</ele>
        <time>2021-12-04T03:15:31.680Z</time>
      </trkpt>
      <trkpt lat="47.06262" lon="0.73311">
        <ele>110.647442</ele>
        <time>2021-12-04T03:16:08.205Z</time>
      </trkpt>
      <trkpt lat="47.06299" lon="0.73435">
        <ele>112.099397</ele>
        <time>2021-12-04T03:16:50.647Z</time>
      </trkpt>
      <trkpt lat="47.06328" lon="0.73509">
        <ele>113.027729</ele>
        <time>2021-12-04T03:17:18.241Z</time>
      </trkpt>
      <trkpt lat="47.0636" lon="0.73544">
        <ele>113.650579</ele>
        <time>2021-12-04T03:17:37.193Z</time>
      </trkpt>
      <trkpt lat="47.06389" lon="0.73597">
        <ele>114.39038</ele>
        <time>2021-12-04T03:18:00.107Z</time>
      </trkpt>
      <trkpt lat="47.06405" lon="0.73617">
        <ele>114.729672</ele>
        <time>2021-12-04T03:18:10.948Z</time>
      </trkpt>
      <trkpt lat="47.06494" lon="0.73642">
        <ele>114.987934</ele>
        <time>2021-12-04T03:18:52.149Z</time>
      </trkpt>
      <trkpt lat="47.06516" lon="0.73659">
        <ele>114.995031</ele>
        <time>2021-12-04T03:19:01.602Z</time>
      </trkpt>
      <trkpt lat="47.06562" lon="0.73738">
        <ele>115.015374</ele>
        <time>2021-12-04T03:19:26.997Z</time>
      </trkpt>
      <trkpt lat="47.0667" lon="0.73978">
        <ele>110.125879</ele>
        <time>2021-12-04T03:20:15.470Z</time>
      </trkpt>
      <trkpt lat="47.06706" lon="0.7391">
        <ele>107.012819</ele>
        <time>2021-12-04T03:20:32.846Z</time>
      </trkpt>
      <trkpt lat="47.06722" lon="0.73906">
        <ele>106.201427</ele>
        <time>2021-12-04T03:20:37.544Z</time>
      </trkpt>
      <trkpt lat="47.0717" lon="0.73895">
        <ele>83.553532</ele>
        <time>2021-12-04T03:22:44.366Z</time>
      </trkpt>
      <trkpt lat="47.07186" lon="0.73897">
        <ele>83.389365</ele>
        <time>2021-12-04T03:22:50.322Z</time>
      </trkpt>
      <trkpt lat="47.07217" lon="0.73943">
        <ele>85.180284</ele>
        <time>2021-12-04T03:23:09.367Z</time>
      </trkpt>
      <trkpt lat="47.07244" lon="0.74006">
        <ele>87.222456</ele>
        <time>2021-12-04T03:23:38.913Z</time>
      </trkpt>
      <trkpt lat="47.07432" lon="0.73982">
        <ele>98.441208</ele>
        <time>2021-12-04T03:26:24.894Z</time>
      </trkpt>
      <trkpt lat="47.07463" lon="0.74136">
        <ele>104.319716</ele>
        <time>2021-12-04T03:27:33.262Z</time>
      </trkpt>
      <trkpt lat="47.07858" lon="0.74051">
        <ele>108.507973</ele>
        <time>2021-12-04T03:30:16.742Z</time>
      </trkpt>
      <trkpt lat="47.07917" lon="0.74011">
        <ele>108.970453</ele>
        <time>2021-12-04T03:30:43.594Z</time>
      </trkpt>
      <trkpt lat="47.08138" lon="0.74015">
        <ele>111.481329</ele>
        <time>2021-12-04T03:32:25.138Z</time>
      </trkpt>
      <trkpt lat="47.08198" lon="0.74045">
        <ele>111.839568</ele>
        <time>2021-12-04T03:32:52.926Z</time>
      </trkpt>
      <trkpt lat="47.08214" lon="0.74042">
        <ele>111.933521</ele>
        <time>2021-12-04T03:33:00.102Z</time>
      </trkpt>
      <trkpt lat="47.08306" lon="0.74011">
        <ele>112.465301</ele>
        <time>2021-12-04T03:33:37.663Z</time>
      </trkpt>
      <trkpt lat="47.08475" lon="0.74376">
        <ele>111.770543</ele>
        <time>2021-12-04T03:35:29.640Z</time>
      </trkpt>
      <trkpt lat="47.08721" lon="0.74134">
        <ele>110.753293</ele>
        <time>2021-12-04T03:37:19.400Z</time>
      </trkpt>
      <trkpt lat="47.08848" lon="0.74362">
        <ele>110.023719</ele>
        <time>2021-12-04T03:38:32.637Z</time>
      </trkpt>
      <trkpt lat="47.08862" lon="0.7434">
        <ele>109.963399</ele>
        <time>2021-12-04T03:38:40.304Z</time>
      </trkpt>
      <trkpt lat="47.08882" lon="0.74662">
        <ele>109.896845</ele>
        <time>2021-12-04T03:40:03.251Z</time>
      </trkpt>
      <trkpt lat="47.08895" lon="0.74887">
        <ele>110.930021</ele>
        <time>2021-12-04T03:41:08.886Z</time>
      </trkpt>
      <trkpt lat="47.08911" lon="0.74894">
        <ele>111.075308</ele>
        <time>2021-12-04T03:41:16.580Z</time>
      </trkpt>
      <trkpt lat="47.08991" lon="0.75033">
        <ele>112.262589</ele>
        <time>2021-12-04T03:42:12.594Z</time>
      </trkpt>
      <trkpt lat="47.091" lon="0.75324">
        <ele>113.801844</ele>
        <time>2021-12-04T03:43:50.904Z</time>
      </trkpt>
      <trkpt lat="47.09104" lon="0.75346">
        <ele>113.860577</ele>
        <time>2021-12-04T03:43:56.848Z</time>
      </trkpt>
      <trkpt lat="47.09191" lon="0.75825">
        <ele>112.30063</ele>
        <time>2021-12-04T03:45:58.147Z</time>
      </trkpt>
      <trkpt lat="47.0923" lon="0.76002">
        <ele>112.11122</ele>
        <time>2021-12-04T03:46:45.552Z</time>
      </trkpt>
      <trkpt lat="47.09233" lon="0.7604">
        <ele>112.174065</ele>
        <time>2021-12-04T03:46:52.156Z</time>
      </trkpt>
      <trkpt lat="47.09306" lon="0.76437">
        <ele>113.447926</ele>
        <time>2021-12-04T03:48:09.138Z</time>
      </trkpt>
      <trkpt lat="47.09367" lon="0.76768">
        <ele>115.738134</ele>
        <time>2021-12-04T03:49:15.937Z</time>
      </trkpt>
      <trkpt lat="47.09746" lon="0.76586">
        <ele>121.790351</ele>
        <time>2021-12-04T03:52:34.923Z</time>
      </trkpt>
      <trkpt lat="47.09943" lon="0.76494">
        <ele>121.853876</ele>
        <time>2021-12-04T03:53:49.888Z</time>
      </trkpt>
      <trkpt lat="47.10899" lon="0.76013">
        <ele>118.049107</ele>
        <time>2021-12-04T04:00:01.806Z</time>
      </trkpt>
      <trkpt lat="47.10859" lon="0.7627">
        <ele>118.865674</ele>
        <time>2021-12-04T04:01:11.861Z</time>
      </trkpt>
      <trkpt lat="47.10985" lon="0.76258">
        <ele>120.6849</ele>
        <time>2021-12-04T04:02:14.818Z</time>
      </trkpt>
      <trkpt lat="47.11208" lon="0.76379">
        <ele>125.22002</ele>
        <time>2021-12-04T04:04:18.690Z</time>
      </trkpt>
      <trkpt lat="47.11267" lon="0.76479">
        <ele>125.941017</ele>
        <time>2021-12-04T04:04:55.690Z</time>
      </trkpt>
      <trkpt lat="47.11498" lon="0.76486">
        <ele>124.329464</ele>
        <time>2021-12-04T04:06:16.909Z</time>
      </trkpt>
      <trkpt lat="47.11531" lon="0.76425">
        <ele>123.706804</ele>
        <time>2021-12-04T04:06:35.366Z</time>
      </trkpt>
      <trkpt lat="47.11561" lon="0.7657">
        <ele>122.495828</ele>
        <time>2021-12-04T04:07:10.977Z</time>
      </trkpt>
      <trkpt lat="47.11607" lon="0.76995">
        <ele>118.178578</ele>
        <time>2021-12-04T04:08:50.002Z</time>
      </trkpt>
      <trkpt lat="47.11882" lon="0.77326">
        <ele>114.69326</ele>
        <time>2021-12-04T04:10:54.670Z</time>
      </trkpt>
      <trkpt lat="47.11895" lon="0.77333">
        <ele>114.584938</ele>
        <time>2021-12-04T04:10:59.738Z</time>
      </trkpt>
      <trkpt lat="47.12088" lon="0.77443">
        <ele>113.332427</ele>
        <time>2021-12-04T04:12:15.674Z</time>
      </trkpt>
      <trkpt lat="47.12361" lon="0.77732">
        <ele>111.132286</ele>
        <time>2021-12-04T04:14:16.634Z</time>
      </trkpt>
      <trkpt lat="47.12385" lon="0.77838">
        <ele>110.696976</ele>
        <time>2021-12-04T04:14:43.846Z</time>
      </trkpt>
      <trkpt lat="47.12416" lon="0.78045">
        <ele>110.199089</ele>
        <time>2021-12-04T04:15:36.837Z</time>
      </trkpt>
      <trkpt lat="47.12469" lon="0.78193">
        <ele>110.482779</ele>
        <time>2021-12-04T04:16:21.931Z</time>
      </trkpt>
      <trkpt lat="47.12494" lon="0.78306">
        <ele>110.757762</ele>
        <time>2021-12-04T04:16:55.809Z</time>
      </trkpt>
      <trkpt lat="47.12525" lon="0.78437">
        <ele>110.907028</ele>
        <time>2021-12-04T04:17:34.439Z</time>
      </trkpt>
      <trkpt lat="47.12528" lon="0.78438">
        <ele>110.911587</ele>
        <time>2021-12-04T04:17:35.153Z</time>
      </trkpt>
      <trkpt lat="47.12555" lon="0.78476">
        <ele>110.969441</ele>
        <time>2021-12-04T04:17:44.421Z</time>
      </trkpt>
      <trkpt lat="47.12754" lon="0.78377">
        <ele>110.324565</ele>
        <time>2021-12-04T04:19:01.571Z</time>
      </trkpt>
      <trkpt lat="47.12809" lon="0.78293">
        <ele>110.071446</ele>
        <time>2021-12-04T04:19:30.402Z</time>
      </trkpt>
      <trkpt lat="47.12807" lon="0.78243">
        <ele>109.971325</ele>
        <time>2021-12-04T04:19:42.941Z</time>
      </trkpt>
      <trkpt lat="47.12812" lon="0.78225">
        <ele>109.932106</ele>
        <time>2021-12-04T04:19:47.850Z</time>
      </trkpt>
      <trkpt lat="47.12945" lon="0.78054">
        <ele>109.479501</ele>
        <time>2021-12-04T04:20:54.375Z</time>
      </trkpt>
      <trkpt lat="47.12993" lon="0.78017">
        <ele>109.35286</ele>
        <time>2021-12-04T04:21:14.911Z</time>
      </trkpt>
      <trkpt lat="47.13125" lon="0.7839">
        <ele>107.411946</ele>
        <time>2021-12-04T04:22:15.046Z</time>
      </trkpt>
      <trkpt lat="47.13129" lon="0.7839">
        <ele>107.378377</ele>
        <time>2021-12-04T04:22:16.321Z</time>
      </trkpt>
      <trkpt lat="47.13162" lon="0.78485">
        <ele>106.745475</ele>
        <time>2021-12-04T04:22:41.502Z</time>
      </trkpt>
      <trkpt lat="47.13232" lon="0.78686">
        <ele>105.735625</ele>
        <time>2021-12-04T04:23:36.039Z</time>
      </trkpt>
      <trkpt lat="47.13353" lon="0.7904">
        <ele>105.853576</ele>
        <time>2021-12-04T04:25:19.242Z</time>
      </trkpt>
      <trkpt lat="47.1341" lon="0.79207">
        <ele>106.715666</ele>
        <time>2021-12-04T04:26:15.054Z</time>
      </trkpt>
      <trkpt lat="47.13429" lon="0.79253">
        <ele>106.938938</ele>
        <time>2021-12-04T04:26:31.106Z</time>
      </trkpt>
      <trkpt lat="47.13439" lon="0.79265">
        <ele>107.016923</ele>
        <time>2021-12-04T04:26:36.836Z</time>
      </trkpt>
      <trkpt lat="47.13439" lon="0.79268">
        <ele>107.028288</ele>
        <time>2021-12-04T04:26:37.672Z</time>
      </trkpt>
      <trkpt lat="47.13439" lon="0.79271">
        <ele>107.03864</ele>
        <time>2021-12-04T04:26:38.424Z</time>
      </trkpt>
      <trkpt lat="47.13433" lon="0.79281">
        <ele>107.09421</ele>
        <time>2021-12-04T04:26:42.402Z</time>
      </trkpt>
      <trkpt lat="47.13438" lon="0.79394">
        <ele>107.55926</ele>
        <time>2021-12-04T04:27:14.692Z</time>
      </trkpt>
      <trkpt lat="47.13439" lon="0.7941">
        <ele>107.626626</ele>
        <time>2021-12-04T04:27:19.206Z</time>
      </trkpt>
      <trkpt lat="47.13439" lon="0.79422">
        <ele>107.674778</ele>
        <time>2021-12-04T04:27:22.453Z</time>
      </trkpt>
      <trkpt lat="47.13437" lon="0.79514">
        <ele>107.685171</ele>
        <time>2021-12-04T04:27:46.849Z</time>
      </trkpt>
      <trkpt lat="47.13436" lon="0.7954">
        <ele>107.614554</ele>
        <time>2021-12-04T04:27:53.314Z</time>
      </trkpt>
      <trkpt lat="47.13547" lon="0.79565">
        <ele>107.158726</ele>
        <time>2021-12-04T04:28:18.516Z</time>
      </trkpt>
      <trkpt lat="47.13623" lon="0.79584">
        <ele>106.448024</ele>
        <time>2021-12-04T04:28:35.213Z</time>
      </trkpt>
      <trkpt lat="47.13616" lon="0.79612">
        <ele>106.244766</ele>
        <time>2021-12-04T04:28:39.415Z</time>
      </trkpt>
      <trkpt lat="47.13679" lon="0.79637">
        <ele>105.575159</ele>
        <time>2021-12-04T04:28:53.070Z</time>
      </trkpt>
      <trkpt lat="47.13794" lon="0.79669">
        <ele>104.312645</ele>
        <time>2021-12-04T04:29:18.050Z</time>
      </trkpt>
      <trkpt lat="47.13895" lon="0.79676">
        <ele>103.226104</ele>
        <time>2021-12-04T04:29:39.656Z</time>
      </trkpt>
      <trkpt lat="47.13944" lon="0.79674">
        <ele>102.772475</ele>
        <time>2021-12-04T04:29:56.828Z</time>
      </trkpt>
      <trkpt lat="47.14037" lon="0.7965">
        <ele>101.893818</ele>
        <time>2021-12-04T04:30:30.150Z</time>
      </trkpt>
      <trkpt lat="47.14163" lon="0.79605">
        <ele>101.054559</ele>
        <time>2021-12-04T04:31:16.477Z</time>
      </trkpt>
      <trkpt lat="47.14435" lon="0.79759">
        <ele>99.672875</ele>
        <time>2021-12-04T04:32:23.596Z</time>
      </trkpt>
      <trkpt lat="47.14601" lon="0.79867">
        <ele>98.606454</ele>
        <time>2021-12-04T04:33:03.552Z</time>
      </trkpt>
      <trkpt lat="47.14645" lon="0.79903">
        <ele>98.482216</ele>
        <time>2021-12-04T04:33:15.066Z</time>
      </trkpt>
      <trkpt lat="47.14787" lon="0.8015">
        <ele>98.16372</ele>
        <time>2021-12-04T04:34:09.495Z</time>
      </trkpt>
      <trkpt lat="47.1493" lon="0.80296">
        <ele>97.551693</ele>
        <time>2021-12-04T04:34:49.974Z</time>
      </trkpt>
      <trkpt lat="47.15003" lon="0.80122">
        <ele>96.650095</ele>
        <time>2021-12-04T04:35:20.048Z</time>
      </trkpt>
      <trkpt lat="47.15031" lon="0.80095">
        <ele>96.388869</ele>
        <time>2021-12-04T04:35:27.211Z</time>
      </trkpt>
      <trkpt lat="47.15052" lon="0.80037">
        <ele>96.040131</ele>
        <time>2021-12-04T04:35:43.072Z</time>
      </trkpt>
      <trkpt lat="47.15053" lon="0.80035">
        <ele>96.023411</ele>
        <time>2021-12-04T04:35:43.833Z</time>
      </trkpt>
      <trkpt lat="47.15094" lon="0.79928">
        <ele>95.708281</ele>
        <time>2021-12-04T04:36:14.733Z</time>
      </trkpt>
      <trkpt lat="47.15115" lon="0.79886">
        <ele>95.631324</ele>
        <time>2021-12-04T04:36:28.064Z</time>
      </trkpt>
      <trkpt lat="47.15133" lon="0.79859">
        <ele>95.575046</ele>
        <time>2021-12-04T04:36:37.851Z</time>
      </trkpt>
      <trkpt lat="47.15173" lon="0.7982">
        <ele>95.46997</ele>
        <time>2021-12-04T04:36:56.230Z</time>
      </trkpt>
      <trkpt lat="47.15296" lon="0.79747">
        <ele>94.998657</ele>
        <time>2021-12-04T04:37:45.565Z</time>
      </trkpt>
      <trkpt lat="47.15425" lon="0.79739">
        <ele>94.593501</ele>
        <time>2021-12-04T04:38:32.132Z</time>
      </trkpt>
      <trkpt lat="47.15449" lon="0.79729">
        <ele>94.525834</ele>
        <time>2021-12-04T04:38:41.290Z</time>
      </trkpt>
      <trkpt lat="47.1549" lon="0.79678">
        <ele>94.381869</ele>
        <time>2021-12-04T04:39:01.181Z</time>
      </trkpt>
      <trkpt lat="47.15974" lon="0.79261">
        <ele>97.631793</ele>
        <time>2021-12-04T04:42:57.235Z</time>
      </trkpt>
      <trkpt lat="47.16004" lon="0.7926">
        <ele>97.659199</ele>
        <time>2021-12-04T04:43:09.404Z</time>
      </trkpt>
      <trkpt lat="47.16095" lon="0.7931">
        <ele>97.544177</ele>
        <time>2021-12-04T04:43:47.419Z</time>
      </trkpt>
      <trkpt lat="47.16171" lon="0.79454">
        <ele>96.688849</ele>
        <time>2021-12-04T04:44:31.491Z</time>
      </trkpt>
      <trkpt lat="47.16192" lon="0.79399">
        <ele>96.151433</ele>
        <time>2021-12-04T04:44:42.869Z</time>
      </trkpt>
      <trkpt lat="47.16204" lon="0.79382">
        <ele>95.932216</ele>
        <time>2021-12-04T04:44:47.497Z</time>
      </trkpt>
      <trkpt lat="47.16222" lon="0.79371">
        <ele>95.692379</ele>
        <time>2021-12-04T04:44:52.525Z</time>
      </trkpt>
      <trkpt lat="47.16282" lon="0.79335">
        <ele>94.819974</ele>
        <time>2021-12-04T04:45:09.393Z</time>
      </trkpt>
      <trkpt lat="47.16305" lon="0.79414">
        <ele>93.95791</ele>
        <time>2021-12-04T04:45:20.419Z</time>
      </trkpt>
      <trkpt lat="47.16348" lon="0.79524">
        <ele>92.689493</ele>
        <time>2021-12-04T04:45:37.157Z</time>
      </trkpt>
      <trkpt lat="47.16403" lon="0.79522">
        <ele>92.619134</ele>
        <time>2021-12-04T04:45:56.978Z</time>
      </trkpt>
      <trkpt lat="47.16511" lon="0.79463">
        <ele>92.731742</ele>
        <time>2021-12-04T04:46:42.274Z</time>
      </trkpt>
      <trkpt lat="47.16532" lon="0.79446">
        <ele>92.855249</ele>
        <time>2021-12-04T04:46:53.158Z</time>
      </trkpt>
      <trkpt lat="47.16549" lon="0.7944">
        <ele>93.145208</ele>
        <time>2021-12-04T04:47:01.478Z</time>
      </trkpt>
      <trkpt lat="47.16575" lon="0.79442">
        <ele>93.57754</ele>
        <time>2021-12-04T04:47:13.812Z</time>
      </trkpt>
      <trkpt lat="47.16605" lon="0.79454">
        <ele>94.085433</ele>
        <time>2021-12-04T04:47:28.776Z</time>
      </trkpt>
      <trkpt lat="47.16668" lon="0.79489">
        <ele>95.204919</ele>
        <time>2021-12-04T04:48:02.544Z</time>
      </trkpt>
      <trkpt lat="47.16712" lon="0.7952">
        <ele>96.007599</ele>
        <time>2021-12-04T04:48:27.127Z</time>
      </trkpt>
      <trkpt lat="47.16772" lon="0.79632">
        <ele>97.545794</ele>
        <time>2021-12-04T04:49:14.636Z</time>
      </trkpt>
      <trkpt lat="47.16789" lon="0.7964">
        <ele>97.832339</ele>
        <time>2021-12-04T04:49:22.520Z</time>
      </trkpt>
      <trkpt lat="47.16798" lon="0.79661">
        <ele>98.095729</ele>
        <time>2021-12-04T04:49:30.348Z</time>
      </trkpt>
      <trkpt lat="47.16844" lon="0.79747">
        <ele>98.891998</ele>
        <time>2021-12-04T04:49:57.519Z</time>
      </trkpt>
      <trkpt lat="47.16874" lon="0.79871">
        <ele>99.521585</ele>
        <time>2021-12-04T04:50:28.631Z</time>
      </trkpt>
      <trkpt lat="47.1692" lon="0.80018">
        <ele>100.031351</ele>
        <time>2021-12-04T04:51:04.401Z</time>
      </trkpt>
      <trkpt lat="47.16929" lon="0.80031">
        <ele>100.066426</ele>
        <time>2021-12-04T04:51:08.031Z</time>
      </trkpt>
      <trkpt lat="47.16965" lon="0.80031">
        <ele>100.172672</ele>
        <time>2021-12-04T04:51:17.290Z</time>
      </trkpt>
      <trkpt lat="47.17063" lon="0.79992">
        <ele>100.537752</ele>
        <time>2021-12-04T04:51:43.221Z</time>
      </trkpt>
      <trkpt lat="47.1716" lon="0.79899">
        <ele>101.116383</ele>
        <time>2021-12-04T04:52:15.227Z</time>
      </trkpt>
      <trkpt lat="47.17219" lon="0.79891">
        <ele>101.295538</ele>
        <time>2021-12-04T04:52:31.930Z</time>
      </trkpt>
      <trkpt lat="47.17255" lon="0.79894">
        <ele>101.32535</ele>
        <time>2021-12-04T04:52:41.635Z</time>
      </trkpt>
      <trkpt lat="47.17281" lon="0.79943">
        <ele>101.360301</ele>
        <time>2021-12-04T04:52:55.048Z</time>
      </trkpt>
      <trkpt lat="47.17306" lon="0.79928">
        <ele>101.382525</ele>
        <time>2021-12-04T04:53:03.415Z</time>
      </trkpt>
      <trkpt lat="47.17321" lon="0.79903">
        <ele>101.400778</ele>
        <time>2021-12-04T04:53:10.011Z</time>
      </trkpt>
      <trkpt lat="47.17325" lon="0.79899">
        <ele>101.404428</ele>
        <time>2021-12-04T04:53:11.063Z</time>
      </trkpt>
      <trkpt lat="47.17379" lon="0.80054">
        <ele>100.5124</ele>
        <time>2021-12-04T04:53:53.005Z</time>
      </trkpt>
      <trkpt lat="47.17425" lon="0.80133">
        <ele>99.867698</ele>
        <time>2021-12-04T04:54:17.543Z</time>
      </trkpt>
      <trkpt lat="47.17471" lon="0.80202">
        <ele>99.319762</ele>
        <time>2021-12-04T04:54:40.818Z</time>
      </trkpt>
      <trkpt lat="47.17532" lon="0.80264">
        <ele>98.715562</ele>
        <time>2021-12-04T04:55:07.099Z</time>
      </trkpt>
      <trkpt lat="47.17557" lon="0.80288">
        <ele>98.477292</ele>
        <time>2021-12-04T04:55:15.345Z</time>
      </trkpt>
      <trkpt lat="47.1756" lon="0.80303">
        <ele>98.390415</ele>
        <time>2021-12-04T04:55:17.673Z</time>
      </trkpt>
      <trkpt lat="47.17599" lon="0.80451">
        <ele>97.92729</ele>
        <time>2021-12-04T04:55:42.312Z</time>
      </trkpt>
      <trkpt lat="47.17609" lon="0.80557">
        <ele>97.643475</ele>
        <time>2021-12-04T04:55:59.137Z</time>
      </trkpt>
      <trkpt lat="47.17628" lon="0.80552">
        <ele>97.662048</ele>
        <time>2021-12-04T04:56:06.481Z</time>
      </trkpt>
      <trkpt lat="47.17658" lon="0.80593">
        <ele>97.869682</ele>
        <time>2021-12-04T04:56:21.950Z</time>
      </trkpt>
      <trkpt lat="47.17668" lon="0.80583">
        <ele>97.930219</ele>
        <time>2021-12-04T04:56:26.635Z</time>
      </trkpt>
      <trkpt lat="47.17688" lon="0.80556">
        <ele>98.069305</ele>
        <time>2021-12-04T04:56:37.640Z</time>
      </trkpt>
      <trkpt lat="47.17769" lon="0.8047">
        <ele>98.679199</ele>
        <time>2021-12-04T04:57:20.988Z</time>
      </trkpt>
      <trkpt lat="47.18086" lon="0.80019">
        <ele>104.198209</ele>
        <time>2021-12-04T05:00:50.029Z</time>
      </trkpt>
      <trkpt lat="47.18253" lon="0.80366">
        <ele>102.219656</ele>
        <time>2021-12-04T05:01:48.004Z</time>
      </trkpt>
      <trkpt lat="47.18351" lon="0.80525">
        <ele>100.728453</ele>
        <time>2021-12-04T05:02:17.286Z</time>
      </trkpt>
      <trkpt lat="47.18392" lon="0.80702">
        <ele>99.881526</ele>
        <time>2021-12-04T05:03:03.019Z</time>
      </trkpt>
      <trkpt lat="47.18436" lon="0.80835">
        <ele>99.277613</ele>
        <time>2021-12-04T05:03:39.826Z</time>
      </trkpt>
      <trkpt lat="47.18496" lon="0.81111">
        <ele>98.047081</ele>
        <time>2021-12-04T05:04:51.469Z</time>
      </trkpt>
      <trkpt lat="47.18505" lon="0.8121">
        <ele>97.486539</ele>
        <time>2021-12-04T05:05:15.499Z</time>
      </trkpt>
      <trkpt lat="47.18574" lon="0.81575">
        <ele>95.310185</ele>
        <time>2021-12-04T05:06:45.652Z</time>
      </trkpt>
      <trkpt lat="47.18573" lon="0.81659">
        <ele>95.423074</ele>
        <time>2021-12-04T05:07:06.761Z</time>
      </trkpt>
      <trkpt lat="47.18575" lon="0.81683">
        <ele>95.455898</ele>
        <time>2021-12-04T05:07:13.590Z</time>
      </trkpt>
      <trkpt lat="47.18581" lon="0.81696">
        <ele>95.47616</ele>
        <time>2021-12-04T05:07:17.613Z</time>
      </trkpt>
      <trkpt lat="47.18608" lon="0.81706">
        <ele>95.532856</ele>
        <time>2021-12-04T05:07:29.715Z</time>
      </trkpt>
      <trkpt lat="47.18664" lon="0.81699">
        <ele>95.68995</ele>
        <time>2021-12-04T05:07:54.136Z</time>
      </trkpt>
      <trkpt lat="47.18679" lon="0.81708">
        <ele>95.83804</ele>
        <time>2021-12-04T05:08:01.179Z</time>
      </trkpt>
      <trkpt lat="47.18728" lon="0.81767">
        <ele>96.4512</ele>
        <time>2021-12-04T05:08:30.357Z</time>
      </trkpt>
      <trkpt lat="47.18756" lon="0.81868">
        <ele>97.167575</ele>
        <time>2021-12-04T05:08:53.315Z</time>
      </trkpt>
      <trkpt lat="47.18876" lon="0.81816">
        <ele>97.359355</ele>
        <time>2021-12-04T05:09:25.612Z</time>
      </trkpt>
      <trkpt lat="47.1889" lon="0.81821">
        <ele>97.358687</ele>
        <time>2021-12-04T05:09:29.016Z</time>
      </trkpt>
      <trkpt lat="47.189" lon="0.81858">
        <ele>97.35742</ele>
        <time>2021-12-04T05:09:35.305Z</time>
      </trkpt>
      <trkpt lat="47.18914" lon="0.81875">
        <ele>97.35658</ele>
        <time>2021-12-04T05:09:39.514Z</time>
      </trkpt>
      <trkpt lat="47.18959" lon="0.81908">
        <ele>96.950682</ele>
        <time>2021-12-04T05:09:50.583Z</time>
      </trkpt>
      <trkpt lat="47.18972" lon="0.81962">
        <ele>96.499567</ele>
        <time>2021-12-04T05:09:58.694Z</time>
      </trkpt>
      <trkpt lat="47.18995" lon="0.82057">
        <ele>95.694539</ele>
        <time>2021-12-04T05:10:12.900Z</time>
      </trkpt>
      <trkpt lat="47.19013" lon="0.82122">
        <ele>95.100299</ele>
        <time>2021-12-04T05:10:29.278Z</time>
      </trkpt>
      <trkpt lat="47.19051" lon="0.82174">
        <ele>94.319119</ele>
        <time>2021-12-04T05:10:47.025Z</time>
      </trkpt>
      <trkpt lat="47.19101" lon="0.82247">
        <ele>93.2741</ele>
        <time>2021-12-04T05:11:10.752Z</time>
      </trkpt>
      <trkpt lat="47.19145" lon="0.82284">
        <ele>92.508942</ele>
        <time>2021-12-04T05:11:27.899Z</time>
      </trkpt>
      <trkpt lat="47.19203" lon="0.82374">
        <ele>91.264678</ele>
        <time>2021-12-04T05:11:56.438Z</time>
      </trkpt>
      <trkpt lat="47.19231" lon="0.82408">
        <ele>90.734215</ele>
        <time>2021-12-04T05:12:08.683Z</time>
      </trkpt>
      <trkpt lat="47.19311" lon="0.82482">
        <ele>89.562118</ele>
        <time>2021-12-04T05:12:41.133Z</time>
      </trkpt>
      <trkpt lat="47.19356" lon="0.826">
        <ele>88.751207</ele>
        <time>2021-12-04T05:13:13.447Z</time>
      </trkpt>
      <trkpt lat="47.19368" lon="0.82617">
        <ele>88.60941</ele>
        <time>2021-12-04T05:13:19.285Z</time>
      </trkpt>
      <trkpt lat="47.19413" lon="0.82653">
        <ele>88.259187</ele>
        <time>2021-12-04T05:13:38.593Z</time>
      </trkpt>
      <trkpt lat="47.1946" lon="0.82711">
        <ele>88.068565</ele>
        <time>2021-12-04T05:14:01.818Z</time>
      </trkpt>
      <trkpt lat="47.19544" lon="0.82788">
        <ele>87.755498</ele>
        <time>2021-12-04T05:14:39.533Z</time>
      </trkpt>
      <trkpt lat="47.19631" lon="0.82837">
        <ele>85.647586</ele>
        <time>2021-12-04T05:15:10.746Z</time>
      </trkpt>
      <trkpt lat="47.19677" lon="0.82871">
        <ele>84.471008</ele>
        <time>2021-12-04T05:15:26.835Z</time>
      </trkpt>
      <trkpt lat="47.19699" lon="0.82905">
        <ele>83.745377</ele>
        <time>2021-12-04T05:15:36.475Z</time>
      </trkpt>
      <trkpt lat="47.19697" lon="0.82926">
        <ele>83.308966</ele>
        <time>2021-12-04T05:15:40.858Z</time>
      </trkpt>
      <trkpt lat="47.1971" lon="0.83199">
        <ele>78.053245</ele>
        <time>2021-12-04T05:16:38.096Z</time>
      </trkpt>
      <trkpt lat="47.19717" lon="0.83206">
        <ele>78.106303</ele>
        <time>2021-12-04T05:16:40.034Z</time>
      </trkpt>
      <trkpt lat="47.19731" lon="0.83226">
        <ele>78.220999</ele>
        <time>2021-12-04T05:16:44.442Z</time>
      </trkpt>
      <trkpt lat="47.1974" lon="0.83251">
        <ele>78.334552</ele>
        <time>2021-12-04T05:16:49.126Z</time>
      </trkpt>
      <trkpt lat="47.19745" lon="0.83272">
        <ele>78.42824</ele>
        <time>2021-12-04T05:16:53.212Z</time>
      </trkpt>
      <trkpt lat="47.19746" lon="0.83297">
        <ele>78.528945</ele>
        <time>2021-12-04T05:16:58.130Z</time>
      </trkpt>
      <trkpt lat="47.19764" lon="0.83288">
        <ele>78.646131</ele>
        <time>2021-12-04T05:17:06.850Z</time>
      </trkpt>
      <trkpt lat="47.19796" lon="0.83279">
        <ele>78.837948</ele>
        <time>2021-12-04T05:17:22.886Z</time>
      </trkpt>
      <trkpt lat="47.19852" lon="0.83286">
        <ele>79.808775</ele>
        <time>2021-12-04T05:17:54.412Z</time>
      </trkpt>
      <trkpt lat="47.19877" lon="0.83308">
        <ele>80.805223</ele>
        <time>2021-12-04T05:18:11.680Z</time>
      </trkpt>
      <trkpt lat="47.19898" lon="0.8335">
        <ele>81.954797</ele>
        <time>2021-12-04T05:18:31.721Z</time>
      </trkpt>
      <trkpt lat="47.19931" lon="0.83387">
        <ele>83.328</ele>
        <time>2021-12-04T05:18:56.418Z</time>
      </trkpt>
      <trkpt lat="47.19949" lon="0.83397">
        <ele>83.984855</ele>
        <time>2021-12-04T05:19:07.918Z</time>
      </trkpt>
      <trkpt lat="47.20034" lon="0.83408">
        <ele>86.861305</ele>
        <time>2021-12-04T05:19:59.147Z</time>
      </trkpt>
      <trkpt lat="47.201" lon="0.83435">
        <ele>89.244728</ele>
        <time>2021-12-04T05:20:40.870Z</time>
      </trkpt>
      <trkpt lat="47.20196" lon="0.83461">
        <ele>91.857228</ele>
        <time>2021-12-04T05:21:36.019Z</time>
      </trkpt>
      <trkpt lat="47.20264" lon="0.83511">
        <ele>93.099193</ele>
        <time>2021-12-04T05:22:12.755Z</time>
      </trkpt>
      <trkpt lat="47.20297" lon="0.83527">
        <ele>93.671021</ele>
        <time>2021-12-04T05:22:27.870Z</time>
      </trkpt>
      <trkpt lat="47.20351" lon="0.83496">
        <ele>94.15089</ele>
        <time>2021-12-04T05:22:42.189Z</time>
      </trkpt>
      <trkpt lat="47.2041" lon="0.83447">
        <ele>94.16632</ele>
        <time>2021-12-04T05:22:57.628Z</time>
      </trkpt>
      <trkpt lat="47.20531" lon="0.83946">
        <ele>94.012376</ele>
        <time>2021-12-04T05:25:13.039Z</time>
      </trkpt>
      <trkpt lat="47.2049" lon="0.83984">
        <ele>94.050998</ele>
        <time>2021-12-04T05:25:32.649Z</time>
      </trkpt>
      <trkpt lat="47.20632" lon="0.84062">
        <ele>94.095638</ele>
        <time>2021-12-04T05:26:32.807Z</time>
      </trkpt>
      <trkpt lat="47.20974" lon="0.8437">
        <ele>92.776064</ele>
        <time>2021-12-04T05:28:59.885Z</time>
      </trkpt>
      <trkpt lat="47.21268" lon="0.84401">
        <ele>93.139728</ele>
        <time>2021-12-04T05:30:54.537Z</time>
      </trkpt>
      <trkpt lat="47.21534" lon="0.84342">
        <ele>94.151226</ele>
        <time>2021-12-04T05:32:44.234Z</time>
      </trkpt>
      <trkpt lat="47.21859" lon="0.84232">
        <ele>94.852644</ele>
        <time>2021-12-04T05:34:56.061Z</time>
      </trkpt>
      <trkpt lat="47.22309" lon="0.84038">
        <ele>93.906992</ele>
        <time>2021-12-04T05:37:51.407Z</time>
      </trkpt>
      <trkpt lat="47.2241" lon="0.84007">
        <ele>93.706366</ele>
        <time>2021-12-04T05:38:29.727Z</time>
      </trkpt>
      <trkpt lat="47.22424" lon="0.84009">
        <ele>93.722711</ele>
        <time>2021-12-04T05:38:34.833Z</time>
      </trkpt>
      <trkpt lat="47.2242" lon="0.84024">
        <ele>93.735213</ele>
        <time>2021-12-04T05:38:37.359Z</time>
      </trkpt>
      <trkpt lat="47.22479" lon="0.84261">
        <ele>94.064003</ele>
        <time>2021-12-04T05:39:20.859Z</time>
      </trkpt>
      <trkpt lat="47.22491" lon="0.84331">
        <ele>94.368459</ele>
        <time>2021-12-04T05:39:34.555Z</time>
      </trkpt>
      <trkpt lat="47.22491" lon="0.84348">
        <ele>94.438952</ele>
        <time>2021-12-04T05:39:38.042Z</time>
      </trkpt>
      <trkpt lat="47.22523" lon="0.84552">
        <ele>95.225062</ele>
        <time>2021-12-04T05:40:19.000Z</time>
      </trkpt>
      <trkpt lat="47.22532" lon="0.8456">
        <ele>95.271467</ele>
        <time>2021-12-04T05:40:23.682Z</time>
      </trkpt>
      <trkpt lat="47.22575" lon="0.84642">
        <ele>95.567605</ele>
        <time>2021-12-04T05:40:52.024Z</time>
      </trkpt>
      <trkpt lat="47.22643" lon="0.84989">
        <ele>95.70043</ele>
        <time>2021-12-04T05:42:25.980Z</time>
      </trkpt>
      <trkpt lat="47.2265" lon="0.85008">
        <ele>95.649906</ele>
        <time>2021-12-04T05:42:31.350Z</time>
      </trkpt>
      <trkpt lat="47.22839" lon="0.85176">
        <ele>94.910019</ele>
        <time>2021-12-04T05:43:52.351Z</time>
      </trkpt>
      <trkpt lat="47.23296" lon="0.85584">
        <ele>93.314752</ele>
        <time>2021-12-04T05:47:11.308Z</time>
      </trkpt>
      <trkpt lat="47.23645" lon="0.85821">
        <ele>91.955316</ele>
        <time>2021-12-04T05:49:32.563Z</time>
      </trkpt>
      <trkpt lat="47.23885" lon="0.86036">
        <ele>91.503516</ele>
        <time>2021-12-04T05:51:18.763Z</time>
      </trkpt>
      <trkpt lat="47.24091" lon="0.8626">
        <ele>90.516714</ele>
        <time>2021-12-04T05:52:52.568Z</time>
      </trkpt>
      <trkpt lat="47.24116" lon="0.86299">
        <ele>90.36361</ele>
        <time>2021-12-04T05:53:06.206Z</time>
      </trkpt>
      <trkpt lat="47.24255" lon="0.86498">
        <ele>89.784721</ele>
        <time>2021-12-04T05:54:17.721Z</time>
      </trkpt>
      <trkpt lat="47.24763" lon="0.872">
        <ele>87.777752</ele>
        <time>2021-12-04T05:58:41.410Z</time>
      </trkpt>
      <trkpt lat="47.24764" lon="0.87206">
        <ele>87.7233</ele>
        <time>2021-12-04T05:58:42.907Z</time>
      </trkpt>
      <trkpt lat="47.2478" lon="0.87207">
        <ele>87.524625</ele>
        <time>2021-12-04T05:58:48.093Z</time>
      </trkpt>
      <trkpt lat="47.24793" lon="0.87221">
        <ele>87.323566</ele>
        <time>2021-12-04T05:58:53.694Z</time>
      </trkpt>
      <trkpt lat="47.24799" lon="0.87237">
        <ele>87.174083</ele>
        <time>2021-12-04T05:58:57.266Z</time>
      </trkpt>
      <trkpt lat="47.2481" lon="0.87293">
        <ele>85.730094</ele>
        <time>2021-12-04T05:59:09.024Z</time>
      </trkpt>
      <trkpt lat="47.24808" lon="0.87418">
        <ele>81.291687</ele>
        <time>2021-12-04T05:59:34.185Z</time>
      </trkpt>
      <trkpt lat="47.24815" lon="0.8744">
        <ele>80.427557</ele>
        <time>2021-12-04T05:59:39.043Z</time>
      </trkpt>
      <trkpt lat="47.24821" lon="0.87445">
        <ele>80.069932</ele>
        <time>2021-12-04T05:59:40.761Z</time>
      </trkpt>
      <trkpt lat="47.24807" lon="0.87574">
        <ele>75.224119</ele>
        <time>2021-12-04T05:59:54.080Z</time>
      </trkpt>
      <trkpt lat="47.24806" lon="0.87599">
        <ele>74.244559</ele>
        <time>2021-12-04T05:59:56.600Z</time>
      </trkpt>
      <trkpt lat="47.24876" lon="0.87597">
        <ele>70.187863</ele>
        <time>2021-12-04T06:00:07.470Z</time>
      </trkpt>
      <trkpt lat="47.24948" lon="0.87605">
        <ele>67.783432</ele>
        <time>2021-12-04T06:00:19.585Z</time>
      </trkpt>
      <trkpt lat="47.2495" lon="0.87606">
        <ele>67.837247</ele>
        <time>2021-12-04T06:00:19.940Z</time>
      </trkpt>
      <trkpt lat="47.24969" lon="0.87611">
        <ele>68.375002</ele>
        <time>2021-12-04T06:00:23.558Z</time>
      </trkpt>
      <trkpt lat="47.24989" lon="0.87616">
        <ele>68.918029</ele>
        <time>2021-12-04T06:00:28.944Z</time>
      </trkpt>
      <trkpt lat="47.24993" lon="0.87618">
        <ele>69.027302</ele>
        <time>2021-12-04T06:00:30.102Z</time>
      </trkpt>
      <trkpt lat="47.25002" lon="0.8762">
        <ele>69.263297</ele>
        <time>2021-12-04T06:00:33.400Z</time>
      </trkpt>
      <trkpt lat="47.25009" lon="0.87617">
        <ele>69.44705</ele>
        <time>2021-12-04T06:00:36.515Z</time>
      </trkpt>
      <trkpt lat="47.2501" lon="0.87648">
        <ele>70.005412</ele>
        <time>2021-12-04T06:00:45.218Z</time>
      </trkpt>
      <trkpt lat="47.25024" lon="0.87646">
        <ele>70.406452</ele>
        <time>2021-12-04T06:00:54.619Z</time>
      </trkpt>
      <trkpt lat="47.25037" lon="0.87635">
        <ele>70.803613</ele>
        <time>2021-12-04T06:01:03.522Z</time>
      </trkpt>
      <trkpt lat="47.25039" lon="0.8763">
        <ele>70.901892</ele>
        <time>2021-12-04T06:01:05.765Z</time>
      </trkpt>
      <trkpt lat="47.25041" lon="0.87623">
        <ele>71.043314</ele>
        <time>2021-12-04T06:01:08.922Z</time>
      </trkpt>
      <trkpt lat="47.25053" lon="0.8762">
        <ele>71.363856</ele>
        <time>2021-12-04T06:01:18.490Z</time>
      </trkpt>
      <trkpt lat="47.25074" lon="0.87595">
        <ele>72.123224</ele>
        <time>2021-12-04T06:01:37.738Z</time>
      </trkpt>
      <trkpt lat="47.2507" lon="0.87651">
        <ele>74.829192</ele>
        <time>2021-12-04T06:02:07.142Z</time>
      </trkpt>
      <trkpt lat="47.25079" lon="0.87666">
        <ele>75.811618</ele>
        <time>2021-12-04T06:02:18.314Z</time>
      </trkpt>
      <trkpt lat="47.25092" lon="0.87673">
        <ele>76.794523</ele>
        <time>2021-12-04T06:02:27.815Z</time>
      </trkpt>
      <trkpt lat="47.25154" lon="0.87704">
        <ele>81.490032</ele>
        <time>2021-12-04T06:03:13.822Z</time>
      </trkpt>
      <trkpt lat="47.25177" lon="0.87703">
        <ele>83.127125</ele>
        <time>2021-12-04T06:03:27.525Z</time>
      </trkpt>
      <trkpt lat="47.25239" lon="0.87707">
        <ele>85.770632</ele>
        <time>2021-12-04T06:04:03.421Z</time>
      </trkpt>
      <trkpt lat="47.25312" lon="0.87747">
        <ele>87.475019</ele>
        <time>2021-12-04T06:04:32.478Z</time>
      </trkpt>
      <trkpt lat="47.25388" lon="0.87825">
        <ele>88.809212</ele>
        <time>2021-12-04T06:04:54.357Z</time>
      </trkpt>
      <trkpt lat="47.25451" lon="0.87916">
        <ele>88.503871</ele>
        <time>2021-12-04T06:05:14.660Z</time>
      </trkpt>
      <trkpt lat="47.2548" lon="0.87949">
        <ele>88.376332</ele>
        <time>2021-12-04T06:05:23.186Z</time>
      </trkpt>
      <trkpt lat="47.25608" lon="0.88076">
        <ele>87.680295</ele>
        <time>2021-12-04T06:05:58.165Z</time>
      </trkpt>
      <trkpt lat="47.25753" lon="0.88272">
        <ele>86.967951</ele>
        <time>2021-12-04T06:06:42.731Z</time>
      </trkpt>
      <trkpt lat="47.25759" lon="0.88278">
        <ele>86.945215</ele>
        <time>2021-12-04T06:06:44.442Z</time>
      </trkpt>
      <trkpt lat="47.25786" lon="0.88294">
        <ele>86.85411</ele>
        <time>2021-12-04T06:06:51.937Z</time>
      </trkpt>
      <trkpt lat="47.25833" lon="0.88308">
        <ele>87.20522</ele>
        <time>2021-12-04T06:07:04.404Z</time>
      </trkpt>
      <trkpt lat="47.25845" lon="0.88404">
        <ele>87.696383</ele>
        <time>2021-12-04T06:07:23.451Z</time>
      </trkpt>
      <trkpt lat="47.25872" lon="0.88533">
        <ele>88.414363</ele>
        <time>2021-12-04T06:07:52.155Z</time>
      </trkpt>
      <trkpt lat="47.25867" lon="0.88558">
        <ele>88.573402</ele>
        <time>2021-12-04T06:07:57.601Z</time>
      </trkpt>
      <trkpt lat="47.25882" lon="0.88592">
        <ele>88.824433</ele>
        <time>2021-12-04T06:08:06.284Z</time>
      </trkpt>
      <trkpt lat="47.2591" lon="0.88621">
        <ele>89.125712</ele>
        <time>2021-12-04T06:08:16.228Z</time>
      </trkpt>
      <trkpt lat="47.26063" lon="0.88715">
        <ele>90.423418</ele>
        <time>2021-12-04T06:09:03.106Z</time>
      </trkpt>
      <trkpt lat="47.26108" lon="0.88752">
        <ele>90.778538</ele>
        <time>2021-12-04T06:09:18.826Z</time>
      </trkpt>
      <trkpt lat="47.26149" lon="0.88802">
        <ele>91.074287</ele>
        <time>2021-12-04T06:09:33.195Z</time>
      </trkpt>
      <trkpt lat="47.2617" lon="0.88842">
        <ele>91.160924</ele>
        <time>2021-12-04T06:09:42.312Z</time>
      </trkpt>
      <trkpt lat="47.262" lon="0.8888">
        <ele>91.256764</ele>
        <time>2021-12-04T06:09:52.337Z</time>
      </trkpt>
      <trkpt lat="47.26236" lon="0.88909">
        <ele>91.358534</ele>
        <time>2021-12-04T06:10:02.783Z</time>
      </trkpt>
      <trkpt lat="47.26261" lon="0.8894">
        <ele>91.439516</ele>
        <time>2021-12-04T06:10:11.049Z</time>
      </trkpt>
      <trkpt lat="47.26311" lon="0.89003">
        <ele>91.51841</ele>
        <time>2021-12-04T06:10:26.793Z</time>
      </trkpt>
      <trkpt lat="47.26407" lon="0.89079">
        <ele>91.603158</ele>
        <time>2021-12-04T06:10:52.750Z</time>
      </trkpt>
      <trkpt lat="47.26487" lon="0.89205">
        <ele>92.510825</ele>
        <time>2021-12-04T06:11:26.891Z</time>
      </trkpt>
      <trkpt lat="47.26523" lon="0.89261">
        <ele>93.004838</ele>
        <time>2021-12-04T06:11:43.422Z</time>
      </trkpt>
      <trkpt lat="47.26551" lon="0.89277">
        <ele>93.285781</ele>
        <time>2021-12-04T06:11:56.984Z</time>
      </trkpt>
      <trkpt lat="47.26611" lon="0.89368">
        <ele>93.975772</ele>
        <time>2021-12-04T06:12:35.921Z</time>
      </trkpt>
      <trkpt lat="47.26641" lon="0.89421">
        <ele>94.348772</ele>
        <time>2021-12-04T06:12:56.350Z</time>
      </trkpt>
      <trkpt lat="47.26697" lon="0.89558">
        <ele>94.577876</ele>
        <time>2021-12-04T06:13:39.163Z</time>
      </trkpt>
      <trkpt lat="47.26828" lon="0.8974">
        <ele>94.230614</ele>
        <time>2021-12-04T06:14:44.513Z</time>
      </trkpt>
      <trkpt lat="47.27135" lon="0.90066">
        <ele>94.830457</ele>
        <time>2021-12-04T06:17:13.616Z</time>
      </trkpt>
      <trkpt lat="47.27195" lon="0.90145">
        <ele>95.052388</ele>
        <time>2021-12-04T06:17:46.157Z</time>
      </trkpt>
      <trkpt lat="47.27203" lon="0.90167">
        <ele>95.099705</ele>
        <time>2021-12-04T06:17:53.018Z</time>
      </trkpt>
      <trkpt lat="47.27264" lon="0.9023">
        <ele>94.990161</ele>
        <time>2021-12-04T06:18:22.292Z</time>
      </trkpt>
      <trkpt lat="47.27339" lon="0.90323">
        <ele>94.823079</ele>
        <time>2021-12-04T06:18:58.703Z</time>
      </trkpt>
      <trkpt lat="47.2735" lon="0.90351">
        <ele>94.707602</ele>
        <time>2021-12-04T06:19:06.790Z</time>
      </trkpt>
      <trkpt lat="47.27401" lon="0.90395">
        <ele>94.202528</ele>
        <time>2021-12-04T06:19:27.719Z</time>
      </trkpt>
      <trkpt lat="47.27453" lon="0.90478">
        <ele>93.551453</ele>
        <time>2021-12-04T06:19:54.111Z</time>
      </trkpt>
      <trkpt lat="47.27476" lon="0.90501">
        <ele>93.311523</ele>
        <time>2021-12-04T06:20:04.142Z</time>
      </trkpt>
      <trkpt lat="47.27514" lon="0.90519">
        <ele>93.105466</ele>
        <time>2021-12-04T06:20:18.565Z</time>
      </trkpt>
      <trkpt lat="47.27529" lon="0.90541">
        <ele>93.001186</ele>
        <time>2021-12-04T06:20:26.511Z</time>
      </trkpt>
      <trkpt lat="47.27538" lon="0.9054">
        <ele>92.960984</ele>
        <time>2021-12-04T06:20:29.745Z</time>
      </trkpt>
      <trkpt lat="47.27578" lon="0.90574">
        <ele>92.739631</ele>
        <time>2021-12-04T06:20:46.943Z</time>
      </trkpt>
      <trkpt lat="47.27581" lon="0.90609">
        <ele>92.626184</ele>
        <time>2021-12-04T06:20:55.687Z</time>
      </trkpt>
      <trkpt lat="47.27625" lon="0.90657">
        <ele>92.358965</ele>
        <time>2021-12-04T06:21:16.082Z</time>
      </trkpt>
      <trkpt lat="47.2778" lon="0.90771">
        <ele>91.444647</ele>
        <time>2021-12-04T06:22:19.267Z</time>
      </trkpt>
      <trkpt lat="47.28034" lon="0.91026">
        <ele>89.420988</ele>
        <time>2021-12-04T06:24:08.826Z</time>
      </trkpt>
      <trkpt lat="47.28007" lon="0.91077">
        <ele>89.168193</ele>
        <time>2021-12-04T06:24:25.021Z</time>
      </trkpt>
      <trkpt lat="47.28056" lon="0.91147">
        <ele>89.090286</ele>
        <time>2021-12-04T06:24:50.513Z</time>
      </trkpt>
      <trkpt lat="47.28172" lon="0.9135">
        <ele>89.136665</ele>
        <time>2021-12-04T06:25:59.181Z</time>
      </trkpt>
      <trkpt lat="47.28242" lon="0.91495">
        <ele>89.407236</ele>
        <time>2021-12-04T06:26:46.946Z</time>
      </trkpt>
      <trkpt lat="47.28398" lon="0.91824">
        <ele>90.799613</ele>
        <time>2021-12-04T06:28:41.922Z</time>
      </trkpt>
      <trkpt lat="47.28424" lon="0.91863">
        <ele>90.904201</ele>
        <time>2021-12-04T06:28:56.700Z</time>
      </trkpt>
      <trkpt lat="47.28524" lon="0.9198">
        <ele>90.634369</ele>
        <time>2021-12-04T06:29:44.019Z</time>
      </trkpt>
      <trkpt lat="47.2873" lon="0.92241">
        <ele>89.209982</ele>
        <time>2021-12-04T06:31:21.557Z</time>
      </trkpt>
      <trkpt lat="47.28952" lon="0.92553">
        <ele>89.41427</ele>
        <time>2021-12-04T06:33:21.538Z</time>
      </trkpt>
      <trkpt lat="47.2912" lon="0.92797">
        <ele>89.427102</ele>
        <time>2021-12-04T06:34:51.203Z</time>
      </trkpt>
      <trkpt lat="47.29262" lon="0.92793">
        <ele>89.537274</ele>
        <time>2021-12-04T06:35:24.520Z</time>
      </trkpt>
      <trkpt lat="47.29454" lon="0.92788">
        <ele>89.830515</ele>
        <time>2021-12-04T06:36:10.565Z</time>
      </trkpt>
      <trkpt lat="47.29459" lon="0.92734">
        <ele>89.890508</ele>
        <time>2021-12-04T06:36:25.206Z</time>
      </trkpt>
      <trkpt lat="47.29551" lon="0.92717">
        <ele>90.002694</ele>
        <time>2021-12-04T06:37:01.728Z</time>
      </trkpt>
      <trkpt lat="47.29552" lon="0.92769">
        <ele>90.045488</ele>
        <time>2021-12-04T06:37:15.535Z</time>
      </trkpt>
      <trkpt lat="47.2963" lon="0.92726">
        <ele>90.052066</ele>
        <time>2021-12-04T06:37:34.222Z</time>
      </trkpt>
      <trkpt lat="47.29674" lon="0.92707">
        <ele>89.993776</ele>
        <time>2021-12-04T06:37:44.412Z</time>
      </trkpt>
      <trkpt lat="47.29772" lon="0.92681">
        <ele>89.884426</ele>
        <time>2021-12-04T06:38:06.787Z</time>
      </trkpt>
      <trkpt lat="47.29816" lon="0.92668">
        <ele>90.038988</ele>
        <time>2021-12-04T06:38:17.435Z</time>
      </trkpt>
      <trkpt lat="47.29892" lon="0.9264">
        <ele>90.310356</ele>
        <time>2021-12-04T06:38:37.079Z</time>
      </trkpt>
      <trkpt lat="47.29973" lon="0.92556">
        <ele>90.874251</ele>
        <time>2021-12-04T06:39:03.859Z</time>
      </trkpt>
      <trkpt lat="47.30024" lon="0.92535">
        <ele>91.308976</ele>
        <time>2021-12-04T06:39:18.520Z</time>
      </trkpt>
      <trkpt lat="47.30114" lon="0.92518">
        <ele>92.077659</ele>
        <time>2021-12-04T06:39:44.233Z</time>
      </trkpt>
      <trkpt lat="47.30209" lon="0.92863">
        <ele>94.886181</ele>
        <time>2021-12-04T06:41:38.205Z</time>
      </trkpt>
      <trkpt lat="47.30269" lon="0.93116">
        <ele>96.052223</ele>
        <time>2021-12-04T06:42:57.977Z</time>
      </trkpt>
      <trkpt lat="47.30341" lon="0.93384">
        <ele>95.114799</ele>
        <time>2021-12-04T06:44:09.193Z</time>
      </trkpt>
      <trkpt lat="47.30386" lon="0.93518">
        <ele>93.839673</ele>
        <time>2021-12-04T06:44:42.970Z</time>
      </trkpt>
      <trkpt lat="47.30402" lon="0.93562">
        <ele>93.183614</ele>
        <time>2021-12-04T06:44:54.223Z</time>
      </trkpt>
      <trkpt lat="47.30482" lon="0.93772">
        <ele>90.32489</ele>
        <time>2021-12-04T06:45:48.067Z</time>
      </trkpt>
      <trkpt lat="47.30495" lon="0.93821">
        <ele>89.889741</ele>
        <time>2021-12-04T06:46:00.176Z</time>
      </trkpt>
      <trkpt lat="47.30561" lon="0.9402">
        <ele>88.227261</ele>
        <time>2021-12-04T06:46:53.492Z</time>
      </trkpt>
      <trkpt lat="47.30648" lon="0.94234">
        <ele>86.68098</ele>
        <time>2021-12-04T06:47:53.870Z</time>
      </trkpt>
      <trkpt lat="47.30672" lon="0.94326">
        <ele>85.800932</ele>
        <time>2021-12-04T06:48:17.082Z</time>
      </trkpt>
      <trkpt lat="47.30696" lon="0.94377">
        <ele>85.260231</ele>
        <time>2021-12-04T06:48:31.090Z</time>
      </trkpt>
      <trkpt lat="47.30762" lon="0.9445">
        <ele>83.860838</ele>
        <time>2021-12-04T06:48:58.391Z</time>
      </trkpt>
      <trkpt lat="47.30832" lon="0.94698">
        <ele>80.143955</ele>
        <time>2021-12-04T06:49:58.207Z</time>
      </trkpt>
      <trkpt lat="47.3085" lon="0.9478">
        <ele>78.951057</ele>
        <time>2021-12-04T06:50:17.167Z</time>
      </trkpt>
      <trkpt lat="47.30861" lon="0.94794">
        <ele>78.653635</ele>
        <time>2021-12-04T06:50:21.888Z</time>
      </trkpt>
      <trkpt lat="47.30757" lon="0.94912">
        <ele>76.517782</ele>
        <time>2021-12-04T06:51:05.457Z</time>
      </trkpt>
      <trkpt lat="47.30738" lon="0.94976">
        <ele>75.918695</ele>
        <time>2021-12-04T06:51:21.305Z</time>
      </trkpt>
      <trkpt lat="47.30933" lon="0.95221">
        <ele>74.301429</ele>
        <time>2021-12-04T06:52:55.170Z</time>
      </trkpt>
      <trkpt lat="47.31091" lon="0.95417">
        <ele>73.759806</ele>
        <time>2021-12-04T06:54:13.023Z</time>
      </trkpt>
      <trkpt lat="47.31102" lon="0.9543">
        <ele>73.679311</ele>
        <time>2021-12-04T06:54:17.991Z</time>
      </trkpt>
      <trkpt lat="47.31118" lon="0.95456">
        <ele>73.531443</ele>
        <time>2021-12-04T06:54:26.845Z</time>
      </trkpt>
      <trkpt lat="47.31385" lon="0.95782">
        <ele>71.108184</ele>
        <time>2021-12-04T06:56:29.433Z</time>
      </trkpt>
      <trkpt lat="47.31305" lon="0.95871">
        <ele>70.694088</ele>
        <time>2021-12-04T06:56:52.988Z</time>
      </trkpt>
      <trkpt lat="47.31279" lon="0.95911">
        <ele>70.635277</ele>
        <time>2021-12-04T06:57:02.127Z</time>
      </trkpt>
      <trkpt lat="47.31578" lon="0.96326">
        <ele>71.406811</ele>
        <time>2021-12-04T06:59:39.162Z</time>
      </trkpt>
      <trkpt lat="47.31821" lon="0.96671">
        <ele>75.378866</ele>
        <time>2021-12-04T07:02:20.673Z</time>
      </trkpt>
      <trkpt lat="47.31835" lon="0.96686">
        <ele>75.407576</ele>
        <time>2021-12-04T07:02:25.539Z</time>
      </trkpt>
      <trkpt lat="47.31871" lon="0.96711">
        <ele>75.470315</ele>
        <time>2021-12-04T07:02:35.235Z</time>
      </trkpt>
      <trkpt lat="47.31985" lon="0.96811">
        <ele>74.944067</ele>
        <time>2021-12-04T07:03:03.889Z</time>
      </trkpt>
      <trkpt lat="47.32066" lon="0.96904">
        <ele>73.880193</ele>
        <time>2021-12-04T07:03:25.432Z</time>
      </trkpt>
      <trkpt lat="47.32109" lon="0.9696">
        <ele>73.680306</ele>
        <time>2021-12-04T07:03:38.183Z</time>
      </trkpt>
      <trkpt lat="47.32122" lon="0.96968">
        <ele>73.667391</ele>
        <time>2021-12-04T07:03:41.467Z</time>
      </trkpt>
      <trkpt lat="47.32179" lon="0.9698">
        <ele>73.615323</ele>
        <time>2021-12-04T07:03:54.985Z</time>
      </trkpt>
      <trkpt lat="47.3219" lon="0.97042">
        <ele>73.575264</ele>
        <time>2021-12-04T07:04:05.530Z</time>
      </trkpt>
      <trkpt lat="47.32201" lon="0.97087">
        <ele>73.696457</ele>
        <time>2021-12-04T07:04:13.922Z</time>
      </trkpt>
      <trkpt lat="47.32209" lon="0.97112">
        <ele>73.981417</ele>
        <time>2021-12-04T07:04:19.264Z</time>
      </trkpt>
      <trkpt lat="47.32261" lon="0.97208">
        <ele>75.246627</ele>
        <time>2021-12-04T07:04:46.576Z</time>
      </trkpt>
      <trkpt lat="47.32296" lon="0.97326">
        <ele>76.5625</ele>
        <time>2021-12-04T07:05:17.368Z</time>
      </trkpt>
      <trkpt lat="47.32319" lon="0.97425">
        <ele>77.612407</ele>
        <time>2021-12-04T07:05:41.786Z</time>
      </trkpt>
      <trkpt lat="47.32335" lon="0.97418">
        <ele>77.867242</ele>
        <time>2021-12-04T07:05:50.053Z</time>
      </trkpt>
      <trkpt lat="47.32397" lon="0.97465">
        <ele>78.89085</ele>
        <time>2021-12-04T07:06:22.439Z</time>
      </trkpt>
      <trkpt lat="47.32501" lon="0.97567">
        <ele>78.027234</ele>
        <time>2021-12-04T07:07:08.854Z</time>
      </trkpt>
      <trkpt lat="47.32689" lon="0.97695">
        <ele>73.440779</ele>
        <time>2021-12-04T07:08:15.735Z</time>
      </trkpt>
      <trkpt lat="47.32737" lon="0.97721">
        <ele>71.626397</ele>
        <time>2021-12-04T07:08:30.839Z</time>
      </trkpt>
      <trkpt lat="47.32768" lon="0.97634">
        <ele>68.474912</ele>
        <time>2021-12-04T07:08:50.293Z</time>
      </trkpt>
      <trkpt lat="47.32809" lon="0.97562">
        <ele>65.481659</ele>
        <time>2021-12-04T07:09:08.561Z</time>
      </trkpt>
      <trkpt lat="47.32888" lon="0.97693">
        <ele>60.552046</ele>
        <time>2021-12-04T07:09:28.837Z</time>
      </trkpt>
      <trkpt lat="47.32892" lon="0.97665">
        <ele>59.805617</ele>
        <time>2021-12-04T07:09:31.949Z</time>
      </trkpt>
      <trkpt lat="47.32951" lon="0.97688">
        <ele>57.39749</ele>
        <time>2021-12-04T07:09:50.711Z</time>
      </trkpt>
      <trkpt lat="47.33044" lon="0.97714">
        <ele>55.889996</ele>
        <time>2021-12-04T07:10:21.795Z</time>
      </trkpt>
      <trkpt lat="47.3303" lon="0.97857">
        <ele>54.670111</ele>
        <time>2021-12-04T07:10:42.528Z</time>
      </trkpt>
      <trkpt lat="47.33029" lon="0.97986">
        <ele>54.959727</ele>
        <time>2021-12-04T07:11:05.588Z</time>
      </trkpt>
      <trkpt lat="47.33039" lon="0.98321">
        <ele>55.67523</ele>
        <time>2021-12-04T07:12:03.212Z</time>
      </trkpt>
      <trkpt lat="47.3306" lon="0.98552">
        <ele>56.008677</ele>
        <time>2021-12-04T07:12:40.260Z</time>
      </trkpt>
      <trkpt lat="47.33066" lon="0.98651">
        <ele>56.131946</ele>
        <time>2021-12-04T07:12:56.775Z</time>
      </trkpt>
      <trkpt lat="47.33066" lon="0.98756">
        <ele>56.424745</ele>
        <time>2021-12-04T07:13:14.739Z</time>
      </trkpt>
      <trkpt lat="47.33065" lon="0.98812">
        <ele>56.580718</ele>
        <time>2021-12-04T07:13:27.280Z</time>
      </trkpt>
      <trkpt lat="47.33054" lon="0.98839">
        <ele>56.667279</ele>
        <time>2021-12-04T07:13:34.327Z</time>
      </trkpt>
      <trkpt lat="47.33038" lon="0.98974">
        <ele>56.78584</ele>
        <time>2021-12-04T07:14:05.301Z</time>
      </trkpt>
      <trkpt lat="47.33031" lon="0.99008">
        <ele>56.743102</ele>
        <time>2021-12-04T07:14:12.620Z</time>
      </trkpt>
      <trkpt lat="47.33024" lon="0.99017">
        <ele>56.725291</ele>
        <time>2021-12-04T07:14:15.644Z</time>
      </trkpt>
      <trkpt lat="47.33027" lon="0.99041">
        <ele>56.69627</ele>
        <time>2021-12-04T07:14:19.278Z</time>
      </trkpt>
      <trkpt lat="47.3302" lon="0.99108">
        <ele>56.615225</ele>
        <time>2021-12-04T07:14:28.969Z</time>
      </trkpt>
      <trkpt lat="47.33019" lon="0.99125">
        <ele>56.594064</ele>
        <time>2021-12-04T07:14:31.472Z</time>
      </trkpt>
      <trkpt lat="47.33027" lon="0.99127">
        <ele>56.581031</ele>
        <time>2021-12-04T07:14:32.983Z</time>
      </trkpt>
      <trkpt lat="47.3318" lon="0.99178">
        <ele>55.633746</ele>
        <time>2021-12-04T07:15:06.000Z</time>
      </trkpt>
      <trkpt lat="47.33177" lon="0.99197">
        <ele>55.545414</ele>
        <time>2021-12-04T07:15:08.969Z</time>
      </trkpt>
      <trkpt lat="47.33165" lon="0.99243">
        <ele>55.334355</ele>
        <time>2021-12-04T07:15:16.382Z</time>
      </trkpt>
      <trkpt lat="47.33127" lon="0.99341">
        <ele>54.960742</ele>
        <time>2021-12-04T07:15:33.710Z</time>
      </trkpt>
      <trkpt lat="47.33099" lon="0.9943">
        <ele>54.635798</ele>
        <time>2021-12-04T07:15:49.094Z</time>
      </trkpt>
      <trkpt lat="47.33097" lon="0.99439">
        <ele>54.602313</ele>
        <time>2021-12-04T07:15:50.640Z</time>
      </trkpt>
      <trkpt lat="47.33049" lon="0.99603">
        <ele>54.22468</ele>
        <time>2021-12-04T07:16:17.951Z</time>
      </trkpt>
      <trkpt lat="47.32973" lon="0.99892">
        <ele>54.019954</ele>
        <time>2021-12-04T07:17:37.926Z</time>
      </trkpt>
      <trkpt lat="47.32926" lon="1.00185">
        <ele>54.016883</ele>
        <time>2021-12-04T07:18:56.571Z</time>
      </trkpt>
      <trkpt lat="47.32915" lon="1.00325">
        <ele>53.973192</ele>
        <time>2021-12-04T07:19:32.454Z</time>
      </trkpt>
      <trkpt lat="47.32919" lon="1.00357">
        <ele>53.959149</ele>
        <time>2021-12-04T07:19:40.738Z</time>
      </trkpt>
      <trkpt lat="47.32939" lon="1.00376">
        <ele>53.943853</ele>
        <time>2021-12-04T07:19:49.826Z</time>
      </trkpt>
      <trkpt lat="47.33083" lon="1.00434">
        <ele>54.066405</ele>
        <time>2021-12-04T07:20:46.739Z</time>
      </trkpt>
      <trkpt lat="47.33073" lon="1.00479">
        <ele>54.1323</ele>
        <time>2021-12-04T07:20:59.837Z</time>
      </trkpt>
      <trkpt lat="47.3305" lon="1.00662">
        <ele>54.437169</ele>
        <time>2021-12-04T07:21:50.952Z</time>
      </trkpt>
      <trkpt lat="47.33042" lon="1.0072">
        <ele>54.552039</ele>
        <time>2021-12-04T07:22:07.047Z</time>
      </trkpt>
      <trkpt lat="47.33021" lon="1.00774">
        <ele>54.671318</ele>
        <time>2021-12-04T07:22:23.513Z</time>
      </trkpt>
      <trkpt lat="47.33014" lon="1.00822">
        <ele>54.766145</ele>
        <time>2021-12-04T07:22:36.481Z</time>
      </trkpt>
      <trkpt lat="47.33008" lon="1.01013">
        <ele>54.942995</ele>
        <time>2021-12-04T07:23:26.271Z</time>
      </trkpt>
      <trkpt lat="47.33006" lon="1.0138">
        <ele>55.342327</ele>
        <time>2021-12-04T07:25:04.166Z</time>
      </trkpt>
      <trkpt lat="47.3299" lon="1.01621">
        <ele>55.363743</ele>
        <time>2021-12-04T07:26:06.844Z</time>
      </trkpt>
      <trkpt lat="47.32997" lon="1.01702">
        <ele>55.334394</ele>
        <time>2021-12-04T07:26:27.696Z</time>
      </trkpt>
      <trkpt lat="47.3304" lon="1.01704">
        <ele>55.310628</ele>
        <time>2021-12-04T07:26:37.867Z</time>
      </trkpt>
      <trkpt lat="47.33094" lon="1.01726">
        <ele>55.279311</ele>
        <time>2021-12-04T07:26:51.136Z</time>
      </trkpt>
      <trkpt lat="47.33268" lon="1.01745">
        <ele>55.797497</ele>
        <time>2021-12-04T07:27:34.943Z</time>
      </trkpt>
      <trkpt lat="47.33354" lon="1.01732">
        <ele>57.139887</ele>
        <time>2021-12-04T07:28:01.518Z</time>
      </trkpt>
      <trkpt lat="47.33428" lon="1.01757">
        <ele>58.922257</ele>
        <time>2021-12-04T07:28:29.753Z</time>
      </trkpt>
      <trkpt lat="47.33436" lon="1.0176">
        <ele>59.115867</ele>
        <time>2021-12-04T07:28:33.316Z</time>
      </trkpt>
      <trkpt lat="47.33461" lon="1.01768">
        <ele>59.707397</ele>
        <time>2021-12-04T07:28:45.264Z</time>
      </trkpt>
      <trkpt lat="47.33474" lon="1.017">
        <ele>61.453711</ele>
        <time>2021-12-04T07:29:08.462Z</time>
      </trkpt>
      <trkpt lat="47.33476" lon="1.01688">
        <ele>61.826677</ele>
        <time>2021-12-04T07:29:12.516Z</time>
      </trkpt>
      <trkpt lat="47.33501" lon="1.0171">
        <ele>63.082366</ele>
        <time>2021-12-04T07:29:27.145Z</time>
      </trkpt>
      <trkpt lat="47.33516" lon="1.01723">
        <ele>63.872854</ele>
        <time>2021-12-04T07:29:36.609Z</time>
      </trkpt>
      <trkpt lat="47.33541" lon="1.01738">
        <ele>65.037765</ele>
        <time>2021-12-04T07:29:49.797Z</time>
      </trkpt>
      <trkpt lat="47.33562" lon="1.01753">
        <ele>66.085882</ele>
        <time>2021-12-04T07:30:02.032Z</time>
      </trkpt>
      <trkpt lat="47.3357" lon="1.01761">
        <ele>66.53358</ele>
        <time>2021-12-04T07:30:07.106Z</time>
      </trkpt>
      <trkpt lat="47.33581" lon="1.01769">
        <ele>67.041945</ele>
        <time>2021-12-04T07:30:13.321Z</time>
      </trkpt>
      <trkpt lat="47.33588" lon="1.01768">
        <ele>67.38032</ele>
        <time>2021-12-04T07:30:17.104Z</time>
      </trkpt>
      <trkpt lat="47.33611" lon="1.01735">
        <ele>68.667411</ele>
        <time>2021-12-04T07:30:34.313Z</time>
      </trkpt>
      <trkpt lat="47.33629" lon="1.0173">
        <ele>69.351559</ele>
        <time>2021-12-04T07:30:44.324Z</time>
      </trkpt>
      <trkpt lat="47.33677" lon="1.01777">
        <ele>71.47799</ele>
        <time>2021-12-04T07:31:13.279Z</time>
      </trkpt>
      <trkpt lat="47.33731" lon="1.01838">
        <ele>74.00219</ele>
        <time>2021-12-04T07:31:41.797Z</time>
      </trkpt>
      <trkpt lat="47.33791" lon="1.01918">
        <ele>76.427096</ele>
        <time>2021-12-04T07:32:24.919Z</time>
      </trkpt>
      <trkpt lat="47.33841" lon="1.02005">
        <ele>78.571063</ele>
        <time>2021-12-04T07:33:06.955Z</time>
      </trkpt>
      <trkpt lat="47.3387" lon="1.0204">
        <ele>79.617988</ele>
        <time>2021-12-04T07:33:27.763Z</time>
      </trkpt>
      <trkpt lat="47.33882" lon="1.02047">
        <ele>80.059802</ele>
        <time>2021-12-04T07:33:34.984Z</time>
      </trkpt>
      <trkpt lat="47.33892" lon="1.02045">
        <ele>80.454349</ele>
        <time>2021-12-04T07:33:41.120Z</time>
      </trkpt>
      <trkpt lat="47.339" lon="1.02047">
        <ele>80.749996</ele>
        <time>2021-12-04T07:33:45.777Z</time>
      </trkpt>
      <trkpt lat="47.33945" lon="1.02134">
        <ele>83.486185</ele>
        <time>2021-12-04T07:34:29.742Z</time>
      </trkpt>
      <trkpt lat="47.34036" lon="1.02277">
        <ele>88.565137</ele>
        <time>2021-12-04T07:35:53.752Z</time>
      </trkpt>
      <trkpt lat="47.34065" lon="1.02295">
        <ele>89.806453</ele>
        <time>2021-12-04T07:36:14.385Z</time>
      </trkpt>
      <trkpt lat="47.34098" lon="1.02335">
        <ele>91.470227</ele>
        <time>2021-12-04T07:36:40.590Z</time>
      </trkpt>
      <trkpt lat="47.34105" lon="1.02337">
        <ele>91.745314</ele>
        <time>2021-12-04T07:36:44.458Z</time>
      </trkpt>
      <trkpt lat="47.34138" lon="1.02311">
        <ele>93.199968</ele>
        <time>2021-12-04T07:37:06.409Z</time>
      </trkpt>
      <trkpt lat="47.34154" lon="1.02314">
        <ele>93.729873</ele>
        <time>2021-12-04T07:37:16.903Z</time>
      </trkpt>
      <trkpt lat="47.34165" lon="1.02351">
        <ele>94.468092</ele>
        <time>2021-12-04T07:37:28.158Z</time>
      </trkpt>
      <trkpt lat="47.34238" lon="1.02494">
        <ele>97.753314</ele>
        <time>2021-12-04T07:38:17.777Z</time>
      </trkpt>
      <trkpt lat="47.34267" lon="1.02561">
        <ele>98.941085</ele>
        <time>2021-12-04T07:38:35.928Z</time>
      </trkpt>
      <trkpt lat="47.3433" lon="1.02739">
        <ele>101.479245</ele>
        <time>2021-12-04T07:39:24.023Z</time>
      </trkpt>
      <trkpt lat="47.34376" lon="1.02686">
        <ele>102.562668</ele>
        <time>2021-12-04T07:39:44.357Z</time>
      </trkpt>
      <trkpt lat="47.34422" lon="1.02759">
        <ele>103.805307</ele>
        <time>2021-12-04T07:40:18.169Z</time>
      </trkpt>
      <trkpt lat="47.34482" lon="1.02826">
        <ele>105.131206</ele>
        <time>2021-12-04T07:40:55.846Z</time>
      </trkpt>
      <trkpt lat="47.34538" lon="1.0292">
        <ele>106.146377</ele>
        <time>2021-12-04T07:41:34.465Z</time>
      </trkpt>
      <trkpt lat="47.34569" lon="1.02983">
        <ele>106.78026</ele>
        <time>2021-12-04T07:41:57.578Z</time>
      </trkpt>
      <trkpt lat="47.34616" lon="1.03116">
        <ele>107.306645</ele>
        <time>2021-12-04T07:42:41.789Z</time>
      </trkpt>
      <trkpt lat="47.34696" lon="1.03285">
        <ele>107.228642</ele>
        <time>2021-12-04T07:43:34.108Z</time>
      </trkpt>
      <trkpt lat="47.3485" lon="1.0319">
        <ele>105.505295</ele>
        <time>2021-12-04T07:44:31.758Z</time>
      </trkpt>
      <trkpt lat="47.34884" lon="1.03188">
        <ele>105.162231</ele>
        <time>2021-12-04T07:44:43.157Z</time>
      </trkpt>
      <trkpt lat="47.34925" lon="1.03202">
        <ele>104.731548</ele>
        <time>2021-12-04T07:44:57.636Z</time>
      </trkpt>
      <trkpt lat="47.34973" lon="1.03243">
        <ele>104.15919</ele>
        <time>2021-12-04T07:45:17.403Z</time>
      </trkpt>
      <trkpt lat="47.35035" lon="1.03248">
        <ele>103.9339</ele>
        <time>2021-12-04T07:45:40.231Z</time>
      </trkpt>
      <trkpt lat="47.35117" lon="1.03269">
        <ele>104.212045</ele>
        <time>2021-12-04T07:46:11.596Z</time>
      </trkpt>
      <trkpt lat="47.3513" lon="1.03262">
        <ele>104.259201</ele>
        <time>2021-12-04T07:46:17.540Z</time>
      </trkpt>
      <trkpt lat="47.3516" lon="1.03203">
        <ele>104.426542</ele>
        <time>2021-12-04T07:46:39.762Z</time>
      </trkpt>
      <trkpt lat="47.35172" lon="1.03189">
        <ele>104.674294</ele>
        <time>2021-12-04T07:46:47.080Z</time>
      </trkpt>
      <trkpt lat="47.35232" lon="1.03175">
        <ele>105.829452</ele>
        <time>2021-12-04T07:47:16.242Z</time>
      </trkpt>
      <trkpt lat="47.35299" lon="1.03169">
        <ele>107.132423</ele>
        <time>2021-12-04T07:47:51.100Z</time>
      </trkpt>
      <trkpt lat="47.35436" lon="1.03326">
        <ele>110.458811</ele>
        <time>2021-12-04T07:48:56.201Z</time>
      </trkpt>
      <trkpt lat="47.35516" lon="1.03453">
        <ele>111.996126</ele>
        <time>2021-12-04T07:49:32.954Z</time>
      </trkpt>
      <trkpt lat="47.35645" lon="1.03815">
        <ele>114.092497</ele>
        <time>2021-12-04T07:50:51.884Z</time>
      </trkpt>
      <trkpt lat="47.35714" lon="1.04118">
        <ele>114.87374</ele>
        <time>2021-12-04T07:51:48.387Z</time>
      </trkpt>
      <trkpt lat="47.35746" lon="1.04255">
        <ele>115.142505</ele>
        <time>2021-12-04T07:52:27.092Z</time>
      </trkpt>
      <trkpt lat="47.35758" lon="1.04283">
        <ele>115.204573</ele>
        <time>2021-12-04T07:52:36.229Z</time>
      </trkpt>
      <trkpt lat="47.35786" lon="1.04343">
        <ele>115.390044</ele>
        <time>2021-12-04T07:52:55.897Z</time>
      </trkpt>
      <trkpt lat="47.35829" lon="1.04486">
        <ele>116.038637</ele>
        <time>2021-12-04T07:53:38.942Z</time>
      </trkpt>
      <trkpt lat="47.35886" lon="1.04613">
        <ele>116.937265</ele>
        <time>2021-12-04T07:54:24.542Z</time>
      </trkpt>
      <trkpt lat="47.35981" lon="1.04798">
        <ele>118.905491</ele>
        <time>2021-12-04T07:55:36.469Z</time>
      </trkpt>
      <trkpt lat="47.36003" lon="1.04828">
        <ele>119.366215</ele>
        <time>2021-12-04T07:55:50.690Z</time>
      </trkpt>
      <trkpt lat="47.36076" lon="1.04896">
        <ele>120.699223</ele>
        <time>2021-12-04T07:56:31.932Z</time>
      </trkpt>
      <trkpt lat="47.36243" lon="1.0514">
        <ele>124.712743</ele>
        <time>2021-12-04T07:58:25.940Z</time>
      </trkpt>
      <trkpt lat="47.3629" lon="1.05218">
        <ele>125.944214</ele>
        <time>2021-12-04T07:59:00.297Z</time>
      </trkpt>
      <trkpt lat="47.36411" lon="1.05468">
        <ele>129.502113</ele>
        <time>2021-12-04T08:00:40.854Z</time>
      </trkpt>
      <trkpt lat="47.36431" lon="1.05504">
        <ele>130.029198</ele>
        <time>2021-12-04T08:00:56.419Z</time>
      </trkpt>
      <trkpt lat="47.36646" lon="1.05603">
        <ele>133.04752</ele>
        <time>2021-12-04T08:02:43.305Z</time>
      </trkpt>
      <trkpt lat="47.36897" lon="1.05714">
        <ele>131.724822</ele>
        <time>2021-12-04T08:04:18.293Z</time>
      </trkpt>
      <trkpt lat="47.37284" lon="1.0589">
        <ele>126.793933</ele>
        <time>2021-12-04T08:06:36.489Z</time>
      </trkpt>
      <trkpt lat="47.37657" lon="1.06057">
        <ele>125.222497</ele>
        <time>2021-12-04T08:09:00.414Z</time>
      </trkpt>
      <trkpt lat="47.37999" lon="1.06205">
        <ele>126.45493</ele>
        <time>2021-12-04T08:11:25.737Z</time>
      </trkpt>
      <trkpt lat="47.38171" lon="1.06277">
        <ele>126.44367</ele>
        <time>2021-12-04T08:12:33.482Z</time>
      </trkpt>
      <trkpt lat="47.38384" lon="1.06373">
        <ele>125.88715</ele>
        <time>2021-12-04T08:13:56.801Z</time>
      </trkpt>
      <trkpt lat="47.38455" lon="1.06398">
        <ele>125.455996</ele>
        <time>2021-12-04T08:14:23.844Z</time>
      </trkpt>
      <trkpt lat="47.38704" lon="1.06508">
        <ele>123.218659</ele>
        <time>2021-12-04T08:15:55.677Z</time>
      </trkpt>
      <trkpt lat="47.39106" lon="1.06685">
        <ele>116.270948</ele>
        <time>2021-12-04T08:18:16.343Z</time>
      </trkpt>
      <trkpt lat="47.39678" lon="1.06941">
        <ele>105.391714</ele>
        <time>2021-12-04T08:21:33.867Z</time>
      </trkpt>
      <trkpt lat="47.39912" lon="1.07037">
        <ele>102.500632</ele>
        <time>2021-12-04T08:22:59.426Z</time>
      </trkpt>
      <trkpt lat="47.4028" lon="1.0721">
        <ele>97.989231</ele>
        <time>2021-12-04T08:25:11.081Z</time>
      </trkpt>
      <trkpt lat="47.40295" lon="1.07209">
        <ele>98.197392</ele>
        <time>2021-12-04T08:25:16.653Z</time>
      </trkpt>
      <trkpt lat="47.40327" lon="1.07189">
        <ele>98.67989</ele>
        <time>2021-12-04T08:25:30.526Z</time>
      </trkpt>
      <trkpt lat="47.40355" lon="1.07167">
        <ele>99.129483</ele>
        <time>2021-12-04T08:25:45.127Z</time>
      </trkpt>
      <trkpt lat="47.40392" lon="1.0716">
        <ele>99.644524</ele>
        <time>2021-12-04T08:26:04.569Z</time>
      </trkpt>
      <trkpt lat="47.40426" lon="1.07174">
        <ele>100.136352</ele>
        <time>2021-12-04T08:26:25.928Z</time>
      </trkpt>
      <trkpt lat="47.40453" lon="1.07197">
        <ele>101.335729</ele>
        <time>2021-12-04T08:26:46.829Z</time>
      </trkpt>
      <trkpt lat="47.40472" lon="1.0722">
        <ele>102.280481</ele>
        <time>2021-12-04T08:27:04.441Z</time>
      </trkpt>
      <trkpt lat="47.4048" lon="1.0724">
        <ele>102.902228</ele>
        <time>2021-12-04T08:27:16.067Z</time>
      </trkpt>
      <trkpt lat="47.40491" lon="1.0733">
        <ele>105.269976</ele>
        <time>2021-12-04T08:27:55.868Z</time>
      </trkpt>
      <trkpt lat="47.40498" lon="1.07357">
        <ele>106.03427</ele>
        <time>2021-12-04T08:28:07.865Z</time>
      </trkpt>
      <trkpt lat="47.40538" lon="1.07424">
        <ele>106.557485</ele>
        <time>2021-12-04T08:28:40.838Z</time>
      </trkpt>
      <trkpt lat="47.40663" lon="1.07779">
        <ele>100.683604</ele>
        <time>2021-12-04T08:30:06.010Z</time>
      </trkpt>
      <trkpt lat="47.40726" lon="1.07898">
        <ele>98.040342</ele>
        <time>2021-12-04T08:30:37.300Z</time>
      </trkpt>
      <trkpt lat="47.40802" lon="1.08004">
        <ele>95.88366</ele>
        <time>2021-12-04T08:31:11.842Z</time>
      </trkpt>
      <trkpt lat="47.40812" lon="1.08096">
        <ele>95.375342</ele>
        <time>2021-12-04T08:31:34.756Z</time>
      </trkpt>
      <trkpt lat="47.40796" lon="1.08478">
        <ele>95.254671</ele>
        <time>2021-12-04T08:33:21.394Z</time>
      </trkpt>
      <trkpt lat="47.40999" lon="1.08447">
        <ele>92.088195</ele>
        <time>2021-12-04T08:34:02.674Z</time>
      </trkpt>
      <trkpt lat="47.41012" lon="1.08464">
        <ele>91.704223</ele>
        <time>2021-12-04T08:34:05.980Z</time>
      </trkpt>
      <trkpt lat="47.41022" lon="1.08491">
        <ele>91.264804</ele>
        <time>2021-12-04T08:34:09.758Z</time>
      </trkpt>
      <trkpt lat="47.41041" lon="1.08582">
        <ele>89.812366</ele>
        <time>2021-12-04T08:34:20.664Z</time>
      </trkpt>
      <trkpt lat="47.41056" lon="1.0863">
        <ele>89.003732</ele>
        <time>2021-12-04T08:34:26.908Z</time>
      </trkpt>
      <trkpt lat="47.41107" lon="1.08742">
        <ele>87.193451</ele>
        <time>2021-12-04T08:34:44.615Z</time>
      </trkpt>
      <trkpt lat="47.41145" lon="1.08817">
        <ele>87.437733</ele>
        <time>2021-12-04T08:34:59.483Z</time>
      </trkpt>
      <trkpt lat="47.41163" lon="1.0886">
        <ele>87.571249</ele>
        <time>2021-12-04T08:35:08.671Z</time>
      </trkpt>
      <trkpt lat="47.41172" lon="1.08952">
        <ele>87.815727</ele>
        <time>2021-12-04T08:35:27.660Z</time>
      </trkpt>
      <trkpt lat="47.41201" lon="1.08986">
        <ele>87.844547</ele>
        <time>2021-12-04T08:35:39.463Z</time>
      </trkpt>
      <trkpt lat="47.41181" lon="1.09062">
        <ele>87.824137</ele>
        <time>2021-12-04T08:35:55.048Z</time>
      </trkpt>
      <trkpt lat="47.41181" lon="1.09107">
        <ele>87.813085</ele>
        <time>2021-12-04T08:36:01.834Z</time>
      </trkpt>
      <trkpt lat="47.41182" lon="1.09126">
        <ele>87.808225</ele>
        <time>2021-12-04T08:36:04.752Z</time>
      </trkpt>
      <trkpt lat="47.41192" lon="1.09386">
        <ele>85.27109</ele>
        <time>2021-12-04T08:36:38.557Z</time>
      </trkpt>
      <trkpt lat="47.41186" lon="1.09415">
        <ele>84.85093</ele>
        <time>2021-12-04T08:36:42.103Z</time>
      </trkpt>
      <trkpt lat="47.41212" lon="1.09409">
        <ele>84.311828</ele>
        <time>2021-12-04T08:36:46.887Z</time>
      </trkpt>
      <trkpt lat="47.41285" lon="1.09395">
        <ele>83.120297</ele>
        <time>2021-12-04T08:37:00.408Z</time>
      </trkpt>
      <trkpt lat="47.41302" lon="1.09381">
        <ele>82.806629</ele>
        <time>2021-12-04T08:37:04.350Z</time>
      </trkpt>
      <trkpt lat="47.41324" lon="1.09351">
        <ele>82.343948</ele>
        <time>2021-12-04T08:37:10.161Z</time>
      </trkpt>
      <trkpt lat="47.41333" lon="1.09338">
        <ele>82.145643</ele>
        <time>2021-12-04T08:37:12.721Z</time>
      </trkpt>
      <trkpt lat="47.41379" lon="1.09272">
        <ele>81.553434</ele>
        <time>2021-12-04T08:37:27.406Z</time>
      </trkpt>
      <trkpt lat="47.4139" lon="1.09261">
        <ele>81.984133</ele>
        <time>2021-12-04T08:37:31.373Z</time>
      </trkpt>
      <trkpt lat="47.41401" lon="1.09259">
        <ele>82.356947</ele>
        <time>2021-12-04T08:37:35.396Z</time>
      </trkpt>
      <trkpt lat="47.41413" lon="1.09267">
        <ele>82.793618</ele>
        <time>2021-12-04T08:37:41.212Z</time>
      </trkpt>
      <trkpt lat="47.41687" lon="1.09637">
        <ele>96.745994</ele>
        <time>2021-12-04T08:40:46.395Z</time>
      </trkpt>
      <trkpt lat="47.41696" lon="1.09659">
        <ele>97.344186</ele>
        <time>2021-12-04T08:40:53.840Z</time>
      </trkpt>
      <trkpt lat="47.41724" lon="1.0978">
        <ele>100.294386</ele>
        <time>2021-12-04T08:41:29.876Z</time>
      </trkpt>
      <trkpt lat="47.41818" lon="1.10184">
        <ele>109.319056</ele>
        <time>2021-12-04T08:43:34.137Z</time>
      </trkpt>
      <trkpt lat="47.4183" lon="1.10264">
        <ele>111.017199</ele>
        <time>2021-12-04T08:43:57.958Z</time>
      </trkpt>
      <trkpt lat="47.41838" lon="1.10288">
        <ele>111.583004</ele>
        <time>2021-12-04T08:44:06.862Z</time>
      </trkpt>
      <trkpt lat="47.4191" lon="1.10422">
        <ele>114.184447</ele>
        <time>2021-12-04T08:44:52.062Z</time>
      </trkpt>
      <trkpt lat="47.41902" lon="1.1046">
        <ele>114.764526</ele>
        <time>2021-12-04T08:45:06.241Z</time>
      </trkpt>
      <trkpt lat="47.41899" lon="1.10619">
        <ele>116.313846</ele>
        <time>2021-12-04T08:45:55.054Z</time>
      </trkpt>
      <trkpt lat="47.41902" lon="1.1065">
        <ele>116.477213</ele>
        <time>2021-12-04T08:46:04.277Z</time>
      </trkpt>
      <trkpt lat="47.41998" lon="1.10894">
        <ele>116.715502</ele>
        <time>2021-12-04T08:47:22.786Z</time>
      </trkpt>
      <trkpt lat="47.42038" lon="1.11035">
        <ele>115.86291</ele>
        <time>2021-12-04T08:47:57.687Z</time>
      </trkpt>
      <trkpt lat="47.42072" lon="1.11109">
        <ele>114.497437</ele>
        <time>2021-12-04T08:48:17.131Z</time>
      </trkpt>
      <trkpt lat="47.42186" lon="1.11346">
        <ele>111.553505</ele>
        <time>2021-12-04T08:49:20.488Z</time>
      </trkpt>
      <trkpt lat="47.42589" lon="1.1103">
        <ele>109.826831</ele>
        <time>2021-12-04T08:52:13.986Z</time>
      </trkpt>
      <trkpt lat="47.42768" lon="1.11347">
        <ele>109.052449</ele>
        <time>2021-12-04T08:53:18.711Z</time>
      </trkpt>
      <trkpt lat="47.42771" lon="1.11363">
        <ele>109.023163</ele>
        <time>2021-12-04T08:53:21.141Z</time>
      </trkpt>
      <trkpt lat="47.42793" lon="1.11385">
        <ele>108.950275</ele>
        <time>2021-12-04T08:53:31.345Z</time>
      </trkpt>
      <trkpt lat="47.42807" lon="1.11373">
        <ele>108.907104</ele>
        <time>2021-12-04T08:53:37.275Z</time>
      </trkpt>
      <trkpt lat="47.42814" lon="1.11375">
        <ele>108.88844</ele>
        <time>2021-12-04T08:53:39.897Z</time>
      </trkpt>
      <trkpt lat="47.42898" lon="1.11542">
        <ele>108.595488</ele>
        <time>2021-12-04T08:54:32.715Z</time>
      </trkpt>
      <trkpt lat="47.4292" lon="1.11591">
        <ele>108.515913</ele>
        <time>2021-12-04T08:54:47.527Z</time>
      </trkpt>
      <trkpt lat="47.43022" lon="1.11697">
        <ele>108.042482</ele>
        <time>2021-12-04T08:55:33.800Z</time>
      </trkpt>
      <trkpt lat="47.43077" lon="1.11776">
        <ele>107.760507</ele>
        <time>2021-12-04T08:56:01.731Z</time>
      </trkpt>
      <trkpt lat="47.4314" lon="1.11851">
        <ele>107.694445</ele>
        <time>2021-12-04T08:56:31.404Z</time>
      </trkpt>
      <trkpt lat="47.43478" lon="1.12072">
        <ele>108.094407</ele>
        <time>2021-12-04T08:58:53.389Z</time>
      </trkpt>
      <trkpt lat="47.43539" lon="1.12112">
        <ele>108.516353</ele>
        <time>2021-12-04T08:59:24.103Z</time>
      </trkpt>
      <trkpt lat="47.4356" lon="1.12116">
        <ele>108.633961</ele>
        <time>2021-12-04T08:59:34.135Z</time>
      </trkpt>
      <trkpt lat="47.43592" lon="1.12111">
        <ele>108.763904</ele>
        <time>2021-12-04T08:59:49.125Z</time>
      </trkpt>
      <trkpt lat="47.4369" lon="1.12155">
        <ele>109.177239</ele>
        <time>2021-12-04T09:00:32.509Z</time>
      </trkpt>
      <trkpt lat="47.43746" lon="1.12165">
        <ele>109.069814</ele>
        <time>2021-12-04T09:00:52.482Z</time>
      </trkpt>
      <trkpt lat="47.439" lon="1.12285">
        <ele>106.426101</ele>
        <time>2021-12-04T09:01:50.326Z</time>
      </trkpt>
      <trkpt lat="47.43984" lon="1.12381">
        <ele>105.450483</ele>
        <time>2021-12-04T09:02:27.043Z</time>
      </trkpt>
      <trkpt lat="47.44104" lon="1.12572">
        <ele>104.501024</ele>
        <time>2021-12-04T09:03:33.086Z</time>
      </trkpt>
      <trkpt lat="47.44115" lon="1.12542">
        <ele>104.426313</ele>
        <time>2021-12-04T09:03:41.427Z</time>
      </trkpt>
      <trkpt lat="47.44198" lon="1.1333">
        <ele>101.42981</ele>
        <time>2021-12-04T09:06:55.831Z</time>
      </trkpt>
      <trkpt lat="47.44088" lon="1.13613">
        <ele>101.592194</ele>
        <time>2021-12-04T09:08:23.011Z</time>
      </trkpt>
      <trkpt lat="47.44217" lon="1.13749">
        <ele>101.710831</ele>
        <time>2021-12-04T09:09:24.784Z</time>
      </trkpt>
      <trkpt lat="47.44429" lon="1.14152">
        <ele>100.549359</ele>
        <time>2021-12-04T09:11:31.900Z</time>
      </trkpt>
      <trkpt lat="47.44356" lon="1.14203">
        <ele>100.71608</ele>
        <time>2021-12-04T09:11:49.475Z</time>
      </trkpt>
      <trkpt lat="47.44284" lon="1.14269">
        <ele>101.36152</ele>
        <time>2021-12-04T09:12:10.796Z</time>
      </trkpt>
      <trkpt lat="47.44445" lon="1.1457">
        <ele>106.462413</ele>
        <time>2021-12-04T09:14:24.193Z</time>
      </trkpt>
      <trkpt lat="47.4448" lon="1.14713">
        <ele>109.10583</ele>
        <time>2021-12-04T09:15:21.688Z</time>
      </trkpt>
      <trkpt lat="47.4447" lon="1.14811">
        <ele>110.558545</ele>
        <time>2021-12-04T09:15:57.376Z</time>
      </trkpt>
      <trkpt lat="47.44458" lon="1.14867">
        <ele>110.893231</ele>
        <time>2021-12-04T09:16:16.960Z</time>
      </trkpt>
      <trkpt lat="47.4466" lon="1.15652">
        <ele>114.705378</ele>
        <time>2021-12-04T09:20:13.317Z</time>
      </trkpt>
      <trkpt lat="47.44749" lon="1.16018">
        <ele>114.726211</ele>
        <time>2021-12-04T09:21:52.826Z</time>
      </trkpt>
      <trkpt lat="47.45509" lon="1.15645">
        <ele>112.130579</ele>
        <time>2021-12-04T09:26:48.662Z</time>
      </trkpt>
      <trkpt lat="47.45517" lon="1.1573">
        <ele>112.033963</ele>
        <time>2021-12-04T09:27:10.841Z</time>
      </trkpt>
      <trkpt lat="47.4553" lon="1.15772">
        <ele>111.981934</ele>
        <time>2021-12-04T09:27:22.665Z</time>
      </trkpt>
      <trkpt lat="47.45606" lon="1.15817">
        <ele>111.614352</ele>
        <time>2021-12-04T09:27:53.158Z</time>
      </trkpt>
      <trkpt lat="47.45666" lon="1.15769">
        <ele>111.234424</ele>
        <time>2021-12-04T09:28:18.127Z</time>
      </trkpt>
      <trkpt lat="47.45715" lon="1.15713">
        <ele>110.765222</ele>
        <time>2021-12-04T09:28:40.096Z</time>
      </trkpt>
      <trkpt lat="47.45762" lon="1.15673">
        <ele>109.823872</ele>
        <time>2021-12-04T09:28:58.431Z</time>
      </trkpt>
      <trkpt lat="47.45844" lon="1.15672">
        <ele>108.381999</ele>
        <time>2021-12-04T09:29:25.623Z</time>
      </trkpt>
      <trkpt lat="47.45846" lon="1.15672">
        <ele>108.339853</ele>
        <time>2021-12-04T09:29:26.402Z</time>
      </trkpt>
      <trkpt lat="47.45988" lon="1.15617">
        <ele>104.876918</ele>
        <time>2021-12-04T09:30:13.501Z</time>
      </trkpt>
      <trkpt lat="47.46073" lon="1.15566">
        <ele>102.706787</ele>
        <time>2021-12-04T09:30:42.407Z</time>
      </trkpt>
      <trkpt lat="47.46124" lon="1.15543">
        <ele>101.624047</ele>
        <time>2021-12-04T09:30:59.658Z</time>
      </trkpt>
      <trkpt lat="47.46324" lon="1.15449">
        <ele>98.410532</ele>
        <time>2021-12-04T09:32:10.616Z</time>
      </trkpt>
      <trkpt lat="47.46384" lon="1.154">
        <ele>97.649971</ele>
        <time>2021-12-04T09:32:35.491Z</time>
      </trkpt>
      <trkpt lat="47.46553" lon="1.15299">
        <ele>96.741574</ele>
        <time>2021-12-04T09:33:42.250Z</time>
      </trkpt>
      <trkpt lat="47.46581" lon="1.15287">
        <ele>96.51265</ele>
        <time>2021-12-04T09:33:52.872Z</time>
      </trkpt>
      <trkpt lat="47.46612" lon="1.15284">
        <ele>96.271843</ele>
        <time>2021-12-04T09:34:03.967Z</time>
      </trkpt>
      <trkpt lat="47.46623" lon="1.1529">
        <ele>96.179463</ele>
        <time>2021-12-04T09:34:06.556Z</time>
      </trkpt>
      <trkpt lat="47.46632" lon="1.15279">
        <ele>96.086222</ele>
        <time>2021-12-04T09:34:09.217Z</time>
      </trkpt>
      <trkpt lat="47.467" lon="1.15257">
        <ele>95.543403</ele>
        <time>2021-12-04T09:34:24.289Z</time>
      </trkpt>
      <trkpt lat="47.46775" lon="1.15249">
        <ele>94.87351</ele>
        <time>2021-12-04T09:34:40.497Z</time>
      </trkpt>
      <trkpt lat="47.468" lon="1.15247">
        <ele>94.634026</ele>
        <time>2021-12-04T09:34:45.938Z</time>
      </trkpt>
      <trkpt lat="47.46815" lon="1.15235">
        <ele>94.476251</ele>
        <time>2021-12-04T09:34:49.527Z</time>
      </trkpt>
      <trkpt lat="47.46857" lon="1.15245">
        <ele>94.072121</ele>
        <time>2021-12-04T09:34:58.645Z</time>
      </trkpt>
      <trkpt lat="47.46896" lon="1.15244">
        <ele>93.700755</ele>
        <time>2021-12-04T09:35:07.082Z</time>
      </trkpt>
      <trkpt lat="47.46901" lon="1.15334">
        <ele>93.591361</ele>
        <time>2021-12-04T09:35:20.014Z</time>
      </trkpt>
      <trkpt lat="47.46922" lon="1.15441">
        <ele>93.514501</ele>
        <time>2021-12-04T09:35:36.786Z</time>
      </trkpt>
      <trkpt lat="47.4699" lon="1.15613">
        <ele>94.263654</ele>
        <time>2021-12-04T09:36:13.431Z</time>
      </trkpt>
      <trkpt lat="47.47065" lon="1.15831">
        <ele>95.713438</ele>
        <time>2021-12-04T09:37:03.700Z</time>
      </trkpt>
      <trkpt lat="47.47163" lon="1.16014">
        <ele>96.198764</ele>
        <time>2021-12-04T09:37:45.703Z</time>
      </trkpt>
      <trkpt lat="47.47243" lon="1.16164">
        <ele>95.137536</ele>
        <time>2021-12-04T09:38:11.540Z</time>
      </trkpt>
      <trkpt lat="47.47278" lon="1.16197">
        <ele>93.82482</ele>
        <time>2021-12-04T09:38:19.404Z</time>
      </trkpt>
      <trkpt lat="47.47311" lon="1.16247">
        <ele>92.296134</ele>
        <time>2021-12-04T09:38:27.951Z</time>
      </trkpt>
      <trkpt lat="47.47372" lon="1.16419">
        <ele>87.863206</ele>
        <time>2021-12-04T09:38:51.442Z</time>
      </trkpt>
      <trkpt lat="47.47388" lon="1.16419">
        <ele>87.287667</ele>
        <time>2021-12-04T09:38:54.139Z</time>
      </trkpt>
      <trkpt lat="47.47441" lon="1.1638">
        <ele>85.117478</ele>
        <time>2021-12-04T09:39:04.703Z</time>
      </trkpt>
      <trkpt lat="47.47456" lon="1.16379">
        <ele>84.578208</ele>
        <time>2021-12-04T09:39:07.260Z</time>
      </trkpt>
      <trkpt lat="47.47502" lon="1.165">
        <ele>82.767725</ele>
        <time>2021-12-04T09:39:24.589Z</time>
      </trkpt>
      <trkpt lat="47.47575" lon="1.1663">
        <ele>82.860152</ele>
        <time>2021-12-04T09:39:58.162Z</time>
      </trkpt>
      <trkpt lat="47.47584" lon="1.1664">
        <ele>82.869344</ele>
        <time>2021-12-04T09:40:01.951Z</time>
      </trkpt>
      <trkpt lat="47.47585" lon="1.16652">
        <ele>82.876209</ele>
        <time>2021-12-04T09:40:08.893Z</time>
      </trkpt>
      <trkpt lat="47.47597" lon="1.16663">
        <ele>83.041203</ele>
        <time>2021-12-04T09:40:13.977Z</time>
      </trkpt>
      <trkpt lat="47.47601" lon="1.1668">
        <ele>83.23357</ele>
        <time>2021-12-04T09:40:19.337Z</time>
      </trkpt>
      <trkpt lat="47.4761" lon="1.16684">
        <ele>83.385607</ele>
        <time>2021-12-04T09:40:27.397Z</time>
      </trkpt>
      <trkpt lat="47.47621" lon="1.16692">
        <ele>83.580795</ele>
        <time>2021-12-04T09:40:32.845Z</time>
      </trkpt>
      <trkpt lat="47.47629" lon="1.16713">
        <ele>83.830737</ele>
        <time>2021-12-04T09:40:40.666Z</time>
      </trkpt>
      <trkpt lat="47.47803" lon="1.1739">
        <ele>90.661224</ele>
        <time>2021-12-04T09:44:30.273Z</time>
      </trkpt>
      <trkpt lat="47.47838" lon="1.17548">
        <ele>89.553682</ele>
        <time>2021-12-04T09:45:10.482Z</time>
      </trkpt>
      <trkpt lat="47.47854" lon="1.17605">
        <ele>89.142767</ele>
        <time>2021-12-04T09:45:24.104Z</time>
      </trkpt>
      <trkpt lat="47.47866" lon="1.17624">
        <ele>88.933469</ele>
        <time>2021-12-04T09:45:29.717Z</time>
      </trkpt>
      <trkpt lat="47.47871" lon="1.17643">
        <ele>88.558986</ele>
        <time>2021-12-04T09:45:34.119Z</time>
      </trkpt>
      <trkpt lat="47.47872" lon="1.1768">
        <ele>87.920345</ele>
        <time>2021-12-04T09:45:41.813Z</time>
      </trkpt>
      <trkpt lat="47.47919" lon="1.17826">
        <ele>85.083969</ele>
        <time>2021-12-04T09:46:16.121Z</time>
      </trkpt>
      <trkpt lat="47.47937" lon="1.17877">
        <ele>84.243797</ele>
        <time>2021-12-04T09:46:28.509Z</time>
      </trkpt>
      <trkpt lat="47.48018" lon="1.18208">
        <ele>81.616279</ele>
        <time>2021-12-04T09:47:54.341Z</time>
      </trkpt>
      <trkpt lat="47.48026" lon="1.18284">
        <ele>80.847164</ele>
        <time>2021-12-04T09:48:08.273Z</time>
      </trkpt>
      <trkpt lat="47.48044" lon="1.18329">
        <ele>80.317742</ele>
        <time>2021-12-04T09:48:17.344Z</time>
      </trkpt>
      <trkpt lat="47.48071" lon="1.1839">
        <ele>79.034432</ele>
        <time>2021-12-04T09:48:26.708Z</time>
      </trkpt>
      <trkpt lat="47.48104" lon="1.18488">
        <ele>76.276313</ele>
        <time>2021-12-04T09:48:40.084Z</time>
      </trkpt>
      <trkpt lat="47.48143" lon="1.18603">
        <ele>73.066485</ele>
        <time>2021-12-04T09:48:54.961Z</time>
      </trkpt>
      <trkpt lat="47.48193" lon="1.18731">
        <ele>69.500399</ele>
        <time>2021-12-04T09:49:12.877Z</time>
      </trkpt>
      <trkpt lat="47.48207" lon="1.18765">
        <ele>68.527181</ele>
        <time>2021-12-04T09:49:17.775Z</time>
      </trkpt>
      <trkpt lat="47.48256" lon="1.18881">
        <ele>66.10061</ele>
        <time>2021-12-04T09:49:40.008Z</time>
      </trkpt>
      <trkpt lat="47.48284" lon="1.18938">
        <ele>65.328128</ele>
        <time>2021-12-04T09:49:52.024Z</time>
      </trkpt>
      <trkpt lat="47.48302" lon="1.18985">
        <ele>64.733711</ele>
        <time>2021-12-04T09:50:02.316Z</time>
      </trkpt>
      <trkpt lat="47.48328" lon="1.19073">
        <ele>63.913567</ele>
        <time>2021-12-04T09:50:20.771Z</time>
      </trkpt>
      <trkpt lat="47.4835" lon="1.19146">
        <ele>63.933017</ele>
        <time>2021-12-04T09:50:33.099Z</time>
      </trkpt>
      <trkpt lat="47.48397" lon="1.19307">
        <ele>63.993574</ele>
        <time>2021-12-04T09:51:04.918Z</time>
      </trkpt>
      <trkpt lat="47.48448" lon="1.1942">
        <ele>64.269609</ele>
        <time>2021-12-04T09:51:29.492Z</time>
      </trkpt>
      <trkpt lat="47.48459" lon="1.19435">
        <ele>64.313772</ele>
        <time>2021-12-04T09:51:35.524Z</time>
      </trkpt>
      <trkpt lat="47.48502" lon="1.19527">
        <ele>64.50798</ele>
        <time>2021-12-04T09:52:05.241Z</time>
      </trkpt>
      <trkpt lat="47.48578" lon="1.19671">
        <ele>64.457261</ele>
        <time>2021-12-04T09:52:51.225Z</time>
      </trkpt>
      <trkpt lat="47.48599" lon="1.19721">
        <ele>64.441006</ele>
        <time>2021-12-04T09:53:06.148Z</time>
      </trkpt>
      <trkpt lat="47.48645" lon="1.1986">
        <ele>65.07664</ele>
        <time>2021-12-04T09:53:49.148Z</time>
      </trkpt>
      <trkpt lat="47.48768" lon="1.20116">
        <ele>66.511641</ele>
        <time>2021-12-04T09:55:23.057Z</time>
      </trkpt>
      <trkpt lat="47.48901" lon="1.20295">
        <ele>66.687179</ele>
        <time>2021-12-04T09:56:31.295Z</time>
      </trkpt>
      <trkpt lat="47.48947" lon="1.20408">
        <ele>66.536141</ele>
        <time>2021-12-04T09:57:03.913Z</time>
      </trkpt>
      <trkpt lat="47.49003" lon="1.20636">
        <ele>66.318196</ele>
        <time>2021-12-04T09:58:05.339Z</time>
      </trkpt>
      <trkpt lat="47.49103" lon="1.21186">
        <ele>67.905148</ele>
        <time>2021-12-04T10:00:44.111Z</time>
      </trkpt>
      <trkpt lat="47.49108" lon="1.21396">
        <ele>68.088098</ele>
        <time>2021-12-04T10:01:38.366Z</time>
      </trkpt>
      <trkpt lat="47.49111" lon="1.21813">
        <ele>67.18009</ele>
        <time>2021-12-04T10:03:22.631Z</time>
      </trkpt>
      <trkpt lat="47.49087" lon="1.22106">
        <ele>66.434398</ele>
        <time>2021-12-04T10:04:36.058Z</time>
      </trkpt>
      <trkpt lat="47.49087" lon="1.22249">
        <ele>66.110902</ele>
        <time>2021-12-04T10:05:11.572Z</time>
      </trkpt>
      <trkpt lat="47.49074" lon="1.22482">
        <ele>65.718752</ele>
        <time>2021-12-04T10:06:10.403Z</time>
      </trkpt>
      <trkpt lat="47.49062" lon="1.2252">
        <ele>65.717483</ele>
        <time>2021-12-04T10:06:21.128Z</time>
      </trkpt>
      <trkpt lat="47.49061" lon="1.22535">
        <ele>65.717034</ele>
        <time>2021-12-04T10:06:24.822Z</time>
      </trkpt>
      <trkpt lat="47.49076" lon="1.22613">
        <ele>65.714573</ele>
        <time>2021-12-04T10:06:45.916Z</time>
      </trkpt>
      <trkpt lat="47.49086" lon="1.22781">
        <ele>65.83904</ele>
        <time>2021-12-04T10:07:30.873Z</time>
      </trkpt>
      <trkpt lat="47.49189" lon="1.23482">
        <ele>66.861572</ele>
        <time>2021-12-04T10:10:42.770Z</time>
      </trkpt>
      <trkpt lat="47.49214" lon="1.236">
        <ele>66.508744</ele>
        <time>2021-12-04T10:11:13.611Z</time>
      </trkpt>
      <trkpt lat="47.49272" lon="1.23846">
        <ele>65.768798</ele>
        <time>2021-12-04T10:12:17.125Z</time>
      </trkpt>
      <trkpt lat="47.49329" lon="1.24063">
        <ele>65.3036</ele>
        <time>2021-12-04T10:13:15.830Z</time>
      </trkpt>
      <trkpt lat="47.4933" lon="1.24087">
        <ele>65.289991</ele>
        <time>2021-12-04T10:13:21.954Z</time>
      </trkpt>
      <trkpt lat="47.49311" lon="1.24156">
        <ele>65.247221</ele>
        <time>2021-12-04T10:13:41.308Z</time>
      </trkpt>
      <trkpt lat="47.49293" lon="1.24266">
        <ele>65.15378</ele>
        <time>2021-12-04T10:14:10.596Z</time>
      </trkpt>
      <trkpt lat="47.49271" lon="1.24352">
        <ele>65.012321</ele>
        <time>2021-12-04T10:14:34.022Z</time>
      </trkpt>
      <trkpt lat="47.49267" lon="1.24427">
        <ele>64.897076</ele>
        <time>2021-12-04T10:14:52.814Z</time>
      </trkpt>
      <trkpt lat="47.49295" lon="1.24491">
        <ele>64.762437</ele>
        <time>2021-12-04T10:15:11.802Z</time>
      </trkpt>
      <trkpt lat="47.49346" lon="1.24544">
        <ele>64.40085</ele>
        <time>2021-12-04T10:15:34.162Z</time>
      </trkpt>
      <trkpt lat="47.49364" lon="1.24578">
        <ele>64.229027</ele>
        <time>2021-12-04T10:15:44.663Z</time>
      </trkpt>
      <trkpt lat="47.49444" lon="1.24754">
        <ele>63.567102</ele>
        <time>2021-12-04T10:16:36.551Z</time>
      </trkpt>
      <trkpt lat="47.49462" lon="1.24821">
        <ele>63.428754</ele>
        <time>2021-12-04T10:16:54.841Z</time>
      </trkpt>
      <trkpt lat="47.49456" lon="1.24912">
        <ele>63.255048</ele>
        <time>2021-12-04T10:17:18.081Z</time>
      </trkpt>
      <trkpt lat="47.49464" lon="1.24939">
        <ele>63.241476</ele>
        <time>2021-12-04T10:17:25.540Z</time>
      </trkpt>
      <trkpt lat="47.49469" lon="1.25057">
        <ele>63.371402</ele>
        <time>2021-12-04T10:17:56.574Z</time>
      </trkpt>
      <trkpt lat="47.49484" lon="1.2513">
        <ele>63.455142</ele>
        <time>2021-12-04T10:18:16.915Z</time>
      </trkpt>
      <trkpt lat="47.49489" lon="1.25219">
        <ele>63.569958</ele>
        <time>2021-12-04T10:18:40.704Z</time>
      </trkpt>
      <trkpt lat="47.49452" lon="1.25383">
        <ele>63.854439</ele>
        <time>2021-12-04T10:19:26.960Z</time>
      </trkpt>
      <trkpt lat="47.49403" lon="1.25536">
        <ele>64.19958</ele>
        <time>2021-12-04T10:20:12.872Z</time>
      </trkpt>
      <trkpt lat="47.49359" lon="1.25628">
        <ele>64.452891</ele>
        <time>2021-12-04T10:20:43.349Z</time>
      </trkpt>
      <trkpt lat="47.49345" lon="1.25668">
        <ele>64.554035</ele>
        <time>2021-12-04T10:20:55.584Z</time>
      </trkpt>
      <trkpt lat="47.4934" lon="1.25717">
        <ele>64.707111</ele>
        <time>2021-12-04T10:21:09.090Z</time>
      </trkpt>
      <trkpt lat="47.49381" lon="1.25941">
        <ele>65.588803</ele>
        <time>2021-12-04T10:22:13.061Z</time>
      </trkpt>
      <trkpt lat="47.49385" lon="1.26009">
        <ele>66.55679</ele>
        <time>2021-12-04T10:22:31.938Z</time>
      </trkpt>
      <trkpt lat="47.49394" lon="1.26013">
        <ele>66.758146</ele>
        <time>2021-12-04T10:22:36.184Z</time>
      </trkpt>
      <trkpt lat="47.49435" lon="1.2602">
        <ele>67.636809</ele>
        <time>2021-12-04T10:22:56.556Z</time>
      </trkpt>
      <trkpt lat="47.49454" lon="1.26026">
        <ele>68.043081</ele>
        <time>2021-12-04T10:23:06.978Z</time>
      </trkpt>
      <trkpt lat="47.49452" lon="1.26056">
        <ele>68.46328</ele>
        <time>2021-12-04T10:23:15.583Z</time>
      </trkpt>
      <trkpt lat="47.49437" lon="1.26086">
        <ele>68.992484</ele>
        <time>2021-12-04T10:23:26.892Z</time>
      </trkpt>
      <trkpt lat="47.49462" lon="1.2611">
        <ele>70.318277</ele>
        <time>2021-12-04T10:23:41.171Z</time>
      </trkpt>
      <trkpt lat="47.49504" lon="1.26161">
        <ele>73.206689</ele>
        <time>2021-12-04T10:24:10.341Z</time>
      </trkpt>
      <trkpt lat="47.49532" lon="1.26214">
        <ele>75.664349</ele>
        <time>2021-12-04T10:24:37.290Z</time>
      </trkpt>
      <trkpt lat="47.49572" lon="1.26243">
        <ele>78.059918</ele>
        <time>2021-12-04T10:25:04.339Z</time>
      </trkpt>
      <trkpt lat="47.49575" lon="1.26246">
        <ele>78.228188</ele>
        <time>2021-12-04T10:25:06.354Z</time>
      </trkpt>
      <trkpt lat="47.496" lon="1.26275">
        <ele>79.723472</ele>
        <time>2021-12-04T10:25:26.142Z</time>
      </trkpt>
      <trkpt lat="47.49635" lon="1.2631">
        <ele>81.546428</ele>
        <time>2021-12-04T10:25:50.827Z</time>
      </trkpt>
      <trkpt lat="47.49656" lon="1.2632">
        <ele>82.456503</ele>
        <time>2021-12-04T10:26:02.147Z</time>
      </trkpt>
      <trkpt lat="47.4967" lon="1.26319">
        <ele>83.092727</ele>
        <time>2021-12-04T10:26:09.280Z</time>
      </trkpt>
      <trkpt lat="47.49748" lon="1.26265">
        <ele>86.62452</ele>
        <time>2021-12-04T10:26:46.348Z</time>
      </trkpt>
      <trkpt lat="47.4975" lon="1.26278">
        <ele>86.792098</ele>
        <time>2021-12-04T10:26:51.376Z</time>
      </trkpt>
      <trkpt lat="47.49746" lon="1.26309">
        <ele>87.223241</ele>
        <time>2021-12-04T10:27:02.177Z</time>
      </trkpt>
      <trkpt lat="47.49768" lon="1.26405">
        <ele>88.566553</ele>
        <time>2021-12-04T10:27:35.482Z</time>
      </trkpt>
      <trkpt lat="47.49789" lon="1.26447">
        <ele>89.246314</ele>
        <time>2021-12-04T10:27:52.265Z</time>
      </trkpt>
      <trkpt lat="47.498" lon="1.2646">
        <ele>89.527081</ele>
        <time>2021-12-04T10:27:59.243Z</time>
      </trkpt>
      <trkpt lat="47.49866" lon="1.26587">
        <ele>91.396525</ele>
        <time>2021-12-04T10:28:50.391Z</time>
      </trkpt>
      <trkpt lat="47.49945" lon="1.26739">
        <ele>93.374989</ele>
        <time>2021-12-04T10:29:53.745Z</time>
      </trkpt>
      <trkpt lat="47.49961" lon="1.26779">
        <ele>93.733107</ele>
        <time>2021-12-04T10:30:08.815Z</time>
      </trkpt>
      <trkpt lat="47.49984" lon="1.2682">
        <ele>94.141527</ele>
        <time>2021-12-04T10:30:25.565Z</time>
      </trkpt>
      <trkpt lat="47.50124" lon="1.2702">
        <ele>95.494935</ele>
        <time>2021-12-04T10:31:45.790Z</time>
      </trkpt>
      <trkpt lat="47.50195" lon="1.27089">
        <ele>95.861116</ele>
        <time>2021-12-04T10:32:18.214Z</time>
      </trkpt>
      <trkpt lat="47.50242" lon="1.27119">
        <ele>96.163372</ele>
        <time>2021-12-04T10:32:39.342Z</time>
      </trkpt>
      <trkpt lat="47.50319" lon="1.27152">
        <ele>96.633315</ele>
        <time>2021-12-04T10:33:13.655Z</time>
      </trkpt>
      <trkpt lat="47.50399" lon="1.27205">
        <ele>96.802895</ele>
        <time>2021-12-04T10:33:51.932Z</time>
      </trkpt>
      <trkpt lat="47.505" lon="1.273">
        <ele>96.793678</ele>
        <time>2021-12-04T10:34:37.862Z</time>
      </trkpt>
      <trkpt lat="47.5062" lon="1.27466">
        <ele>92.312342</ele>
        <time>2021-12-04T10:35:30.473Z</time>
      </trkpt>
      <trkpt lat="47.50663" lon="1.27415">
        <ele>89.905008</ele>
        <time>2021-12-04T10:35:46.024Z</time>
      </trkpt>
      <trkpt lat="47.50777" lon="1.27275">
        <ele>82.441571</ele>
        <time>2021-12-04T10:36:10.590Z</time>
      </trkpt>
      <trkpt lat="47.51049" lon="1.27671">
        <ele>75.054511</ele>
        <time>2021-12-04T10:37:23.055Z</time>
      </trkpt>
      <trkpt lat="47.51142" lon="1.27758">
        <ele>73.451121</ele>
        <time>2021-12-04T10:37:45.417Z</time>
      </trkpt>
      <trkpt lat="47.51218" lon="1.27846">
        <ele>71.508938</ele>
        <time>2021-12-04T10:38:03.006Z</time>
      </trkpt>
      <trkpt lat="47.51235" lon="1.27795">
        <ele>70.562685</ele>
        <time>2021-12-04T10:38:10.331Z</time>
      </trkpt>
      <trkpt lat="47.51236" lon="1.27773">
        <ele>70.198939</ele>
        <time>2021-12-04T10:38:13.206Z</time>
      </trkpt>
      <trkpt lat="47.51221" lon="1.27694">
        <ele>68.838054</ele>
        <time>2021-12-04T10:38:23.589Z</time>
      </trkpt>
      <trkpt lat="47.51219" lon="1.27679">
        <ele>68.566267</ele>
        <time>2021-12-04T10:38:25.697Z</time>
      </trkpt>
      <trkpt lat="47.51216" lon="1.27666">
        <ele>68.373276</ele>
        <time>2021-12-04T10:38:28.413Z</time>
      </trkpt>
      <trkpt lat="47.5122" lon="1.27647">
        <ele>68.152577</ele>
        <time>2021-12-04T10:38:32.618Z</time>
      </trkpt>
      <trkpt lat="47.51259" lon="1.27579">
        <ele>67.152786</ele>
        <time>2021-12-04T10:38:52.157Z</time>
      </trkpt>
      <trkpt lat="47.51272" lon="1.27568">
        <ele>66.915136</ele>
        <time>2021-12-04T10:38:56.903Z</time>
      </trkpt>
      <trkpt lat="47.5137" lon="1.27528">
        <ele>65.426677</ele>
        <time>2021-12-04T10:39:32.796Z</time>
      </trkpt>
      <trkpt lat="47.51402" lon="1.27509">
        <ele>65.378637</ele>
        <time>2021-12-04T10:39:45.387Z</time>
      </trkpt>
      <trkpt lat="47.51441" lon="1.27458">
        <ele>65.305163</ele>
        <time>2021-12-04T10:40:05.037Z</time>
      </trkpt>
      <trkpt lat="47.51549" lon="1.2755">
        <ele>65.243558</ele>
        <time>2021-12-04T10:40:54.234Z</time>
      </trkpt>
      <trkpt lat="47.51594" lon="1.27573">
        <ele>65.299198</ele>
        <time>2021-12-04T10:41:13.638Z</time>
      </trkpt>
      <trkpt lat="47.51793" lon="1.27609">
        <ele>65.432824</ele>
        <time>2021-12-04T10:42:29.741Z</time>
      </trkpt>
      <trkpt lat="47.51902" lon="1.27619">
        <ele>65.430147</ele>
        <time>2021-12-04T10:43:12.235Z</time>
      </trkpt>
      <trkpt lat="47.52035" lon="1.27692">
        <ele>65.342449</ele>
        <time>2021-12-04T10:44:05.808Z</time>
      </trkpt>
      <trkpt lat="47.5206" lon="1.27693">
        <ele>65.254036</ele>
        <time>2021-12-04T10:44:14.893Z</time>
      </trkpt>
      <trkpt lat="47.52114" lon="1.27683">
        <ele>65.054574</ele>
        <time>2021-12-04T10:44:35.323Z</time>
      </trkpt>
      <trkpt lat="47.52208" lon="1.27703">
        <ele>64.712771</ele>
        <time>2021-12-04T10:45:09.540Z</time>
      </trkpt>
      <trkpt lat="47.52353" lon="1.27769">
        <ele>64.514445</ele>
        <time>2021-12-04T10:46:06.519Z</time>
      </trkpt>
      <trkpt lat="47.52369" lon="1.27778">
        <ele>64.492805</ele>
        <time>2021-12-04T10:46:13.142Z</time>
      </trkpt>
      <trkpt lat="47.52447" lon="1.27857">
        <ele>64.671598</ele>
        <time>2021-12-04T10:46:50.437Z</time>
      </trkpt>
      <trkpt lat="47.52469" lon="1.27871">
        <ele>64.729115</ele>
        <time>2021-12-04T10:47:00.079Z</time>
      </trkpt>
      <trkpt lat="47.52674" lon="1.27964">
        <ele>65.317135</ele>
        <time>2021-12-04T10:48:25.468Z</time>
      </trkpt>
      <trkpt lat="47.52721" lon="1.27998">
        <ele>65.466954</ele>
        <time>2021-12-04T10:48:46.487Z</time>
      </trkpt>
      <trkpt lat="47.52761" lon="1.2804">
        <ele>65.595409</ele>
        <time>2021-12-04T10:49:06.018Z</time>
      </trkpt>
      <trkpt lat="47.52815" lon="1.28128">
        <ele>65.808768</ele>
        <time>2021-12-04T10:49:38.481Z</time>
      </trkpt>
      <trkpt lat="47.52913" lon="1.28227">
        <ele>65.823606</ele>
        <time>2021-12-04T10:50:24.620Z</time>
      </trkpt>
      <trkpt lat="47.52991" lon="1.28295">
        <ele>65.727408</ele>
        <time>2021-12-04T10:50:58.142Z</time>
      </trkpt>
      <trkpt lat="47.53047" lon="1.28331">
        <ele>65.516545</ele>
        <time>2021-12-04T10:51:20.720Z</time>
      </trkpt>
      <trkpt lat="47.53051" lon="1.2834">
        <ele>65.489491</ele>
        <time>2021-12-04T10:51:23.271Z</time>
      </trkpt>
      <trkpt lat="47.53078" lon="1.28357">
        <ele>65.377742</ele>
        <time>2021-12-04T10:51:29.858Z</time>
      </trkpt>
      <trkpt lat="47.53127" lon="1.28416">
        <ele>65.135844</ele>
        <time>2021-12-04T10:51:44.235Z</time>
      </trkpt>
      <trkpt lat="47.53266" lon="1.28224">
        <ele>64.636147</ele>
        <time>2021-12-04T10:52:28.499Z</time>
      </trkpt>
      <trkpt lat="47.53617" lon="1.28729">
        <ele>65.193608</ele>
        <time>2021-12-04T10:55:39.360Z</time>
      </trkpt>
      <trkpt lat="47.53866" lon="1.29174">
        <ele>65.584918</ele>
        <time>2021-12-04T10:58:10.854Z</time>
      </trkpt>
      <trkpt lat="47.54128" lon="1.29546">
        <ele>65.066945</ele>
        <time>2021-12-04T11:00:26.971Z</time>
      </trkpt>
      <trkpt lat="47.54139" lon="1.29554">
        <ele>65.050109</ele>
        <time>2021-12-04T11:00:31.239Z</time>
      </trkpt>
      <trkpt lat="47.54784" lon="1.30303">
        <ele>65.107299</ele>
        <time>2021-12-04T11:05:44.128Z</time>
      </trkpt>
      <trkpt lat="47.54789" lon="1.30307">
        <ele>65.115488</ele>
        <time>2021-12-04T11:05:46.413Z</time>
      </trkpt>
      <trkpt lat="47.5488" lon="1.3018">
        <ele>65.338413</ele>
        <time>2021-12-04T11:06:35.758Z</time>
      </trkpt>
      <trkpt lat="47.54885" lon="1.30187">
        <ele>65.360508</ele>
        <time>2021-12-04T11:06:37.612Z</time>
      </trkpt>
      <trkpt lat="47.5489" lon="1.30194">
        <ele>65.383119</ele>
        <time>2021-12-04T11:06:39.479Z</time>
      </trkpt>
      <trkpt lat="47.54952" lon="1.30108">
        <ele>65.648065</ele>
        <time>2021-12-04T11:07:13.164Z</time>
      </trkpt>
      <trkpt lat="47.54967" lon="1.30112">
        <ele>65.694894</ele>
        <time>2021-12-04T11:07:19.104Z</time>
      </trkpt>
      <trkpt lat="47.55014" lon="1.30161">
        <ele>65.883479</ele>
        <time>2021-12-04T11:07:42.571Z</time>
      </trkpt>
      <trkpt lat="47.55053" lon="1.30192">
        <ele>66.037532</ele>
        <time>2021-12-04T11:08:00.330Z</time>
      </trkpt>
      <trkpt lat="47.55056" lon="1.30185">
        <ele>66.057743</ele>
        <time>2021-12-04T11:08:02.579Z</time>
      </trkpt>
      <trkpt lat="47.55188" lon="1.2992">
        <ele>66.579112</ele>
        <time>2021-12-04T11:09:31.661Z</time>
      </trkpt>
      <trkpt lat="47.55319" lon="1.30035">
        <ele>66.427219</ele>
        <time>2021-12-04T11:10:28.655Z</time>
      </trkpt>
      <trkpt lat="47.55363" lon="1.2995">
        <ele>66.225698</ele>
        <time>2021-12-04T11:10:55.475Z</time>
      </trkpt>
      <trkpt lat="47.5537" lon="1.29946">
        <ele>66.207019</ele>
        <time>2021-12-04T11:10:57.990Z</time>
      </trkpt>
      <trkpt lat="47.55432" lon="1.29985">
        <ele>66.151976</ele>
        <time>2021-12-04T11:11:23.014Z</time>
      </trkpt>
      <trkpt lat="47.55469" lon="1.30033">
        <ele>66.14125</ele>
        <time>2021-12-04T11:11:41.599Z</time>
      </trkpt>
      <trkpt lat="47.55523" lon="1.30072">
        <ele>66.1282</ele>
        <time>2021-12-04T11:12:04.771Z</time>
      </trkpt>
      <trkpt lat="47.55563" lon="1.30083">
        <ele>66.26005</ele>
        <time>2021-12-04T11:12:20.910Z</time>
      </trkpt>
      <trkpt lat="47.5578" lon="1.30246">
        <ele>67.681899</ele>
        <time>2021-12-04T11:14:04.592Z</time>
      </trkpt>
      <trkpt lat="47.55858" lon="1.30312">
        <ele>68.115535</ele>
        <time>2021-12-04T11:14:41.008Z</time>
      </trkpt>
      <trkpt lat="47.56047" lon="1.30454">
        <ele>67.668228</ele>
        <time>2021-12-04T11:15:59.708Z</time>
      </trkpt>
      <trkpt lat="47.56142" lon="1.30529">
        <ele>67.314931</ele>
        <time>2021-12-04T11:16:39.032Z</time>
      </trkpt>
      <trkpt lat="47.56567" lon="1.30956">
        <ele>66.719681</ele>
        <time>2021-12-04T11:19:52.784Z</time>
      </trkpt>
      <trkpt lat="47.56719" lon="1.31126">
        <ele>66.835203</ele>
        <time>2021-12-04T11:21:07.344Z</time>
      </trkpt>
      <trkpt lat="47.56762" lon="1.31205">
        <ele>66.902851</ele>
        <time>2021-12-04T11:21:33.409Z</time>
      </trkpt>
      <trkpt lat="47.56779" lon="1.3123">
        <ele>66.922456</ele>
        <time>2021-12-04T11:21:42.321Z</time>
      </trkpt>
      <trkpt lat="47.56825" lon="1.31261">
        <ele>66.964102</ele>
        <time>2021-12-04T11:22:01.713Z</time>
      </trkpt>
      <trkpt lat="47.56899" lon="1.31356">
        <ele>67.04575</ele>
        <time>2021-12-04T11:22:39.757Z</time>
      </trkpt>
      <trkpt lat="47.56922" lon="1.31395">
        <ele>67.149672</ele>
        <time>2021-12-04T11:22:53.586Z</time>
      </trkpt>
      <trkpt lat="47.57087" lon="1.31712">
        <ele>68.012759</ele>
        <time>2021-12-04T11:24:01.108Z</time>
      </trkpt>
      <trkpt lat="47.57121" lon="1.31782">
        <ele>68.210302</ele>
        <time>2021-12-04T11:24:15.875Z</time>
      </trkpt>
      <trkpt lat="47.5713" lon="1.318">
        <ele>68.255374</ele>
        <time>2021-12-04T11:24:19.830Z</time>
      </trkpt>
      <trkpt lat="47.57194" lon="1.31925">
        <ele>68.556231</ele>
        <time>2021-12-04T11:24:45.972Z</time>
      </trkpt>
      <trkpt lat="47.57243" lon="1.32017">
        <ele>68.749011</ele>
        <time>2021-12-04T11:25:05.171Z</time>
      </trkpt>
      <trkpt lat="47.57333" lon="1.32226">
        <ele>69.000452</ele>
        <time>2021-12-04T11:25:44.695Z</time>
      </trkpt>
      <trkpt lat="47.57395" lon="1.32343">
        <ele>69.280592</ele>
        <time>2021-12-04T11:26:10.266Z</time>
      </trkpt>
      <trkpt lat="47.57422" lon="1.32356">
        <ele>69.359381</ele>
        <time>2021-12-04T11:26:17.154Z</time>
      </trkpt>
      <trkpt lat="47.57427" lon="1.32356">
        <ele>69.374211</ele>
        <time>2021-12-04T11:26:19.267Z</time>
      </trkpt>
      <trkpt lat="47.57432" lon="1.32357">
        <ele>69.389739</ele>
        <time>2021-12-04T11:26:21.639Z</time>
      </trkpt>
      <trkpt lat="47.57446" lon="1.3239">
        <ele>69.462136</ele>
        <time>2021-12-04T11:26:31.588Z</time>
      </trkpt>
      <trkpt lat="47.57465" lon="1.32402">
        <ele>69.396292</ele>
        <time>2021-12-04T11:26:39.749Z</time>
      </trkpt>
      <trkpt lat="47.57476" lon="1.3241">
        <ele>69.338503</ele>
        <time>2021-12-04T11:26:43.536Z</time>
      </trkpt>
      <trkpt lat="47.57478" lon="1.32417">
        <ele>69.315386</ele>
        <time>2021-12-04T11:26:45.099Z</time>
      </trkpt>
      <trkpt lat="47.57482" lon="1.32426">
        <ele>69.281596</ele>
        <time>2021-12-04T11:26:50.387Z</time>
      </trkpt>
      <trkpt lat="47.57486" lon="1.32421">
        <ele>69.258869</ele>
        <time>2021-12-04T11:26:51.533Z</time>
      </trkpt>
      <trkpt lat="47.57502" lon="1.324">
        <ele>69.165275</ele>
        <time>2021-12-04T11:26:56.160Z</time>
      </trkpt>
      <trkpt lat="47.57794" lon="1.32121">
        <ele>67.1983</ele>
        <time>2021-12-04T11:28:08.484Z</time>
      </trkpt>
      <trkpt lat="47.57796" lon="1.3212">
        <ele>67.193257</ele>
        <time>2021-12-04T11:28:08.965Z</time>
      </trkpt>
      <trkpt lat="47.578" lon="1.32127">
        <ele>67.176828</ele>
        <time>2021-12-04T11:28:10.967Z</time>
      </trkpt>
      <trkpt lat="47.57812" lon="1.32149">
        <ele>67.129293</ele>
        <time>2021-12-04T11:28:18.110Z</time>
      </trkpt>
      <trkpt lat="47.57882" lon="1.32273">
        <ele>66.913829</ele>
        <time>2021-12-04T11:29:00.038Z</time>
      </trkpt>
      <trkpt lat="47.57886" lon="1.32278">
        <ele>66.920935</ele>
        <time>2021-12-04T11:29:02.077Z</time>
      </trkpt>
      <trkpt lat="47.58018" lon="1.32607">
        <ele>67.100049</ele>
        <time>2021-12-04T11:30:42.927Z</time>
      </trkpt>
      <trkpt lat="47.5801" lon="1.32613">
        <ele>67.095703</ele>
        <time>2021-12-04T11:30:45.878Z</time>
      </trkpt>
      <trkpt lat="47.58084" lon="1.32797">
        <ele>67.122376</ele>
        <time>2021-12-04T11:31:39.787Z</time>
      </trkpt>
      <trkpt lat="47.58064" lon="1.32788">
        <ele>67.142179</ele>
        <time>2021-12-04T11:31:48.179Z</time>
      </trkpt>
      <trkpt lat="47.58099" lon="1.32875">
        <ele>67.207154</ele>
        <time>2021-12-04T11:32:05.513Z</time>
      </trkpt>
      <trkpt lat="47.5816" lon="1.32974">
        <ele>67.394975</ele>
        <time>2021-12-04T11:32:29.514Z</time>
      </trkpt>
      <trkpt lat="47.58175" lon="1.32996">
        <ele>67.446109</ele>
        <time>2021-12-04T11:32:37.926Z</time>
      </trkpt>
      <trkpt lat="47.58193" lon="1.33039">
        <ele>67.527889</ele>
        <time>2021-12-04T11:32:51.545Z</time>
      </trkpt>
      <trkpt lat="47.58195" lon="1.33046">
        <ele>67.540772</ele>
        <time>2021-12-04T11:32:53.653Z</time>
      </trkpt>
      <trkpt lat="47.58218" lon="1.33096">
        <ele>67.639439</ele>
        <time>2021-12-04T11:33:09.807Z</time>
      </trkpt>
      <trkpt lat="47.58262" lon="1.3316">
        <ele>67.784783</ele>
        <time>2021-12-04T11:33:32.722Z</time>
      </trkpt>
      <trkpt lat="47.58275" lon="1.3318">
        <ele>67.828171</ele>
        <time>2021-12-04T11:33:39.564Z</time>
      </trkpt>
      <trkpt lat="47.58323" lon="1.33249">
        <ele>67.984598</ele>
        <time>2021-12-04T11:34:07.800Z</time>
      </trkpt>
      <trkpt lat="47.58375" lon="1.33324">
        <ele>68.099037</ele>
        <time>2021-12-04T11:34:36.663Z</time>
      </trkpt>
      <trkpt lat="47.58399" lon="1.3336">
        <ele>68.117364</ele>
        <time>2021-12-04T11:34:50.315Z</time>
      </trkpt>
      <trkpt lat="47.58424" lon="1.33396">
        <ele>68.135904</ele>
        <time>2021-12-04T11:35:03.791Z</time>
      </trkpt>
      <trkpt lat="47.58445" lon="1.33426">
        <ele>68.151297</ele>
        <time>2021-12-04T11:35:14.742Z</time>
      </trkpt>
      <trkpt lat="47.58465" lon="1.33449">
        <ele>68.164744</ele>
        <time>2021-12-04T11:35:24.330Z</time>
      </trkpt>
      <trkpt lat="47.5851" lon="1.33501">
        <ele>68.156214</ele>
        <time>2021-12-04T11:35:46.092Z</time>
      </trkpt>
      <trkpt lat="47.58512" lon="1.33496">
        <ele>68.153405</ele>
        <time>2021-12-04T11:35:47.559Z</time>
      </trkpt>
      <trkpt lat="47.58514" lon="1.33492">
        <ele>68.151115</ele>
        <time>2021-12-04T11:35:48.735Z</time>
      </trkpt>
      <trkpt lat="47.58543" lon="1.33537">
        <ele>68.121414</ele>
        <time>2021-12-04T11:35:58.088Z</time>
      </trkpt>
      <trkpt lat="47.58588" lon="1.33604">
        <ele>68.07592</ele>
        <time>2021-12-04T11:36:13.331Z</time>
      </trkpt>
      <trkpt lat="47.58589" lon="1.33605">
        <ele>68.074769</ele>
        <time>2021-12-04T11:36:13.765Z</time>
      </trkpt>
      <trkpt lat="47.58595" lon="1.33615">
        <ele>68.068488</ele>
        <time>2021-12-04T11:36:15.852Z</time>
      </trkpt>
      <trkpt lat="47.58599" lon="1.3362">
        <ele>68.064618</ele>
        <time>2021-12-04T11:36:17.213Z</time>
      </trkpt>
      <trkpt lat="47.58603" lon="1.33626">
        <ele>68.060815</ele>
        <time>2021-12-04T11:36:18.565Z</time>
      </trkpt>
      <trkpt lat="47.5861" lon="1.33636">
        <ele>68.053475</ele>
        <time>2021-12-04T11:36:21.217Z</time>
      </trkpt>
      <trkpt lat="47.58612" lon="1.33638">
        <ele>68.052233</ele>
        <time>2021-12-04T11:36:21.705Z</time>
      </trkpt>
      <trkpt lat="47.58617" lon="1.33648">
        <ele>68.065537</ele>
        <time>2021-12-04T11:36:24.042Z</time>
      </trkpt>
      <trkpt lat="47.58654" lon="1.33699">
        <ele>68.217152</ele>
        <time>2021-12-04T11:36:43.967Z</time>
      </trkpt>
      <trkpt lat="47.58779" lon="1.33903">
        <ele>68.688073</ele>
        <time>2021-12-04T11:37:58.841Z</time>
      </trkpt>
      <trkpt lat="47.5878" lon="1.33915">
        <ele>68.700078</ele>
        <time>2021-12-04T11:38:00.644Z</time>
      </trkpt>
      <trkpt lat="47.58805" lon="1.33961">
        <ele>68.760656</ele>
        <time>2021-12-04T11:38:10.244Z</time>
      </trkpt>
      <trkpt lat="47.58948" lon="1.34189">
        <ele>69.026563</ele>
        <time>2021-12-04T11:39:02.647Z</time>
      </trkpt>
      <trkpt lat="47.59015" lon="1.34331">
        <ele>68.976174</ele>
        <time>2021-12-04T11:39:48.455Z</time>
      </trkpt>
      <trkpt lat="47.59073" lon="1.34441">
        <ele>68.857674</ele>
        <time>2021-12-04T11:40:23.519Z</time>
      </trkpt>
      <trkpt lat="47.5908" lon="1.34439">
        <ele>68.848475</ele>
        <time>2021-12-04T11:40:26.135Z</time>
      </trkpt>
      <trkpt lat="47.59078" lon="1.34421">
        <ele>68.781852</ele>
        <time>2021-12-04T11:40:30.620Z</time>
      </trkpt>
      <trkpt lat="47.59131" lon="1.34526">
        <ele>68.223918</ele>
        <time>2021-12-04T11:41:02.511Z</time>
      </trkpt>
      <trkpt lat="47.59134" lon="1.3455">
        <ele>68.121435</ele>
        <time>2021-12-04T11:41:08.310Z</time>
      </trkpt>
      <trkpt lat="47.59199" lon="1.34722">
        <ele>67.616448</ele>
        <time>2021-12-04T11:41:56.555Z</time>
      </trkpt>
      <trkpt lat="47.5921" lon="1.34769">
        <ele>67.567624</ele>
        <time>2021-12-04T11:42:08.934Z</time>
      </trkpt>
      <trkpt lat="47.59255" lon="1.34907">
        <ele>67.68446</ele>
        <time>2021-12-04T11:42:49.734Z</time>
      </trkpt>
      <trkpt lat="47.59282" lon="1.34952">
        <ele>68.058455</ele>
        <time>2021-12-04T11:43:06.553Z</time>
      </trkpt>
      <trkpt lat="47.59294" lon="1.34972">
        <ele>68.2263</ele>
        <time>2021-12-04T11:43:14.059Z</time>
      </trkpt>
      <trkpt lat="47.59303" lon="1.34998">
        <ele>68.406883</ele>
        <time>2021-12-04T11:43:22.730Z</time>
      </trkpt>
      <trkpt lat="47.59304" lon="1.35011">
        <ele>68.486674</ele>
        <time>2021-12-04T11:43:26.499Z</time>
      </trkpt>
      <trkpt lat="47.59314" lon="1.35048">
        <ele>68.732262</ele>
        <time>2021-12-04T11:43:38.747Z</time>
      </trkpt>
      <trkpt lat="47.59343" lon="1.35099">
        <ele>69.143346</ele>
        <time>2021-12-04T11:44:00.299Z</time>
      </trkpt>
      <trkpt lat="47.59369" lon="1.35151">
        <ele>69.52444</ele>
        <time>2021-12-04T11:44:21.937Z</time>
      </trkpt>
      <trkpt lat="47.59449" lon="1.35297">
        <ele>70.631545</ele>
        <time>2021-12-04T11:45:17.409Z</time>
      </trkpt>
      <trkpt lat="47.59585" lon="1.35524">
        <ele>69.050083</ele>
        <time>2021-12-04T11:46:29.189Z</time>
      </trkpt>
      <trkpt lat="47.59594" lon="1.35532">
        <ele>68.972508</ele>
        <time>2021-12-04T11:46:32.605Z</time>
      </trkpt>
      <trkpt lat="47.59594" lon="1.35546">
        <ele>68.898207</ele>
        <time>2021-12-04T11:46:35.865Z</time>
      </trkpt>
      <trkpt lat="47.59621" lon="1.35639">
        <ele>68.364527</ele>
        <time>2021-12-04T11:46:59.860Z</time>
      </trkpt>
      <trkpt lat="47.59645" lon="1.35687">
        <ele>68.052746</ele>
        <time>2021-12-04T11:47:14.242Z</time>
      </trkpt>
      <trkpt lat="47.59678" lon="1.35726">
        <ele>67.78454</ele>
        <time>2021-12-04T11:47:29.971Z</time>
      </trkpt>
      <trkpt lat="47.59697" lon="1.35771">
        <ele>67.716403</ele>
        <time>2021-12-04T11:47:43.497Z</time>
      </trkpt>
      <trkpt lat="47.59715" lon="1.358">
        <ele>67.666697</ele>
        <time>2021-12-04T11:47:53.403Z</time>
      </trkpt>
      <trkpt lat="47.59742" lon="1.35867">
        <ele>67.567383</ele>
        <time>2021-12-04T11:48:13.095Z</time>
      </trkpt>
      <trkpt lat="47.5979" lon="1.35952">
        <ele>67.46956</ele>
        <time>2021-12-04T11:48:41.369Z</time>
      </trkpt>
      <trkpt lat="47.59846" lon="1.36024">
        <ele>67.483667</ele>
        <time>2021-12-04T11:49:09.695Z</time>
      </trkpt>
      <trkpt lat="47.5985" lon="1.36019">
        <ele>67.484717</ele>
        <time>2021-12-04T11:49:11.941Z</time>
      </trkpt>
      <trkpt lat="47.59932" lon="1.3617">
        <ele>67.522345</ele>
        <time>2021-12-04T11:49:43.555Z</time>
      </trkpt>
      <trkpt lat="47.59976" lon="1.36244">
        <ele>67.551737</ele>
        <time>2021-12-04T11:50:08.984Z</time>
      </trkpt>
      <trkpt lat="47.60031" lon="1.36317">
        <ele>67.591577</ele>
        <time>2021-12-04T11:50:37.932Z</time>
      </trkpt>
      <trkpt lat="47.60116" lon="1.36427">
        <ele>67.711966</ele>
        <time>2021-12-04T11:51:21.770Z</time>
      </trkpt>
      <trkpt lat="47.60298" lon="1.36654">
        <ele>68.176973</ele>
        <time>2021-12-04T11:52:18.290Z</time>
      </trkpt>
      <trkpt lat="47.60375" lon="1.36723">
        <ele>68.765432</ele>
        <time>2021-12-04T11:52:43.666Z</time>
      </trkpt>
      <trkpt lat="47.60465" lon="1.36841">
        <ele>69.365385</ele>
        <time>2021-12-04T11:53:16.103Z</time>
      </trkpt>
      <trkpt lat="47.60495" lon="1.36879">
        <ele>69.393811</ele>
        <time>2021-12-04T11:53:28.623Z</time>
      </trkpt>
      <trkpt lat="47.60563" lon="1.36942">
        <ele>69.45133</ele>
        <time>2021-12-04T11:53:52.560Z</time>
      </trkpt>
      <trkpt lat="47.60609" lon="1.36966">
        <ele>69.416529</ele>
        <time>2021-12-04T11:54:06.569Z</time>
      </trkpt>
      <trkpt lat="47.60782" lon="1.37012">
        <ele>69.053298</ele>
        <time>2021-12-04T11:54:58.130Z</time>
      </trkpt>
      <trkpt lat="47.60829" lon="1.37032">
        <ele>69.2205</ele>
        <time>2021-12-04T11:55:13.168Z</time>
      </trkpt>
      <trkpt lat="47.60901" lon="1.37076">
        <ele>69.485006</ele>
        <time>2021-12-04T11:55:38.544Z</time>
      </trkpt>
      <trkpt lat="47.60979" lon="1.37124">
        <ele>70.192003</ele>
        <time>2021-12-04T11:56:08.727Z</time>
      </trkpt>
      <trkpt lat="47.61099" lon="1.37178">
        <ele>71.704843</ele>
        <time>2021-12-04T11:56:57.333Z</time>
      </trkpt>
      <trkpt lat="47.61118" lon="1.37193">
        <ele>71.934223</ele>
        <time>2021-12-04T11:57:04.684Z</time>
      </trkpt>
      <trkpt lat="47.61205" lon="1.37262">
        <ele>72.890605</ele>
        <time>2021-12-04T11:57:34.861Z</time>
      </trkpt>
      <trkpt lat="47.61236" lon="1.37291">
        <ele>73.25197</ele>
        <time>2021-12-04T11:57:45.590Z</time>
      </trkpt>
      <trkpt lat="47.61354" lon="1.37453">
        <ele>74.477946</ele>
        <time>2021-12-04T11:58:29.789Z</time>
      </trkpt>
      <trkpt lat="47.61424" lon="1.37529">
        <ele>75.168754</ele>
        <time>2021-12-04T11:58:56.280Z</time>
      </trkpt>
      <trkpt lat="47.61523" lon="1.37662">
        <ele>76.361307</ele>
        <time>2021-12-04T11:59:37.343Z</time>
      </trkpt>
      <trkpt lat="47.61563" lon="1.37746">
        <ele>76.258074</ele>
        <time>2021-12-04T11:59:54.488Z</time>
      </trkpt>
      <trkpt lat="47.61586" lon="1.3778">
        <ele>76.165073</ele>
        <time>2021-12-04T12:00:02.020Z</time>
      </trkpt>
      <trkpt lat="47.61607" lon="1.37796">
        <ele>76.096389</ele>
        <time>2021-12-04T12:00:07.334Z</time>
      </trkpt>
      <trkpt lat="47.61622" lon="1.3782">
        <ele>76.034979</ele>
        <time>2021-12-04T12:00:12.259Z</time>
      </trkpt>
      <trkpt lat="47.61642" lon="1.37869">
        <ele>75.923918</ele>
        <time>2021-12-04T12:00:20.802Z</time>
      </trkpt>
      <trkpt lat="47.61651" lon="1.37904">
        <ele>75.748105</ele>
        <time>2021-12-04T12:00:26.220Z</time>
      </trkpt>
      <trkpt lat="47.61665" lon="1.38058">
        <ele>75.002472</ele>
        <time>2021-12-04T12:01:03.229Z</time>
      </trkpt>
      <trkpt lat="47.61757" lon="1.38263">
        <ele>73.959258</ele>
        <time>2021-12-04T12:02:04.415Z</time>
      </trkpt>
      <trkpt lat="47.61938" lon="1.38632">
        <ele>71.525388</ele>
        <time>2021-12-04T12:03:52.684Z</time>
      </trkpt>
      <trkpt lat="47.6201" lon="1.38748">
        <ele>70.887111</ele>
        <time>2021-12-04T12:04:31.772Z</time>
      </trkpt>
      <trkpt lat="47.62082" lon="1.38843">
        <ele>70.637487</ele>
        <time>2021-12-04T12:05:07.702Z</time>
      </trkpt>
      <trkpt lat="47.62117" lon="1.38903">
        <ele>70.519912</ele>
        <time>2021-12-04T12:05:20.383Z</time>
      </trkpt>
      <trkpt lat="47.62134" lon="1.38928">
        <ele>70.467738</ele>
        <time>2021-12-04T12:05:26.077Z</time>
      </trkpt>
      <trkpt lat="47.62175" lon="1.38986">
        <ele>70.467057</ele>
        <time>2021-12-04T12:05:47.295Z</time>
      </trkpt>
      <trkpt lat="47.62253" lon="1.39122">
        <ele>70.575898</ele>
        <time>2021-12-04T12:06:33.333Z</time>
      </trkpt>
      <trkpt lat="47.62343" lon="1.39263">
        <ele>71.411903</ele>
        <time>2021-12-04T12:07:28.271Z</time>
      </trkpt>
      <trkpt lat="47.62498" lon="1.39476">
        <ele>73.060247</ele>
        <time>2021-12-04T12:09:02.321Z</time>
      </trkpt>
      <trkpt lat="47.62578" lon="1.39601">
        <ele>73.19444</ele>
        <time>2021-12-04T12:09:46.688Z</time>
      </trkpt>
      <trkpt lat="47.62667" lon="1.39693">
        <ele>72.964826</ele>
        <time>2021-12-04T12:10:26.044Z</time>
      </trkpt>
      <trkpt lat="47.62744" lon="1.39785">
        <ele>72.647888</ele>
        <time>2021-12-04T12:11:02.686Z</time>
      </trkpt>
      <trkpt lat="47.62859" lon="1.39943">
        <ele>72.518376</ele>
        <time>2021-12-04T12:12:01.426Z</time>
      </trkpt>
      <trkpt lat="47.62912" lon="1.39997">
        <ele>72.599121</ele>
        <time>2021-12-04T12:12:26.696Z</time>
      </trkpt>
      <trkpt lat="47.62945" lon="1.40003">
        <ele>72.64212</ele>
        <time>2021-12-04T12:12:40.323Z</time>
      </trkpt>
      <trkpt lat="47.62953" lon="1.40011">
        <ele>72.722183</ele>
        <time>2021-12-04T12:12:44.431Z</time>
      </trkpt>
      <trkpt lat="47.63053" lon="1.4018">
        <ele>73.899199</ele>
        <time>2021-12-04T12:13:49.567Z</time>
      </trkpt>
      <trkpt lat="47.63141" lon="1.40308">
        <ele>74.706355</ele>
        <time>2021-12-04T12:14:42.648Z</time>
      </trkpt>
      <trkpt lat="47.63216" lon="1.40381">
        <ele>75.207427</ele>
        <time>2021-12-04T12:15:19.190Z</time>
      </trkpt>
      <trkpt lat="47.634" lon="1.40615">
        <ele>75.261967</ele>
        <time>2021-12-04T12:16:53.880Z</time>
      </trkpt>
      <trkpt lat="47.63492" lon="1.40748">
        <ele>74.879052</ele>
        <time>2021-12-04T12:17:40.022Z</time>
      </trkpt>
      <trkpt lat="47.63499" lon="1.40756">
        <ele>74.857032</ele>
        <time>2021-12-04T12:17:41.919Z</time>
      </trkpt>
      <trkpt lat="47.63547" lon="1.40819">
        <ele>74.690786</ele>
        <time>2021-12-04T12:17:56.360Z</time>
      </trkpt>
      <trkpt lat="47.63559" lon="1.40842">
        <ele>74.64042</ele>
        <time>2021-12-04T12:18:00.863Z</time>
      </trkpt>
      <trkpt lat="47.6384" lon="1.41243">
        <ele>75.208769</ele>
        <time>2021-12-04T12:20:36.019Z</time>
      </trkpt>
      <trkpt lat="47.63919" lon="1.41352">
        <ele>74.843246</ele>
        <time>2021-12-04T12:21:16.477Z</time>
      </trkpt>
      <trkpt lat="47.64192" lon="1.4169">
        <ele>72.649194</ele>
        <time>2021-12-04T12:23:23.110Z</time>
      </trkpt>
      <trkpt lat="47.643" lon="1.41801">
        <ele>72.438748</ele>
        <time>2021-12-04T12:24:12.623Z</time>
      </trkpt>
      <trkpt lat="47.64574" lon="1.42081">
        <ele>74.447997</ele>
        <time>2021-12-04T12:26:33.436Z</time>
      </trkpt>
      <trkpt lat="47.64706" lon="1.42239">
        <ele>75.126865</ele>
        <time>2021-12-04T12:27:42.923Z</time>
      </trkpt>
      <trkpt lat="47.64769" lon="1.42322">
        <ele>74.856144</ele>
        <time>2021-12-04T12:28:14.518Z</time>
      </trkpt>
      <trkpt lat="47.64936" lon="1.42613">
        <ele>73.388212</ele>
        <time>2021-12-04T12:29:11.113Z</time>
      </trkpt>
      <trkpt lat="47.64943" lon="1.42628">
        <ele>73.305342</ele>
        <time>2021-12-04T12:29:13.905Z</time>
      </trkpt>
      <trkpt lat="47.65107" lon="1.42887">
        <ele>73.110614</ele>
        <time>2021-12-04T12:30:11.291Z</time>
      </trkpt>
      <trkpt lat="47.65293" lon="1.43207">
        <ele>74.359406</ele>
        <time>2021-12-04T12:31:29.064Z</time>
      </trkpt>
      <trkpt lat="47.65327" lon="1.43264">
        <ele>74.738374</ele>
        <time>2021-12-04T12:31:43.607Z</time>
      </trkpt>
      <trkpt lat="47.65338" lon="1.43279">
        <ele>74.922384</ele>
        <time>2021-12-04T12:31:47.569Z</time>
      </trkpt>
      <trkpt lat="47.65395" lon="1.43345">
        <ele>75.779629</ele>
        <time>2021-12-04T12:32:07.982Z</time>
      </trkpt>
      <trkpt lat="47.65418" lon="1.43373">
        <ele>76.136437</ele>
        <time>2021-12-04T12:32:17.733Z</time>
      </trkpt>
      <trkpt lat="47.65469" lon="1.43453">
        <ele>77.315287</ele>
        <time>2021-12-04T12:32:43.130Z</time>
      </trkpt>
      <trkpt lat="47.65478" lon="1.43459">
        <ele>77.543591</ele>
        <time>2021-12-04T12:32:47.004Z</time>
      </trkpt>
      <trkpt lat="47.65489" lon="1.43458">
        <ele>77.78938</ele>
        <time>2021-12-04T12:32:51.409Z</time>
      </trkpt>
      <trkpt lat="47.65515" lon="1.43422">
        <ele>78.584487</ele>
        <time>2021-12-04T12:33:05.898Z</time>
      </trkpt>
      <trkpt lat="47.65523" lon="1.43413">
        <ele>78.812837</ele>
        <time>2021-12-04T12:33:10.084Z</time>
      </trkpt>
      <trkpt lat="47.65532" lon="1.43401">
        <ele>79.099634</ele>
        <time>2021-12-04T12:33:14.967Z</time>
      </trkpt>
      <trkpt lat="47.65557" lon="1.43435">
        <ele>79.864226</ele>
        <time>2021-12-04T12:33:27.571Z</time>
      </trkpt>
      <trkpt lat="47.65575" lon="1.43441">
        <ele>80.277052</ele>
        <time>2021-12-04T12:33:34.373Z</time>
      </trkpt>
      <trkpt lat="47.6559" lon="1.43437">
        <ele>80.62572</ele>
        <time>2021-12-04T12:33:39.585Z</time>
      </trkpt>
      <trkpt lat="47.65628" lon="1.43407">
        <ele>80.880927</ele>
        <time>2021-12-04T12:33:54.550Z</time>
      </trkpt>
      <trkpt lat="47.65633" lon="1.43413">
        <ele>80.905925</ele>
        <time>2021-12-04T12:33:57.068Z</time>
      </trkpt>
      <trkpt lat="47.65704" lon="1.43611">
        <ele>81.208562</ele>
        <time>2021-12-04T12:34:33.142Z</time>
      </trkpt>
      <trkpt lat="47.65747" lon="1.43696">
        <ele>80.303138</ele>
        <time>2021-12-04T12:34:47.733Z</time>
      </trkpt>
      <trkpt lat="47.65744" lon="1.43728">
        <ele>80.030844</ele>
        <time>2021-12-04T12:34:52.063Z</time>
      </trkpt>
      <trkpt lat="47.65722" lon="1.43784">
        <ele>79.475116</ele>
        <time>2021-12-04T12:35:01.065Z</time>
      </trkpt>
      <trkpt lat="47.65721" lon="1.43816">
        <ele>79.198984</ele>
        <time>2021-12-04T12:35:05.537Z</time>
      </trkpt>
      <trkpt lat="47.65727" lon="1.43887">
        <ele>78.706792</ele>
        <time>2021-12-04T12:35:15.573Z</time>
      </trkpt>
      <trkpt lat="47.65742" lon="1.43933">
        <ele>78.37464</ele>
        <time>2021-12-04T12:35:22.748Z</time>
      </trkpt>
      <trkpt lat="47.65814" lon="1.44024">
        <ele>77.445073</ele>
        <time>2021-12-04T12:35:43.862Z</time>
      </trkpt>
      <trkpt lat="47.65818" lon="1.44035">
        <ele>77.364316</ele>
        <time>2021-12-04T12:35:45.664Z</time>
      </trkpt>
      <trkpt lat="47.65819" lon="1.44068">
        <ele>77.053554</ele>
        <time>2021-12-04T12:35:50.380Z</time>
      </trkpt>
      <trkpt lat="47.65829" lon="1.44108">
        <ele>76.653097</ele>
        <time>2021-12-04T12:35:56.163Z</time>
      </trkpt>
      <trkpt lat="47.65876" lon="1.44192">
        <ele>75.613221</ele>
        <time>2021-12-04T12:36:10.338Z</time>
      </trkpt>
      <trkpt lat="47.6589" lon="1.44231">
        <ele>75.202176</ele>
        <time>2021-12-04T12:36:15.826Z</time>
      </trkpt>
      <trkpt lat="47.65894" lon="1.44249">
        <ele>75.021372</ele>
        <time>2021-12-04T12:36:18.274Z</time>
      </trkpt>
      <trkpt lat="47.65824" lon="1.44298">
        <ele>74.182617</ele>
        <time>2021-12-04T12:36:33.137Z</time>
      </trkpt>
      <trkpt lat="47.65807" lon="1.44312">
        <ele>73.981052</ele>
        <time>2021-12-04T12:36:37.227Z</time>
      </trkpt>
      <trkpt lat="47.65791" lon="1.4433">
        <ele>73.774731</ele>
        <time>2021-12-04T12:36:41.409Z</time>
      </trkpt>
      <trkpt lat="47.6578" lon="1.44361">
        <ele>73.535254</ele>
        <time>2021-12-04T12:36:46.317Z</time>
      </trkpt>
      <trkpt lat="47.65695" lon="1.44646">
        <ele>72.786421</ele>
        <time>2021-12-04T12:37:36.749Z</time>
      </trkpt>
      <trkpt lat="47.65608" lon="1.44784">
        <ele>72.599085</ele>
        <time>2021-12-04T12:38:06.736Z</time>
      </trkpt>
      <trkpt lat="47.65599" lon="1.44829">
        <ele>72.551204</ele>
        <time>2021-12-04T12:38:14.056Z</time>
      </trkpt>
      <trkpt lat="47.65601" lon="1.44855">
        <ele>72.524432</ele>
        <time>2021-12-04T12:38:18.179Z</time>
      </trkpt>
      <trkpt lat="47.65603" lon="1.45011">
        <ele>72.75291</ele>
        <time>2021-12-04T12:38:44.000Z</time>
      </trkpt>
      <trkpt lat="47.6563" lon="1.45257">
        <ele>73.107348</ele>
        <time>2021-12-04T12:39:30.874Z</time>
      </trkpt>
      <trkpt lat="47.65859" lon="1.47155">
        <ele>73.452812</ele>
        <time>2021-12-04T12:44:45.856Z</time>
      </trkpt>
      <trkpt lat="47.65948" lon="1.47665">
        <ele>73.683969</ele>
        <time>2021-12-04T12:46:13.807Z</time>
      </trkpt>
      <trkpt lat="47.66047" lon="1.48036">
        <ele>73.420162</ele>
        <time>2021-12-04T12:47:17.924Z</time>
      </trkpt>
      <trkpt lat="47.66106" lon="1.48226">
        <ele>73.295908</ele>
        <time>2021-12-04T12:47:51.608Z</time>
      </trkpt>
      <trkpt lat="47.66156" lon="1.48364">
        <ele>73.249036</ele>
        <time>2021-12-04T12:48:16.789Z</time>
      </trkpt>
      <trkpt lat="47.66189" lon="1.48462">
        <ele>73.227485</ele>
        <time>2021-12-04T12:48:34.707Z</time>
      </trkpt>
      <trkpt lat="47.66288" lon="1.48722">
        <ele>73.336053</ele>
        <time>2021-12-04T12:49:24.285Z</time>
      </trkpt>
      <trkpt lat="47.67039" lon="1.50397">
        <ele>75.52472</ele>
        <time>2021-12-04T12:55:08.631Z</time>
      </trkpt>
      <trkpt lat="47.672" lon="1.50793">
        <ele>74.372229</ele>
        <time>2021-12-04T12:56:17.937Z</time>
      </trkpt>
      <trkpt lat="47.67838" lon="1.5237">
        <ele>78.591181</ele>
        <time>2021-12-04T13:01:48.571Z</time>
      </trkpt>
      <trkpt lat="47.67843" lon="1.5238">
        <ele>78.581587</ele>
        <time>2021-12-04T13:01:50.429Z</time>
      </trkpt>
      <trkpt lat="47.67851" lon="1.524">
        <ele>78.563162</ele>
        <time>2021-12-04T13:01:53.987Z</time>
      </trkpt>
      <trkpt lat="47.6788" lon="1.52472">
        <ele>78.495463</ele>
        <time>2021-12-04T13:02:06.995Z</time>
      </trkpt>
      <trkpt lat="47.68248" lon="1.53389">
        <ele>77.326454</ele>
        <time>2021-12-04T13:04:49.169Z</time>
      </trkpt>
      <trkpt lat="47.68296" lon="1.53474">
        <ele>77.029502</ele>
        <time>2021-12-04T13:05:04.893Z</time>
      </trkpt>
      <trkpt lat="47.68375" lon="1.53635">
        <ele>76.128676</ele>
        <time>2021-12-04T13:05:32.536Z</time>
      </trkpt>
      <trkpt lat="47.68393" lon="1.53656">
        <ele>75.973752</ele>
        <time>2021-12-04T13:05:37.172Z</time>
      </trkpt>
      <trkpt lat="47.68801" lon="1.53971">
        <ele>75.536302</ele>
        <time>2021-12-04T13:07:22.323Z</time>
      </trkpt>
      <trkpt lat="47.68902" lon="1.54059">
        <ele>75.413794</ele>
        <time>2021-12-04T13:07:48.774Z</time>
      </trkpt>
      <trkpt lat="47.68999" lon="1.54198">
        <ele>75.322671</ele>
        <time>2021-12-04T13:08:19.147Z</time>
      </trkpt>
      <trkpt lat="47.69037" lon="1.5426">
        <ele>75.342803</ele>
        <time>2021-12-04T13:08:32.351Z</time>
      </trkpt>
      <trkpt lat="47.69166" lon="1.54502">
        <ele>75.845975</ele>
        <time>2021-12-04T13:09:23.685Z</time>
      </trkpt>
      <trkpt lat="47.69258" lon="1.5471">
        <ele>76.358948</ele>
        <time>2021-12-04T13:10:07.602Z</time>
      </trkpt>
      <trkpt lat="47.6928" lon="1.54793">
        <ele>76.509332</ele>
        <time>2021-12-04T13:10:23.329Z</time>
      </trkpt>
      <trkpt lat="47.6929" lon="1.54872">
        <ele>76.645749</ele>
        <time>2021-12-04T13:10:37.454Z</time>
      </trkpt>
      <trkpt lat="47.69247" lon="1.55278">
        <ele>76.531432</ele>
        <time>2021-12-04T13:11:43.684Z</time>
      </trkpt>
      <trkpt lat="47.69254" lon="1.55334">
        <ele>76.508822</ele>
        <time>2021-12-04T13:11:52.741Z</time>
      </trkpt>
      <trkpt lat="47.69273" lon="1.55382">
        <ele>76.486841</ele>
        <time>2021-12-04T13:12:01.654Z</time>
      </trkpt>
      <trkpt lat="47.69291" lon="1.55414">
        <ele>76.470117</ele>
        <time>2021-12-04T13:12:08.475Z</time>
      </trkpt>
      <trkpt lat="47.6939" lon="1.55615">
        <ele>76.896412</ele>
        <time>2021-12-04T13:12:51.671Z</time>
      </trkpt>
      <trkpt lat="47.69525" lon="1.55941">
        <ele>78.034774</ele>
        <time>2021-12-04T13:13:59.321Z</time>
      </trkpt>
      <trkpt lat="47.69587" lon="1.56064">
        <ele>78.317961</ele>
        <time>2021-12-04T13:14:24.363Z</time>
      </trkpt>
      <trkpt lat="47.69641" lon="1.5615">
        <ele>78.367448</ele>
        <time>2021-12-04T13:14:42.669Z</time>
      </trkpt>
      <trkpt lat="47.69719" lon="1.56219">
        <ele>78.363192</ele>
        <time>2021-12-04T13:15:03.023Z</time>
      </trkpt>
      <trkpt lat="47.69903" lon="1.56593">
        <ele>79.101336</ele>
        <time>2021-12-04T13:16:17.260Z</time>
      </trkpt>
      <trkpt lat="47.70054" lon="1.56815">
        <ele>80.706451</ele>
        <time>2021-12-04T13:17:19.559Z</time>
      </trkpt>
      <trkpt lat="47.70087" lon="1.5686">
        <ele>81.098435</ele>
        <time>2021-12-04T13:17:31.584Z</time>
      </trkpt>
      <trkpt lat="47.7012" lon="1.56894">
        <ele>81.142724</ele>
        <time>2021-12-04T13:17:41.887Z</time>
      </trkpt>
      <trkpt lat="47.70371" lon="1.57034">
        <ele>81.260854</ele>
        <time>2021-12-04T13:18:43.087Z</time>
      </trkpt>
      <trkpt lat="47.7049" lon="1.57098">
        <ele>81.322184</ele>
        <time>2021-12-04T13:19:12.466Z</time>
      </trkpt>
      <trkpt lat="47.70727" lon="1.57211">
        <ele>81.623458</ele>
        <time>2021-12-04T13:20:11.852Z</time>
      </trkpt>
      <trkpt lat="47.70833" lon="1.57214">
        <ele>81.778313</ele>
        <time>2021-12-04T13:20:36.952Z</time>
      </trkpt>
      <trkpt lat="47.7106" lon="1.57253">
        <ele>81.826498</ele>
        <time>2021-12-04T13:21:31.239Z</time>
      </trkpt>
      <trkpt lat="47.71118" lon="1.57212">
        <ele>81.721311</ele>
        <time>2021-12-04T13:21:45.505Z</time>
      </trkpt>
      <trkpt lat="47.71164" lon="1.572">
        <ele>81.175512</ele>
        <time>2021-12-04T13:21:55.289Z</time>
      </trkpt>
      <trkpt lat="47.71193" lon="1.57205">
        <ele>80.84376</ele>
        <time>2021-12-04T13:22:00.866Z</time>
      </trkpt>
      <trkpt lat="47.71229" lon="1.57231">
        <ele>80.374786</ele>
        <time>2021-12-04T13:22:08.692Z</time>
      </trkpt>
      <trkpt lat="47.71256" lon="1.57274">
        <ele>79.916833</ele>
        <time>2021-12-04T13:22:16.325Z</time>
      </trkpt>
      <trkpt lat="47.71283" lon="1.57361">
        <ele>79.271447</ele>
        <time>2021-12-04T13:22:28.792Z</time>
      </trkpt>
      <trkpt lat="47.71308" lon="1.57367">
        <ele>79.043885</ele>
        <time>2021-12-04T13:22:33.814Z</time>
      </trkpt>
      <trkpt lat="47.71319" lon="1.57369">
        <ele>78.935687</ele>
        <time>2021-12-04T13:22:36.194Z</time>
      </trkpt>
      <trkpt lat="47.71606" lon="1.57186">
        <ele>77.27821</ele>
        <time>2021-12-04T13:23:43.339Z</time>
      </trkpt>
      <trkpt lat="47.71826" lon="1.57055">
        <ele>77.561748</ele>
        <time>2021-12-04T13:24:42.761Z</time>
      </trkpt>
      <trkpt lat="47.71903" lon="1.57036">
        <ele>77.617115</ele>
        <time>2021-12-04T13:25:00.133Z</time>
      </trkpt>
      <trkpt lat="47.71966" lon="1.57034">
        <ele>77.473814</ele>
        <time>2021-12-04T13:25:13.897Z</time>
      </trkpt>
      <trkpt lat="47.72092" lon="1.57062">
        <ele>77.089236</ele>
        <time>2021-12-04T13:25:42.002Z</time>
      </trkpt>
      <trkpt lat="47.72229" lon="1.57115">
        <ele>77.025148</ele>
        <time>2021-12-04T13:26:14.270Z</time>
      </trkpt>
      <trkpt lat="47.72306" lon="1.57178">
        <ele>77.062605</ele>
        <time>2021-12-04T13:26:34.616Z</time>
      </trkpt>
      <trkpt lat="47.72565" lon="1.57431">
        <ele>77.356302</ele>
        <time>2021-12-04T13:27:48.882Z</time>
      </trkpt>
      <trkpt lat="47.72575" lon="1.57453">
        <ele>77.292769</ele>
        <time>2021-12-04T13:27:52.683Z</time>
      </trkpt>
      <trkpt lat="47.72618" lon="1.575">
        <ele>77.082318</ele>
        <time>2021-12-04T13:28:04.304Z</time>
      </trkpt>
      <trkpt lat="47.72623" lon="1.57514">
        <ele>77.039087</ele>
        <time>2021-12-04T13:28:07.344Z</time>
      </trkpt>
      <trkpt lat="47.7261" lon="1.57554">
        <ele>76.920283</ele>
        <time>2021-12-04T13:28:16.006Z</time>
      </trkpt>
      <trkpt lat="47.72613" lon="1.57565">
        <ele>76.888081</ele>
        <time>2021-12-04T13:28:18.240Z</time>
      </trkpt>
      <trkpt lat="47.72648" lon="1.57612">
        <ele>76.702009</ele>
        <time>2021-12-04T13:28:31.549Z</time>
      </trkpt>
      <trkpt lat="47.72779" lon="1.57844">
        <ele>76.354542</ele>
        <time>2021-12-04T13:29:31.750Z</time>
      </trkpt>
      <trkpt lat="47.72774" lon="1.57853">
        <ele>76.388248</ele>
        <time>2021-12-04T13:29:35.177Z</time>
      </trkpt>
      <trkpt lat="47.72764" lon="1.57868">
        <ele>76.445732</ele>
        <time>2021-12-04T13:29:38.839Z</time>
      </trkpt>
      <trkpt lat="47.72741" lon="1.57896">
        <ele>76.565345</ele>
        <time>2021-12-04T13:29:51.159Z</time>
      </trkpt>
      <trkpt lat="47.72742" lon="1.57917">
        <ele>76.620672</ele>
        <time>2021-12-04T13:29:56.695Z</time>
      </trkpt>
      <trkpt lat="47.72756" lon="1.58031">
        <ele>76.935638</ele>
        <time>2021-12-04T13:30:29.076Z</time>
      </trkpt>
      <trkpt lat="47.7277" lon="1.58068">
        <ele>77.050808</ele>
        <time>2021-12-04T13:30:41.189Z</time>
      </trkpt>
      <trkpt lat="47.72775" lon="1.58137">
        <ele>77.184606</ele>
        <time>2021-12-04T13:31:00.400Z</time>
      </trkpt>
      <trkpt lat="47.7277" lon="1.58174">
        <ele>77.257645</ele>
        <time>2021-12-04T13:31:10.320Z</time>
      </trkpt>
      <trkpt lat="47.72783" lon="1.58206">
        <ele>77.330109</ele>
        <time>2021-12-04T13:31:20.314Z</time>
      </trkpt>
      <trkpt lat="47.72798" lon="1.58268">
        <ele>77.456612</ele>
        <time>2021-12-04T13:31:37.722Z</time>
      </trkpt>
      <trkpt lat="47.72818" lon="1.58434">
        <ele>77.736958</ele>
        <time>2021-12-04T13:32:22.263Z</time>
      </trkpt>
      <trkpt lat="47.72824" lon="1.5853">
        <ele>77.886412</ele>
        <time>2021-12-04T13:32:47.680Z</time>
      </trkpt>
      <trkpt lat="47.7283" lon="1.58552">
        <ele>77.922371</ele>
        <time>2021-12-04T13:32:53.711Z</time>
      </trkpt>
      <trkpt lat="47.7283" lon="1.58581">
        <ele>77.967061</ele>
        <time>2021-12-04T13:33:01.439Z</time>
      </trkpt>
      <trkpt lat="47.7284" lon="1.58616">
        <ele>78.139201</ele>
        <time>2021-12-04T13:33:11.584Z</time>
      </trkpt>
      <trkpt lat="47.72898" lon="1.58746">
        <ele>78.900855</ele>
        <time>2021-12-04T13:33:56.108Z</time>
      </trkpt>
      <trkpt lat="47.72946" lon="1.58892">
        <ele>79.732434</ele>
        <time>2021-12-04T13:34:44.970Z</time>
      </trkpt>
      <trkpt lat="47.7299" lon="1.59064">
        <ele>80.695304</ele>
        <time>2021-12-04T13:35:37.949Z</time>
      </trkpt>
      <trkpt lat="47.72999" lon="1.59137">
        <ele>80.620322</ele>
        <time>2021-12-04T13:35:50.723Z</time>
      </trkpt>
      <trkpt lat="47.73135" lon="1.59622">
        <ele>79.684986</ele>
        <time>2021-12-04T13:37:17.190Z</time>
      </trkpt>
      <trkpt lat="47.73219" lon="1.59904">
        <ele>79.294746</ele>
        <time>2021-12-04T13:38:09.507Z</time>
      </trkpt>
      <trkpt lat="47.73238" lon="1.5999">
        <ele>79.201127</ele>
        <time>2021-12-04T13:38:25.073Z</time>
      </trkpt>
      <trkpt lat="47.73307" lon="1.60099">
        <ele>78.804269</ele>
        <time>2021-12-04T13:38:49.680Z</time>
      </trkpt>
      <trkpt lat="47.73327" lon="1.60152">
        <ele>78.55202</ele>
        <time>2021-12-04T13:38:59.573Z</time>
      </trkpt>
      <trkpt lat="47.73339" lon="1.60203">
        <ele>78.334939</ele>
        <time>2021-12-04T13:39:08.005Z</time>
      </trkpt>
      <trkpt lat="47.73395" lon="1.60337">
        <ele>77.809267</ele>
        <time>2021-12-04T13:39:32.841Z</time>
      </trkpt>
      <trkpt lat="47.73413" lon="1.60399">
        <ele>77.626984</ele>
        <time>2021-12-04T13:39:43.595Z</time>
      </trkpt>
      <trkpt lat="47.73427" lon="1.60536">
        <ele>77.482886</ele>
        <time>2021-12-04T13:40:06.912Z</time>
      </trkpt>
      <trkpt lat="47.73456" lon="1.60632">
        <ele>78.184216</ele>
        <time>2021-12-04T13:40:29.179Z</time>
      </trkpt>
      <trkpt lat="47.73489" lon="1.60684">
        <ele>78.667052</ele>
        <time>2021-12-04T13:40:45.704Z</time>
      </trkpt>
      <trkpt lat="47.73512" lon="1.6071">
        <ele>78.954237</ele>
        <time>2021-12-04T13:40:55.608Z</time>
      </trkpt>
      <trkpt lat="47.73577" lon="1.60756">
        <ele>79.540915</ele>
        <time>2021-12-04T13:41:19.923Z</time>
      </trkpt>
      <trkpt lat="47.73604" lon="1.60783">
        <ele>79.793568</ele>
        <time>2021-12-04T13:41:30.603Z</time>
      </trkpt>
      <trkpt lat="47.73623" lon="1.60818">
        <ele>80.023425</ele>
        <time>2021-12-04T13:41:39.815Z</time>
      </trkpt>
      <trkpt lat="47.73636" lon="1.6094">
        <ele>80.402476</ele>
        <time>2021-12-04T13:42:01.550Z</time>
      </trkpt>
      <trkpt lat="47.7366" lon="1.61023">
        <ele>80.155453</ele>
        <time>2021-12-04T13:42:15.667Z</time>
      </trkpt>
      <trkpt lat="47.73711" lon="1.61141">
        <ele>79.770833</ele>
        <time>2021-12-04T13:42:38.289Z</time>
      </trkpt>
      <trkpt lat="47.73774" lon="1.61248">
        <ele>79.893756</ele>
        <time>2021-12-04T13:43:03.166Z</time>
      </trkpt>
      <trkpt lat="47.7382" lon="1.61313">
        <ele>79.98674</ele>
        <time>2021-12-04T13:43:21.178Z</time>
      </trkpt>
      <trkpt lat="47.7388" lon="1.61373">
        <ele>79.999711</ele>
        <time>2021-12-04T13:43:41.236Z</time>
      </trkpt>
      <trkpt lat="47.73967" lon="1.61522">
        <ele>79.937572</ele>
        <time>2021-12-04T13:44:14.509Z</time>
      </trkpt>
      <trkpt lat="47.74233" lon="1.61819">
        <ele>78.698743</ele>
        <time>2021-12-04T13:45:35.378Z</time>
      </trkpt>
      <trkpt lat="47.74392" lon="1.61951">
        <ele>78.519034</ele>
        <time>2021-12-04T13:46:21.277Z</time>
      </trkpt>
      <trkpt lat="47.74524" lon="1.62068">
        <ele>78.860322</ele>
        <time>2021-12-04T13:47:03.469Z</time>
      </trkpt>
      <trkpt lat="47.74587" lon="1.62113">
        <ele>79.054646</ele>
        <time>2021-12-04T13:47:22.995Z</time>
      </trkpt>
      <trkpt lat="47.74671" lon="1.62119">
        <ele>79.300822</ele>
        <time>2021-12-04T13:47:45.861Z</time>
      </trkpt>
      <trkpt lat="47.74837" lon="1.62171">
        <ele>79.838411</ele>
        <time>2021-12-04T13:48:32.307Z</time>
      </trkpt>
      <trkpt lat="47.74969" lon="1.62173">
        <ele>80.313207</ele>
        <time>2021-12-04T13:49:09.631Z</time>
      </trkpt>
      <trkpt lat="47.75061" lon="1.62161">
        <ele>80.677203</ele>
        <time>2021-12-04T13:49:34.997Z</time>
      </trkpt>
      <trkpt lat="47.75124" lon="1.62164">
        <ele>80.936032</ele>
        <time>2021-12-04T13:49:52.567Z</time>
      </trkpt>
      <trkpt lat="47.75226" lon="1.62204">
        <ele>81.377646</ele>
        <time>2021-12-04T13:50:22.641Z</time>
      </trkpt>
      <trkpt lat="47.75203" lon="1.62329">
        <ele>81.760769</ele>
        <time>2021-12-04T13:50:57.996Z</time>
      </trkpt>
      <trkpt lat="47.75284" lon="1.62364">
        <ele>82.160833</ele>
        <time>2021-12-04T13:51:33.040Z</time>
      </trkpt>
      <trkpt lat="47.75317" lon="1.62406">
        <ele>82.36515</ele>
        <time>2021-12-04T13:51:50.793Z</time>
      </trkpt>
      <trkpt lat="47.75358" lon="1.62418">
        <ele>82.457978</ele>
        <time>2021-12-04T13:52:07.551Z</time>
      </trkpt>
      <trkpt lat="47.75384" lon="1.62445">
        <ele>82.468659</ele>
        <time>2021-12-04T13:52:19.772Z</time>
      </trkpt>
      <trkpt lat="47.75436" lon="1.62458">
        <ele>82.486561</ele>
        <time>2021-12-04T13:52:39.912Z</time>
      </trkpt>
      <trkpt lat="47.75591" lon="1.62521">
        <ele>82.478795</ele>
        <time>2021-12-04T13:53:40.537Z</time>
      </trkpt>
      <trkpt lat="47.75608" lon="1.62538">
        <ele>82.471442</ele>
        <time>2021-12-04T13:53:48.437Z</time>
      </trkpt>
      <trkpt lat="47.75665" lon="1.62556">
        <ele>82.450866</ele>
        <time>2021-12-04T13:54:10.614Z</time>
      </trkpt>
      <trkpt lat="47.75684" lon="1.62556">
        <ele>82.444754</ele>
        <time>2021-12-04T13:54:17.744Z</time>
      </trkpt>
      <trkpt lat="47.75727" lon="1.62579">
        <ele>82.430865</ele>
        <time>2021-12-04T13:54:35.770Z</time>
      </trkpt>
      <trkpt lat="47.7575" lon="1.62576">
        <ele>82.42401</ele>
        <time>2021-12-04T13:54:44.897Z</time>
      </trkpt>
      <trkpt lat="47.75757" lon="1.62547">
        <ele>82.417694</ele>
        <time>2021-12-04T13:54:53.390Z</time>
      </trkpt>
      <trkpt lat="47.75779" lon="1.62547">
        <ele>82.411227</ele>
        <time>2021-12-04T13:55:02.066Z</time>
      </trkpt>
      <trkpt lat="47.758" lon="1.62562">
        <ele>82.404281</ele>
        <time>2021-12-04T13:55:10.942Z</time>
      </trkpt>
      <trkpt lat="47.75825" lon="1.6257">
        <ele>82.396613</ele>
        <time>2021-12-04T13:55:20.404Z</time>
      </trkpt>
      <trkpt lat="47.7586" lon="1.62611">
        <ele>82.112595</ele>
        <time>2021-12-04T13:55:36.402Z</time>
      </trkpt>
      <trkpt lat="47.75903" lon="1.62632">
        <ele>81.731759</ele>
        <time>2021-12-04T13:55:52.072Z</time>
      </trkpt>
      <trkpt lat="47.75912" lon="1.62631">
        <ele>81.6573</ele>
        <time>2021-12-04T13:55:55.017Z</time>
      </trkpt>
      <trkpt lat="47.75934" lon="1.62648">
        <ele>81.446271</ele>
        <time>2021-12-04T13:56:03.833Z</time>
      </trkpt>
      <trkpt lat="47.7597" lon="1.62673">
        <ele>81.106793</ele>
        <time>2021-12-04T13:56:17.918Z</time>
      </trkpt>
      <trkpt lat="47.76004" lon="1.62726">
        <ele>80.79042</ele>
        <time>2021-12-04T13:56:35.393Z</time>
      </trkpt>
      <trkpt lat="47.76019" lon="1.62749">
        <ele>80.717985</ele>
        <time>2021-12-04T13:56:43.030Z</time>
      </trkpt>
      <trkpt lat="47.76033" lon="1.62759">
        <ele>80.663452</ele>
        <time>2021-12-04T13:56:48.404Z</time>
      </trkpt>
      <trkpt lat="47.76235" lon="1.62801">
        <ele>80.326583</ele>
        <time>2021-12-04T13:58:06.017Z</time>
      </trkpt>
      <trkpt lat="47.7637" lon="1.62844">
        <ele>80.582428</ele>
        <time>2021-12-04T13:59:00.141Z</time>
      </trkpt>
      <trkpt lat="47.76705" lon="1.62908">
        <ele>81.944577</ele>
        <time>2021-12-04T14:01:18.002Z</time>
      </trkpt>
      <trkpt lat="47.7671" lon="1.62908">
        <ele>81.956118</ele>
        <time>2021-12-04T14:01:20.055Z</time>
      </trkpt>
      <trkpt lat="47.76716" lon="1.62896">
        <ele>81.978108</ele>
        <time>2021-12-04T14:01:24.430Z</time>
      </trkpt>
      <trkpt lat="47.76841" lon="1.62978">
        <ele>82.287914</ele>
        <time>2021-12-04T14:02:17.891Z</time>
      </trkpt>
      <trkpt lat="47.76855" lon="1.62988">
        <ele>82.322114</ele>
        <time>2021-12-04T14:02:21.907Z</time>
      </trkpt>
      <trkpt lat="47.76859" lon="1.62991">
        <ele>82.333878</ele>
        <time>2021-12-04T14:02:23.470Z</time>
      </trkpt>
      <trkpt lat="47.76886" lon="1.63009">
        <ele>82.400812</ele>
        <time>2021-12-04T14:02:32.317Z</time>
      </trkpt>
      <trkpt lat="47.76911" lon="1.63022">
        <ele>82.460997</ele>
        <time>2021-12-04T14:02:40.170Z</time>
      </trkpt>
      <trkpt lat="47.77217" lon="1.63187">
        <ele>83.476678</ele>
        <time>2021-12-04T14:04:05.929Z</time>
      </trkpt>
      <trkpt lat="47.77289" lon="1.63219">
        <ele>83.66265</ele>
        <time>2021-12-04T14:04:26.706Z</time>
      </trkpt>
      <trkpt lat="47.77291" lon="1.63227">
        <ele>83.677394</ele>
        <time>2021-12-04T14:04:29.179Z</time>
      </trkpt>
      <trkpt lat="47.77308" lon="1.63234">
        <ele>83.720602</ele>
        <time>2021-12-04T14:04:36.641Z</time>
      </trkpt>
      <trkpt lat="47.77316" lon="1.63246">
        <ele>83.749265</ele>
        <time>2021-12-04T14:04:40.783Z</time>
      </trkpt>
      <trkpt lat="47.77339" lon="1.6324">
        <ele>83.807077</ele>
        <time>2021-12-04T14:04:50.134Z</time>
      </trkpt>
      <trkpt lat="47.77348" lon="1.6326">
        <ele>83.830598</ele>
        <time>2021-12-04T14:04:55.879Z</time>
      </trkpt>
      <trkpt lat="47.77357" lon="1.63264">
        <ele>83.778013</ele>
        <time>2021-12-04T14:04:59.584Z</time>
      </trkpt>
      <trkpt lat="47.77369" lon="1.63281">
        <ele>83.68493</ele>
        <time>2021-12-04T14:05:05.583Z</time>
      </trkpt>
      <trkpt lat="47.77382" lon="1.63286">
        <ele>83.60183</ele>
        <time>2021-12-04T14:05:10.638Z</time>
      </trkpt>
      <trkpt lat="47.77387" lon="1.63283">
        <ele>83.570082</ele>
        <time>2021-12-04T14:05:12.927Z</time>
      </trkpt>
      <trkpt lat="47.77401" lon="1.63302">
        <ele>83.460918</ele>
        <time>2021-12-04T14:05:19.748Z</time>
      </trkpt>
      <trkpt lat="47.77431" lon="1.63316">
        <ele>83.279169</ele>
        <time>2021-12-04T14:05:31.201Z</time>
      </trkpt>
      <trkpt lat="47.77435" lon="1.63331">
        <ele>83.212298</ele>
        <time>2021-12-04T14:05:35.075Z</time>
      </trkpt>
      <trkpt lat="47.77437" lon="1.63334">
        <ele>83.196175</ele>
        <time>2021-12-04T14:05:36.090Z</time>
      </trkpt>
      <trkpt lat="47.77435" lon="1.63343">
        <ele>83.158733</ele>
        <time>2021-12-04T14:05:38.542Z</time>
      </trkpt>
      <trkpt lat="47.77617" lon="1.6346">
        <ele>82.001916</ele>
        <time>2021-12-04T14:06:49.398Z</time>
      </trkpt>
      <trkpt lat="47.77731" lon="1.63544">
        <ele>82.305668</ele>
        <time>2021-12-04T14:07:37.463Z</time>
      </trkpt>
      <trkpt lat="47.77735" lon="1.63533">
        <ele>82.358642</ele>
        <time>2021-12-04T14:07:40.899Z</time>
      </trkpt>
      <trkpt lat="47.77747" lon="1.63543">
        <ele>82.448842</ele>
        <time>2021-12-04T14:07:44.996Z</time>
      </trkpt>
      <trkpt lat="47.77755" lon="1.63552">
        <ele>82.5172</ele>
        <time>2021-12-04T14:07:48.626Z</time>
      </trkpt>
      <trkpt lat="47.77817" lon="1.63592">
        <ele>82.989175</ele>
        <time>2021-12-04T14:08:15.599Z</time>
      </trkpt>
      <trkpt lat="47.77872" lon="1.63664">
        <ele>84.217309</ele>
        <time>2021-12-04T14:08:46.273Z</time>
      </trkpt>
      <trkpt lat="47.77881" lon="1.63638">
        <ele>84.557753</ele>
        <time>2021-12-04T14:08:56.801Z</time>
      </trkpt>
      <trkpt lat="47.779" lon="1.6358">
        <ele>85.273248</ele>
        <time>2021-12-04T14:09:14.432Z</time>
      </trkpt>
      <trkpt lat="47.77943" lon="1.63613">
        <ele>85.953359</ele>
        <time>2021-12-04T14:09:29.257Z</time>
      </trkpt>
      <trkpt lat="47.7796" lon="1.63618">
        <ele>85.953815</ele>
        <time>2021-12-04T14:09:34.306Z</time>
      </trkpt>
      <trkpt lat="47.77962" lon="1.63617">
        <ele>85.953888</ele>
        <time>2021-12-04T14:09:35.096Z</time>
      </trkpt>
      <trkpt lat="47.77971" lon="1.63611">
        <ele>85.954151</ele>
        <time>2021-12-04T14:09:37.672Z</time>
      </trkpt>
      <trkpt lat="47.78037" lon="1.63666">
        <ele>85.956223</ele>
        <time>2021-12-04T14:09:56.639Z</time>
      </trkpt>
      <trkpt lat="47.78104" lon="1.63747">
        <ele>86.028769</ele>
        <time>2021-12-04T14:10:15.099Z</time>
      </trkpt>
      <trkpt lat="47.78154" lon="1.6379">
        <ele>86.247236</ele>
        <time>2021-12-04T14:10:36.178Z</time>
      </trkpt>
      <trkpt lat="47.78189" lon="1.6384">
        <ele>86.43135</ele>
        <time>2021-12-04T14:10:56.763Z</time>
      </trkpt>
      <trkpt lat="47.78228" lon="1.63896">
        <ele>86.639771</ele>
        <time>2021-12-04T14:11:21.984Z</time>
      </trkpt>
      <trkpt lat="47.78309" lon="1.63809">
        <ele>88.468383</ele>
        <time>2021-12-04T14:11:56.927Z</time>
      </trkpt>
      <trkpt lat="47.78342" lon="1.63864">
        <ele>89.377244</ele>
        <time>2021-12-04T14:12:15.606Z</time>
      </trkpt>
      <trkpt lat="47.78347" lon="1.63872">
        <ele>89.510535</ele>
        <time>2021-12-04T14:12:18.534Z</time>
      </trkpt>
      <trkpt lat="47.78338" lon="1.63887">
        <ele>89.753516</ele>
        <time>2021-12-04T14:12:24.647Z</time>
      </trkpt>
      <trkpt lat="47.78372" lon="1.63948">
        <ele>90.310508</ele>
        <time>2021-12-04T14:12:46.654Z</time>
      </trkpt>
      <trkpt lat="47.78381" lon="1.63937">
        <ele>90.406436</ele>
        <time>2021-12-04T14:12:51.020Z</time>
      </trkpt>
      <trkpt lat="47.7843" lon="1.64025">
        <ele>91.054202</ele>
        <time>2021-12-04T14:13:11.584Z</time>
      </trkpt>
      <trkpt lat="47.78466" lon="1.64075">
        <ele>91.470297</ele>
        <time>2021-12-04T14:13:24.170Z</time>
      </trkpt>
      <trkpt lat="47.78511" lon="1.6414">
        <ele>91.507498</ele>
        <time>2021-12-04T14:13:40.201Z</time>
      </trkpt>
      <trkpt lat="47.78519" lon="1.64151">
        <ele>91.514044</ele>
        <time>2021-12-04T14:13:42.841Z</time>
      </trkpt>
      <trkpt lat="47.78552" lon="1.64197">
        <ele>91.540855</ele>
        <time>2021-12-04T14:13:59.818Z</time>
      </trkpt>
      <trkpt lat="47.78585" lon="1.64249">
        <ele>91.569446</ele>
        <time>2021-12-04T14:14:18.028Z</time>
      </trkpt>
      <trkpt lat="47.78649" lon="1.64333">
        <ele>91.971551</ele>
        <time>2021-12-04T14:14:51.522Z</time>
      </trkpt>
      <trkpt lat="47.78715" lon="1.64392">
        <ele>92.388859</ele>
        <time>2021-12-04T14:15:24.374Z</time>
      </trkpt>
      <trkpt lat="47.78843" lon="1.64566">
        <ele>93.817171</ele>
        <time>2021-12-04T14:16:40.791Z</time>
      </trkpt>
      <trkpt lat="47.78873" lon="1.64606">
        <ele>94.147265</ele>
        <time>2021-12-04T14:16:58.237Z</time>
      </trkpt>
      <trkpt lat="47.78931" lon="1.64777">
        <ele>94.241969</ele>
        <time>2021-12-04T14:17:49.035Z</time>
      </trkpt>
      <trkpt lat="47.79001" lon="1.64917">
        <ele>93.988368</ele>
        <time>2021-12-04T14:18:31.216Z</time>
      </trkpt>
      <trkpt lat="47.79087" lon="1.65096">
        <ele>93.680551</ele>
        <time>2021-12-04T14:19:25.890Z</time>
      </trkpt>
      <trkpt lat="47.79193" lon="1.65239">
        <ele>94.252087</ele>
        <time>2021-12-04T14:20:25.478Z</time>
      </trkpt>
      <trkpt lat="47.79367" lon="1.65414">
        <ele>95.952074</ele>
        <time>2021-12-04T14:21:56.641Z</time>
      </trkpt>
      <trkpt lat="47.79422" lon="1.65463">
        <ele>96.412942</ele>
        <time>2021-12-04T14:22:23.515Z</time>
      </trkpt>
      <trkpt lat="47.79476" lon="1.65501">
        <ele>96.84672</ele>
        <time>2021-12-04T14:22:48.803Z</time>
      </trkpt>
      <trkpt lat="47.79528" lon="1.65539">
        <ele>97.199171</ele>
        <time>2021-12-04T14:23:13.117Z</time>
      </trkpt>
      <trkpt lat="47.79576" lon="1.65584">
        <ele>97.488189</ele>
        <time>2021-12-04T14:23:36.686Z</time>
      </trkpt>
      <trkpt lat="47.79657" lon="1.65698">
        <ele>97.932974</ele>
        <time>2021-12-04T14:24:22.086Z</time>
      </trkpt>
      <trkpt lat="47.79679" lon="1.65716">
        <ele>97.909327</ele>
        <time>2021-12-04T14:24:32.133Z</time>
      </trkpt>
      <trkpt lat="47.79759" lon="1.6578">
        <ele>97.823053</ele>
        <time>2021-12-04T14:25:07.356Z</time>
      </trkpt>
      <trkpt lat="47.79813" lon="1.65893">
        <ele>96.670968</ele>
        <time>2021-12-04T14:25:41.027Z</time>
      </trkpt>
      <trkpt lat="47.79879" lon="1.66159">
        <ele>91.737089</ele>
        <time>2021-12-04T14:26:40.810Z</time>
      </trkpt>
      <trkpt lat="47.79898" lon="1.66289">
        <ele>88.676268</ele>
        <time>2021-12-04T14:27:07.326Z</time>
      </trkpt>
      <trkpt lat="47.79909" lon="1.66391">
        <ele>87.090176</ele>
        <time>2021-12-04T14:27:28.818Z</time>
      </trkpt>
      <trkpt lat="47.79917" lon="1.66399">
        <ele>86.94946</ele>
        <time>2021-12-04T14:27:30.598Z</time>
      </trkpt>
      <trkpt lat="47.79953" lon="1.66485">
        <ele>85.98241</ele>
        <time>2021-12-04T14:27:43.607Z</time>
      </trkpt>
      <trkpt lat="47.79976" lon="1.66513">
        <ele>85.557278</ele>
        <time>2021-12-04T14:27:50.132Z</time>
      </trkpt>
      <trkpt lat="47.80029" lon="1.66595">
        <ele>85.366597</ele>
        <time>2021-12-04T14:28:21.648Z</time>
      </trkpt>
      <trkpt lat="47.80174" lon="1.66852">
        <ele>87.242792</ele>
        <time>2021-12-04T14:29:57.190Z</time>
      </trkpt>
      <trkpt lat="47.80215" lon="1.66925">
        <ele>87.972045</ele>
        <time>2021-12-04T14:30:26.845Z</time>
      </trkpt>
      <trkpt lat="47.80246" lon="1.66955">
        <ele>88.467527</ele>
        <time>2021-12-04T14:30:44.722Z</time>
      </trkpt>
      <trkpt lat="47.80277" lon="1.66973">
        <ele>89.094145</ele>
        <time>2021-12-04T14:31:01.368Z</time>
      </trkpt>
      <trkpt lat="47.80286" lon="1.66977">
        <ele>89.258123</ele>
        <time>2021-12-04T14:31:06.056Z</time>
      </trkpt>
      <trkpt lat="47.80341" lon="1.67047">
        <ele>90.611956</ele>
        <time>2021-12-04T14:31:42.989Z</time>
      </trkpt>
      <trkpt lat="47.8043" lon="1.6712">
        <ele>92.179654</ele>
        <time>2021-12-04T14:32:32.753Z</time>
      </trkpt>
      <trkpt lat="47.80544" lon="1.6723">
        <ele>93.745981</ele>
        <time>2021-12-04T14:33:33.217Z</time>
      </trkpt>
      <trkpt lat="47.8056" lon="1.67236">
        <ele>93.717559</ele>
        <time>2021-12-04T14:33:40.019Z</time>
      </trkpt>
      <trkpt lat="47.80574" lon="1.67256">
        <ele>93.683926</ele>
        <time>2021-12-04T14:33:47.590Z</time>
      </trkpt>
      <trkpt lat="47.80648" lon="1.67318">
        <ele>93.538125</ele>
        <time>2021-12-04T14:34:18.747Z</time>
      </trkpt>
      <trkpt lat="47.80665" lon="1.67333">
        <ele>93.503912</ele>
        <time>2021-12-04T14:34:25.860Z</time>
      </trkpt>
      <trkpt lat="47.80762" lon="1.6744">
        <ele>93.432918</ele>
        <time>2021-12-04T14:34:51.800Z</time>
      </trkpt>
      <trkpt lat="47.80813" lon="1.6749">
        <ele>93.426256</ele>
        <time>2021-12-04T14:35:08.010Z</time>
      </trkpt>
      <trkpt lat="47.80859" lon="1.67521">
        <ele>93.369787</ele>
        <time>2021-12-04T14:35:20.515Z</time>
      </trkpt>
      <trkpt lat="47.80898" lon="1.6752">
        <ele>93.242159</ele>
        <time>2021-12-04T14:35:29.353Z</time>
      </trkpt>
      <trkpt lat="47.8092" lon="1.67532">
        <ele>93.169366</ele>
        <time>2021-12-04T14:35:34.910Z</time>
      </trkpt>
      <trkpt lat="47.80954" lon="1.67578">
        <ele>93.019067</ele>
        <time>2021-12-04T14:35:45.564Z</time>
      </trkpt>
      <trkpt lat="47.80957" lon="1.67589">
        <ele>92.993441</ele>
        <time>2021-12-04T14:35:47.042Z</time>
      </trkpt>
      <trkpt lat="47.80954" lon="1.67622">
        <ele>92.920565</ele>
        <time>2021-12-04T14:35:52.296Z</time>
      </trkpt>
      <trkpt lat="47.80974" lon="1.67666">
        <ele>92.567144</ele>
        <time>2021-12-04T14:35:59.636Z</time>
      </trkpt>
      <trkpt lat="47.81" lon="1.67702">
        <ele>91.677951</ele>
        <time>2021-12-04T14:36:06.150Z</time>
      </trkpt>
      <trkpt lat="47.81026" lon="1.67744">
        <ele>90.700648</ele>
        <time>2021-12-04T14:36:12.799Z</time>
      </trkpt>
      <trkpt lat="47.81028" lon="1.67746">
        <ele>90.644518</ele>
        <time>2021-12-04T14:36:13.203Z</time>
      </trkpt>
      <trkpt lat="47.8106" lon="1.67819">
        <ele>89.164016</ele>
        <time>2021-12-04T14:36:23.215Z</time>
      </trkpt>
      <trkpt lat="47.81068" lon="1.67838">
        <ele>88.774227</ele>
        <time>2021-12-04T14:36:26.099Z</time>
      </trkpt>
      <trkpt lat="47.81034" lon="1.67887">
        <ele>87.83144</ele>
        <time>2021-12-04T14:36:35.655Z</time>
      </trkpt>
      <trkpt lat="47.81035" lon="1.67902">
        <ele>87.664727</ele>
        <time>2021-12-04T14:36:37.648Z</time>
      </trkpt>
      <trkpt lat="47.81071" lon="1.67952">
        <ele>86.853082</ele>
        <time>2021-12-04T14:36:53.810Z</time>
      </trkpt>
      <trkpt lat="47.81061" lon="1.67966">
        <ele>86.620498</ele>
        <time>2021-12-04T14:36:58.357Z</time>
      </trkpt>
      <trkpt lat="47.81058" lon="1.6797">
        <ele>86.549656</ele>
        <time>2021-12-04T14:36:59.114Z</time>
      </trkpt>
      <trkpt lat="47.8108" lon="1.68007">
        <ele>85.995002</ele>
        <time>2021-12-04T14:37:10.462Z</time>
      </trkpt>
      <trkpt lat="47.81112" lon="1.68078">
        <ele>85.336242</ele>
        <time>2021-12-04T14:37:31.110Z</time>
      </trkpt>
      <trkpt lat="47.81156" lon="1.68182">
        <ele>85.45174</ele>
        <time>2021-12-04T14:38:03.724Z</time>
      </trkpt>
      <trkpt lat="47.81213" lon="1.6827">
        <ele>85.56873</ele>
        <time>2021-12-04T14:38:37.722Z</time>
      </trkpt>
      <trkpt lat="47.8121" lon="1.68285">
        <ele>85.592569</ele>
        <time>2021-12-04T14:38:41.950Z</time>
      </trkpt>
      <trkpt lat="47.81165" lon="1.68351">
        <ele>85.739139</ele>
        <time>2021-12-04T14:39:07.409Z</time>
      </trkpt>
      <trkpt lat="47.81156" lon="1.68374">
        <ele>85.781316</ele>
        <time>2021-12-04T14:39:14.592Z</time>
      </trkpt>
      <trkpt lat="47.81217" lon="1.68399">
        <ele>85.926815</ele>
        <time>2021-12-04T14:39:38.872Z</time>
      </trkpt>
      <trkpt lat="47.81302" lon="1.68455">
        <ele>86.005229</ele>
        <time>2021-12-04T14:40:14.743Z</time>
      </trkpt>
      <trkpt lat="47.81363" lon="1.68511">
        <ele>86.02885</ele>
        <time>2021-12-04T14:40:42.389Z</time>
      </trkpt>
      <trkpt lat="47.81406" lon="1.68563">
        <ele>85.992964</ele>
        <time>2021-12-04T14:41:03.396Z</time>
      </trkpt>
      <trkpt lat="47.81468" lon="1.68667">
        <ele>85.716731</ele>
        <time>2021-12-04T14:41:38.178Z</time>
      </trkpt>
      <trkpt lat="47.81543" lon="1.68773">
        <ele>85.386148</ele>
        <time>2021-12-04T14:42:16.046Z</time>
      </trkpt>
      <trkpt lat="47.81563" lon="1.68797">
        <ele>85.289289</ele>
        <time>2021-12-04T14:42:25.463Z</time>
      </trkpt>
      <trkpt lat="47.81557" lon="1.68805">
        <ele>85.260621</ele>
        <time>2021-12-04T14:42:28.489Z</time>
      </trkpt>
      <trkpt lat="47.8155" lon="1.68816">
        <ele>85.221032</ele>
        <time>2021-12-04T14:42:30.794Z</time>
      </trkpt>
      <trkpt lat="47.81536" lon="1.68834">
        <ele>85.154337</ele>
        <time>2021-12-04T14:42:34.977Z</time>
      </trkpt>
      <trkpt lat="47.8154" lon="1.68849">
        <ele>85.11352</ele>
        <time>2021-12-04T14:42:37.910Z</time>
      </trkpt>
      <trkpt lat="47.81554" lon="1.68859">
        <ele>85.057779</ele>
        <time>2021-12-04T14:42:41.470Z</time>
      </trkpt>
      <trkpt lat="47.81575" lon="1.6886">
        <ele>84.978985</ele>
        <time>2021-12-04T14:42:46.775Z</time>
      </trkpt>
      <trkpt lat="47.81593" lon="1.68879">
        <ele>84.899029</ele>
        <time>2021-12-04T14:42:51.940Z</time>
      </trkpt>
      <trkpt lat="47.81605" lon="1.68904">
        <ele>84.84584</ele>
        <time>2021-12-04T14:42:57.262Z</time>
      </trkpt>
      <trkpt lat="47.81618" lon="1.6898">
        <ele>84.879467</ele>
        <time>2021-12-04T14:43:10.444Z</time>
      </trkpt>
      <trkpt lat="47.81669" lon="1.69138">
        <ele>84.955349</ele>
        <time>2021-12-04T14:43:42.379Z</time>
      </trkpt>
      <trkpt lat="47.81677" lon="1.69151">
        <ele>84.962103</ele>
        <time>2021-12-04T14:43:45.368Z</time>
      </trkpt>
      <trkpt lat="47.81827" lon="1.69311">
        <ele>85.075935</ele>
        <time>2021-12-04T14:44:33.090Z</time>
      </trkpt>
      <trkpt lat="47.81889" lon="1.69343">
        <ele>85.157188</ele>
        <time>2021-12-04T14:44:49.718Z</time>
      </trkpt>
      <trkpt lat="47.82016" lon="1.69468">
        <ele>85.596233</ele>
        <time>2021-12-04T14:45:30.876Z</time>
      </trkpt>
      <trkpt lat="47.82068" lon="1.6952">
        <ele>85.989681</ele>
        <time>2021-12-04T14:45:49.499Z</time>
      </trkpt>
      <trkpt lat="47.82107" lon="1.69562">
        <ele>86.286175</ele>
        <time>2021-12-04T14:46:03.444Z</time>
      </trkpt>
      <trkpt lat="47.82285" lon="1.69718">
        <ele>88.173191</ele>
        <time>2021-12-04T14:47:06.105Z</time>
      </trkpt>
      <trkpt lat="47.82323" lon="1.69724">
        <ele>88.408684</ele>
        <time>2021-12-04T14:47:17.325Z</time>
      </trkpt>
      <trkpt lat="47.82386" lon="1.69716">
        <ele>88.799972</ele>
        <time>2021-12-04T14:47:36.113Z</time>
      </trkpt>
      <trkpt lat="47.82393" lon="1.69729">
        <ele>88.866482</ele>
        <time>2021-12-04T14:47:39.234Z</time>
      </trkpt>
      <trkpt lat="47.82381" lon="1.69747">
        <ele>88.972039</ele>
        <time>2021-12-04T14:47:43.660Z</time>
      </trkpt>
      <trkpt lat="47.8244" lon="1.69852">
        <ele>88.947547</ele>
        <time>2021-12-04T14:48:07.436Z</time>
      </trkpt>
      <trkpt lat="47.8245" lon="1.69838">
        <ele>88.870431</ele>
        <time>2021-12-04T14:48:10.640Z</time>
      </trkpt>
      <trkpt lat="47.82454" lon="1.69842">
        <ele>88.845829</ele>
        <time>2021-12-04T14:48:11.656Z</time>
      </trkpt>
      <trkpt lat="47.82457" lon="1.69845">
        <ele>88.825406</ele>
        <time>2021-12-04T14:48:12.564Z</time>
      </trkpt>
      <trkpt lat="47.82459" lon="1.69854">
        <ele>88.786641</ele>
        <time>2021-12-04T14:48:14.489Z</time>
      </trkpt>
      <trkpt lat="47.82444" lon="1.69893">
        <ele>88.612479</ele>
        <time>2021-12-04T14:48:23.085Z</time>
      </trkpt>
      <trkpt lat="47.82444" lon="1.69904">
        <ele>88.568968</ele>
        <time>2021-12-04T14:48:25.171Z</time>
      </trkpt>
      <trkpt lat="47.82639" lon="1.70267">
        <ele>86.049185</ele>
        <time>2021-12-04T14:49:49.174Z</time>
      </trkpt>
      <trkpt lat="47.82661" lon="1.703">
        <ele>86.051685</ele>
        <time>2021-12-04T14:50:02.515Z</time>
      </trkpt>
      <trkpt lat="47.82671" lon="1.70315">
        <ele>86.052819</ele>
        <time>2021-12-04T14:50:07.979Z</time>
      </trkpt>
      <trkpt lat="47.82682" lon="1.70296">
        <ele>86.054173</ele>
        <time>2021-12-04T14:50:15.622Z</time>
      </trkpt>
      <trkpt lat="47.82689" lon="1.70292">
        <ele>86.054791</ele>
        <time>2021-12-04T14:50:18.886Z</time>
      </trkpt>
      <trkpt lat="47.8272" lon="1.70359">
        <ele>86.166156</ele>
        <time>2021-12-04T14:50:37.986Z</time>
      </trkpt>
      <trkpt lat="47.82746" lon="1.70391">
        <ele>86.453572</ele>
        <time>2021-12-04T14:50:50.084Z</time>
      </trkpt>
      <trkpt lat="47.82761" lon="1.704">
        <ele>86.595775</ele>
        <time>2021-12-04T14:50:56.985Z</time>
      </trkpt>
      <trkpt lat="47.82823" lon="1.70467">
        <ele>87.25711</ele>
        <time>2021-12-04T14:51:31.341Z</time>
      </trkpt>
      <trkpt lat="47.82836" lon="1.7049">
        <ele>87.432185</ele>
        <time>2021-12-04T14:51:39.659Z</time>
      </trkpt>
      <trkpt lat="47.8284" lon="1.70488">
        <ele>87.464878</ele>
        <time>2021-12-04T14:51:41.442Z</time>
      </trkpt>
      <trkpt lat="47.8291" lon="1.70564">
        <ele>87.540138</ele>
        <time>2021-12-04T14:52:14.198Z</time>
      </trkpt>
      <trkpt lat="47.83021" lon="1.70704">
        <ele>87.46177</ele>
        <time>2021-12-04T14:53:08.333Z</time>
      </trkpt>
      <trkpt lat="47.83098" lon="1.7078">
        <ele>87.550221</ele>
        <time>2021-12-04T14:53:44.154Z</time>
      </trkpt>
      <trkpt lat="47.83139" lon="1.70836">
        <ele>87.606208</ele>
        <time>2021-12-04T14:54:06.111Z</time>
      </trkpt>
      <trkpt lat="47.83228" lon="1.70931">
        <ele>87.847151</ele>
        <time>2021-12-04T14:54:50.243Z</time>
      </trkpt>
      <trkpt lat="47.83367" lon="1.71136">
        <ele>87.868278</ele>
        <time>2021-12-04T14:56:05.014Z</time>
      </trkpt>
      <trkpt lat="47.8342" lon="1.71196">
        <ele>87.791165</ele>
        <time>2021-12-04T14:56:29.765Z</time>
      </trkpt>
      <trkpt lat="47.83432" lon="1.71206">
        <ele>87.767656</ele>
        <time>2021-12-04T14:56:34.732Z</time>
      </trkpt>
      <trkpt lat="47.83456" lon="1.71258">
        <ele>87.694293</ele>
        <time>2021-12-04T14:56:50.309Z</time>
      </trkpt>
      <trkpt lat="47.83541" lon="1.71389">
        <ele>87.586833</ele>
        <time>2021-12-04T14:57:35.925Z</time>
      </trkpt>
      <trkpt lat="47.83666" lon="1.71564">
        <ele>88.592628</ele>
        <time>2021-12-04T14:58:49.682Z</time>
      </trkpt>
      <trkpt lat="47.83704" lon="1.71635">
        <ele>88.691946</ele>
        <time>2021-12-04T14:59:15.076Z</time>
      </trkpt>
      <trkpt lat="47.83816" lon="1.71801">
        <ele>88.648983</ele>
        <time>2021-12-04T15:00:14.746Z</time>
      </trkpt>
      <trkpt lat="47.8383" lon="1.71816">
        <ele>88.561687</ele>
        <time>2021-12-04T15:00:20.739Z</time>
      </trkpt>
      <trkpt lat="47.83958" lon="1.72023">
        <ele>87.872815</ele>
        <time>2021-12-04T15:01:29.062Z</time>
      </trkpt>
      <trkpt lat="47.84018" lon="1.7213">
        <ele>87.761185</ele>
        <time>2021-12-04T15:02:05.224Z</time>
      </trkpt>
      <trkpt lat="47.84102" lon="1.72249">
        <ele>88.067824</ele>
        <time>2021-12-04T15:02:52.902Z</time>
      </trkpt>
      <trkpt lat="47.84152" lon="1.72301">
        <ele>88.264181</ele>
        <time>2021-12-04T15:03:17.251Z</time>
      </trkpt>
      <trkpt lat="47.84184" lon="1.72351">
        <ele>88.301166</ele>
        <time>2021-12-04T15:03:35.078Z</time>
      </trkpt>
      <trkpt lat="47.8424" lon="1.72397">
        <ele>88.25059</ele>
        <time>2021-12-04T15:03:59.662Z</time>
      </trkpt>
      <trkpt lat="47.84292" lon="1.72491">
        <ele>88.186411</ele>
        <time>2021-12-04T15:04:30.137Z</time>
      </trkpt>
      <trkpt lat="47.84323" lon="1.72552">
        <ele>88.106407</ele>
        <time>2021-12-04T15:04:48.950Z</time>
      </trkpt>
      <trkpt lat="47.84357" lon="1.72599">
        <ele>88.028667</ele>
        <time>2021-12-04T15:05:06.107Z</time>
      </trkpt>
      <trkpt lat="47.84452" lon="1.72712">
        <ele>87.933559</ele>
        <time>2021-12-04T15:05:52.675Z</time>
      </trkpt>
      <trkpt lat="47.84487" lon="1.7278">
        <ele>88.023927</ele>
        <time>2021-12-04T15:06:15.186Z</time>
      </trkpt>
      <trkpt lat="47.84494" lon="1.72791">
        <ele>88.04061</ele>
        <time>2021-12-04T15:06:19.221Z</time>
      </trkpt>
      <trkpt lat="47.84505" lon="1.72795">
        <ele>88.058562</ele>
        <time>2021-12-04T15:06:23.748Z</time>
      </trkpt>
      <trkpt lat="47.84569" lon="1.72879">
        <ele>88.206597</ele>
        <time>2021-12-04T15:06:57.069Z</time>
      </trkpt>
      <trkpt lat="47.84649" lon="1.73008">
        <ele>88.487872</ele>
        <time>2021-12-04T15:07:43.934Z</time>
      </trkpt>
      <trkpt lat="47.84667" lon="1.73047">
        <ele>88.564097</ele>
        <time>2021-12-04T15:07:56.910Z</time>
      </trkpt>
      <trkpt lat="47.84756" lon="1.73201">
        <ele>88.709222</ele>
        <time>2021-12-04T15:08:50.195Z</time>
      </trkpt>
      <trkpt lat="47.84875" lon="1.73391">
        <ele>88.659813</ele>
        <time>2021-12-04T15:09:56.069Z</time>
      </trkpt>
      <trkpt lat="47.84911" lon="1.73464">
        <ele>88.607794</ele>
        <time>2021-12-04T15:10:18.806Z</time>
      </trkpt>
      <trkpt lat="47.84955" lon="1.73531">
        <ele>88.5788</ele>
        <time>2021-12-04T15:10:42.604Z</time>
      </trkpt>
      <trkpt lat="47.84966" lon="1.73581">
        <ele>88.562564</ele>
        <time>2021-12-04T15:10:56.398Z</time>
      </trkpt>
      <trkpt lat="47.84971" lon="1.73586">
        <ele>88.559811</ele>
        <time>2021-12-04T15:10:58.968Z</time>
      </trkpt>
      <trkpt lat="47.84972" lon="1.73594">
        <ele>88.557209</ele>
        <time>2021-12-04T15:11:01.160Z</time>
      </trkpt>
      <trkpt lat="47.84972" lon="1.73597">
        <ele>88.556229</ele>
        <time>2021-12-04T15:11:01.948Z</time>
      </trkpt>
      <trkpt lat="47.84973" lon="1.73616">
        <ele>88.5505</ele>
        <time>2021-12-04T15:11:06.799Z</time>
      </trkpt>
      <trkpt lat="47.85073" lon="1.73937">
        <ele>88.323176</ele>
        <time>2021-12-04T15:12:36.365Z</time>
      </trkpt>
      <trkpt lat="47.85233" lon="1.74446">
        <ele>88.142019</ele>
        <time>2021-12-04T15:15:00.033Z</time>
      </trkpt>
      <trkpt lat="47.85311" lon="1.74633">
        <ele>87.850154</ele>
        <time>2021-12-04T15:15:54.945Z</time>
      </trkpt>
      <trkpt lat="47.8543" lon="1.74993">
        <ele>87.035858</ele>
        <time>2021-12-04T15:17:34.285Z</time>
      </trkpt>
      <trkpt lat="47.85434" lon="1.75021">
        <ele>86.999519</ele>
        <time>2021-12-04T15:17:41.240Z</time>
      </trkpt>
      <trkpt lat="47.85451" lon="1.7505">
        <ele>86.949122</ele>
        <time>2021-12-04T15:17:51.171Z</time>
      </trkpt>
      <trkpt lat="47.85513" lon="1.75112">
        <ele>86.913665</ele>
        <time>2021-12-04T15:18:20.031Z</time>
      </trkpt>
      <trkpt lat="47.85469" lon="1.75155">
        <ele>87.15389</ele>
        <time>2021-12-04T15:18:33.332Z</time>
      </trkpt>
      <trkpt lat="47.85473" lon="1.75165">
        <ele>87.189096</ele>
        <time>2021-12-04T15:18:36.344Z</time>
      </trkpt>
      <trkpt lat="47.85472" lon="1.75199">
        <ele>87.291596</ele>
        <time>2021-12-04T15:18:43.661Z</time>
      </trkpt>
      <trkpt lat="47.85517" lon="1.75332">
        <ele>87.870314</ele>
        <time>2021-12-04T15:19:17.575Z</time>
      </trkpt>
      <trkpt lat="47.85614" lon="1.75481">
        <ele>89.365886</ele>
        <time>2021-12-04T15:20:20.567Z</time>
      </trkpt>
      <trkpt lat="47.85637" lon="1.75518">
        <ele>89.678416</ele>
        <time>2021-12-04T15:20:36.327Z</time>
      </trkpt>
      <trkpt lat="47.85707" lon="1.75497">
        <ele>90.189117</ele>
        <time>2021-12-04T15:21:08.448Z</time>
      </trkpt>
      <trkpt lat="47.85749" lon="1.75477">
        <ele>90.50006</ele>
        <time>2021-12-04T15:21:27.351Z</time>
      </trkpt>
      <trkpt lat="47.85942" lon="1.75961">
        <ele>90.501292</ele>
        <time>2021-12-04T15:23:51.139Z</time>
      </trkpt>
      <trkpt lat="47.86002" lon="1.76136">
        <ele>89.562979</ele>
        <time>2021-12-04T15:24:37.678Z</time>
      </trkpt>
      <trkpt lat="47.86026" lon="1.76203">
        <ele>89.125201</ele>
        <time>2021-12-04T15:24:55.490Z</time>
      </trkpt>
      <trkpt lat="47.8599" lon="1.7624">
        <ele>88.801675</ele>
        <time>2021-12-04T15:25:10.984Z</time>
      </trkpt>
      <trkpt lat="47.86005" lon="1.7627">
        <ele>88.677325</ele>
        <time>2021-12-04T15:25:19.909Z</time>
      </trkpt>
      <trkpt lat="47.86054" lon="1.76341">
        <ele>88.336831</ele>
        <time>2021-12-04T15:25:44.422Z</time>
      </trkpt>
      <trkpt lat="47.86103" lon="1.76432">
        <ele>87.982578</ele>
        <time>2021-12-04T15:26:13.762Z</time>
      </trkpt>
      <trkpt lat="47.8611" lon="1.7644">
        <ele>87.986976</ele>
        <time>2021-12-04T15:26:17.162Z</time>
      </trkpt>
      <trkpt lat="47.86113" lon="1.76427">
        <ele>87.991294</ele>
        <time>2021-12-04T15:26:20.738Z</time>
      </trkpt>
      <trkpt lat="47.86118" lon="1.76429">
        <ele>87.993971</ele>
        <time>2021-12-04T15:26:22.666Z</time>
      </trkpt>
      <trkpt lat="47.86128" lon="1.76448">
        <ele>88.001992</ele>
        <time>2021-12-04T15:26:28.719Z</time>
      </trkpt>
      <trkpt lat="47.86149" lon="1.76529">
        <ele>88.031738</ele>
        <time>2021-12-04T15:26:51.545Z</time>
      </trkpt>
      <trkpt lat="47.86171" lon="1.76578">
        <ele>88.05182</ele>
        <time>2021-12-04T15:27:06.774Z</time>
      </trkpt>
      <trkpt lat="47.86226" lon="1.76664">
        <ele>88.202987</ele>
        <time>2021-12-04T15:27:37.599Z</time>
      </trkpt>
      <trkpt lat="47.86284" lon="1.7679">
        <ele>88.514255</ele>
        <time>2021-12-04T15:28:19.257Z</time>
      </trkpt>
      <trkpt lat="47.86315" lon="1.76877">
        <ele>88.629145</ele>
        <time>2021-12-04T15:28:46.142Z</time>
      </trkpt>
      <trkpt lat="47.86367" lon="1.76997">
        <ele>88.666083</ele>
        <time>2021-12-04T15:29:22.888Z</time>
      </trkpt>
      <trkpt lat="47.86455" lon="1.77257">
        <ele>88.682481</ele>
        <time>2021-12-04T15:30:36.102Z</time>
      </trkpt>
      <trkpt lat="47.86456" lon="1.7726">
        <ele>88.682431</ele>
        <time>2021-12-04T15:30:36.882Z</time>
      </trkpt>
      <trkpt lat="47.86535" lon="1.77468">
        <ele>89.441543</ele>
        <time>2021-12-04T15:31:43.832Z</time>
      </trkpt>
      <trkpt lat="47.86638" lon="1.77711">
        <ele>90.484755</ele>
        <time>2021-12-04T15:33:05.378Z</time>
      </trkpt>
      <trkpt lat="47.86663" lon="1.77772">
        <ele>90.681545</ele>
        <time>2021-12-04T15:33:24.272Z</time>
      </trkpt>
      <trkpt lat="47.86674" lon="1.77842">
        <ele>90.603992</ele>
        <time>2021-12-04T15:33:42.511Z</time>
      </trkpt>
      <trkpt lat="47.86673" lon="1.77849">
        <ele>90.596351</ele>
        <time>2021-12-04T15:33:44.242Z</time>
      </trkpt>
      <trkpt lat="47.8667" lon="1.77856">
        <ele>90.587352</ele>
        <time>2021-12-04T15:33:46.211Z</time>
      </trkpt>
      <trkpt lat="47.86663" lon="1.78078">
        <ele>90.340015</ele>
        <time>2021-12-04T15:34:41.721Z</time>
      </trkpt>
      <trkpt lat="47.86665" lon="1.7835">
        <ele>90.091046</ele>
        <time>2021-12-04T15:35:50.268Z</time>
      </trkpt>
      <trkpt lat="47.86669" lon="1.78501">
        <ele>90.115249</ele>
        <time>2021-12-04T15:36:29.478Z</time>
      </trkpt>
      <trkpt lat="47.8666" lon="1.78724">
        <ele>90.245797</ele>
        <time>2021-12-04T15:37:27.050Z</time>
      </trkpt>
      <trkpt lat="47.86641" lon="1.7898">
        <ele>90.84987</ele>
        <time>2021-12-04T15:38:34.510Z</time>
      </trkpt>
      <trkpt lat="47.86644" lon="1.7905">
        <ele>91.093562</ele>
        <time>2021-12-04T15:38:55.567Z</time>
      </trkpt>
      <trkpt lat="47.86663" lon="1.79147">
        <ele>91.391742</ele>
        <time>2021-12-04T15:39:25.161Z</time>
      </trkpt>
      <trkpt lat="47.86663" lon="1.79174">
        <ele>91.462981</ele>
        <time>2021-12-04T15:39:32.835Z</time>
      </trkpt>
      <trkpt lat="47.86668" lon="1.79193">
        <ele>91.514474</ele>
        <time>2021-12-04T15:39:38.837Z</time>
      </trkpt>
      <trkpt lat="47.86706" lon="1.79202">
        <ele>91.663374</ele>
        <time>2021-12-04T15:39:49.876Z</time>
      </trkpt>
      <trkpt lat="47.8671" lon="1.79203">
        <ele>91.677947</ele>
        <time>2021-12-04T15:39:51.001Z</time>
      </trkpt>
      <trkpt lat="47.86647" lon="1.79617">
        <ele>91.243691</ele>
        <time>2021-12-04T15:41:36.364Z</time>
      </trkpt>
      <trkpt lat="47.86635" lon="1.79943">
        <ele>90.702504</ele>
        <time>2021-12-04T15:42:58.161Z</time>
      </trkpt>
      <trkpt lat="47.8665" lon="1.8015">
        <ele>90.364798</ele>
        <time>2021-12-04T15:43:50.456Z</time>
      </trkpt>
      <trkpt lat="47.86663" lon="1.80341">
        <ele>89.990965</ele>
        <time>2021-12-04T15:44:37.952Z</time>
      </trkpt>
      <trkpt lat="47.86668" lon="1.80391">
        <ele>89.895843</ele>
        <time>2021-12-04T15:44:50.617Z</time>
      </trkpt>
      <trkpt lat="47.8668" lon="1.80429">
        <ele>89.822717</ele>
        <time>2021-12-04T15:45:00.800Z</time>
      </trkpt>
      <trkpt lat="47.86696" lon="1.80449">
        <ele>89.765767</ele>
        <time>2021-12-04T15:45:08.772Z</time>
      </trkpt>
      <trkpt lat="47.86854" lon="1.80722">
        <ele>89.241524</ele>
        <time>2021-12-04T15:46:38.976Z</time>
      </trkpt>
      <trkpt lat="47.86902" lon="1.80744">
        <ele>89.153583</ele>
        <time>2021-12-04T15:46:57.753Z</time>
      </trkpt>
      <trkpt lat="47.86929" lon="1.80771">
        <ele>89.27606</ele>
        <time>2021-12-04T15:47:10.191Z</time>
      </trkpt>
      <trkpt lat="47.8694" lon="1.80795">
        <ele>89.350901</ele>
        <time>2021-12-04T15:47:17.816Z</time>
      </trkpt>
      <trkpt lat="47.86946" lon="1.80866">
        <ele>89.532471</ele>
        <time>2021-12-04T15:47:36.749Z</time>
      </trkpt>
      <trkpt lat="47.86954" lon="1.80898">
        <ele>89.61975</ele>
        <time>2021-12-04T15:47:46.052Z</time>
      </trkpt>
      <trkpt lat="47.87216" lon="1.81378">
        <ele>92.84598</ele>
        <time>2021-12-04T15:50:47.072Z</time>
      </trkpt>
      <trkpt lat="47.87247" lon="1.81454">
        <ele>92.758109</ele>
        <time>2021-12-04T15:51:09.646Z</time>
      </trkpt>
      <trkpt lat="47.87333" lon="1.81753">
        <ele>92.282394</ele>
        <time>2021-12-04T15:52:30.250Z</time>
      </trkpt>
      <trkpt lat="47.87353" lon="1.81785">
        <ele>92.199409</ele>
        <time>2021-12-04T15:52:41.199Z</time>
      </trkpt>
      <trkpt lat="47.87363" lon="1.81814">
        <ele>92.137761</ele>
        <time>2021-12-04T15:52:49.326Z</time>
      </trkpt>
      <trkpt lat="47.87402" lon="1.81998">
        <ele>92.013638</ele>
        <time>2021-12-04T15:53:37.872Z</time>
      </trkpt>
      <trkpt lat="47.87423" lon="1.82056">
        <ele>91.997674</ele>
        <time>2021-12-04T15:53:55.117Z</time>
      </trkpt>
      <trkpt lat="47.87447" lon="1.82104">
        <ele>91.9838</ele>
        <time>2021-12-04T15:54:10.607Z</time>
      </trkpt>
      <trkpt lat="47.87511" lon="1.82198">
        <ele>91.982816</ele>
        <time>2021-12-04T15:54:45.008Z</time>
      </trkpt>
      <trkpt lat="47.87522" lon="1.82281">
        <ele>91.9822</ele>
        <time>2021-12-04T15:55:07.117Z</time>
      </trkpt>
      <trkpt lat="47.87564" lon="1.82384">
        <ele>91.819264</ele>
        <time>2021-12-04T15:55:37.814Z</time>
      </trkpt>
      <trkpt lat="47.87566" lon="1.82421">
        <ele>91.736154</ele>
        <time>2021-12-04T15:55:47.130Z</time>
      </trkpt>
      <trkpt lat="47.87576" lon="1.8245">
        <ele>91.665486</ele>
        <time>2021-12-04T15:55:54.842Z</time>
      </trkpt>
      <trkpt lat="47.87598" lon="1.82486">
        <ele>91.558133</ele>
        <time>2021-12-04T15:56:06.759Z</time>
      </trkpt>
      <trkpt lat="47.87601" lon="1.8251">
        <ele>91.504563</ele>
        <time>2021-12-04T15:56:12.920Z</time>
      </trkpt>
      <trkpt lat="47.8761" lon="1.82538">
        <ele>91.436812</ele>
        <time>2021-12-04T15:56:20.473Z</time>
      </trkpt>
      <trkpt lat="47.87627" lon="1.8256">
        <ele>91.347873</ele>
        <time>2021-12-04T15:56:28.635Z</time>
      </trkpt>
      <trkpt lat="47.87648" lon="1.82619">
        <ele>91.117294</ele>
        <time>2021-12-04T15:56:45.286Z</time>
      </trkpt>
      <trkpt lat="47.87698" lon="1.82706">
        <ele>90.727285</ele>
        <time>2021-12-04T15:57:12.960Z</time>
      </trkpt>
      <trkpt lat="47.87709" lon="1.82714">
        <ele>90.667291</ele>
        <time>2021-12-04T15:57:17.105Z</time>
      </trkpt>
      <trkpt lat="47.87744" lon="1.82743">
        <ele>90.478868</ele>
        <time>2021-12-04T15:57:31.805Z</time>
      </trkpt>
      <trkpt lat="47.8776" lon="1.82763">
        <ele>90.482281</ele>
        <time>2021-12-04T15:57:39.586Z</time>
      </trkpt>
      <trkpt lat="47.87799" lon="1.82871">
        <ele>90.495772</ele>
        <time>2021-12-04T15:58:10.754Z</time>
      </trkpt>
      <trkpt lat="47.8789" lon="1.8303">
        <ele>90.638723</ele>
        <time>2021-12-04T15:59:06.599Z</time>
      </trkpt>
      <trkpt lat="47.87906" lon="1.83048">
        <ele>90.67779</ele>
        <time>2021-12-04T15:59:14.452Z</time>
      </trkpt>
      <trkpt lat="47.87925" lon="1.83049">
        <ele>90.715001</ele>
        <time>2021-12-04T15:59:19.767Z</time>
      </trkpt>
      <trkpt lat="47.87931" lon="1.83055">
        <ele>90.729689</ele>
        <time>2021-12-04T15:59:22.640Z</time>
      </trkpt>
      <trkpt lat="47.87937" lon="1.83087">
        <ele>90.773094</ele>
        <time>2021-12-04T15:59:31.492Z</time>
      </trkpt>
      <trkpt lat="47.88042" lon="1.8326">
        <ele>90.884608</ele>
        <time>2021-12-04T16:00:32.065Z</time>
      </trkpt>
      <trkpt lat="47.88144" lon="1.83404">
        <ele>90.79835</ele>
        <time>2021-12-04T16:01:24.954Z</time>
      </trkpt>
      <trkpt lat="47.88288" lon="1.83637">
        <ele>91.066021</ele>
        <time>2021-12-04T16:02:45.018Z</time>
      </trkpt>
      <trkpt lat="47.88291" lon="1.83666">
        <ele>91.143109</ele>
        <time>2021-12-04T16:02:53.613Z</time>
      </trkpt>
      <trkpt lat="47.88315" lon="1.837">
        <ele>91.275497</ele>
        <time>2021-12-04T16:03:08.576Z</time>
      </trkpt>
      <trkpt lat="47.88324" lon="1.83702">
        <ele>91.311401</ele>
        <time>2021-12-04T16:03:12.482Z</time>
      </trkpt>
      <trkpt lat="47.88348" lon="1.83743">
        <ele>91.611087</ele>
        <time>2021-12-04T16:03:29.080Z</time>
      </trkpt>
      <trkpt lat="47.88365" lon="1.83727">
        <ele>91.820122</ele>
        <time>2021-12-04T16:03:38.398Z</time>
      </trkpt>
      <trkpt lat="47.88379" lon="1.83723">
        <ele>91.967898</ele>
        <time>2021-12-04T16:03:44.516Z</time>
      </trkpt>
      <trkpt lat="47.88409" lon="1.83679">
        <ele>92.411384</ele>
        <time>2021-12-04T16:04:04.074Z</time>
      </trkpt>
      <trkpt lat="47.88446" lon="1.8373">
        <ele>92.941266</ele>
        <time>2021-12-04T16:04:20.052Z</time>
      </trkpt>
      <trkpt lat="47.88555" lon="1.84004">
        <ele>94.013647</ele>
        <time>2021-12-04T16:05:14.556Z</time>
      </trkpt>
      <trkpt lat="47.88606" lon="1.84119">
        <ele>94.374937</ele>
        <time>2021-12-04T16:05:35.980Z</time>
      </trkpt>
      <trkpt lat="47.88605" lon="1.84128">
        <ele>94.399552</ele>
        <time>2021-12-04T16:05:37.617Z</time>
      </trkpt>
      <trkpt lat="47.88627" lon="1.84198">
        <ele>94.603824</ele>
        <time>2021-12-04T16:05:51.638Z</time>
      </trkpt>
      <trkpt lat="47.88642" lon="1.84231">
        <ele>94.71821</ele>
        <time>2021-12-04T16:05:59.912Z</time>
      </trkpt>
      <trkpt lat="47.88695" lon="1.84343">
        <ele>95.749324</ele>
        <time>2021-12-04T16:06:32.470Z</time>
      </trkpt>
      <trkpt lat="47.88753" lon="1.84412">
        <ele>96.577689</ele>
        <time>2021-12-04T16:06:56.142Z</time>
      </trkpt>
      <trkpt lat="47.88774" lon="1.84436">
        <ele>96.651066</ele>
        <time>2021-12-04T16:07:04.499Z</time>
      </trkpt>
      <trkpt lat="47.88797" lon="1.84482">
        <ele>96.480261</ele>
        <time>2021-12-04T16:07:15.439Z</time>
      </trkpt>
      <trkpt lat="47.88957" lon="1.84703">
        <ele>95.467046</ele>
        <time>2021-12-04T16:08:05.443Z</time>
      </trkpt>
      <trkpt lat="47.89037" lon="1.84834">
        <ele>95.048053</ele>
        <time>2021-12-04T16:08:35.494Z</time>
      </trkpt>
      <trkpt lat="47.89089" lon="1.84911">
        <ele>95.098638</ele>
        <time>2021-12-04T16:08:55.638Z</time>
      </trkpt>
      <trkpt lat="47.89114" lon="1.84977">
        <ele>95.134001</ele>
        <time>2021-12-04T16:09:09.354Z</time>
      </trkpt>
      <trkpt lat="47.8913" lon="1.85023">
        <ele>95.105354</ele>
        <time>2021-12-04T16:09:18.212Z</time>
      </trkpt>
      <trkpt lat="47.89233" lon="1.85258">
        <ele>94.220024</ele>
        <time>2021-12-04T16:10:02.828Z</time>
      </trkpt>
      <trkpt lat="47.89232" lon="1.85266">
        <ele>94.217115</ele>
        <time>2021-12-04T16:10:04.159Z</time>
      </trkpt>
      <trkpt lat="47.89296" lon="1.85484">
        <ele>94.132306</ele>
        <time>2021-12-04T16:10:45.654Z</time>
      </trkpt>
      <trkpt lat="47.89315" lon="1.85534">
        <ele>94.118952</ele>
        <time>2021-12-04T16:10:56.231Z</time>
      </trkpt>
      <trkpt lat="47.89355" lon="1.85613">
        <ele>94.096115</ele>
        <time>2021-12-04T16:11:13.654Z</time>
      </trkpt>
      <trkpt lat="47.89403" lon="1.85801">
        <ele>93.786893</ele>
        <time>2021-12-04T16:11:47.127Z</time>
      </trkpt>
      <trkpt lat="47.89424" lon="1.85865">
        <ele>93.570736</ele>
        <time>2021-12-04T16:11:58.198Z</time>
      </trkpt>
      <trkpt lat="47.89466" lon="1.86107">
        <ele>92.897814</ele>
        <time>2021-12-04T16:12:39.065Z</time>
      </trkpt>
      <trkpt lat="47.89488" lon="1.86165">
        <ele>92.735987</ele>
        <time>2021-12-04T16:12:50.081Z</time>
      </trkpt>
      <trkpt lat="47.89504" lon="1.86196">
        <ele>92.639212</ele>
        <time>2021-12-04T16:12:56.690Z</time>
      </trkpt>
      <trkpt lat="47.89557" lon="1.86369">
        <ele>91.969138</ele>
        <time>2021-12-04T16:13:43.037Z</time>
      </trkpt>
      <trkpt lat="47.89597" lon="1.86559">
        <ele>91.612725</ele>
        <time>2021-12-04T16:14:31.504Z</time>
      </trkpt>
      <trkpt lat="47.89613" lon="1.86694">
        <ele>91.591499</ele>
        <time>2021-12-04T16:15:07.072Z</time>
      </trkpt>
      <trkpt lat="47.89623" lon="1.86819">
        <ele>92.142295</ele>
        <time>2021-12-04T16:15:37.442Z</time>
      </trkpt>
      <trkpt lat="47.89648" lon="1.86969">
        <ele>92.993999</ele>
        <time>2021-12-04T16:16:15.531Z</time>
      </trkpt>
      <trkpt lat="47.89668" lon="1.87091">
        <ele>93.253829</ele>
        <time>2021-12-04T16:16:42.161Z</time>
      </trkpt>
      <trkpt lat="47.89689" lon="1.87195">
        <ele>93.431904</ele>
        <time>2021-12-04T16:17:04.093Z</time>
      </trkpt>
      <trkpt lat="47.89703" lon="1.87276">
        <ele>93.674</ele>
        <time>2021-12-04T16:17:21.261Z</time>
      </trkpt>
      <trkpt lat="47.89726" lon="1.87403">
        <ele>94.276432</ele>
        <time>2021-12-04T16:17:52.668Z</time>
      </trkpt>
      <trkpt lat="47.89759" lon="1.87578">
        <ele>94.870164</ele>
        <time>2021-12-04T16:18:45.346Z</time>
      </trkpt>
      <trkpt lat="47.8976" lon="1.87583">
        <ele>94.877966</ele>
        <time>2021-12-04T16:18:46.429Z</time>
      </trkpt>
      <trkpt lat="47.89778" lon="1.87633">
        <ele>94.968737</ele>
        <time>2021-12-04T16:18:56.200Z</time>
      </trkpt>
      <trkpt lat="47.89778" lon="1.87638">
        <ele>94.976739</ele>
        <time>2021-12-04T16:18:56.939Z</time>
      </trkpt>
      <trkpt lat="47.89781" lon="1.8764">
        <ele>94.984704</ele>
        <time>2021-12-04T16:18:58.068Z</time>
      </trkpt>
      <trkpt lat="47.89782" lon="1.8765">
        <ele>95.001652</ele>
        <time>2021-12-04T16:18:59.706Z</time>
      </trkpt>
      <trkpt lat="47.89782" lon="1.87664">
        <ele>95.023709</ele>
        <time>2021-12-04T16:19:01.850Z</time>
      </trkpt>
      <trkpt lat="47.89773" lon="1.87664">
        <ele>95.04444</ele>
        <time>2021-12-04T16:19:04.468Z</time>
      </trkpt>
      <trkpt lat="47.89741" lon="1.87662">
        <ele>95.120507</ele>
        <time>2021-12-04T16:19:13.816Z</time>
      </trkpt>
      <trkpt lat="47.89408" lon="1.87642">
        <ele>93.763593</ele>
        <time>2021-12-04T16:20:50.033Z</time>
      </trkpt>
      <trkpt lat="47.8935" lon="1.87638">
        <ele>93.514831</ele>
        <time>2021-12-04T16:21:06.898Z</time>
      </trkpt>
      <trkpt lat="47.89338" lon="1.87639">
        <ele>93.464798</ele>
        <time>2021-12-04T16:21:10.359Z</time>
      </trkpt>
      <trkpt lat="47.89334" lon="1.87637">
        <ele>93.446512</ele>
        <time>2021-12-04T16:21:11.658Z</time>
      </trkpt>
      <trkpt lat="47.89291" lon="1.8767">
        <ele>93.245432</ele>
        <time>2021-12-04T16:21:25.693Z</time>
      </trkpt>
      <trkpt lat="47.89287" lon="1.87673">
        <ele>93.225987</ele>
        <time>2021-12-04T16:21:27.031Z</time>
      </trkpt>
      <trkpt lat="47.89286" lon="1.87674">
        <ele>93.219338</ele>
        <time>2021-12-04T16:21:27.500Z</time>
      </trkpt>
      <trkpt lat="47.89282" lon="1.87677">
        <ele>93.202151</ele>
        <time>2021-12-04T16:21:28.652Z</time>
      </trkpt>
      <trkpt lat="47.8928" lon="1.87678">
        <ele>93.192367</ele>
        <time>2021-12-04T16:21:29.309Z</time>
      </trkpt>
      <trkpt lat="47.89279" lon="1.8771">
        <ele>93.103036</ele>
        <time>2021-12-04T16:21:33.947Z</time>
      </trkpt>
      <trkpt lat="47.89282" lon="1.87733">
        <ele>93.037247</ele>
        <time>2021-12-04T16:21:37.269Z</time>
      </trkpt>
      <trkpt lat="47.89288" lon="1.87884">
        <ele>92.763132</ele>
        <time>2021-12-04T16:21:58.864Z</time>
      </trkpt>
      <trkpt lat="47.8927" lon="1.87997">
        <ele>92.689604</ele>
        <time>2021-12-04T16:22:16.734Z</time>
      </trkpt>
      <trkpt lat="47.89268" lon="1.88008">
        <ele>92.682333</ele>
        <time>2021-12-04T16:22:18.601Z</time>
      </trkpt>
      <trkpt lat="47.8926" lon="1.88049">
        <ele>92.655415</ele>
        <time>2021-12-04T16:22:25.418Z</time>
      </trkpt>
      <trkpt lat="47.89246" lon="1.88133">
        <ele>92.766086</ele>
        <time>2021-12-04T16:22:39.487Z</time>
      </trkpt>
      <trkpt lat="47.89246" lon="1.88218">
        <ele>92.952588</ele>
        <time>2021-12-04T16:22:53.661Z</time>
      </trkpt>
      <trkpt lat="47.89248" lon="1.88355">
        <ele>93.247676</ele>
        <time>2021-12-04T16:23:17.377Z</time>
      </trkpt>
      <trkpt lat="47.89236" lon="1.88485">
        <ele>93.487215</ele>
        <time>2021-12-04T16:23:39.003Z</time>
      </trkpt>
      <trkpt lat="47.89204" lon="1.88647">
        <ele>93.793446</ele>
        <time>2021-12-04T16:24:06.478Z</time>
      </trkpt>
      <trkpt lat="47.89202" lon="1.88654">
        <ele>93.807945</ele>
        <time>2021-12-04T16:24:07.884Z</time>
      </trkpt>
      <trkpt lat="47.89193" lon="1.88659">
        <ele>93.832797</ele>
        <time>2021-12-04T16:24:10.065Z</time>
      </trkpt>
      <trkpt lat="47.89195" lon="1.887">
        <ele>93.907678</ele>
        <time>2021-12-04T16:24:16.979Z</time>
      </trkpt>
      <trkpt lat="47.89195" lon="1.88712">
        <ele>93.92922</ele>
        <time>2021-12-04T16:24:18.934Z</time>
      </trkpt>
      <trkpt lat="47.89194" lon="1.88744">
        <ele>93.987401</ele>
        <time>2021-12-04T16:24:24.340Z</time>
      </trkpt>
      <trkpt lat="47.89193" lon="1.88831">
        <ele>94.145032</ele>
        <time>2021-12-04T16:24:38.744Z</time>
      </trkpt>
      <trkpt lat="47.89194" lon="1.88852">
        <ele>94.183534</ele>
        <time>2021-12-04T16:24:42.167Z</time>
      </trkpt>
      <trkpt lat="47.89199" lon="1.88851">
        <ele>94.197901</ele>
        <time>2021-12-04T16:24:43.552Z</time>
      </trkpt>
      <trkpt lat="47.8923" lon="1.88835">
        <ele>94.292711</ele>
        <time>2021-12-04T16:24:51.578Z</time>
      </trkpt>
      <trkpt lat="47.8926" lon="1.88839">
        <ele>94.381478</ele>
        <time>2021-12-04T16:24:58.930Z</time>
      </trkpt>
      <trkpt lat="47.89279" lon="1.88842">
        <ele>94.43888</ele>
        <time>2021-12-04T16:25:03.687Z</time>
      </trkpt>
      <trkpt lat="47.89301" lon="1.8886">
        <ele>94.51453</ele>
        <time>2021-12-04T16:25:09.703Z</time>
      </trkpt>
      <trkpt lat="47.89321" lon="1.88874">
        <ele>94.579021</ele>
        <time>2021-12-04T16:25:15.238Z</time>
      </trkpt>
      <trkpt lat="47.89387" lon="1.88867">
        <ele>94.828379</ele>
        <time>2021-12-04T16:25:31.584Z</time>
      </trkpt>
      <trkpt lat="47.89388" lon="1.88867">
        <ele>94.838092</ele>
        <time>2021-12-04T16:25:31.893Z</time>
      </trkpt>
      <trkpt lat="47.89401" lon="1.89225">
        <ele>96.537917</ele>
        <time>2021-12-04T16:26:37.733Z</time>
      </trkpt>
      <trkpt lat="47.89402" lon="1.89237">
        <ele>96.601536</ele>
        <time>2021-12-04T16:26:40.129Z</time>
      </trkpt>
      <trkpt lat="47.89405" lon="1.89353">
        <ele>97.221539</ele>
        <time>2021-12-04T16:27:02.044Z</time>
      </trkpt>
      <trkpt lat="47.89405" lon="1.89359">
        <ele>97.251984</ele>
        <time>2021-12-04T16:27:03.199Z</time>
      </trkpt>
      <trkpt lat="47.89406" lon="1.89389">
        <ele>97.343841</ele>
        <time>2021-12-04T16:27:08.992Z</time>
      </trkpt>
      <trkpt lat="47.89414" lon="1.89446">
        <ele>97.234446</ele>
        <time>2021-12-04T16:27:19.144Z</time>
      </trkpt>
      <trkpt lat="47.89414" lon="1.89449">
        <ele>97.228318</ele>
        <time>2021-12-04T16:27:19.674Z</time>
      </trkpt>
      <trkpt lat="47.89414" lon="1.89452">
        <ele>97.222052</ele>
        <time>2021-12-04T16:27:20.240Z</time>
      </trkpt>
      <trkpt lat="47.89427" lon="1.89465">
        <ele>97.17859</ele>
        <time>2021-12-04T16:27:24.224Z</time>
      </trkpt>
      <trkpt lat="47.89431" lon="1.89463">
        <ele>97.165434</ele>
        <time>2021-12-04T16:27:25.373Z</time>
      </trkpt>
      <trkpt lat="47.89445" lon="1.89463">
        <ele>97.127611</ele>
        <time>2021-12-04T16:27:28.327Z</time>
      </trkpt>
      <trkpt lat="47.89446" lon="1.89461">
        <ele>97.121861</ele>
        <time>2021-12-04T16:27:29.756Z</time>
      </trkpt>
      <trkpt lat="47.89448" lon="1.89455">
        <ele>97.108654</ele>
        <time>2021-12-04T16:27:32.938Z</time>
      </trkpt>
      <trkpt lat="47.89449" lon="1.89452">
        <ele>97.104011</ele>
        <time>2021-12-04T16:27:34.098Z</time>
      </trkpt>
      <trkpt lat="47.8945" lon="1.8945">
        <ele>97.098149</ele>
        <time>2021-12-04T16:27:35.493Z</time>
      </trkpt>
      <trkpt lat="47.89454" lon="1.89444">
        <ele>97.08105</ele>
        <time>2021-12-04T16:27:39.716Z</time>
      </trkpt>
      <trkpt lat="47.89453" lon="1.89382">
        <ele>96.961779</ele>
        <time>2021-12-04T16:28:08.833Z</time>
      </trkpt>
      <trkpt lat="47.89448" lon="1.89256">
        <ele>96.561748</ele>
        <time>2021-12-04T16:29:07.738Z</time>
      </trkpt>
      <trkpt lat="47.89451" lon="1.89255">
        <ele>96.542126</ele>
        <time>2021-12-04T16:29:09.893Z</time>
      </trkpt>
      <trkpt lat="47.89452" lon="1.89237">
        <ele>96.461914</ele>
        <time>2021-12-04T16:29:18.710Z</time>
      </trkpt>
      <trkpt lat="47.89468" lon="1.8918">
        <ele>96.203794</ele>
        <time>2021-12-04T16:29:47.198Z</time>
      </trkpt>
      <trkpt lat="47.89474" lon="1.89082">
        <ele>95.786262</ele>
        <time>2021-12-04T16:30:33.191Z</time>
      </trkpt>
      <trkpt lat="47.89468" lon="1.8918">
        <ele>95.931095</ele>
        <time>2021-12-04T16:31:19.184Z</time>
      </trkpt>
      <trkpt lat="47.89452" lon="1.89237">
        <ele>96.089341</ele>
        <time>2021-12-04T16:31:47.673Z</time>
      </trkpt>
      <trkpt lat="47.89451" lon="1.89255">
        <ele>96.138516</ele>
        <time>2021-12-04T16:31:56.489Z</time>
      </trkpt>
      <trkpt lat="47.89448" lon="1.89256">
        <ele>96.150546</ele>
        <time>2021-12-04T16:31:58.644Z</time>
      </trkpt>
      <trkpt lat="47.89453" lon="1.89382">
        <ele>96.508474</ele>
        <time>2021-12-04T16:32:57.546Z</time>
      </trkpt>
      <trkpt lat="47.89454" lon="1.89444">
        <ele>96.746259</ele>
        <time>2021-12-04T16:33:26.662Z</time>
      </trkpt>
      <trkpt lat="47.8945" lon="1.8945">
        <ele>96.780347</ele>
        <time>2021-12-04T16:33:30.885Z</time>
      </trkpt>
      <trkpt lat="47.89449" lon="1.89452">
        <ele>96.792034</ele>
        <time>2021-12-04T16:33:32.280Z</time>
      </trkpt>
      <trkpt lat="47.89448" lon="1.89455">
        <ele>96.801291</ele>
        <time>2021-12-04T16:33:33.439Z</time>
      </trkpt>
      <trkpt lat="47.89446" lon="1.89461">
        <ele>96.827622</ele>
        <time>2021-12-04T16:33:36.622Z</time>
      </trkpt>
      <trkpt lat="47.89445" lon="1.89463">
        <ele>96.839084</ele>
        <time>2021-12-04T16:33:38.050Z</time>
      </trkpt>
      <trkpt lat="47.89461" lon="1.89472">
        <ele>96.935504</ele>
        <time>2021-12-04T16:33:42.337Z</time>
      </trkpt>
      <trkpt lat="47.89466" lon="1.89496">
        <ele>97.032484</ele>
        <time>2021-12-04T16:33:47.305Z</time>
      </trkpt>
      <trkpt lat="47.89472" lon="1.8964">
        <ele>97.58101</ele>
        <time>2021-12-04T16:34:14.514Z</time>
      </trkpt>
      <trkpt lat="47.89468" lon="1.89686">
        <ele>97.761437</ele>
        <time>2021-12-04T16:34:22.780Z</time>
      </trkpt>
      <trkpt lat="47.89453" lon="1.89721">
        <ele>97.925009</ele>
        <time>2021-12-04T16:34:30.591Z</time>
      </trkpt>
      <trkpt lat="47.89445" lon="1.89755">
        <ele>98.065178</ele>
        <time>2021-12-04T16:34:37.270Z</time>
      </trkpt>
      <trkpt lat="47.89446" lon="1.8983">
        <ele>98.355047</ele>
        <time>2021-12-04T16:34:50.497Z</time>
      </trkpt>
      <trkpt lat="47.8945" lon="1.8983">
        <ele>98.374809</ele>
        <time>2021-12-04T16:34:52.892Z</time>
      </trkpt>
      <trkpt lat="47.89452" lon="1.89834">
        <ele>98.395168</ele>
        <time>2021-12-04T16:34:55.307Z</time>
      </trkpt>
      <trkpt lat="47.89454" lon="1.89837">
        <ele>98.414374</ele>
        <time>2021-12-04T16:34:57.599Z</time>
      </trkpt>
      <trkpt lat="47.89457" lon="1.89841">
        <ele>98.434877</ele>
        <time>2021-12-04T16:35:00.047Z</time>
      </trkpt>
      <trkpt lat="47.89457" lon="1.89841">
        <ele>98.439547</ele>
        <time>2021-12-04T16:35:00.635Z</time>
      </trkpt>
      <trkpt lat="47.89467" lon="1.89856">
        <ele>98.429331</ele>
        <time>2021-12-04T16:35:04.311Z</time>
      </trkpt>
      <trkpt lat="47.8947" lon="1.89934">
        <ele>98.114979</ele>
        <time>2021-12-04T16:35:17.187Z</time>
      </trkpt>
      <trkpt lat="47.89475" lon="1.90089">
        <ele>97.484194</ele>
        <time>2021-12-04T16:35:40.712Z</time>
      </trkpt>
      <trkpt lat="47.89476" lon="1.9012">
        <ele>97.363306</ele>
        <time>2021-12-04T16:35:45.604Z</time>
      </trkpt>
      <trkpt lat="47.89477" lon="1.90136">
        <ele>97.309364</ele>
        <time>2021-12-04T16:35:48.593Z</time>
      </trkpt>
      <trkpt lat="47.89479" lon="1.9021">
        <ele>97.060966</ele>
        <time>2021-12-04T16:36:00.969Z</time>
      </trkpt>
      <trkpt lat="47.89482" lon="1.90287">
        <ele>96.800152</ele>
        <time>2021-12-04T16:36:13.729Z</time>
      </trkpt>
      <trkpt lat="47.89475" lon="1.90293">
        <ele>96.762634</ele>
        <time>2021-12-04T16:36:15.848Z</time>
      </trkpt>
      <trkpt lat="47.89476" lon="1.90301">
        <ele>96.733741</ele>
        <time>2021-12-04T16:36:16.960Z</time>
      </trkpt>
      <trkpt lat="47.89476" lon="1.90308">
        <ele>96.710173</ele>
        <time>2021-12-04T16:36:17.815Z</time>
      </trkpt>
      <trkpt lat="47.89476" lon="1.9035">
        <ele>96.568789</ele>
        <time>2021-12-04T16:36:23.897Z</time>
      </trkpt>
      <trkpt lat="47.89475" lon="1.90362">
        <ele>96.528384</ele>
        <time>2021-12-04T16:36:25.442Z</time>
      </trkpt>
      <trkpt lat="47.89468" lon="1.90429">
        <ele>96.051031</ele>
        <time>2021-12-04T16:36:35.093Z</time>
      </trkpt>
      <trkpt lat="47.89467" lon="1.9044">
        <ele>95.964475</ele>
        <time>2021-12-04T16:36:36.720Z</time>
      </trkpt>
      <trkpt lat="47.89466" lon="1.90443">
        <ele>95.935426</ele>
        <time>2021-12-04T16:36:37.473Z</time>
      </trkpt>
      <trkpt lat="47.89467" lon="1.90461">
        <ele>95.795901</ele>
        <time>2021-12-04T16:36:39.973Z</time>
      </trkpt>
      <trkpt lat="47.89468" lon="1.90462">
        <ele>95.775737</ele>
        <time>2021-12-04T16:36:40.295Z</time>
      </trkpt>
      <trkpt lat="47.89479" lon="1.90461">
        <ele>95.656056</ele>
        <time>2021-12-04T16:36:42.267Z</time>
      </trkpt>
      <trkpt lat="47.8948" lon="1.90459">
        <ele>95.63338</ele>
        <time>2021-12-04T16:36:42.649Z</time>
      </trkpt>
      <trkpt lat="47.89488" lon="1.90443">
        <ele>95.475237</ele>
        <time>2021-12-04T16:36:45.782Z</time>
      </trkpt>
      <trkpt lat="47.89502" lon="1.90443">
        <ele>95.317309</ele>
        <time>2021-12-04T16:36:48.276Z</time>
      </trkpt>
      <trkpt lat="47.89796" lon="1.90417">
        <ele>91.645711</ele>
        <time>2021-12-04T16:37:45.149Z</time>
      </trkpt>
      <trkpt lat="47.89796" lon="1.90428">
        <ele>91.627147</ele>
        <time>2021-12-04T16:37:46.670Z</time>
      </trkpt>
      <trkpt lat="47.89797" lon="1.90435">
        <ele>91.615668</ele>
        <time>2021-12-04T16:37:47.628Z</time>
      </trkpt>
      <trkpt lat="47.89801" lon="1.9044">
        <ele>91.601961</ele>
        <time>2021-12-04T16:37:49.467Z</time>
      </trkpt>
      <trkpt lat="47.89801" lon="1.90442">
        <ele>91.599426</ele>
        <time>2021-12-04T16:37:49.658Z</time>
      </trkpt>
      <trkpt lat="47.89793" lon="1.90533">
        <ele>91.447304</ele>
        <time>2021-12-04T16:38:03.456Z</time>
      </trkpt>
      <trkpt lat="47.89791" lon="1.90553">
        <ele>91.414244</ele>
        <time>2021-12-04T16:38:07.327Z</time>
      </trkpt>
      <trkpt lat="47.8979" lon="1.90567">
        <ele>91.390358</ele>
        <time>2021-12-04T16:38:09.841Z</time>
      </trkpt>
      <trkpt lat="47.89782" lon="1.90668">
        <ele>91.330202</ele>
        <time>2021-12-04T16:38:28.034Z</time>
      </trkpt>
      <trkpt lat="47.89784" lon="1.90671">
        <ele>91.334914</ele>
        <time>2021-12-04T16:38:28.683Z</time>
      </trkpt>
      <trkpt lat="47.8979" lon="1.90814">
        <ele>91.488328</ele>
        <time>2021-12-04T16:38:51.060Z</time>
      </trkpt>
      <trkpt lat="47.8979" lon="1.90825">
        <ele>91.499771</ele>
        <time>2021-12-04T16:38:52.484Z</time>
      </trkpt>
      <trkpt lat="47.89793" lon="1.90936">
        <ele>91.535387</ele>
        <time>2021-12-04T16:39:11.029Z</time>
      </trkpt>
      <trkpt lat="47.89793" lon="1.90941">
        <ele>91.530858</ele>
        <time>2021-12-04T16:39:11.838Z</time>
      </trkpt>
      <trkpt lat="47.89798" lon="1.91073">
        <ele>91.406309</ele>
        <time>2021-12-04T16:39:30.839Z</time>
      </trkpt>
      <trkpt lat="47.89798" lon="1.91095">
        <ele>91.385762</ele>
        <time>2021-12-04T16:39:33.900Z</time>
      </trkpt>
      <trkpt lat="47.89803" lon="1.91207">
        <ele>91.492158</ele>
        <time>2021-12-04T16:39:52.490Z</time>
      </trkpt>
      <trkpt lat="47.89804" lon="1.91237">
        <ele>91.607354</ele>
        <time>2021-12-04T16:39:57.870Z</time>
      </trkpt>
      <trkpt lat="47.89804" lon="1.91248">
        <ele>91.649336</ele>
        <time>2021-12-04T16:39:59.839Z</time>
      </trkpt>
      <trkpt lat="47.89805" lon="1.91259">
        <ele>91.690875</ele>
        <time>2021-12-04T16:40:01.767Z</time>
      </trkpt>
      <trkpt lat="47.89808" lon="1.91365">
        <ele>92.092552</ele>
        <time>2021-12-04T16:40:20.431Z</time>
      </trkpt>
      <trkpt lat="47.89802" lon="1.91377">
        <ele>92.148216</ele>
        <time>2021-12-04T16:40:22.977Z</time>
      </trkpt>
      <trkpt lat="47.89813" lon="1.91603">
        <ele>93.410056</ele>
        <time>2021-12-04T16:41:06.004Z</time>
      </trkpt>
      <trkpt lat="47.89818" lon="1.91607">
        <ele>93.4635</ele>
        <time>2021-12-04T16:41:07.957Z</time>
      </trkpt>
      <trkpt lat="47.89818" lon="1.91619">
        <ele>93.539697</ele>
        <time>2021-12-04T16:41:10.461Z</time>
      </trkpt>
      <trkpt lat="47.89819" lon="1.91653">
        <ele>93.746919</ele>
        <time>2021-12-04T16:41:17.508Z</time>
      </trkpt>
      <trkpt lat="47.8983" lon="1.91722">
        <ele>93.94654</ele>
        <time>2021-12-04T16:41:31.393Z</time>
      </trkpt>
      <trkpt lat="47.89836" lon="1.91762">
        <ele>93.906671</ele>
        <time>2021-12-04T16:41:38.535Z</time>
      </trkpt>
      <trkpt lat="47.89849" lon="1.91838">
        <ele>93.831569</ele>
        <time>2021-12-04T16:41:50.262Z</time>
      </trkpt>
      <trkpt lat="47.89851" lon="1.91846">
        <ele>93.823248</ele>
        <time>2021-12-04T16:41:51.527Z</time>
      </trkpt>
      <trkpt lat="47.89852" lon="1.91854">
        <ele>93.815632</ele>
        <time>2021-12-04T16:41:52.647Z</time>
      </trkpt>
      <trkpt lat="47.89859" lon="1.91894">
        <ele>93.775356</ele>
        <time>2021-12-04T16:41:58.390Z</time>
      </trkpt>
      <trkpt lat="47.89873" lon="1.91977">
        <ele>93.621524</ele>
        <time>2021-12-04T16:42:10.047Z</time>
      </trkpt>
      <trkpt lat="47.89872" lon="1.9198">
        <ele>93.61086</ele>
        <time>2021-12-04T16:42:10.428Z</time>
      </trkpt>
      <trkpt lat="47.89871" lon="1.91988">
        <ele>93.579687</ele>
        <time>2021-12-04T16:42:11.611Z</time>
      </trkpt>
      <trkpt lat="47.89884" lon="1.92065">
        <ele>93.300392</ele>
        <time>2021-12-04T16:42:22.798Z</time>
      </trkpt>
      <trkpt lat="47.89883" lon="1.92077">
        <ele>93.257602</ele>
        <time>2021-12-04T16:42:24.458Z</time>
      </trkpt>
      <trkpt lat="47.89875" lon="1.92079">
        <ele>93.215584</ele>
        <time>2021-12-04T16:42:26.019Z</time>
      </trkpt>
      <trkpt lat="47.89892" lon="1.92186">
        <ele>92.824547</ele>
        <time>2021-12-04T16:42:41.684Z</time>
      </trkpt>
      <trkpt lat="47.89911" lon="1.92302">
        <ele>92.807663</ele>
        <time>2021-12-04T16:43:01.744Z</time>
      </trkpt>
      <trkpt lat="47.89941" lon="1.92478">
        <ele>92.867038</ele>
        <time>2021-12-04T16:43:30.709Z</time>
      </trkpt>
      <trkpt lat="47.89958" lon="1.92579">
        <ele>92.785175</ele>
        <time>2021-12-04T16:43:45.933Z</time>
      </trkpt>
      <trkpt lat="47.89965" lon="1.92618">
        <ele>92.754313</ele>
        <time>2021-12-04T16:43:51.627Z</time>
      </trkpt>
      <trkpt lat="47.89976" lon="1.92684">
        <ele>92.700675</ele>
        <time>2021-12-04T16:44:02.220Z</time>
      </trkpt>
      <trkpt lat="47.89995" lon="1.92793">
        <ele>92.7993</ele>
        <time>2021-12-04T16:44:20.476Z</time>
      </trkpt>
      <trkpt lat="47.90016" lon="1.92917">
        <ele>93.030272</ele>
        <time>2021-12-04T16:44:42.360Z</time>
      </trkpt>
      <trkpt lat="47.90018" lon="1.92922">
        <ele>93.040054</ele>
        <time>2021-12-04T16:44:43.290Z</time>
      </trkpt>
      <trkpt lat="47.90018" lon="1.92929">
        <ele>93.052714</ele>
        <time>2021-12-04T16:44:44.520Z</time>
      </trkpt>
      <trkpt lat="47.90043" lon="1.93094">
        <ele>93.280278</ele>
        <time>2021-12-04T16:45:15.066Z</time>
      </trkpt>
      <trkpt lat="47.90049" lon="1.9311">
        <ele>93.301061</ele>
        <time>2021-12-04T16:45:18.237Z</time>
      </trkpt>
      <trkpt lat="47.90057" lon="1.93183">
        <ele>93.383637</ele>
        <time>2021-12-04T16:45:30.879Z</time>
      </trkpt>
      <trkpt lat="47.90077" lon="1.93415">
        <ele>93.756187</ele>
        <time>2021-12-04T16:46:14.307Z</time>
      </trkpt>
      <trkpt lat="47.90089" lon="1.93516">
        <ele>93.92588</ele>
        <time>2021-12-04T16:46:32.602Z</time>
      </trkpt>
      <trkpt lat="47.90098" lon="1.93558">
        <ele>93.930857</ele>
        <time>2021-12-04T16:46:40.260Z</time>
      </trkpt>
      <trkpt lat="47.90239" lon="1.93999">
        <ele>93.820009</ele>
        <time>2021-12-04T16:48:04.049Z</time>
      </trkpt>
      <trkpt lat="47.90249" lon="1.94022">
        <ele>93.760851</ele>
        <time>2021-12-04T16:48:08.169Z</time>
      </trkpt>
      <trkpt lat="47.90256" lon="1.94024">
        <ele>93.734621</ele>
        <time>2021-12-04T16:48:10.678Z</time>
      </trkpt>
      <trkpt lat="47.90263" lon="1.9406">
        <ele>93.652054</ele>
        <time>2021-12-04T16:48:16.275Z</time>
      </trkpt>
      <trkpt lat="47.90264" lon="1.94067">
        <ele>93.634878</ele>
        <time>2021-12-04T16:48:17.472Z</time>
      </trkpt>
      <trkpt lat="47.90267" lon="1.94093">
        <ele>93.57528</ele>
        <time>2021-12-04T16:48:22.178Z</time>
      </trkpt>
      <trkpt lat="47.90272" lon="1.94136">
        <ele>93.477309</ele>
        <time>2021-12-04T16:48:29.338Z</time>
      </trkpt>
      <trkpt lat="47.90268" lon="1.94172">
        <ele>93.395836</ele>
        <time>2021-12-04T16:48:34.981Z</time>
      </trkpt>
      <trkpt lat="47.90271" lon="1.94326">
        <ele>93.277878</ele>
        <time>2021-12-04T16:49:00.204Z</time>
      </trkpt>
      <trkpt lat="47.90282" lon="1.94399">
        <ele>93.331095</ele>
        <time>2021-12-04T16:49:12.710Z</time>
      </trkpt>
      <trkpt lat="47.90294" lon="1.94432">
        <ele>93.357605</ele>
        <time>2021-12-04T16:49:19.449Z</time>
      </trkpt>
      <trkpt lat="47.90334" lon="1.94599">
        <ele>93.823853</ele>
        <time>2021-12-04T16:49:55.304Z</time>
      </trkpt>
      <trkpt lat="47.90379" lon="1.94887">
        <ele>94.619233</ele>
        <time>2021-12-04T16:50:52.803Z</time>
      </trkpt>
      <trkpt lat="47.90404" lon="1.95189">
        <ele>94.396699</ele>
        <time>2021-12-04T16:51:43.118Z</time>
      </trkpt>
      <trkpt lat="47.90408" lon="1.95344">
        <ele>94.05611</ele>
        <time>2021-12-04T16:52:08.814Z</time>
      </trkpt>
      <trkpt lat="47.90407" lon="1.95457">
        <ele>93.759996</ele>
        <time>2021-12-04T16:52:27.439Z</time>
      </trkpt>
      <trkpt lat="47.90395" lon="1.95756">
        <ele>92.935139</ele>
        <time>2021-12-04T16:53:15.982Z</time>
      </trkpt>
      <trkpt lat="47.90372" lon="1.96046">
        <ele>92.594712</ele>
        <time>2021-12-04T16:54:04.100Z</time>
      </trkpt>
      <trkpt lat="47.90372" lon="1.96083">
        <ele>92.572841</ele>
        <time>2021-12-04T16:54:11.167Z</time>
      </trkpt>
      <trkpt lat="47.90365" lon="1.96265">
        <ele>93.59707</ele>
        <time>2021-12-04T16:54:49.563Z</time>
      </trkpt>
      <trkpt lat="47.9035" lon="1.96345">
        <ele>94.110283</ele>
        <time>2021-12-04T16:55:07.919Z</time>
      </trkpt>
      <trkpt lat="47.90343" lon="1.96533">
        <ele>94.943309</ele>
        <time>2021-12-04T16:55:46.552Z</time>
      </trkpt>
      <trkpt lat="47.90341" lon="1.97182">
        <ele>95.848347</ele>
        <time>2021-12-04T16:57:44.631Z</time>
      </trkpt>
      <trkpt lat="47.90333" lon="1.97304">
        <ele>94.840298</ele>
        <time>2021-12-04T16:58:02.597Z</time>
      </trkpt>
      <trkpt lat="47.90295" lon="1.97541">
        <ele>93.510229</ele>
        <time>2021-12-04T16:58:38.320Z</time>
      </trkpt>
      <trkpt lat="47.90295" lon="1.97547">
        <ele>93.497172</ele>
        <time>2021-12-04T16:58:39.729Z</time>
      </trkpt>
      <trkpt lat="47.90293" lon="1.97555">
        <ele>93.477139</ele>
        <time>2021-12-04T16:58:41.074Z</time>
      </trkpt>
      <trkpt lat="47.90293" lon="1.97563">
        <ele>93.460437</ele>
        <time>2021-12-04T16:58:42.263Z</time>
      </trkpt>
      <trkpt lat="47.90231" lon="1.9796">
        <ele>94.202246</ele>
        <time>2021-12-04T17:00:02.988Z</time>
      </trkpt>
      <trkpt lat="47.90189" lon="1.98113">
        <ele>94.679414</ele>
        <time>2021-12-04T17:00:32.585Z</time>
      </trkpt>
      <trkpt lat="47.9014" lon="1.98233">
        <ele>95.23753</ele>
        <time>2021-12-04T17:01:00.312Z</time>
      </trkpt>
      <trkpt lat="47.90114" lon="1.98296">
        <ele>95.710708</ele>
        <time>2021-12-04T17:01:16.268Z</time>
      </trkpt>
      <trkpt lat="47.90069" lon="1.98397">
        <ele>96.483401</ele>
        <time>2021-12-04T17:01:42.768Z</time>
      </trkpt>
      <trkpt lat="47.90062" lon="1.98419">
        <ele>96.638811</ele>
        <time>2021-12-04T17:01:47.993Z</time>
      </trkpt>
      <trkpt lat="47.90054" lon="1.98424">
        <ele>96.682405</ele>
        <time>2021-12-04T17:01:51.754Z</time>
      </trkpt>
      <trkpt lat="47.89984" lon="1.98591">
        <ele>97.062214</ele>
        <time>2021-12-04T17:02:45.500Z</time>
      </trkpt>
      <trkpt lat="47.8998" lon="1.98602">
        <ele>97.08648</ele>
        <time>2021-12-04T17:02:48.586Z</time>
      </trkpt>
      <trkpt lat="47.89968" lon="1.98628">
        <ele>97.146324</ele>
        <time>2021-12-04T17:02:56.265Z</time>
      </trkpt>
      <trkpt lat="47.89965" lon="1.98625">
        <ele>97.157743</ele>
        <time>2021-12-04T17:02:57.158Z</time>
      </trkpt>
      <trkpt lat="47.89952" lon="1.98613">
        <ele>97.172792</ele>
        <time>2021-12-04T17:03:00.292Z</time>
      </trkpt>
      <trkpt lat="47.89948" lon="1.9861">
        <ele>97.163635</ele>
        <time>2021-12-04T17:03:01.317Z</time>
      </trkpt>
      <trkpt lat="47.8991" lon="1.98589">
        <ele>97.084937</ele>
        <time>2021-12-04T17:03:10.137Z</time>
      </trkpt>
      <trkpt lat="47.89906" lon="1.98541">
        <ele>97.022293</ele>
        <time>2021-12-04T17:03:17.590Z</time>
      </trkpt>
      <trkpt lat="47.89902" lon="1.98541">
        <ele>97.014151</ele>
        <time>2021-12-04T17:03:18.594Z</time>
      </trkpt>
      <trkpt lat="47.89888" lon="1.98541">
        <ele>96.987782</ele>
        <time>2021-12-04T17:03:21.850Z</time>
      </trkpt>
      <trkpt lat="47.8989" lon="1.98603">
        <ele>96.906526</ele>
        <time>2021-12-04T17:03:32.192Z</time>
      </trkpt>
      <trkpt lat="47.89884" lon="1.98606">
        <ele>96.894538</ele>
        <time>2021-12-04T17:03:33.622Z</time>
      </trkpt>
      <trkpt lat="47.89839" lon="1.98901">
        <ele>97.320743</ele>
        <time>2021-12-04T17:04:53.984Z</time>
      </trkpt>
      <trkpt lat="47.89814" lon="1.99065">
        <ele>98.016524</ele>
        <time>2021-12-04T17:05:41.815Z</time>
      </trkpt>
      <trkpt lat="47.89814" lon="1.99069">
        <ele>98.037426</ele>
        <time>2021-12-04T17:05:42.799Z</time>
      </trkpt>
      <trkpt lat="47.89811" lon="1.99091">
        <ele>98.131056</ele>
        <time>2021-12-04T17:05:49.051Z</time>
      </trkpt>
      <trkpt lat="47.8981" lon="1.99097">
        <ele>98.160782</ele>
        <time>2021-12-04T17:05:51.032Z</time>
      </trkpt>
      <trkpt lat="47.89763" lon="1.99371">
        <ele>99.118271</ele>
        <time>2021-12-04T17:07:09.464Z</time>
      </trkpt>
      <trkpt lat="47.89686" lon="1.99653">
        <ele>99.419906</ele>
        <time>2021-12-04T17:08:28.800Z</time>
      </trkpt>
      <trkpt lat="47.89594" lon="1.99891">
        <ele>99.04781</ele>
        <time>2021-12-04T17:09:37.897Z</time>
      </trkpt>
      <trkpt lat="47.8955" lon="2.00026">
        <ele>98.332249</ele>
        <time>2021-12-04T17:10:14.146Z</time>
      </trkpt>
      <trkpt lat="47.89532" lon="2.00062">
        <ele>98.093332</ele>
        <time>2021-12-04T17:10:24.540Z</time>
      </trkpt>
      <trkpt lat="47.89512" lon="2.00084">
        <ele>97.899875</ele>
        <time>2021-12-04T17:10:33.086Z</time>
      </trkpt>
      <trkpt lat="47.8951" lon="2.00087">
        <ele>97.876317</ele>
        <time>2021-12-04T17:10:34.161Z</time>
      </trkpt>
      <trkpt lat="47.89498" lon="2.00112">
        <ele>97.709926</ele>
        <time>2021-12-04T17:10:41.353Z</time>
      </trkpt>
      <trkpt lat="47.89455" lon="2.00169">
        <ele>97.469372</ele>
        <time>2021-12-04T17:11:01.884Z</time>
      </trkpt>
      <trkpt lat="47.89431" lon="2.0022">
        <ele>97.351533</ele>
        <time>2021-12-04T17:11:16.875Z</time>
      </trkpt>
      <trkpt lat="47.89413" lon="2.00267">
        <ele>97.24937</ele>
        <time>2021-12-04T17:11:30.184Z</time>
      </trkpt>
      <trkpt lat="47.89396" lon="2.00347">
        <ele>97.091175</ele>
        <time>2021-12-04T17:11:52.047Z</time>
      </trkpt>
      <trkpt lat="47.89363" lon="2.00755">
        <ele>98.60833</ele>
        <time>2021-12-04T17:13:50.276Z</time>
      </trkpt>
      <trkpt lat="47.89341" lon="2.0096">
        <ele>98.627915</ele>
        <time>2021-12-04T17:14:41.998Z</time>
      </trkpt>
      <trkpt lat="47.89267" lon="2.01325">
        <ele>97.70164</ele>
        <time>2021-12-04T17:16:15.430Z</time>
      </trkpt>
      <trkpt lat="47.8919" lon="2.01767">
        <ele>97.612417</ele>
        <time>2021-12-04T17:18:13.189Z</time>
      </trkpt>
      <trkpt lat="47.89158" lon="2.01998">
        <ele>97.663894</ele>
        <time>2021-12-04T17:19:13.964Z</time>
      </trkpt>
      <trkpt lat="47.89147" lon="2.02056">
        <ele>97.663058</ele>
        <time>2021-12-04T17:19:29.420Z</time>
      </trkpt>
      <trkpt lat="47.89114" lon="2.0218">
        <ele>97.663714</ele>
        <time>2021-12-04T17:20:03.101Z</time>
      </trkpt>
      <trkpt lat="47.89038" lon="2.02431">
        <ele>97.954012</ele>
        <time>2021-12-04T17:21:15.500Z</time>
      </trkpt>
      <trkpt lat="47.89037" lon="2.02451">
        <ele>97.992657</ele>
        <time>2021-12-04T17:21:20.781Z</time>
      </trkpt>
      <trkpt lat="47.89045" lon="2.02514">
        <ele>98.12068</ele>
        <time>2021-12-04T17:21:38.225Z</time>
      </trkpt>
      <trkpt lat="47.89062" lon="2.02643">
        <ele>98.38174</ele>
        <time>2021-12-04T17:22:13.587Z</time>
      </trkpt>
      <trkpt lat="47.89059" lon="2.02683">
        <ele>98.461693</ele>
        <time>2021-12-04T17:22:24.568Z</time>
      </trkpt>
      <trkpt lat="47.89065" lon="2.0272">
        <ele>98.489289</ele>
        <time>2021-12-04T17:22:34.532Z</time>
      </trkpt>
      <trkpt lat="47.8907" lon="2.0277">
        <ele>98.520955</ele>
        <time>2021-12-04T17:22:47.347Z</time>
      </trkpt>
      <trkpt lat="47.89074" lon="2.02935">
        <ele>98.624814</ele>
        <time>2021-12-04T17:23:30.209Z</time>
      </trkpt>
      <trkpt lat="47.89094" lon="2.03046">
        <ele>98.671344</ele>
        <time>2021-12-04T17:23:59.856Z</time>
      </trkpt>
      <trkpt lat="47.89161" lon="2.03532">
        <ele>98.932047</ele>
        <time>2021-12-04T17:26:07.289Z</time>
      </trkpt>
      <trkpt lat="47.89164" lon="2.03579">
        <ele>99.032762</ele>
        <time>2021-12-04T17:26:19.923Z</time>
      </trkpt>
      <trkpt lat="47.89159" lon="2.03791">
        <ele>99.558171</ele>
        <time>2021-12-04T17:27:17.973Z</time>
      </trkpt>
      <trkpt lat="47.89181" lon="2.03934">
        <ele>100.093417</ele>
        <time>2021-12-04T17:27:58.862Z</time>
      </trkpt>
      <trkpt lat="47.89202" lon="2.04123">
        <ele>100.532207</ele>
        <time>2021-12-04T17:28:51.912Z</time>
      </trkpt>
      <trkpt lat="47.89204" lon="2.04139">
        <ele>100.554795</ele>
        <time>2021-12-04T17:28:54.732Z</time>
      </trkpt>
      <trkpt lat="47.89206" lon="2.04186">
        <ele>100.622333</ele>
        <time>2021-12-04T17:29:07.186Z</time>
      </trkpt>
      <trkpt lat="47.89232" lon="2.04313">
        <ele>100.618631</ele>
        <time>2021-12-04T17:29:40.669Z</time>
      </trkpt>
      <trkpt lat="47.89249" lon="2.04354">
        <ele>100.48524</ele>
        <time>2021-12-04T17:29:52.577Z</time>
      </trkpt>
      <trkpt lat="47.89259" lon="2.04396">
        <ele>100.362364</ele>
        <time>2021-12-04T17:30:03.412Z</time>
      </trkpt>
      <trkpt lat="47.89207" lon="2.04833">
        <ele>99.14308</ele>
        <time>2021-12-04T17:31:51.552Z</time>
      </trkpt>
      <trkpt lat="47.89208" lon="2.05164">
        <ele>99.858848</ele>
        <time>2021-12-04T17:33:22.189Z</time>
      </trkpt>
      <trkpt lat="47.8921" lon="2.05211">
        <ele>100.026196</ele>
        <time>2021-12-04T17:33:35.355Z</time>
      </trkpt>
      <trkpt lat="47.89238" lon="2.0526">
        <ele>100.257277</ele>
        <time>2021-12-04T17:33:53.674Z</time>
      </trkpt>
      <trkpt lat="47.8927" lon="2.05341">
        <ele>100.526228</ele>
        <time>2021-12-04T17:34:19.419Z</time>
      </trkpt>
      <trkpt lat="47.89298" lon="2.05399">
        <ele>100.681477</ele>
        <time>2021-12-04T17:34:38.949Z</time>
      </trkpt>
      <trkpt lat="47.89332" lon="2.05443">
        <ele>100.827916</ele>
        <time>2021-12-04T17:34:57.038Z</time>
      </trkpt>
      <trkpt lat="47.89414" lon="2.05639">
        <ele>101.153382</ele>
        <time>2021-12-04T17:35:57.660Z</time>
      </trkpt>
      <trkpt lat="47.89449" lon="2.05814">
        <ele>101.295477</ele>
        <time>2021-12-04T17:36:44.955Z</time>
      </trkpt>
      <trkpt lat="47.89459" lon="2.0589">
        <ele>101.323604</ele>
        <time>2021-12-04T17:37:05.147Z</time>
      </trkpt>
      <trkpt lat="47.8948" lon="2.05988">
        <ele>101.360814</ele>
        <time>2021-12-04T17:37:31.685Z</time>
      </trkpt>
      <trkpt lat="47.89523" lon="2.06136">
        <ele>101.359784</ele>
        <time>2021-12-04T17:38:12.559Z</time>
      </trkpt>
      <trkpt lat="47.89574" lon="2.06299">
        <ele>101.474657</ele>
        <time>2021-12-04T17:38:58.559Z</time>
      </trkpt>
      <trkpt lat="47.89721" lon="2.06565">
        <ele>102.412137</ele>
        <time>2021-12-04T17:40:33.703Z</time>
      </trkpt>
      <trkpt lat="47.89858" lon="2.06876">
        <ele>103.058579</ele>
        <time>2021-12-04T17:42:13.578Z</time>
      </trkpt>
      <trkpt lat="47.89968" lon="2.07149">
        <ele>102.446113</ele>
        <time>2021-12-04T17:43:32.137Z</time>
      </trkpt>
      <trkpt lat="47.90015" lon="2.07246">
        <ele>102.567506</ele>
        <time>2021-12-04T17:44:01.825Z</time>
      </trkpt>
      <trkpt lat="47.90022" lon="2.07259">
        <ele>102.583777</ele>
        <time>2021-12-04T17:44:04.336Z</time>
      </trkpt>
      <trkpt lat="47.90117" lon="2.07638">
        <ele>104.030566</ele>
        <time>2021-12-04T17:45:59.565Z</time>
      </trkpt>
      <trkpt lat="47.90223" lon="2.08088">
        <ele>105.382712</ele>
        <time>2021-12-04T17:48:10.858Z</time>
      </trkpt>
      <trkpt lat="47.90273" lon="2.0824">
        <ele>105.145334</ele>
        <time>2021-12-04T17:48:53.383Z</time>
      </trkpt>
      <trkpt lat="47.90355" lon="2.0855">
        <ele>104.016427</ele>
        <time>2021-12-04T17:50:13.935Z</time>
      </trkpt>
      <trkpt lat="47.90507" lon="2.08822">
        <ele>103.035395</ele>
        <time>2021-12-04T17:51:41.492Z</time>
      </trkpt>
      <trkpt lat="47.90559" lon="2.08931">
        <ele>102.776179</ele>
        <time>2021-12-04T17:52:14.699Z</time>
      </trkpt>
      <trkpt lat="47.90571" lon="2.08986">
        <ele>102.663015</ele>
        <time>2021-12-04T17:52:29.165Z</time>
      </trkpt>
      <trkpt lat="47.907" lon="2.09308">
        <ele>101.84476</ele>
        <time>2021-12-04T17:54:02.142Z</time>
      </trkpt>
      <trkpt lat="47.90703" lon="2.09315">
        <ele>101.830929</ele>
        <time>2021-12-04T17:54:03.374Z</time>
      </trkpt>
      <trkpt lat="47.90901" lon="2.0981">
        <ele>101.169258</ele>
        <time>2021-12-04T17:56:27.595Z</time>
      </trkpt>
      <trkpt lat="47.90928" lon="2.09865">
        <ele>101.267557</ele>
        <time>2021-12-04T17:56:45.686Z</time>
      </trkpt>
      <trkpt lat="47.90967" lon="2.09925">
        <ele>101.391612</ele>
        <time>2021-12-04T17:57:09.092Z</time>
      </trkpt>
      <trkpt lat="47.91071" lon="2.10007">
        <ele>101.864343</ele>
        <time>2021-12-04T17:57:58.152Z</time>
      </trkpt>
      <trkpt lat="47.91313" lon="2.1008">
        <ele>102.706324</ele>
        <time>2021-12-04T17:59:36.214Z</time>
      </trkpt>
      <trkpt lat="47.91338" lon="2.10127">
        <ele>102.836995</ele>
        <time>2021-12-04T17:59:52.583Z</time>
      </trkpt>
      <trkpt lat="47.91459" lon="2.10315">
        <ele>103.398898</ele>
        <time>2021-12-04T18:01:02.968Z</time>
      </trkpt>
      <trkpt lat="47.91578" lon="2.10546">
        <ele>103.647615</ele>
        <time>2021-12-04T18:02:18.081Z</time>
      </trkpt>
      <trkpt lat="47.91797" lon="2.10992">
        <ele>104.267639</ele>
        <time>2021-12-04T18:04:43.438Z</time>
      </trkpt>
      <trkpt lat="47.91869" lon="2.11145">
        <ele>104.417705</ele>
        <time>2021-12-04T18:05:32.558Z</time>
      </trkpt>
      <trkpt lat="47.91955" lon="2.11298">
        <ele>104.187918</ele>
        <time>2021-12-04T18:06:22.882Z</time>
      </trkpt>
      <trkpt lat="47.92026" lon="2.11406">
        <ele>103.993909</ele>
        <time>2021-12-04T18:07:00.387Z</time>
      </trkpt>
      <trkpt lat="47.92088" lon="2.11535">
        <ele>103.800784</ele>
        <time>2021-12-04T18:07:39.666Z</time>
      </trkpt>
      <trkpt lat="47.92207" lon="2.11882">
        <ele>104.322836</ele>
        <time>2021-12-04T18:09:24.098Z</time>
      </trkpt>
      <trkpt lat="47.92224" lon="2.11952">
        <ele>104.412826</ele>
        <time>2021-12-04T18:09:43.140Z</time>
      </trkpt>
      <trkpt lat="47.92246" lon="2.12173">
        <ele>104.56899</ele>
        <time>2021-12-04T18:10:41.756Z</time>
      </trkpt>
      <trkpt lat="47.92247" lon="2.12186">
        <ele>104.570911</ele>
        <time>2021-12-04T18:10:45.364Z</time>
      </trkpt>
      <trkpt lat="47.9225" lon="2.12214">
        <ele>104.574802</ele>
        <time>2021-12-04T18:10:52.503Z</time>
      </trkpt>
      <trkpt lat="47.92289" lon="2.1265">
        <ele>104.216933</ele>
        <time>2021-12-04T18:12:43.587Z</time>
      </trkpt>
      <trkpt lat="47.92305" lon="2.12794">
        <ele>103.915306</ele>
        <time>2021-12-04T18:13:19.546Z</time>
      </trkpt>
      <trkpt lat="47.92324" lon="2.12865">
        <ele>103.77527</ele>
        <time>2021-12-04T18:13:38.439Z</time>
      </trkpt>
      <trkpt lat="47.92368" lon="2.12963">
        <ele>103.806197</ele>
        <time>2021-12-04T18:14:08.049Z</time>
      </trkpt>
      <trkpt lat="47.92641" lon="2.13475">
        <ele>104.115843</ele>
        <time>2021-12-04T18:16:58.612Z</time>
      </trkpt>
      <trkpt lat="47.92787" lon="2.13753">
        <ele>104.44308</ele>
        <time>2021-12-04T18:18:31.401Z</time>
      </trkpt>
      <trkpt lat="47.92837" lon="2.1383">
        <ele>104.465354</ele>
        <time>2021-12-04T18:18:58.829Z</time>
      </trkpt>
      <trkpt lat="47.92933" lon="2.13928">
        <ele>104.480276</ele>
        <time>2021-12-04T18:19:42.595Z</time>
      </trkpt>
      <trkpt lat="47.92935" lon="2.1393">
        <ele>104.479949</ele>
        <time>2021-12-04T18:19:43.294Z</time>
      </trkpt>
      <trkpt lat="47.92937" lon="2.13932">
        <ele>104.479586</ele>
        <time>2021-12-04T18:19:44.126Z</time>
      </trkpt>
      <trkpt lat="47.9302" lon="2.14008">
        <ele>104.466675</ele>
        <time>2021-12-04T18:20:20.935Z</time>
      </trkpt>
      <trkpt lat="47.93121" lon="2.14125">
        <ele>104.722247</ele>
        <time>2021-12-04T18:21:10.815Z</time>
      </trkpt>
      <trkpt lat="47.9317" lon="2.14209">
        <ele>104.92026</ele>
        <time>2021-12-04T18:21:41.306Z</time>
      </trkpt>
      <trkpt lat="47.93233" lon="2.14307">
        <ele>105.284668</ele>
        <time>2021-12-04T18:22:18.393Z</time>
      </trkpt>
      <trkpt lat="47.93348" lon="2.14556">
        <ele>106.020927</ele>
        <time>2021-12-04T18:23:40.118Z</time>
      </trkpt>
      <trkpt lat="47.93393" lon="2.14659">
        <ele>106.269428</ele>
        <time>2021-12-04T18:24:13.114Z</time>
      </trkpt>
      <trkpt lat="47.93441" lon="2.1474">
        <ele>106.35755</ele>
        <time>2021-12-04T18:24:41.248Z</time>
      </trkpt>
      <trkpt lat="47.93529" lon="2.14808">
        <ele>106.479376</ele>
        <time>2021-12-04T18:25:19.554Z</time>
      </trkpt>
      <trkpt lat="47.93535" lon="2.14814">
        <ele>106.489613</ele>
        <time>2021-12-04T18:25:21.139Z</time>
      </trkpt>
      <trkpt lat="47.93583" lon="2.1489">
        <ele>106.597962</ele>
        <time>2021-12-04T18:25:48.227Z</time>
      </trkpt>
      <trkpt lat="47.93689" lon="2.15143">
        <ele>107.054943</ele>
        <time>2021-12-04T18:27:07.550Z</time>
      </trkpt>
      <trkpt lat="47.93691" lon="2.15141">
        <ele>107.064502</ele>
        <time>2021-12-04T18:27:08.339Z</time>
      </trkpt>
      <trkpt lat="47.93705" lon="2.1513">
        <ele>107.111129</ele>
        <time>2021-12-04T18:27:12.165Z</time>
      </trkpt>
      <trkpt lat="47.93711" lon="2.15124">
        <ele>107.134844</ele>
        <time>2021-12-04T18:27:14.065Z</time>
      </trkpt>
      <trkpt lat="47.93712" lon="2.15151">
        <ele>107.189111</ele>
        <time>2021-12-04T18:27:19.163Z</time>
      </trkpt>
      <trkpt lat="47.93744" lon="2.15225">
        <ele>107.306762</ele>
        <time>2021-12-04T18:27:35.688Z</time>
      </trkpt>
      <trkpt lat="47.93751" lon="2.15264">
        <ele>107.305175</ele>
        <time>2021-12-04T18:27:42.978Z</time>
      </trkpt>
      <trkpt lat="47.93751" lon="2.15442">
        <ele>107.29815</ele>
        <time>2021-12-04T18:28:13.370Z</time>
      </trkpt>
      <trkpt lat="47.93739" lon="2.15628">
        <ele>106.879961</ele>
        <time>2021-12-04T18:28:43.851Z</time>
      </trkpt>
      <trkpt lat="47.93745" lon="2.15851">
        <ele>106.502671</ele>
        <time>2021-12-04T18:29:20.311Z</time>
      </trkpt>
      <trkpt lat="47.9374" lon="2.15959">
        <ele>106.390226</ele>
        <time>2021-12-04T18:29:38.771Z</time>
      </trkpt>
      <trkpt lat="47.93718" lon="2.16078">
        <ele>106.492424</ele>
        <time>2021-12-04T18:30:00.719Z</time>
      </trkpt>
      <trkpt lat="47.93624" lon="2.16421">
        <ele>107.067206</ele>
        <time>2021-12-04T18:31:08.888Z</time>
      </trkpt>
      <trkpt lat="47.93615" lon="2.16498">
        <ele>107.181713</ele>
        <time>2021-12-04T18:31:22.595Z</time>
      </trkpt>
      <trkpt lat="47.93612" lon="2.16589">
        <ele>107.162427</ele>
        <time>2021-12-04T18:31:38.227Z</time>
      </trkpt>
      <trkpt lat="47.93614" lon="2.16693">
        <ele>107.13618</ele>
        <time>2021-12-04T18:31:55.828Z</time>
      </trkpt>
      <trkpt lat="47.93628" lon="2.16837">
        <ele>107.185878</ele>
        <time>2021-12-04T18:32:20.631Z</time>
      </trkpt>
      <trkpt lat="47.93717" lon="2.17165">
        <ele>107.849448</ele>
        <time>2021-12-04T18:33:24.856Z</time>
      </trkpt>
      <trkpt lat="47.93743" lon="2.17374">
        <ele>108.63163</ele>
        <time>2021-12-04T18:34:07.581Z</time>
      </trkpt>
      <trkpt lat="47.93737" lon="2.17402">
        <ele>108.758452</ele>
        <time>2021-12-04T18:34:13.725Z</time>
      </trkpt>
      <trkpt lat="47.93734" lon="2.17438">
        <ele>108.917488</ele>
        <time>2021-12-04T18:34:20.632Z</time>
      </trkpt>
      <trkpt lat="47.93742" lon="2.17515">
        <ele>109.26397</ele>
        <time>2021-12-04T18:34:36.188Z</time>
      </trkpt>
      <trkpt lat="47.9374" lon="2.17622">
        <ele>109.520783</ele>
        <time>2021-12-04T18:34:56.507Z</time>
      </trkpt>
      <trkpt lat="47.93733" lon="2.17696">
        <ele>109.653846</ele>
        <time>2021-12-04T18:35:09.575Z</time>
      </trkpt>
      <trkpt lat="47.93649" lon="2.18117">
        <ele>110.344194</ele>
        <time>2021-12-04T18:36:28.621Z</time>
      </trkpt>
      <trkpt lat="47.93574" lon="2.18729">
        <ele>111.398548</ele>
        <time>2021-12-04T18:38:23.279Z</time>
      </trkpt>
      <trkpt lat="47.93561" lon="2.18794">
        <ele>111.444922</ele>
        <time>2021-12-04T18:38:34.863Z</time>
      </trkpt>
      <trkpt lat="47.93547" lon="2.18835">
        <ele>111.475614</ele>
        <time>2021-12-04T18:38:42.522Z</time>
      </trkpt>
      <trkpt lat="47.9351" lon="2.18901">
        <ele>111.51404</ele>
        <time>2021-12-04T18:38:57.130Z</time>
      </trkpt>
      <trkpt lat="47.9334" lon="2.19064">
        <ele>111.596392</ele>
        <time>2021-12-04T18:39:50.850Z</time>
      </trkpt>
      <trkpt lat="47.9329" lon="2.19141">
        <ele>111.6003</ele>
        <time>2021-12-04T18:40:09.838Z</time>
      </trkpt>
      <trkpt lat="47.93087" lon="2.19618">
        <ele>110.398004</ele>
        <time>2021-12-04T18:41:41.793Z</time>
      </trkpt>
      <trkpt lat="47.93069" lon="2.19719">
        <ele>110.628659</ele>
        <time>2021-12-04T18:42:00.597Z</time>
      </trkpt>
      <trkpt lat="47.93064" lon="2.19719">
        <ele>110.656605</ele>
        <time>2021-12-04T18:42:01.982Z</time>
      </trkpt>
      <trkpt lat="47.93046" lon="2.1972">
        <ele>110.751239</ele>
        <time>2021-12-04T18:42:06.308Z</time>
      </trkpt>
      <trkpt lat="47.93042" lon="2.1972">
        <ele>110.770049</ele>
        <time>2021-12-04T18:42:07.070Z</time>
      </trkpt>
      <trkpt lat="47.93048" lon="2.19759">
        <ele>110.913348</ele>
        <time>2021-12-04T18:42:18.703Z</time>
      </trkpt>
      <trkpt lat="47.93043" lon="2.1979">
        <ele>111.027018</ele>
        <time>2021-12-04T18:42:27.603Z</time>
      </trkpt>
      <trkpt lat="47.9305" lon="2.19858">
        <ele>111.272324</ele>
        <time>2021-12-04T18:42:47.488Z</time>
      </trkpt>
      <trkpt lat="47.93087" lon="2.20026">
        <ele>112.04967</ele>
        <time>2021-12-04T18:43:39.567Z</time>
      </trkpt>
      <trkpt lat="47.93099" lon="2.20104">
        <ele>112.40893</ele>
        <time>2021-12-04T18:44:01.397Z</time>
      </trkpt>
      <trkpt lat="47.93095" lon="2.20157">
        <ele>112.482331</ele>
        <time>2021-12-04T18:44:15.297Z</time>
      </trkpt>
      <trkpt lat="47.93033" lon="2.20524">
        <ele>112.305802</ele>
        <time>2021-12-04T18:45:50.099Z</time>
      </trkpt>
      <trkpt lat="47.93045" lon="2.20635">
        <ele>112.321619</ele>
        <time>2021-12-04T18:46:19.657Z</time>
      </trkpt>
      <trkpt lat="47.93126" lon="2.21012">
        <ele>113.188072</ele>
        <time>2021-12-04T18:48:08.956Z</time>
      </trkpt>
      <trkpt lat="47.93201" lon="2.21176">
        <ele>113.030432</ele>
        <time>2021-12-04T18:48:58.095Z</time>
      </trkpt>
      <trkpt lat="47.93232" lon="2.21275">
        <ele>112.658658</ele>
        <time>2021-12-04T18:49:24.359Z</time>
      </trkpt>
      <trkpt lat="47.93257" lon="2.21389">
        <ele>112.263426</ele>
        <time>2021-12-04T18:49:53.451Z</time>
      </trkpt>
      <trkpt lat="47.9336" lon="2.22189">
        <ele>112.653596</ele>
        <time>2021-12-04T18:53:23.604Z</time>
      </trkpt>
      <trkpt lat="47.93399" lon="2.22582">
        <ele>114.143</ele>
        <time>2021-12-04T18:55:16.103Z</time>
      </trkpt>
      <trkpt lat="47.93414" lon="2.22698">
        <ele>114.547029</ele>
        <time>2021-12-04T18:55:48.160Z</time>
      </trkpt>
      <trkpt lat="47.93439" lon="2.22843">
        <ele>114.693381</ele>
        <time>2021-12-04T18:56:27.286Z</time>
      </trkpt>
      <trkpt lat="47.93481" lon="2.23155">
        <ele>114.877901</ele>
        <time>2021-12-04T18:57:48.961Z</time>
      </trkpt>
      <trkpt lat="47.93492" lon="2.23304">
        <ele>114.986543</ele>
        <time>2021-12-04T18:58:28.185Z</time>
      </trkpt>
      <trkpt lat="47.93474" lon="2.237">
        <ele>115.342746</ele>
        <time>2021-12-04T19:00:11.845Z</time>
      </trkpt>
      <trkpt lat="47.93481" lon="2.2386">
        <ele>115.394609</ele>
        <time>2021-12-04T19:00:53.235Z</time>
      </trkpt>
      <trkpt lat="47.93506" lon="2.24211">
        <ele>115.334708</ele>
        <time>2021-12-04T19:02:23.352Z</time>
      </trkpt>
      <trkpt lat="47.9354" lon="2.24494">
        <ele>115.099297</ele>
        <time>2021-12-04T19:03:35.498Z</time>
      </trkpt>
      <trkpt lat="47.93582" lon="2.24776">
        <ele>114.854242</ele>
        <time>2021-12-04T19:04:48.271Z</time>
      </trkpt>
      <trkpt lat="47.93594" lon="2.24969">
        <ele>114.861614</ele>
        <time>2021-12-04T19:05:37.928Z</time>
      </trkpt>
      <trkpt lat="47.9361" lon="2.2533">
        <ele>115.057137</ele>
        <time>2021-12-04T19:07:12.341Z</time>
      </trkpt>
      <trkpt lat="47.93609" lon="2.2542">
        <ele>115.064717</ele>
        <time>2021-12-04T19:07:35.375Z</time>
      </trkpt>
      <trkpt lat="47.93595" lon="2.25615">
        <ele>115.017137</ele>
        <time>2021-12-04T19:08:25.184Z</time>
      </trkpt>
      <trkpt lat="47.93587" lon="2.25931">
        <ele>115.013155</ele>
        <time>2021-12-04T19:09:45.705Z</time>
      </trkpt>
      <trkpt lat="47.9358" lon="2.26243">
        <ele>115.069169</ele>
        <time>2021-12-04T19:11:05.947Z</time>
      </trkpt>
      <trkpt lat="47.93588" lon="2.26314">
        <ele>115.073202</ele>
        <time>2021-12-04T19:11:24.132Z</time>
      </trkpt>
      <trkpt lat="47.93606" lon="2.26388">
        <ele>115.07762</ele>
        <time>2021-12-04T19:11:43.968Z</time>
      </trkpt>
      <trkpt lat="47.93652" lon="2.26595">
        <ele>115.752282</ele>
        <time>2021-12-04T19:12:41.682Z</time>
      </trkpt>
      <trkpt lat="47.93676" lon="2.26684">
        <ele>116.139609</ele>
        <time>2021-12-04T19:13:10.197Z</time>
      </trkpt>
      <trkpt lat="47.93696" lon="2.26736">
        <ele>116.883262</ele>
        <time>2021-12-04T19:13:29.283Z</time>
      </trkpt>
      <trkpt lat="47.93709" lon="2.26797">
        <ele>117.668575</ele>
        <time>2021-12-04T19:13:50.661Z</time>
      </trkpt>
      <trkpt lat="47.93766" lon="2.26899">
        <ele>119.296248</ele>
        <time>2021-12-04T19:14:36.625Z</time>
      </trkpt>
      <trkpt lat="47.93767" lon="2.269">
        <ele>119.316695</ele>
        <time>2021-12-04T19:14:37.215Z</time>
      </trkpt>
      <trkpt lat="47.93837" lon="2.27023">
        <ele>120.513859</ele>
        <time>2021-12-04T19:15:28.502Z</time>
      </trkpt>
      <trkpt lat="47.93918" lon="2.27208">
        <ele>120.915947</ele>
        <time>2021-12-04T19:16:26.904Z</time>
      </trkpt>
      <trkpt lat="47.94123" lon="2.27729">
        <ele>118.428475</ele>
        <time>2021-12-04T19:18:51.251Z</time>
      </trkpt>
      <trkpt lat="47.94131" lon="2.2778">
        <ele>118.188944</ele>
        <time>2021-12-04T19:19:04.049Z</time>
      </trkpt>
      <trkpt lat="47.94115" lon="2.27858">
        <ele>117.956795</ele>
        <time>2021-12-04T19:19:23.983Z</time>
      </trkpt>
      <trkpt lat="47.94117" lon="2.27883">
        <ele>117.92853</ele>
        <time>2021-12-04T19:19:30.269Z</time>
      </trkpt>
      <trkpt lat="47.94142" lon="2.27934">
        <ele>117.858158</ele>
        <time>2021-12-04T19:19:45.966Z</time>
      </trkpt>
      <trkpt lat="47.94262" lon="2.28124">
        <ele>118.043296</ele>
        <time>2021-12-04T19:20:52.700Z</time>
      </trkpt>
      <trkpt lat="47.94362" lon="2.28279">
        <ele>119.211686</ele>
        <time>2021-12-04T19:21:53.938Z</time>
      </trkpt>
      <trkpt lat="47.94439" lon="2.28334">
        <ele>120.636698</ele>
        <time>2021-12-04T19:22:36.432Z</time>
      </trkpt>
      <trkpt lat="47.94545" lon="2.28405">
        <ele>122.668184</ele>
        <time>2021-12-04T19:23:35.906Z</time>
      </trkpt>
      <trkpt lat="47.94567" lon="2.28414">
        <ele>123.083175</ele>
        <time>2021-12-04T19:23:47.321Z</time>
      </trkpt>
      <trkpt lat="47.94647" lon="2.28418">
        <ele>124.512827</ele>
        <time>2021-12-04T19:24:25.961Z</time>
      </trkpt>
      <trkpt lat="47.94674" lon="2.28428">
        <ele>124.856982</ele>
        <time>2021-12-04T19:24:38.754Z</time>
      </trkpt>
      <trkpt lat="47.94809" lon="2.28522">
        <ele>126.204316</ele>
        <time>2021-12-04T19:25:43.139Z</time>
      </trkpt>
      <trkpt lat="47.94839" lon="2.28555">
        <ele>126.371066</ele>
        <time>2021-12-04T19:25:58.754Z</time>
      </trkpt>
      <trkpt lat="47.95012" lon="2.28704">
        <ele>126.461533</ele>
        <time>2021-12-04T19:27:16.347Z</time>
      </trkpt>
      <trkpt lat="47.9529" lon="2.28993">
        <ele>124.074225</ele>
        <time>2021-12-04T19:29:16.810Z</time>
      </trkpt>
      <trkpt lat="47.95337" lon="2.29032">
        <ele>123.671188</ele>
        <time>2021-12-04T19:29:35.670Z</time>
      </trkpt>
      <trkpt lat="47.95379" lon="2.29083">
        <ele>123.267327</ele>
        <time>2021-12-04T19:29:54.924Z</time>
      </trkpt>
      <trkpt lat="47.9542" lon="2.29118">
        <ele>122.917257</ele>
        <time>2021-12-04T19:30:12.031Z</time>
      </trkpt>
      <trkpt lat="47.95463" lon="2.29168">
        <ele>123.114423</ele>
        <time>2021-12-04T19:30:32.646Z</time>
      </trkpt>
      <trkpt lat="47.95506" lon="2.29262">
        <ele>123.417336</ele>
        <time>2021-12-04T19:31:04.523Z</time>
      </trkpt>
      <trkpt lat="47.95533" lon="2.29393">
        <ele>123.77985</ele>
        <time>2021-12-04T19:31:44.164Z</time>
      </trkpt>
      <trkpt lat="47.9576" lon="2.30482">
        <ele>126.541436</ele>
        <time>2021-12-04T19:36:51.552Z</time>
      </trkpt>
      <trkpt lat="47.95762" lon="2.30481">
        <ele>126.545672</ele>
        <time>2021-12-04T19:36:52.116Z</time>
      </trkpt>
      <trkpt lat="47.95779" lon="2.30478">
        <ele>126.573043</ele>
        <time>2021-12-04T19:36:55.824Z</time>
      </trkpt>
      <trkpt lat="47.95819" lon="2.30469">
        <ele>126.641516</ele>
        <time>2021-12-04T19:37:05.224Z</time>
      </trkpt>
      <trkpt lat="47.95966" lon="2.30437">
        <ele>126.995044</ele>
        <time>2021-12-04T19:37:39.591Z</time>
      </trkpt>
      <trkpt lat="47.96031" lon="2.30424">
        <ele>127.168171</ele>
        <time>2021-12-04T19:37:56.869Z</time>
      </trkpt>
      <trkpt lat="47.96061" lon="2.30419">
        <ele>127.460381</ele>
        <time>2021-12-04T19:38:05.088Z</time>
      </trkpt>
      <trkpt lat="47.96288" lon="2.30373">
        <ele>129.944723</ele>
        <time>2021-12-04T19:39:12.662Z</time>
      </trkpt>
      <trkpt lat="47.96317" lon="2.3037">
        <ele>130.317577</ele>
        <time>2021-12-04T19:39:21.890Z</time>
      </trkpt>
      <trkpt lat="47.96424" lon="2.30398">
        <ele>131.804174</ele>
        <time>2021-12-04T19:39:56.065Z</time>
      </trkpt>
      <trkpt lat="47.96459" lon="2.30418">
        <ele>132.406148</ele>
        <time>2021-12-04T19:40:08.667Z</time>
      </trkpt>
      <trkpt lat="47.96506" lon="2.30457">
        <ele>133.24608</ele>
        <time>2021-12-04T19:40:26.273Z</time>
      </trkpt>
      <trkpt lat="47.96561" lon="2.30545">
        <ele>134.273341</ele>
        <time>2021-12-04T19:40:52.811Z</time>
      </trkpt>
      <trkpt lat="47.96594" lon="2.30598">
        <ele>134.609137</ele>
        <time>2021-12-04T19:41:07.024Z</time>
      </trkpt>
      <trkpt lat="47.96869" lon="2.30564">
        <ele>135.690175</ele>
        <time>2021-12-04T19:42:55.930Z</time>
      </trkpt>
      <trkpt lat="47.97318" lon="2.30524">
        <ele>135.472454</ele>
        <time>2021-12-04T19:45:52.290Z</time>
      </trkpt>
      <trkpt lat="47.97703" lon="2.30483">
        <ele>131.716603</ele>
        <time>2021-12-04T19:48:03.885Z</time>
      </trkpt>
      <trkpt lat="47.9785" lon="2.3047">
        <ele>132.698935</ele>
        <time>2021-12-04T19:49:01.664Z</time>
      </trkpt>
      <trkpt lat="47.98126" lon="2.30415">
        <ele>140.436232</ele>
        <time>2021-12-04T19:51:43.782Z</time>
      </trkpt>
      <trkpt lat="47.98612" lon="2.3032">
        <ele>154.733906</ele>
        <time>2021-12-04T19:56:08.353Z</time>
      </trkpt>
      <trkpt lat="47.98668" lon="2.30308">
        <ele>156.804847</ele>
        <time>2021-12-04T19:56:44.464Z</time>
      </trkpt>
      <trkpt lat="47.98688" lon="2.30304">
        <ele>157.711562</ele>
        <time>2021-12-04T19:56:57.815Z</time>
      </trkpt>
      <trkpt lat="47.98822" lon="2.30278">
        <ele>163.821699</ele>
        <time>2021-12-04T19:58:31.554Z</time>
      </trkpt>
      <trkpt lat="47.98835" lon="2.30276">
        <ele>164.442885</ele>
        <time>2021-12-04T19:58:40.329Z</time>
      </trkpt>
      <trkpt lat="47.99051" lon="2.30235">
        <ele>166.226388</ele>
        <time>2021-12-04T20:00:10.891Z</time>
      </trkpt>
      <trkpt lat="47.99287" lon="2.3019">
        <ele>164.969023</ele>
        <time>2021-12-04T20:01:33.077Z</time>
      </trkpt>
      <trkpt lat="47.99323" lon="2.30183">
        <ele>164.945626</ele>
        <time>2021-12-04T20:01:47.698Z</time>
      </trkpt>
      <trkpt lat="47.99494" lon="2.30147">
        <ele>165.453968</ele>
        <time>2021-12-04T20:03:06.531Z</time>
      </trkpt>
      <trkpt lat="47.99582" lon="2.30129">
        <ele>165.132933</ele>
        <time>2021-12-04T20:03:39.368Z</time>
      </trkpt>
      <trkpt lat="47.99801" lon="2.30084">
        <ele>159.7264</ele>
        <time>2021-12-04T20:04:48.516Z</time>
      </trkpt>
      <trkpt lat="48.00006" lon="2.30042">
        <ele>155.318956</ele>
        <time>2021-12-04T20:05:55.690Z</time>
      </trkpt>
      <trkpt lat="48.00256" lon="2.29991">
        <ele>151.849789</ele>
        <time>2021-12-04T20:07:23.615Z</time>
      </trkpt>
      <trkpt lat="48.00607" lon="2.29919">
        <ele>145.473823</ele>
        <time>2021-12-04T20:09:20.621Z</time>
      </trkpt>
      <trkpt lat="48.01222" lon="2.29792">
        <ele>140.578814</ele>
        <time>2021-12-04T20:13:03.051Z</time>
      </trkpt>
      <trkpt lat="48.01366" lon="2.3017">
        <ele>137.720521</ele>
        <time>2021-12-04T20:14:45.277Z</time>
      </trkpt>
      <trkpt lat="48.0144" lon="2.30299">
        <ele>136.506538</ele>
        <time>2021-12-04T20:15:24.568Z</time>
      </trkpt>
      <trkpt lat="48.01518" lon="2.30429">
        <ele>135.640819</ele>
        <time>2021-12-04T20:15:49.846Z</time>
      </trkpt>
      <trkpt lat="48.0171" lon="2.30183">
        <ele>135.383293</ele>
        <time>2021-12-04T20:17:26.565Z</time>
      </trkpt>
      <trkpt lat="48.01816" lon="2.30123">
        <ele>135.399237</ele>
        <time>2021-12-04T20:18:10.310Z</time>
      </trkpt>
      <trkpt lat="48.01977" lon="2.30328">
        <ele>135.261442</ele>
        <time>2021-12-04T20:18:58.753Z</time>
      </trkpt>
      <trkpt lat="48.021" lon="2.30353">
        <ele>135.006564</ele>
        <time>2021-12-04T20:19:26.221Z</time>
      </trkpt>
      <trkpt lat="48.02097" lon="2.30422">
        <ele>134.851125</ele>
        <time>2021-12-04T20:19:36.921Z</time>
      </trkpt>
      <trkpt lat="48.02101" lon="2.30492">
        <ele>134.69406</ele>
        <time>2021-12-04T20:19:47.707Z</time>
      </trkpt>
      <trkpt lat="48.02119" lon="2.30498">
        <ele>134.632375</ele>
        <time>2021-12-04T20:19:52.008Z</time>
      </trkpt>
      <trkpt lat="48.02141" lon="2.30524">
        <ele>134.53785</ele>
        <time>2021-12-04T20:19:58.475Z</time>
      </trkpt>
      <trkpt lat="48.02189" lon="2.30608">
        <ele>134.56887</ele>
        <time>2021-12-04T20:20:15.694Z</time>
      </trkpt>
      <trkpt lat="48.02215" lon="2.30639">
        <ele>134.610709</ele>
        <time>2021-12-04T20:20:24.129Z</time>
      </trkpt>
      <trkpt lat="48.02288" lon="2.30701">
        <ele>134.715886</ele>
        <time>2021-12-04T20:20:46.914Z</time>
      </trkpt>
      <trkpt lat="48.0236" lon="2.3074">
        <ele>135.013555</ele>
        <time>2021-12-04T20:21:07.641Z</time>
      </trkpt>
      <trkpt lat="48.02416" lon="2.30779">
        <ele>135.256369</ele>
        <time>2021-12-04T20:21:24.098Z</time>
      </trkpt>
      <trkpt lat="48.02451" lon="2.30806">
        <ele>135.410839</ele>
        <time>2021-12-04T20:21:34.346Z</time>
      </trkpt>
      <trkpt lat="48.02473" lon="2.30833">
        <ele>135.481846</ele>
        <time>2021-12-04T20:21:41.685Z</time>
      </trkpt>
      <trkpt lat="48.02552" lon="2.30961">
        <ele>135.742445</ele>
        <time>2021-12-04T20:22:11.111Z</time>
      </trkpt>
      <trkpt lat="48.02568" lon="2.30971">
        <ele>135.779674</ele>
        <time>2021-12-04T20:22:15.545Z</time>
      </trkpt>
      <trkpt lat="48.02618" lon="2.30976">
        <ele>135.871141</ele>
        <time>2021-12-04T20:22:28.800Z</time>
      </trkpt>
      <trkpt lat="48.02696" lon="2.31004">
        <ele>135.991319</ele>
        <time>2021-12-04T20:22:49.172Z</time>
      </trkpt>
      <trkpt lat="48.02764" lon="2.31041">
        <ele>136.098446</ele>
        <time>2021-12-04T20:23:06.696Z</time>
      </trkpt>
      <trkpt lat="48.02855" lon="2.31077">
        <ele>136.185474</ele>
        <time>2021-12-04T20:23:29.614Z</time>
      </trkpt>
      <trkpt lat="48.02967" lon="2.31133">
        <ele>136.354097</ele>
        <time>2021-12-04T20:23:57.863Z</time>
      </trkpt>
      <trkpt lat="48.02991" lon="2.31155">
        <ele>136.430814</ele>
        <time>2021-12-04T20:24:05.220Z</time>
      </trkpt>
      <trkpt lat="48.03059" lon="2.31272">
        <ele>136.715068</ele>
        <time>2021-12-04T20:24:31.823Z</time>
      </trkpt>
      <trkpt lat="48.03109" lon="2.31348">
        <ele>136.292454</ele>
        <time>2021-12-04T20:24:47.853Z</time>
      </trkpt>
      <trkpt lat="48.03176" lon="2.31455">
        <ele>135.49726</ele>
        <time>2021-12-04T20:25:07.714Z</time>
      </trkpt>
      <trkpt lat="48.03255" lon="2.31546">
        <ele>134.163089</ele>
        <time>2021-12-04T20:25:26.702Z</time>
      </trkpt>
      <trkpt lat="48.03345" lon="2.31646">
        <ele>132.493522</ele>
        <time>2021-12-04T20:25:48.349Z</time>
      </trkpt>
      <trkpt lat="48.0337" lon="2.31706">
        <ele>132.002342</ele>
        <time>2021-12-04T20:25:57.769Z</time>
      </trkpt>
      <trkpt lat="48.03411" lon="2.31895">
        <ele>130.651395</ele>
        <time>2021-12-04T20:26:24.826Z</time>
      </trkpt>
      <trkpt lat="48.03566" lon="2.31877">
        <ele>129.525864</ele>
        <time>2021-12-04T20:27:20.897Z</time>
      </trkpt>
      <trkpt lat="48.03661" lon="2.31895">
        <ele>128.890533</ele>
        <time>2021-12-04T20:27:55.046Z</time>
      </trkpt>
      <trkpt lat="48.04328" lon="2.32111">
        <ele>124.46089</ele>
        <time>2021-12-04T20:32:00.678Z</time>
      </trkpt>
      <trkpt lat="48.04525" lon="2.32322">
        <ele>123.086337</ele>
        <time>2021-12-04T20:33:29.491Z</time>
      </trkpt>
      <trkpt lat="48.04611" lon="2.32414">
        <ele>122.268153</ele>
        <time>2021-12-04T20:34:07.459Z</time>
      </trkpt>
      <trkpt lat="48.04833" lon="2.32499">
        <ele>119.411946</ele>
        <time>2021-12-04T20:35:25.977Z</time>
      </trkpt>
      <trkpt lat="48.04922" lon="2.3252">
        <ele>118.203802</ele>
        <time>2021-12-04T20:35:56.811Z</time>
      </trkpt>
      <trkpt lat="48.05005" lon="2.32517">
        <ele>117.305132</ele>
        <time>2021-12-04T20:36:25.306Z</time>
      </trkpt>
      <trkpt lat="48.05024" lon="2.32524">
        <ele>117.099273</ele>
        <time>2021-12-04T20:36:32.055Z</time>
      </trkpt>
      <trkpt lat="48.04979" lon="2.32709">
        <ele>115.892127</ele>
        <time>2021-12-04T20:37:18.992Z</time>
      </trkpt>
      <trkpt lat="48.04977" lon="2.32728">
        <ele>115.809147</ele>
        <time>2021-12-04T20:37:23.566Z</time>
      </trkpt>
      <trkpt lat="48.05022" lon="2.32775">
        <ele>115.458731</ele>
        <time>2021-12-04T20:37:43.171Z</time>
      </trkpt>
      <trkpt lat="48.05053" lon="2.32794">
        <ele>115.239878</ele>
        <time>2021-12-04T20:37:55.410Z</time>
      </trkpt>
      <trkpt lat="48.05071" lon="2.32958">
        <ele>114.477894</ele>
        <time>2021-12-04T20:38:35.656Z</time>
      </trkpt>
      <trkpt lat="48.05135" lon="2.33101">
        <ele>113.639522</ele>
        <time>2021-12-04T20:39:16.758Z</time>
      </trkpt>
      <trkpt lat="48.05164" lon="2.33159">
        <ele>113.180968</ele>
        <time>2021-12-04T20:39:33.731Z</time>
      </trkpt>
      <trkpt lat="48.05277" lon="2.33436">
        <ele>111.180107</ele>
        <time>2021-12-04T20:40:50.113Z</time>
      </trkpt>
      <trkpt lat="48.05337" lon="2.33687">
        <ele>109.832411</ele>
        <time>2021-12-04T20:41:53.400Z</time>
      </trkpt>
      <trkpt lat="48.05353" lon="2.3373">
        <ele>109.618686</ele>
        <time>2021-12-04T20:42:05.349Z</time>
      </trkpt>
      <trkpt lat="48.05386" lon="2.3383">
        <ele>109.249642</ele>
        <time>2021-12-04T20:42:32.751Z</time>
      </trkpt>
      <trkpt lat="48.05468" lon="2.33938">
        <ele>109.109607</ele>
        <time>2021-12-04T20:43:13.936Z</time>
      </trkpt>
      <trkpt lat="48.05483" lon="2.33934">
        <ele>109.090276</ele>
        <time>2021-12-04T20:43:17.353Z</time>
      </trkpt>
      <trkpt lat="48.05535" lon="2.34073">
        <ele>109.359391</ele>
        <time>2021-12-04T20:43:58.945Z</time>
      </trkpt>
      <trkpt lat="48.05566" lon="2.34104">
        <ele>109.516193</ele>
        <time>2021-12-04T20:44:13.829Z</time>
      </trkpt>
      <trkpt lat="48.05575" lon="2.34112">
        <ele>109.562629</ele>
        <time>2021-12-04T20:44:18.181Z</time>
      </trkpt>
      <trkpt lat="48.05576" lon="2.34109">
        <ele>109.574673</ele>
        <time>2021-12-04T20:44:19.365Z</time>
      </trkpt>
      <trkpt lat="48.05745" lon="2.34514">
        <ele>112.213331</ele>
        <time>2021-12-04T20:46:37.912Z</time>
      </trkpt>
      <trkpt lat="48.05918" lon="2.3438">
        <ele>113.60045</ele>
        <time>2021-12-04T20:48:05.041Z</time>
      </trkpt>
      <trkpt lat="48.06088" lon="2.34789">
        <ele>113.197994</ele>
        <time>2021-12-04T20:50:03.333Z</time>
      </trkpt>
      <trkpt lat="48.06083" lon="2.34794">
        <ele>113.199832</ele>
        <time>2021-12-04T20:50:04.614Z</time>
      </trkpt>
      <trkpt lat="48.06233" lon="2.35129">
        <ele>113.914797</ele>
        <time>2021-12-04T20:51:52.099Z</time>
      </trkpt>
      <trkpt lat="48.06276" lon="2.3525">
        <ele>114.672773</ele>
        <time>2021-12-04T20:52:32.732Z</time>
      </trkpt>
      <trkpt lat="48.0631" lon="2.3537">
        <ele>115.501476</ele>
        <time>2021-12-04T20:53:12.300Z</time>
      </trkpt>
      <trkpt lat="48.06317" lon="2.35573">
        <ele>115.816263</ele>
        <time>2021-12-04T20:54:08.765Z</time>
      </trkpt>
      <trkpt lat="48.0657" lon="2.35462">
        <ele>114.375616</ele>
        <time>2021-12-04T20:55:42.619Z</time>
      </trkpt>
      <trkpt lat="48.06821" lon="2.35361">
        <ele>112.721199</ele>
        <time>2021-12-04T20:57:14.834Z</time>
      </trkpt>
      <trkpt lat="48.06818" lon="2.35462">
        <ele>112.520288</ele>
        <time>2021-12-04T20:57:41.145Z</time>
      </trkpt>
      <trkpt lat="48.06799" lon="2.35714">
        <ele>113.125293</ele>
        <time>2021-12-04T20:58:52.089Z</time>
      </trkpt>
      <trkpt lat="48.06788" lon="2.35779">
        <ele>113.178721</ele>
        <time>2021-12-04T20:59:09.557Z</time>
      </trkpt>
      <trkpt lat="48.06827" lon="2.35753">
        <ele>113.009182</ele>
        <time>2021-12-04T20:59:25.731Z</time>
      </trkpt>
      <trkpt lat="48.07114" lon="2.35628">
        <ele>111.730371</ele>
        <time>2021-12-04T21:01:13.418Z</time>
      </trkpt>
      <trkpt lat="48.07146" lon="2.35904">
        <ele>112.736574</ele>
        <time>2021-12-04T21:02:05.729Z</time>
      </trkpt>
      <trkpt lat="48.0759" lon="2.35715">
        <ele>113.347868</ele>
        <time>2021-12-04T21:05:05.635Z</time>
      </trkpt>
      <trkpt lat="48.07584" lon="2.35665">
        <ele>113.31936</ele>
        <time>2021-12-04T21:05:18.344Z</time>
      </trkpt>
      <trkpt lat="48.08014" lon="2.35556">
        <ele>111.518523</ele>
        <time>2021-12-04T21:07:57.487Z</time>
      </trkpt>
      <trkpt lat="48.08302" lon="2.35624">
        <ele>111.65995</ele>
        <time>2021-12-04T21:09:50.251Z</time>
      </trkpt>
      <trkpt lat="48.08358" lon="2.35665">
        <ele>111.67903</ele>
        <time>2021-12-04T21:10:15.252Z</time>
      </trkpt>
      <trkpt lat="48.08414" lon="2.35707">
        <ele>111.635018</ele>
        <time>2021-12-04T21:10:39.649Z</time>
      </trkpt>
      <trkpt lat="48.08977" lon="2.36118">
        <ele>109.470589</ele>
        <time>2021-12-04T21:14:30.602Z</time>
      </trkpt>
      <trkpt lat="48.09212" lon="2.36387">
        <ele>108.03879</ele>
        <time>2021-12-04T21:16:18.179Z</time>
      </trkpt>
      <trkpt lat="48.09475" lon="2.36638">
        <ele>106.841721</ele>
        <time>2021-12-04T21:18:12.881Z</time>
      </trkpt>
      <trkpt lat="48.09514" lon="2.36668">
        <ele>106.74501</ele>
        <time>2021-12-04T21:18:29.430Z</time>
      </trkpt>
      <trkpt lat="48.09548" lon="2.36686">
        <ele>106.665257</ele>
        <time>2021-12-04T21:18:43.059Z</time>
      </trkpt>
      <trkpt lat="48.09552" lon="2.36766">
        <ele>106.583683</ele>
        <time>2021-12-04T21:19:03.169Z</time>
      </trkpt>
      <trkpt lat="48.09599" lon="2.36763">
        <ele>106.552037</ele>
        <time>2021-12-04T21:19:13.749Z</time>
      </trkpt>
      <trkpt lat="48.09687" lon="2.36785">
        <ele>106.492038</ele>
        <time>2021-12-04T21:19:34.072Z</time>
      </trkpt>
      <trkpt lat="48.09721" lon="2.36793">
        <ele>106.48386</ele>
        <time>2021-12-04T21:19:42.121Z</time>
      </trkpt>
      <trkpt lat="48.09763" lon="2.36807">
        <ele>106.500042</ele>
        <time>2021-12-04T21:19:52.130Z</time>
      </trkpt>
      <trkpt lat="48.09799" lon="2.36832">
        <ele>106.514841</ele>
        <time>2021-12-04T21:20:01.188Z</time>
      </trkpt>
      <trkpt lat="48.09872" lon="2.36936">
        <ele>106.507874</ele>
        <time>2021-12-04T21:20:24.926Z</time>
      </trkpt>
      <trkpt lat="48.09924" lon="2.36993">
        <ele>106.37189</ele>
        <time>2021-12-04T21:20:39.795Z</time>
      </trkpt>
      <trkpt lat="48.09933" lon="2.37002">
        <ele>106.348838</ele>
        <time>2021-12-04T21:20:42.288Z</time>
      </trkpt>
      <trkpt lat="48.0997" lon="2.37029">
        <ele>106.262491</ele>
        <time>2021-12-04T21:20:51.274Z</time>
      </trkpt>
      <trkpt lat="48.1005" lon="2.37065">
        <ele>106.007669</ele>
        <time>2021-12-04T21:21:08.915Z</time>
      </trkpt>
      <trkpt lat="48.1012" lon="2.37125">
        <ele>105.663505</ele>
        <time>2021-12-04T21:21:26.377Z</time>
      </trkpt>
      <trkpt lat="48.10223" lon="2.37223">
        <ele>105.323033</ele>
        <time>2021-12-04T21:21:53.098Z</time>
      </trkpt>
      <trkpt lat="48.10251" lon="2.37237">
        <ele>105.283923</ele>
        <time>2021-12-04T21:21:59.769Z</time>
      </trkpt>
      <trkpt lat="48.10248" lon="2.37243">
        <ele>105.27787</ele>
        <time>2021-12-04T21:22:01.206Z</time>
      </trkpt>
      <trkpt lat="48.10579" lon="2.37527">
        <ele>105.519329</ele>
        <time>2021-12-04T21:24:28.126Z</time>
      </trkpt>
      <trkpt lat="48.10627" lon="2.3759">
        <ele>105.635264</ele>
        <time>2021-12-04T21:24:54.268Z</time>
      </trkpt>
      <trkpt lat="48.10641" lon="2.37608">
        <ele>105.671154</ele>
        <time>2021-12-04T21:25:01.582Z</time>
      </trkpt>
      <trkpt lat="48.1078" lon="2.37747">
        <ele>105.975237</ele>
        <time>2021-12-04T21:26:07.448Z</time>
      </trkpt>
      <trkpt lat="48.10806" lon="2.37792">
        <ele>105.905118</ele>
        <time>2021-12-04T21:26:22.134Z</time>
      </trkpt>
      <trkpt lat="48.10884" lon="2.37898">
        <ele>105.718106</ele>
        <time>2021-12-04T21:27:01.198Z</time>
      </trkpt>
      <trkpt lat="48.11011" lon="2.38103">
        <ele>105.545218</ele>
        <time>2021-12-04T21:28:11.776Z</time>
      </trkpt>
      <trkpt lat="48.11085" lon="2.38193">
        <ele>105.721248</ele>
        <time>2021-12-04T21:28:49.348Z</time>
      </trkpt>
      <trkpt lat="48.11394" lon="2.38682">
        <ele>106.921616</ele>
        <time>2021-12-04T21:31:47.628Z</time>
      </trkpt>
      <trkpt lat="48.1141" lon="2.38702">
        <ele>106.989424</ele>
        <time>2021-12-04T21:31:56.163Z</time>
      </trkpt>
      <trkpt lat="48.114" lon="2.38756">
        <ele>107.171665</ele>
        <time>2021-12-04T21:32:05.654Z</time>
      </trkpt>
      <trkpt lat="48.1173" lon="2.39209">
        <ele>109.197164</ele>
        <time>2021-12-04T21:35:09.976Z</time>
      </trkpt>
      <trkpt lat="48.11938" lon="2.39495">
        <ele>109.700793</ele>
        <time>2021-12-04T21:36:57.896Z</time>
      </trkpt>
      <trkpt lat="48.12254" lon="2.39933">
        <ele>111.546597</ele>
        <time>2021-12-04T21:39:57.760Z</time>
      </trkpt>
      <trkpt lat="48.12417" lon="2.40158">
        <ele>110.485197</ele>
        <time>2021-12-04T21:41:17.584Z</time>
      </trkpt>
      <trkpt lat="48.12539" lon="2.40338">
        <ele>109.397464</ele>
        <time>2021-12-04T21:42:18.608Z</time>
      </trkpt>
      <trkpt lat="48.12646" lon="2.4051">
        <ele>109.30176</ele>
        <time>2021-12-04T21:43:17.825Z</time>
      </trkpt>
      <trkpt lat="48.12664" lon="2.40531">
        <ele>109.311417</ele>
        <time>2021-12-04T21:43:27.246Z</time>
      </trkpt>
      <trkpt lat="48.12701" lon="2.40566">
        <ele>109.43344</ele>
        <time>2021-12-04T21:43:45.050Z</time>
      </trkpt>
      <trkpt lat="48.1277" lon="2.40613">
        <ele>109.880561</ele>
        <time>2021-12-04T21:44:17.398Z</time>
      </trkpt>
      <trkpt lat="48.13078" lon="2.4082">
        <ele>111.747916</ele>
        <time>2021-12-04T21:46:37.174Z</time>
      </trkpt>
      <trkpt lat="48.13275" lon="2.40983">
        <ele>112.700126</ele>
        <time>2021-12-04T21:48:09.258Z</time>
      </trkpt>
      <trkpt lat="48.13403" lon="2.41088">
        <ele>113.132222</ele>
        <time>2021-12-04T21:49:06.325Z</time>
      </trkpt>
      <trkpt lat="48.1347" lon="2.41142">
        <ele>113.322726</ele>
        <time>2021-12-04T21:49:36.395Z</time>
      </trkpt>
      <trkpt lat="48.13659" lon="2.41279">
        <ele>114.370872</ele>
        <time>2021-12-04T21:51:03.809Z</time>
      </trkpt>
      <trkpt lat="48.13827" lon="2.41483">
        <ele>115.278962</ele>
        <time>2021-12-04T21:52:31.620Z</time>
      </trkpt>
      <trkpt lat="48.13987" lon="2.41607">
        <ele>115.507711</ele>
        <time>2021-12-04T21:53:42.434Z</time>
      </trkpt>
      <trkpt lat="48.14264" lon="2.41875">
        <ele>114.441715</ele>
        <time>2021-12-04T21:55:44.403Z</time>
      </trkpt>
      <trkpt lat="48.1435" lon="2.41954">
        <ele>113.655033</ele>
        <time>2021-12-04T21:56:20.209Z</time>
      </trkpt>
      <trkpt lat="48.1447" lon="2.42064">
        <ele>112.684969</ele>
        <time>2021-12-04T21:57:09.868Z</time>
      </trkpt>
      <trkpt lat="48.14647" lon="2.42218">
        <ele>111.977588</ele>
        <time>2021-12-04T21:58:25.182Z</time>
      </trkpt>
      <trkpt lat="48.14952" lon="2.42511">
        <ele>113.708877</ele>
        <time>2021-12-04T22:00:51.832Z</time>
      </trkpt>
      <trkpt lat="48.15261" lon="2.42805">
        <ele>118.958938</ele>
        <time>2021-12-04T22:03:51.383Z</time>
      </trkpt>
      <trkpt lat="48.15349" lon="2.42891">
        <ele>119.501559</ele>
        <time>2021-12-04T22:04:32.805Z</time>
      </trkpt>
      <trkpt lat="48.15495" lon="2.42991">
        <ele>118.553985</ele>
        <time>2021-12-04T22:05:29.218Z</time>
      </trkpt>
      <trkpt lat="48.15616" lon="2.43098">
        <ele>117.640922</ele>
        <time>2021-12-04T22:06:19.368Z</time>
      </trkpt>
      <trkpt lat="48.15725" lon="2.43208">
        <ele>117.516289</ele>
        <time>2021-12-04T22:07:09.683Z</time>
      </trkpt>
      <trkpt lat="48.15866" lon="2.43349">
        <ele>117.62378</ele>
        <time>2021-12-04T22:08:16.181Z</time>
      </trkpt>
      <trkpt lat="48.15985" lon="2.4349">
        <ele>117.902735</ele>
        <time>2021-12-04T22:09:14.113Z</time>
      </trkpt>
      <trkpt lat="48.16026" lon="2.43549">
        <ele>118.064377</ele>
        <time>2021-12-04T22:09:36.854Z</time>
      </trkpt>
      <trkpt lat="48.16057" lon="2.43607">
        <ele>118.203474</ele>
        <time>2021-12-04T22:09:57.365Z</time>
      </trkpt>
      <trkpt lat="48.16079" lon="2.43639">
        <ele>118.450677</ele>
        <time>2021-12-04T22:10:10.327Z</time>
      </trkpt>
      <trkpt lat="48.16134" lon="2.43716">
        <ele>119.076758</ele>
        <time>2021-12-04T22:10:43.392Z</time>
      </trkpt>
      <trkpt lat="48.16186" lon="2.43794">
        <ele>119.686319</ele>
        <time>2021-12-04T22:11:15.705Z</time>
      </trkpt>
      <trkpt lat="48.16247" lon="2.43929">
        <ele>120.067292</ele>
        <time>2021-12-04T22:12:00.073Z</time>
      </trkpt>
      <trkpt lat="48.16292" lon="2.44008">
        <ele>120.307067</ele>
        <time>2021-12-04T22:12:16.988Z</time>
      </trkpt>
      <trkpt lat="48.16315" lon="2.44035">
        <ele>120.358359</ele>
        <time>2021-12-04T22:12:24.055Z</time>
      </trkpt>
      <trkpt lat="48.16404" lon="2.44107">
        <ele>120.515072</ele>
        <time>2021-12-04T22:12:49.780Z</time>
      </trkpt>
      <trkpt lat="48.16425" lon="2.44055">
        <ele>120.57681</ele>
        <time>2021-12-04T22:13:00.134Z</time>
      </trkpt>
      <trkpt lat="48.16437" lon="2.44042">
        <ele>120.593357</ele>
        <time>2021-12-04T22:13:04.069Z</time>
      </trkpt>
      <trkpt lat="48.16482" lon="2.44033">
        <ele>120.527809</ele>
        <time>2021-12-04T22:13:15.319Z</time>
      </trkpt>
      <trkpt lat="48.16547" lon="2.44043">
        <ele>120.435152</ele>
        <time>2021-12-04T22:13:30.416Z</time>
      </trkpt>
      <trkpt lat="48.16562" lon="2.44001">
        <ele>120.389118</ele>
        <time>2021-12-04T22:13:37.576Z</time>
      </trkpt>
      <trkpt lat="48.16587" lon="2.44001">
        <ele>120.354066</ele>
        <time>2021-12-04T22:13:42.873Z</time>
      </trkpt>
      <trkpt lat="48.16616" lon="2.44013">
        <ele>120.158543</ele>
        <time>2021-12-04T22:13:49.207Z</time>
      </trkpt>
      <trkpt lat="48.16639" lon="2.44008">
        <ele>119.947815</ele>
        <time>2021-12-04T22:13:54.011Z</time>
      </trkpt>
      <trkpt lat="48.16779" lon="2.43965">
        <ele>118.581487</ele>
        <time>2021-12-04T22:14:44.145Z</time>
      </trkpt>
      <trkpt lat="48.16837" lon="2.43962">
        <ele>117.365605</ele>
        <time>2021-12-04T22:15:04.387Z</time>
      </trkpt>
      <trkpt lat="48.16886" lon="2.43939">
        <ele>116.30396</ele>
        <time>2021-12-04T22:15:13.989Z</time>
      </trkpt>
      <trkpt lat="48.16983" lon="2.43927">
        <ele>113.708621</ele>
        <time>2021-12-04T22:15:30.870Z</time>
      </trkpt>
      <trkpt lat="48.17026" lon="2.43905">
        <ele>111.942484</ele>
        <time>2021-12-04T22:15:38.484Z</time>
      </trkpt>
      <trkpt lat="48.17051" lon="2.43883">
        <ele>110.838334</ele>
        <time>2021-12-04T22:15:43.174Z</time>
      </trkpt>
      <trkpt lat="48.17103" lon="2.43939">
        <ele>108.35824</ele>
        <time>2021-12-04T22:16:02.181Z</time>
      </trkpt>
      <trkpt lat="48.17149" lon="2.44001">
        <ele>106.373835</ele>
        <time>2021-12-04T22:16:20.513Z</time>
      </trkpt>
      <trkpt lat="48.1732" lon="2.43854">
        <ele>101.428174</ele>
        <time>2021-12-04T22:17:23.288Z</time>
      </trkpt>
      <trkpt lat="48.1751" lon="2.43869">
        <ele>99.331376</ele>
        <time>2021-12-04T22:18:31.679Z</time>
      </trkpt>
      <trkpt lat="48.175" lon="2.43733">
        <ele>98.741012</ele>
        <time>2021-12-04T22:19:04.958Z</time>
      </trkpt>
      <trkpt lat="48.17813" lon="2.4369">
        <ele>96.711592</ele>
        <time>2021-12-04T22:20:56.491Z</time>
      </trkpt>
      <trkpt lat="48.17822" lon="2.4384">
        <ele>96.658229</ele>
        <time>2021-12-04T22:21:35.959Z</time>
      </trkpt>
      <trkpt lat="48.18423" lon="2.43809">
        <ele>99.096897</ele>
        <time>2021-12-04T22:25:42.535Z</time>
      </trkpt>
      <trkpt lat="48.1873" lon="2.4379">
        <ele>99.750226</ele>
        <time>2021-12-04T22:27:39.172Z</time>
      </trkpt>
      <trkpt lat="48.18911" lon="2.43844">
        <ele>100.783903</ele>
        <time>2021-12-04T22:29:02.166Z</time>
      </trkpt>
      <trkpt lat="48.19173" lon="2.43798">
        <ele>100.442794</ele>
        <time>2021-12-04T22:30:39.608Z</time>
      </trkpt>
      <trkpt lat="48.1935" lon="2.43764">
        <ele>99.538723</ele>
        <time>2021-12-04T22:31:44.967Z</time>
      </trkpt>
      <trkpt lat="48.19388" lon="2.4384">
        <ele>99.17909</ele>
        <time>2021-12-04T22:31:58.228Z</time>
      </trkpt>
      <trkpt lat="48.19414" lon="2.4388">
        <ele>98.948244</ele>
        <time>2021-12-04T22:32:05.903Z</time>
      </trkpt>
      <trkpt lat="48.19551" lon="2.43991">
        <ele>98.391099</ele>
        <time>2021-12-04T22:32:38.855Z</time>
      </trkpt>
      <trkpt lat="48.19558" lon="2.44004">
        <ele>98.435308</ele>
        <time>2021-12-04T22:32:41.299Z</time>
      </trkpt>
      <trkpt lat="48.19775" lon="2.43734">
        <ele>100.060072</ele>
        <time>2021-12-04T22:34:43.056Z</time>
      </trkpt>
      <trkpt lat="48.19877" lon="2.43608">
        <ele>100.355073</ele>
        <time>2021-12-04T22:35:36.278Z</time>
      </trkpt>
      <trkpt lat="48.20049" lon="2.43394">
        <ele>99.853493</ele>
        <time>2021-12-04T22:36:58.761Z</time>
      </trkpt>
      <trkpt lat="48.2033" lon="2.43045">
        <ele>98.167976</ele>
        <time>2021-12-04T22:39:11.949Z</time>
      </trkpt>
      <trkpt lat="48.20336" lon="2.42887">
        <ele>97.894434</ele>
        <time>2021-12-04T22:39:35.288Z</time>
      </trkpt>
      <trkpt lat="48.20545" lon="2.43204">
        <ele>97.426355</ele>
        <time>2021-12-04T22:41:27.766Z</time>
      </trkpt>
      <trkpt lat="48.20704" lon="2.43445">
        <ele>96.572316</ele>
        <time>2021-12-04T22:42:51.024Z</time>
      </trkpt>
      <trkpt lat="48.20764" lon="2.4348">
        <ele>96.218865</ele>
        <time>2021-12-04T22:43:04.897Z</time>
      </trkpt>
      <trkpt lat="48.20779" lon="2.43483">
        <ele>96.13321</ele>
        <time>2021-12-04T22:43:08.251Z</time>
      </trkpt>
      <trkpt lat="48.20793" lon="2.43501">
        <ele>96.030258</ele>
        <time>2021-12-04T22:43:15.053Z</time>
      </trkpt>
      <trkpt lat="48.21043" lon="2.43649">
        <ele>92.043327</ele>
        <time>2021-12-04T22:44:47.312Z</time>
      </trkpt>
      <trkpt lat="48.211" lon="2.43678">
        <ele>90.624333</ele>
        <time>2021-12-04T22:45:05.944Z</time>
      </trkpt>
      <trkpt lat="48.212" lon="2.43738">
        <ele>88.484191</ele>
        <time>2021-12-04T22:45:39.943Z</time>
      </trkpt>
      <trkpt lat="48.21226" lon="2.43753">
        <ele>88.021338</ele>
        <time>2021-12-04T22:45:48.852Z</time>
      </trkpt>
      <trkpt lat="48.21301" lon="2.43775">
        <ele>86.728637</ele>
        <time>2021-12-04T22:46:14.615Z</time>
      </trkpt>
      <trkpt lat="48.21351" lon="2.43765">
        <ele>86.834091</ele>
        <time>2021-12-04T22:46:34.855Z</time>
      </trkpt>
      <trkpt lat="48.21404" lon="2.43739">
        <ele>87.521809</ele>
        <time>2021-12-04T22:47:00.840Z</time>
      </trkpt>
      <trkpt lat="48.21571" lon="2.43701">
        <ele>90.264518</ele>
        <time>2021-12-04T22:48:23.889Z</time>
      </trkpt>
      <trkpt lat="48.21935" lon="2.43671">
        <ele>97.636604</ele>
        <time>2021-12-04T22:51:33.069Z</time>
      </trkpt>
      <trkpt lat="48.21939" lon="2.4367">
        <ele>97.696809</ele>
        <time>2021-12-04T22:51:35.154Z</time>
      </trkpt>
      <trkpt lat="48.2197" lon="2.43654">
        <ele>98.136093</ele>
        <time>2021-12-04T22:51:50.064Z</time>
      </trkpt>
      <trkpt lat="48.21981" lon="2.43655">
        <ele>98.282749</ele>
        <time>2021-12-04T22:51:54.881Z</time>
      </trkpt>
      <trkpt lat="48.22242" lon="2.43829">
        <ele>98.271939</ele>
        <time>2021-12-04T22:53:43.839Z</time>
      </trkpt>
      <trkpt lat="48.22333" lon="2.43547">
        <ele>95.597615</ele>
        <time>2021-12-04T22:54:23.185Z</time>
      </trkpt>
      <trkpt lat="48.22458" lon="2.43574">
        <ele>94.088049</ele>
        <time>2021-12-04T22:55:07.027Z</time>
      </trkpt>
      <trkpt lat="48.22477" lon="2.43571">
        <ele>93.99192</ele>
        <time>2021-12-04T22:55:13.981Z</time>
      </trkpt>
      <trkpt lat="48.22549" lon="2.43535">
        <ele>93.615891</ele>
        <time>2021-12-04T22:55:42.117Z</time>
      </trkpt>
      <trkpt lat="48.22557" lon="2.43554">
        <ele>93.543989</ele>
        <time>2021-12-04T22:55:45.516Z</time>
      </trkpt>
      <trkpt lat="48.22564" lon="2.43563">
        <ele>93.498752</ele>
        <time>2021-12-04T22:55:47.716Z</time>
      </trkpt>
      <trkpt lat="48.22579" lon="2.43576">
        <ele>93.411684</ele>
        <time>2021-12-04T22:55:51.847Z</time>
      </trkpt>
      <trkpt lat="48.22574" lon="2.43592">
        <ele>93.356649</ele>
        <time>2021-12-04T22:55:56.410Z</time>
      </trkpt>
      <trkpt lat="48.22579" lon="2.43704">
        <ele>93.480903</ele>
        <time>2021-12-04T22:56:24.834Z</time>
      </trkpt>
      <trkpt lat="48.22604" lon="2.43866">
        <ele>93.694071</ele>
        <time>2021-12-04T22:57:08.972Z</time>
      </trkpt>
      <trkpt lat="48.22619" lon="2.43981">
        <ele>94.181974</ele>
        <time>2021-12-04T22:57:41.681Z</time>
      </trkpt>
      <trkpt lat="48.22956" lon="2.43944">
        <ele>95.978966</ele>
        <time>2021-12-04T23:00:04.598Z</time>
      </trkpt>
      <trkpt lat="48.2312" lon="2.43931">
        <ele>95.800968</ele>
        <time>2021-12-04T23:00:41.781Z</time>
      </trkpt>
      <trkpt lat="48.23118" lon="2.44062">
        <ele>95.642561</ele>
        <time>2021-12-04T23:01:02.924Z</time>
      </trkpt>
      <trkpt lat="48.2313" lon="2.44178">
        <ele>95.359402</ele>
        <time>2021-12-04T23:01:22.022Z</time>
      </trkpt>
      <trkpt lat="48.23132" lon="2.44281">
        <ele>94.943615</ele>
        <time>2021-12-04T23:01:37.860Z</time>
      </trkpt>
      <trkpt lat="48.23184" lon="2.4429">
        <ele>94.627985</ele>
        <time>2021-12-04T23:01:56.139Z</time>
      </trkpt>
      <trkpt lat="48.23447" lon="2.44331">
        <ele>92.803027</ele>
        <time>2021-12-04T23:03:27.913Z</time>
      </trkpt>
      <trkpt lat="48.23559" lon="2.44328">
        <ele>93.46032</ele>
        <time>2021-12-04T23:04:19.256Z</time>
      </trkpt>
      <trkpt lat="48.23887" lon="2.44413">
        <ele>100.744803</ele>
        <time>2021-12-04T23:07:13.557Z</time>
      </trkpt>
      <trkpt lat="48.24038" lon="2.44475">
        <ele>103.091879</ele>
        <time>2021-12-04T23:08:28.954Z</time>
      </trkpt>
      <trkpt lat="48.24182" lon="2.44525">
        <ele>103.431335</ele>
        <time>2021-12-04T23:09:29.047Z</time>
      </trkpt>
      <trkpt lat="48.24377" lon="2.44565">
        <ele>101.550756</ele>
        <time>2021-12-04T23:10:36.256Z</time>
      </trkpt>
      <trkpt lat="48.24414" lon="2.44611">
        <ele>100.889791</ele>
        <time>2021-12-04T23:10:52.407Z</time>
      </trkpt>
      <trkpt lat="48.24397" lon="2.44568">
        <ele>100.525996</ele>
        <time>2021-12-04T23:10:59.005Z</time>
      </trkpt>
      <trkpt lat="48.24461" lon="2.44578">
        <ele>100.499379</ele>
        <time>2021-12-04T23:11:22.092Z</time>
      </trkpt>
      <trkpt lat="48.24647" lon="2.44681">
        <ele>101.32314</ele>
        <time>2021-12-04T23:12:45.149Z</time>
      </trkpt>
      <trkpt lat="48.2476" lon="2.44729">
        <ele>102.462004</ele>
        <time>2021-12-04T23:13:38.777Z</time>
      </trkpt>
      <trkpt lat="48.2488" lon="2.44801">
        <ele>103.769172</ele>
        <time>2021-12-04T23:14:36.226Z</time>
      </trkpt>
      <trkpt lat="48.24884" lon="2.44771">
        <ele>103.972809</ele>
        <time>2021-12-04T23:14:44.931Z</time>
      </trkpt>
      <trkpt lat="48.24895" lon="2.44764">
        <ele>104.057959</ele>
        <time>2021-12-04T23:14:49.839Z</time>
      </trkpt>
      <trkpt lat="48.24909" lon="2.44777">
        <ele>104.165264</ele>
        <time>2021-12-04T23:14:56.921Z</time>
      </trkpt>
      <trkpt lat="48.25115" lon="2.45012">
        <ele>105.535331</ele>
        <time>2021-12-04T23:16:44.889Z</time>
      </trkpt>
      <trkpt lat="48.25123" lon="2.45013">
        <ele>105.565747</ele>
        <time>2021-12-04T23:16:48.141Z</time>
      </trkpt>
      <trkpt lat="48.25136" lon="2.45">
        <ele>105.624896</ele>
        <time>2021-12-04T23:16:54.412Z</time>
      </trkpt>
      <trkpt lat="48.25151" lon="2.45">
        <ele>105.676371</ele>
        <time>2021-12-04T23:16:59.917Z</time>
      </trkpt>
      <trkpt lat="48.25183" lon="2.44979">
        <ele>105.806148</ele>
        <time>2021-12-04T23:17:13.404Z</time>
      </trkpt>
      <trkpt lat="48.25233" lon="2.44925">
        <ele>106.000714</ele>
        <time>2021-12-04T23:17:36.711Z</time>
      </trkpt>
      <trkpt lat="48.25235" lon="2.44958">
        <ele>106.071367</ele>
        <time>2021-12-04T23:17:45.347Z</time>
      </trkpt>
      <trkpt lat="48.25225" lon="2.45">
        <ele>106.164028</ele>
        <time>2021-12-04T23:17:56.903Z</time>
      </trkpt>
      <trkpt lat="48.25216" lon="2.45005">
        <ele>106.195177</ele>
        <time>2021-12-04T23:17:59.233Z</time>
      </trkpt>
      <trkpt lat="48.25219" lon="2.45038">
        <ele>106.265283</ele>
        <time>2021-12-04T23:18:08.353Z</time>
      </trkpt>
      <trkpt lat="48.25249" lon="2.45066">
        <ele>106.377022</ele>
        <time>2021-12-04T23:18:23.035Z</time>
      </trkpt>
      <trkpt lat="48.2556" lon="2.45209">
        <ele>110.131798</ele>
        <time>2021-12-04T23:20:51.385Z</time>
      </trkpt>
      <trkpt lat="48.25656" lon="2.45241">
        <ele>110.674951</ele>
        <time>2021-12-04T23:21:33.831Z</time>
      </trkpt>
      <trkpt lat="48.2571" lon="2.45249">
        <ele>110.793133</ele>
        <time>2021-12-04T23:21:55.393Z</time>
      </trkpt>
      <trkpt lat="48.26033" lon="2.45397">
        <ele>109.92726</ele>
        <time>2021-12-04T23:23:59.567Z</time>
      </trkpt>
      <trkpt lat="48.2606" lon="2.45409">
        <ele>109.848719</ele>
        <time>2021-12-04T23:24:09.898Z</time>
      </trkpt>
      <trkpt lat="48.26276" lon="2.45392">
        <ele>109.491115</ele>
        <time>2021-12-04T23:25:31.034Z</time>
      </trkpt>
      <trkpt lat="48.2676" lon="2.45322">
        <ele>109.980544</ele>
        <time>2021-12-04T23:28:40.147Z</time>
      </trkpt>
      <trkpt lat="48.27265" lon="2.45249">
        <ele>109.692489</ele>
        <time>2021-12-04T23:31:56.328Z</time>
      </trkpt>
      <trkpt lat="48.27625" lon="2.4522">
        <ele>104.909468</ele>
        <time>2021-12-04T23:33:58.269Z</time>
      </trkpt>
      <trkpt lat="48.27636" lon="2.45242">
        <ele>104.641262</ele>
        <time>2021-12-04T23:34:04.350Z</time>
      </trkpt>
      <trkpt lat="48.27658" lon="2.45383">
        <ele>103.162</ele>
        <time>2021-12-04T23:34:37.112Z</time>
      </trkpt>
      <trkpt lat="48.27675" lon="2.45413">
        <ele>102.700756</ele>
        <time>2021-12-04T23:34:46.220Z</time>
      </trkpt>
      <trkpt lat="48.27732" lon="2.45434">
        <ele>101.684306</ele>
        <time>2021-12-04T23:35:06.058Z</time>
      </trkpt>
      <trkpt lat="48.27792" lon="2.45435">
        <ele>100.643381</ele>
        <time>2021-12-04T23:35:25.930Z</time>
      </trkpt>
      <trkpt lat="48.27831" lon="2.45453">
        <ele>100.178878</ele>
        <time>2021-12-04T23:35:38.964Z</time>
      </trkpt>
      <trkpt lat="48.2785" lon="2.45442">
        <ele>100.109703</ele>
        <time>2021-12-04T23:35:45.832Z</time>
      </trkpt>
      <trkpt lat="48.27858" lon="2.45422">
        <ele>100.058284</ele>
        <time>2021-12-04T23:35:51.142Z</time>
      </trkpt>
      <trkpt lat="48.27859" lon="2.45394">
        <ele>99.997477</ele>
        <time>2021-12-04T23:35:57.512Z</time>
      </trkpt>
      <trkpt lat="48.27863" lon="2.45385">
        <ele>99.972809</ele>
        <time>2021-12-04T23:36:00.093Z</time>
      </trkpt>
      <trkpt lat="48.27879" lon="2.45373">
        <ele>99.914801</ele>
        <time>2021-12-04T23:36:06.542Z</time>
      </trkpt>
      <trkpt lat="48.27966" lon="2.45393">
        <ele>99.734807</ele>
        <time>2021-12-04T23:36:41.489Z</time>
      </trkpt>
      <trkpt lat="48.28285" lon="2.45401">
        <ele>107.578093</ele>
        <time>2021-12-04T23:39:41.495Z</time>
      </trkpt>
      <trkpt lat="48.28632" lon="2.45418">
        <ele>108.740878</ele>
        <time>2021-12-04T23:41:51.278Z</time>
      </trkpt>
      <trkpt lat="48.29229" lon="2.45677">
        <ele>116.65671</ele>
        <time>2021-12-04T23:46:42.828Z</time>
      </trkpt>
      <trkpt lat="48.29234" lon="2.45679">
        <ele>116.668191</ele>
        <time>2021-12-04T23:46:44.720Z</time>
      </trkpt>
      <trkpt lat="48.29449" lon="2.45763">
        <ele>116.636657</ele>
        <time>2021-12-04T23:48:08.464Z</time>
      </trkpt>
      <trkpt lat="48.29473" lon="2.45772">
        <ele>116.520046</ele>
        <time>2021-12-04T23:48:17.608Z</time>
      </trkpt>
      <trkpt lat="48.29503" lon="2.45773">
        <ele>116.38112</ele>
        <time>2021-12-04T23:48:28.417Z</time>
      </trkpt>
      <trkpt lat="48.2986" lon="2.45702">
        <ele>114.354074</ele>
        <time>2021-12-04T23:50:37.395Z</time>
      </trkpt>
      <trkpt lat="48.29924" lon="2.45692">
        <ele>114.3345</ele>
        <time>2021-12-04T23:51:03.053Z</time>
      </trkpt>
      <trkpt lat="48.30323" lon="2.45629">
        <ele>117.367024</ele>
        <time>2021-12-04T23:53:58.086Z</time>
      </trkpt>
      <trkpt lat="48.30674" lon="2.45725">
        <ele>117.545722</ele>
        <time>2021-12-04T23:56:12.559Z</time>
      </trkpt>
      <trkpt lat="48.3066" lon="2.45979">
        <ele>117.872694</ele>
        <time>2021-12-04T23:56:54.381Z</time>
      </trkpt>
      <trkpt lat="48.31119" lon="2.45757">
        <ele>119.849885</ele>
        <time>2021-12-05T00:00:09.107Z</time>
      </trkpt>
      <trkpt lat="48.3121" lon="2.45785">
        <ele>120.724241</ele>
        <time>2021-12-05T00:00:49.978Z</time>
      </trkpt>
      <trkpt lat="48.31299" lon="2.45814">
        <ele>121.632459</ele>
        <time>2021-12-05T00:01:31.464Z</time>
      </trkpt>
      <trkpt lat="48.31393" lon="2.4587">
        <ele>122.339242</ele>
        <time>2021-12-05T00:02:15.471Z</time>
      </trkpt>
      <trkpt lat="48.3146" lon="2.45905">
        <ele>122.82115</ele>
        <time>2021-12-05T00:02:45.219Z</time>
      </trkpt>
      <trkpt lat="48.31622" lon="2.45965">
        <ele>122.475126</ele>
        <time>2021-12-05T00:03:47.771Z</time>
      </trkpt>
      <trkpt lat="48.31758" lon="2.45999">
        <ele>121.632862</ele>
        <time>2021-12-05T00:04:36.405Z</time>
      </trkpt>
      <trkpt lat="48.32435" lon="2.45989">
        <ele>118.597126</ele>
        <time>2021-12-05T00:08:43.270Z</time>
      </trkpt>
      <trkpt lat="48.32759" lon="2.45988">
        <ele>120.210247</ele>
        <time>2021-12-05T00:10:59.851Z</time>
      </trkpt>
      <trkpt lat="48.33458" lon="2.45985">
        <ele>125.115794</ele>
        <time>2021-12-05T00:15:54.480Z</time>
      </trkpt>
      <trkpt lat="48.33628" lon="2.45885">
        <ele>127.508367</ele>
        <time>2021-12-05T00:17:20.525Z</time>
      </trkpt>
      <trkpt lat="48.33823" lon="2.45746">
        <ele>129.893272</ele>
        <time>2021-12-05T00:18:57.138Z</time>
      </trkpt>
      <trkpt lat="48.34018" lon="2.45663">
        <ele>130.947387</ele>
        <time>2021-12-05T00:20:22.321Z</time>
      </trkpt>
      <trkpt lat="48.3403" lon="2.45658">
        <ele>130.952348</ele>
        <time>2021-12-05T00:20:27.561Z</time>
      </trkpt>
      <trkpt lat="48.34108" lon="2.45623">
        <ele>130.982851</ele>
        <time>2021-12-05T00:20:57.949Z</time>
      </trkpt>
      <trkpt lat="48.3419" lon="2.45553">
        <ele>129.813992</ele>
        <time>2021-12-05T00:21:30.832Z</time>
      </trkpt>
      <trkpt lat="48.34366" lon="2.45454">
        <ele>126.806044</ele>
        <time>2021-12-05T00:22:33.280Z</time>
      </trkpt>
      <trkpt lat="48.34485" lon="2.45393">
        <ele>124.624177</ele>
        <time>2021-12-05T00:23:15.004Z</time>
      </trkpt>
      <trkpt lat="48.34504" lon="2.45385">
        <ele>124.318014</ele>
        <time>2021-12-05T00:23:18.974Z</time>
      </trkpt>
      <trkpt lat="48.34547" lon="2.4538">
        <ele>123.639402</ele>
        <time>2021-12-05T00:23:27.892Z</time>
      </trkpt>
      <trkpt lat="48.34563" lon="2.45394">
        <ele>123.353371</ele>
        <time>2021-12-05T00:23:31.648Z</time>
      </trkpt>
      <trkpt lat="48.34577" lon="2.45418">
        <ele>123.02177</ele>
        <time>2021-12-05T00:23:36.009Z</time>
      </trkpt>
      <trkpt lat="48.34628" lon="2.45476">
        <ele>122.141577</ele>
        <time>2021-12-05T00:23:49.056Z</time>
      </trkpt>
      <trkpt lat="48.34654" lon="2.45528">
        <ele>121.695667</ele>
        <time>2021-12-05T00:23:58.082Z</time>
      </trkpt>
      <trkpt lat="48.34662" lon="2.45544">
        <ele>121.559732</ele>
        <time>2021-12-05T00:24:00.855Z</time>
      </trkpt>
      <trkpt lat="48.34667" lon="2.45552">
        <ele>121.480945</ele>
        <time>2021-12-05T00:24:02.518Z</time>
      </trkpt>
      <trkpt lat="48.34685" lon="2.45565">
        <ele>121.276516</ele>
        <time>2021-12-05T00:24:06.809Z</time>
      </trkpt>
      <trkpt lat="48.34698" lon="2.45559">
        <ele>121.143735</ele>
        <time>2021-12-05T00:24:09.377Z</time>
      </trkpt>
      <trkpt lat="48.34881" lon="2.45541">
        <ele>120.278279</ele>
        <time>2021-12-05T00:24:48.704Z</time>
      </trkpt>
      <trkpt lat="48.3489" lon="2.4554">
        <ele>120.260195</ele>
        <time>2021-12-05T00:24:50.957Z</time>
      </trkpt>
      <trkpt lat="48.34909" lon="2.45289">
        <ele>120.429885</ele>
        <time>2021-12-05T00:25:59.869Z</time>
      </trkpt>
      <trkpt lat="48.35025" lon="2.453">
        <ele>120.152065</ele>
        <time>2021-12-05T00:26:43.868Z</time>
      </trkpt>
      <trkpt lat="48.35214" lon="2.45243">
        <ele>118.649828</ele>
        <time>2021-12-05T00:27:51.181Z</time>
      </trkpt>
      <trkpt lat="48.35473" lon="2.45167">
        <ele>116.292189</ele>
        <time>2021-12-05T00:29:24.722Z</time>
      </trkpt>
      <trkpt lat="48.35643" lon="2.4509">
        <ele>115.389831</ele>
        <time>2021-12-05T00:30:27.660Z</time>
      </trkpt>
      <trkpt lat="48.3605" lon="2.44913">
        <ele>119.857869</ele>
        <time>2021-12-05T00:33:40.376Z</time>
      </trkpt>
      <trkpt lat="48.36289" lon="2.44563">
        <ele>123.427921</ele>
        <time>2021-12-05T00:36:09.812Z</time>
      </trkpt>
      <trkpt lat="48.36631" lon="2.44705">
        <ele>125.176114</ele>
        <time>2021-12-05T00:38:34.569Z</time>
      </trkpt>
      <trkpt lat="48.36796" lon="2.44692">
        <ele>125.703217</ele>
        <time>2021-12-05T00:39:40.854Z</time>
      </trkpt>
      <trkpt lat="48.3701" lon="2.44692">
        <ele>125.67953</ele>
        <time>2021-12-05T00:41:02.810Z</time>
      </trkpt>
      <trkpt lat="48.37062" lon="2.44696">
        <ele>125.474664</ele>
        <time>2021-12-05T00:41:22.084Z</time>
      </trkpt>
      <trkpt lat="48.37273" lon="2.44739">
        <ele>124.468334</ele>
        <time>2021-12-05T00:42:39.024Z</time>
      </trkpt>
      <trkpt lat="48.37573" lon="2.44842">
        <ele>123.266933</ele>
        <time>2021-12-05T00:44:31.948Z</time>
      </trkpt>
      <trkpt lat="48.37747" lon="2.45009">
        <ele>123.236189</ele>
        <time>2021-12-05T00:45:52.933Z</time>
      </trkpt>
      <trkpt lat="48.37827" lon="2.45073">
        <ele>123.234912</ele>
        <time>2021-12-05T00:46:27.461Z</time>
      </trkpt>
      <trkpt lat="48.37957" lon="2.45139">
        <ele>122.456793</ele>
        <time>2021-12-05T00:47:17.123Z</time>
      </trkpt>
      <trkpt lat="48.38001" lon="2.45154">
        <ele>122.193149</ele>
        <time>2021-12-05T00:47:33.013Z</time>
      </trkpt>
      <trkpt lat="48.38102" lon="2.45142">
        <ele>122.020753</ele>
        <time>2021-12-05T00:48:09.950Z</time>
      </trkpt>
      <trkpt lat="48.38142" lon="2.45154">
        <ele>121.957504</ele>
        <time>2021-12-05T00:48:25.590Z</time>
      </trkpt>
      <trkpt lat="48.38166" lon="2.45174">
        <ele>121.915698</ele>
        <time>2021-12-05T00:48:36.471Z</time>
      </trkpt>
      <trkpt lat="48.38188" lon="2.45234">
        <ele>122.217766</ele>
        <time>2021-12-05T00:48:55.869Z</time>
      </trkpt>
      <trkpt lat="48.383" lon="2.45406">
        <ele>123.812764</ele>
        <time>2021-12-05T00:50:08.374Z</time>
      </trkpt>
      <trkpt lat="48.38358" lon="2.45528">
        <ele>124.668377</ele>
        <time>2021-12-05T00:50:51.306Z</time>
      </trkpt>
      <trkpt lat="48.38384" lon="2.45551">
        <ele>124.93468</ele>
        <time>2021-12-05T00:51:04.291Z</time>
      </trkpt>
      <trkpt lat="48.38433" lon="2.45569">
        <ele>125.380181</ele>
        <time>2021-12-05T00:51:25.334Z</time>
      </trkpt>
      <trkpt lat="48.3847" lon="2.45593">
        <ele>125.762957</ele>
        <time>2021-12-05T00:51:42.406Z</time>
      </trkpt>
      <trkpt lat="48.38602" lon="2.45602">
        <ele>126.99231</ele>
        <time>2021-12-05T00:52:41.600Z</time>
      </trkpt>
      <trkpt lat="48.38697" lon="2.45631">
        <ele>127.226396</ele>
        <time>2021-12-05T00:53:23.409Z</time>
      </trkpt>
      <trkpt lat="48.38708" lon="2.45634">
        <ele>127.253977</ele>
        <time>2021-12-05T00:53:27.979Z</time>
      </trkpt>
      <trkpt lat="48.38849" lon="2.45679">
        <ele>125.642371</ele>
        <time>2021-12-05T00:54:19.630Z</time>
      </trkpt>
      <trkpt lat="48.3912" lon="2.45738">
        <ele>115.992011</ele>
        <time>2021-12-05T00:55:43.265Z</time>
      </trkpt>
      <trkpt lat="48.39274" lon="2.45795">
        <ele>103.506379</ele>
        <time>2021-12-05T00:56:25.302Z</time>
      </trkpt>
      <trkpt lat="48.39307" lon="2.45831">
        <ele>100.36189</ele>
        <time>2021-12-05T00:56:35.964Z</time>
      </trkpt>
      <trkpt lat="48.39329" lon="2.4581">
        <ele>98.556716</ele>
        <time>2021-12-05T00:56:42.999Z</time>
      </trkpt>
      <trkpt lat="48.39345" lon="2.45775">
        <ele>96.628129</ele>
        <time>2021-12-05T00:56:50.648Z</time>
      </trkpt>
      <trkpt lat="48.39385" lon="2.45707">
        <ele>92.506221</ele>
        <time>2021-12-05T00:57:07.085Z</time>
      </trkpt>
      <trkpt lat="48.3943" lon="2.45682">
        <ele>89.18287</ele>
        <time>2021-12-05T00:57:20.999Z</time>
      </trkpt>
      <trkpt lat="48.39444" lon="2.45687">
        <ele>88.360053</ele>
        <time>2021-12-05T00:57:24.896Z</time>
      </trkpt>
      <trkpt lat="48.39455" lon="2.45691">
        <ele>87.7899</ele>
        <time>2021-12-05T00:57:28.282Z</time>
      </trkpt>
      <trkpt lat="48.39484" lon="2.45733">
        <ele>85.751558</ele>
        <time>2021-12-05T00:57:39.954Z</time>
      </trkpt>
      <trkpt lat="48.39491" lon="2.45735">
        <ele>85.39673</ele>
        <time>2021-12-05T00:57:42.065Z</time>
      </trkpt>
      <trkpt lat="48.395" lon="2.45738">
        <ele>84.908885</ele>
        <time>2021-12-05T00:57:44.654Z</time>
      </trkpt>
      <trkpt lat="48.39579" lon="2.45694">
        <ele>80.671727</ele>
        <time>2021-12-05T00:58:09.141Z</time>
      </trkpt>
      <trkpt lat="48.39622" lon="2.45823">
        <ele>76.858497</ele>
        <time>2021-12-05T00:58:36.913Z</time>
      </trkpt>
      <trkpt lat="48.39648" lon="2.45973">
        <ele>73.047835</ele>
        <time>2021-12-05T00:59:08.915Z</time>
      </trkpt>
      <trkpt lat="48.3966" lon="2.45965">
        <ele>72.829962</ele>
        <time>2021-12-05T00:59:11.494Z</time>
      </trkpt>
      <trkpt lat="48.39707" lon="2.4594">
        <ele>71.982698</ele>
        <time>2021-12-05T00:59:21.418Z</time>
      </trkpt>
      <trkpt lat="48.39727" lon="2.45935">
        <ele>71.641077</ele>
        <time>2021-12-05T00:59:25.649Z</time>
      </trkpt>
      <trkpt lat="48.39859" lon="2.45933">
        <ele>69.408766</ele>
        <time>2021-12-05T00:59:53.247Z</time>
      </trkpt>
      <trkpt lat="48.39863" lon="2.45933">
        <ele>69.352752</ele>
        <time>2021-12-05T00:59:53.941Z</time>
      </trkpt>
      <trkpt lat="48.39872" lon="2.45938">
        <ele>69.185168</ele>
        <time>2021-12-05T00:59:56.024Z</time>
      </trkpt>
      <trkpt lat="48.39882" lon="2.45939">
        <ele>69.019777</ele>
        <time>2021-12-05T00:59:58.013Z</time>
      </trkpt>
      <trkpt lat="48.39905" lon="2.45942">
        <ele>68.650282</ele>
        <time>2021-12-05T01:00:02.461Z</time>
      </trkpt>
      <trkpt lat="48.39924" lon="2.45945">
        <ele>68.334093</ele>
        <time>2021-12-05T01:00:06.283Z</time>
      </trkpt>
      <trkpt lat="48.39942" lon="2.45947">
        <ele>68.038969</ele>
        <time>2021-12-05T01:00:09.860Z</time>
      </trkpt>
      <trkpt lat="48.39953" lon="2.45949">
        <ele>67.8487</ele>
        <time>2021-12-05T01:00:12.170Z</time>
      </trkpt>
      <trkpt lat="48.39963" lon="2.45951">
        <ele>67.694624</ele>
        <time>2021-12-05T01:00:14.065Z</time>
      </trkpt>
      <trkpt lat="48.39978" lon="2.45954">
        <ele>67.441732</ele>
        <time>2021-12-05T01:00:17.165Z</time>
      </trkpt>
      <trkpt lat="48.40008" lon="2.45964">
        <ele>66.990769</ele>
        <time>2021-12-05T01:00:23.401Z</time>
      </trkpt>
      <trkpt lat="48.40016" lon="2.45967">
        <ele>66.921541</ele>
        <time>2021-12-05T01:00:25.158Z</time>
      </trkpt>
      <trkpt lat="48.40051" lon="2.45977">
        <ele>66.64072</ele>
        <time>2021-12-05T01:00:32.394Z</time>
      </trkpt>
      <trkpt lat="48.40055" lon="2.45972">
        <ele>66.5999</ele>
        <time>2021-12-05T01:00:33.474Z</time>
      </trkpt>
      <trkpt lat="48.40089" lon="2.46">
        <ele>66.285993</ele>
        <time>2021-12-05T01:00:41.284Z</time>
      </trkpt>
      <trkpt lat="48.40113" lon="2.46013">
        <ele>66.08954</ele>
        <time>2021-12-05T01:00:46.467Z</time>
      </trkpt>
      <trkpt lat="48.4013" lon="2.4602">
        <ele>65.942494</ele>
        <time>2021-12-05T01:00:50.500Z</time>
      </trkpt>
      <trkpt lat="48.40182" lon="2.46022">
        <ele>65.624507</ele>
        <time>2021-12-05T01:01:02.626Z</time>
      </trkpt>
      <trkpt lat="48.40191" lon="2.46051">
        <ele>65.675089</ele>
        <time>2021-12-05T01:01:08.146Z</time>
      </trkpt>
      <trkpt lat="48.402" lon="2.46077">
        <ele>65.721506</ele>
        <time>2021-12-05T01:01:13.123Z</time>
      </trkpt>
      <trkpt lat="48.40204" lon="2.46087">
        <ele>65.739922</ele>
        <time>2021-12-05T01:01:15.020Z</time>
      </trkpt>
      <trkpt lat="48.40229" lon="2.46158">
        <ele>65.868455</ele>
        <time>2021-12-05T01:01:28.805Z</time>
      </trkpt>
      <trkpt lat="48.40249" lon="2.46207">
        <ele>65.95895</ele>
        <time>2021-12-05T01:01:37.680Z</time>
      </trkpt>
      <trkpt lat="48.40266" lon="2.46251">
        <ele>66.030795</ele>
        <time>2021-12-05T01:01:45.513Z</time>
      </trkpt>
      <trkpt lat="48.40271" lon="2.46265">
        <ele>66.019201</ele>
        <time>2021-12-05T01:01:47.834Z</time>
      </trkpt>
      <trkpt lat="48.40275" lon="2.46279">
        <ele>66.007404</ele>
        <time>2021-12-05T01:01:50.168Z</time>
      </trkpt>
      <trkpt lat="48.40275" lon="2.4628">
        <ele>66.00668</ele>
        <time>2021-12-05T01:01:50.326Z</time>
      </trkpt>
      <trkpt lat="48.40276" lon="2.46282">
        <ele>66.004865</ele>
        <time>2021-12-05T01:01:50.729Z</time>
      </trkpt>
      <trkpt lat="48.40279" lon="2.46302">
        <ele>65.989093</ele>
        <time>2021-12-05T01:01:54.246Z</time>
      </trkpt>
      <trkpt lat="48.40283" lon="2.46332">
        <ele>65.966088</ele>
        <time>2021-12-05T01:01:59.160Z</time>
      </trkpt>
      <trkpt lat="48.40283" lon="2.46338">
        <ele>65.961107</ele>
        <time>2021-12-05T01:02:00.233Z</time>
      </trkpt>
      <trkpt lat="48.40283" lon="2.46344">
        <ele>65.956451</ele>
        <time>2021-12-05T01:02:01.250Z</time>
      </trkpt>
      <trkpt lat="48.40283" lon="2.4635">
        <ele>65.952253</ele>
        <time>2021-12-05T01:02:02.155Z</time>
      </trkpt>
      <trkpt lat="48.40283" lon="2.46358">
        <ele>65.946224</ele>
        <time>2021-12-05T01:02:03.487Z</time>
      </trkpt>
      <trkpt lat="48.40283" lon="2.46363">
        <ele>65.942256</ele>
        <time>2021-12-05T01:02:04.314Z</time>
      </trkpt>
      <trkpt lat="48.40288" lon="2.46393">
        <ele>65.918488</ele>
        <time>2021-12-05T01:02:09.143Z</time>
      </trkpt>
      <trkpt lat="48.40289" lon="2.46401">
        <ele>65.912527</ele>
        <time>2021-12-05T01:02:10.370Z</time>
      </trkpt>
      <trkpt lat="48.40289" lon="2.46403">
        <ele>65.910962</ele>
        <time>2021-12-05T01:02:10.696Z</time>
      </trkpt>
      <trkpt lat="48.40295" lon="2.46436">
        <ele>65.884824</ele>
        <time>2021-12-05T01:02:15.707Z</time>
      </trkpt>
      <trkpt lat="48.40296" lon="2.46439">
        <ele>65.882139</ele>
        <time>2021-12-05T01:02:16.230Z</time>
      </trkpt>
      <trkpt lat="48.403" lon="2.46453">
        <ele>65.870975</ele>
        <time>2021-12-05T01:02:18.449Z</time>
      </trkpt>
      <trkpt lat="48.40305" lon="2.46452">
        <ele>65.864712</ele>
        <time>2021-12-05T01:02:19.620Z</time>
      </trkpt>
      <trkpt lat="48.40328" lon="2.46455">
        <ele>65.838493</ele>
        <time>2021-12-05T01:02:24.485Z</time>
      </trkpt>
      <trkpt lat="48.40331" lon="2.46456">
        <ele>65.834549</ele>
        <time>2021-12-05T01:02:25.238Z</time>
      </trkpt>
      <trkpt lat="48.40334" lon="2.46456">
        <ele>65.830842</ele>
        <time>2021-12-05T01:02:25.949Z</time>
      </trkpt>
      <trkpt lat="48.4035" lon="2.4646">
        <ele>65.736947</ele>
        <time>2021-12-05T01:02:29.269Z</time>
      </trkpt>
      <trkpt lat="48.40365" lon="2.46463">
        <ele>65.632229</ele>
        <time>2021-12-05T01:02:32.395Z</time>
      </trkpt>
      <trkpt lat="48.4037" lon="2.46464">
        <ele>65.597093</ele>
        <time>2021-12-05T01:02:33.460Z</time>
      </trkpt>
      <trkpt lat="48.40431" lon="2.46471">
        <ele>65.172319</ele>
        <time>2021-12-05T01:02:45.905Z</time>
      </trkpt>
      <trkpt lat="48.40431" lon="2.46484">
        <ele>65.110334</ele>
        <time>2021-12-05T01:02:47.808Z</time>
      </trkpt>
      <trkpt lat="48.40431" lon="2.46489">
        <ele>65.087674</ele>
        <time>2021-12-05T01:02:48.502Z</time>
      </trkpt>
      <trkpt lat="48.40451" lon="2.46482">
        <ele>64.945526</ele>
        <time>2021-12-05T01:02:52.802Z</time>
      </trkpt>
      <trkpt lat="48.40489" lon="2.4647">
        <ele>64.670192</ele>
        <time>2021-12-05T01:03:01.151Z</time>
      </trkpt>
      <trkpt lat="48.40504" lon="2.46468">
        <ele>64.572213</ele>
        <time>2021-12-05T01:03:04.211Z</time>
      </trkpt>
      <trkpt lat="48.40546" lon="2.46469">
        <ele>64.443997</ele>
        <time>2021-12-05T01:03:12.984Z</time>
      </trkpt>
      <trkpt lat="48.40552" lon="2.4647">
        <ele>64.426263</ele>
        <time>2021-12-05T01:03:14.192Z</time>
      </trkpt>
      <trkpt lat="48.40573" lon="2.46473">
        <ele>64.361447</ele>
        <time>2021-12-05T01:03:18.686Z</time>
      </trkpt>
      <trkpt lat="48.40596" lon="2.46474">
        <ele>64.289181</ele>
        <time>2021-12-05T01:03:23.673Z</time>
      </trkpt>
      <trkpt lat="48.40601" lon="2.46474">
        <ele>64.275175</ele>
        <time>2021-12-05T01:03:24.633Z</time>
      </trkpt>
      <trkpt lat="48.40616" lon="2.46474">
        <ele>64.230719</ele>
        <time>2021-12-05T01:03:27.745Z</time>
      </trkpt>
      <trkpt lat="48.40681" lon="2.46474">
        <ele>64.032801</ele>
        <time>2021-12-05T01:03:42.842Z</time>
      </trkpt>
      <trkpt lat="48.40699" lon="2.46474">
        <ele>64.19027</ele>
        <time>2021-12-05T01:03:48.036Z</time>
      </trkpt>
      <trkpt lat="48.4071" lon="2.4647">
        <ele>64.299311</ele>
        <time>2021-12-05T01:03:51.121Z</time>
      </trkpt>
      <trkpt lat="48.40715" lon="2.46468">
        <ele>64.346492</ele>
        <time>2021-12-05T01:03:52.553Z</time>
      </trkpt>
      <trkpt lat="48.40725" lon="2.46464">
        <ele>64.448768</ele>
        <time>2021-12-05T01:03:55.673Z</time>
      </trkpt>
      <trkpt lat="48.40746" lon="2.46455">
        <ele>64.65906</ele>
        <time>2021-12-05T01:04:01.709Z</time>
      </trkpt>
      <trkpt lat="48.40761" lon="2.46447">
        <ele>64.819445</ele>
        <time>2021-12-05T01:04:06.601Z</time>
      </trkpt>
      <trkpt lat="48.40764" lon="2.46446">
        <ele>64.843932</ele>
        <time>2021-12-05T01:04:07.315Z</time>
      </trkpt>
      <trkpt lat="48.40778" lon="2.46441">
        <ele>64.985325</ele>
        <time>2021-12-05T01:04:11.361Z</time>
      </trkpt>
      <trkpt lat="48.40788" lon="2.46542">
        <ele>65.649185</ele>
        <time>2021-12-05T01:04:32.686Z</time>
      </trkpt>
      <trkpt lat="48.40792" lon="2.46579">
        <ele>65.900588</ele>
        <time>2021-12-05T01:04:40.632Z</time>
      </trkpt>
      <trkpt lat="48.40839" lon="2.46554">
        <ele>66.420432</ele>
        <time>2021-12-05T01:04:56.985Z</time>
      </trkpt>
      <trkpt lat="48.40863" lon="2.46541">
        <ele>66.69071</ele>
        <time>2021-12-05T01:05:05.752Z</time>
      </trkpt>
      <trkpt lat="48.40864" lon="2.46545">
        <ele>66.715678</ele>
        <time>2021-12-05T01:05:06.577Z</time>
      </trkpt>
      <trkpt lat="48.40883" lon="2.46643">
        <ele>67.419696</ele>
        <time>2021-12-05T01:05:26.929Z</time>
      </trkpt>
      <trkpt lat="48.40884" lon="2.46651">
        <ele>67.482199</ele>
        <time>2021-12-05T01:05:28.594Z</time>
      </trkpt>
      <trkpt lat="48.40907" lon="2.46641">
        <ele>67.643517</ele>
        <time>2021-12-05T01:05:34.640Z</time>
      </trkpt>
      <trkpt lat="48.4093" lon="2.46631">
        <ele>67.608067</ele>
        <time>2021-12-05T01:05:40.595Z</time>
      </trkpt>
      <trkpt lat="48.40929" lon="2.46626">
        <ele>67.602834</ele>
        <time>2021-12-05T01:05:41.739Z</time>
      </trkpt>
      <trkpt lat="48.40931" lon="2.46625">
        <ele>67.599514</ele>
        <time>2021-12-05T01:05:43.359Z</time>
      </trkpt>
      <trkpt lat="48.40964" lon="2.46613">
        <ele>67.551036</ele>
        <time>2021-12-05T01:05:55.984Z</time>
      </trkpt>
      <trkpt lat="48.40976" lon="2.4661">
        <ele>67.532091</ele>
        <time>2021-12-05T01:06:00.754Z</time>
      </trkpt>
      <trkpt lat="48.40978" lon="2.46609">
        <ele>67.529995</ele>
        <time>2021-12-05T01:06:01.266Z</time>
      </trkpt>
      <trkpt lat="48.41003" lon="2.46606">
        <ele>67.49256</ele>
        <time>2021-12-05T01:06:10.941Z</time>
      </trkpt>
      <trkpt lat="48.41018" lon="2.46604">
        <ele>67.470951</ele>
        <time>2021-12-05T01:06:16.423Z</time>
      </trkpt>
      <trkpt lat="48.41031" lon="2.46603">
        <ele>67.452876</ele>
        <time>2021-12-05T01:06:21.093Z</time>
      </trkpt>
      <trkpt lat="48.41031" lon="2.46609">
        <ele>67.446972</ele>
        <time>2021-12-05T01:06:22.322Z</time>
      </trkpt>
      <trkpt lat="48.41043" lon="2.46609">
        <ele>67.429641</ele>
        <time>2021-12-05T01:06:24.867Z</time>
      </trkpt>
      <trkpt lat="48.41046" lon="2.46609">
        <ele>67.425126</ele>
        <time>2021-12-05T01:06:25.549Z</time>
      </trkpt>
      <trkpt lat="48.41056" lon="2.46609">
        <ele>67.409689</ele>
        <time>2021-12-05T01:06:27.831Z</time>
      </trkpt>
      <trkpt lat="48.41076" lon="2.46609">
        <ele>67.332567</ele>
        <time>2021-12-05T01:06:31.885Z</time>
      </trkpt>
      <trkpt lat="48.41081" lon="2.46609">
        <ele>67.289345</ele>
        <time>2021-12-05T01:06:32.933Z</time>
      </trkpt>
      <trkpt lat="48.41092" lon="2.46612">
        <ele>67.194705</ele>
        <time>2021-12-05T01:06:35.258Z</time>
      </trkpt>
      <trkpt lat="48.41114" lon="2.46618">
        <ele>67.002724</ele>
        <time>2021-12-05T01:06:39.894Z</time>
      </trkpt>
      <trkpt lat="48.41133" lon="2.46638">
        <ele>66.807886</ele>
        <time>2021-12-05T01:06:44.532Z</time>
      </trkpt>
      <trkpt lat="48.41149" lon="2.46665">
        <ele>66.605961</ele>
        <time>2021-12-05T01:06:49.339Z</time>
      </trkpt>
      <trkpt lat="48.41161" lon="2.46672">
        <ele>66.496422</ele>
        <time>2021-12-05T01:06:51.971Z</time>
      </trkpt>
      <trkpt lat="48.41186" lon="2.46669">
        <ele>66.27609</ele>
        <time>2021-12-05T01:06:57.276Z</time>
      </trkpt>
      <trkpt lat="48.412" lon="2.46654">
        <ele>66.131513</ele>
        <time>2021-12-05T01:07:00.757Z</time>
      </trkpt>
      <trkpt lat="48.41208" lon="2.46637">
        <ele>66.019491</ele>
        <time>2021-12-05T01:07:03.496Z</time>
      </trkpt>
      <trkpt lat="48.41232" lon="2.46608">
        <ele>65.838463</ele>
        <time>2021-12-05T01:07:09.988Z</time>
      </trkpt>
      <trkpt lat="48.41264" lon="2.46598">
        <ele>65.767254</ele>
        <time>2021-12-05T01:07:16.830Z</time>
      </trkpt>
      <trkpt lat="48.41279" lon="2.46594">
        <ele>65.733789</ele>
        <time>2021-12-05T01:07:20.079Z</time>
      </trkpt>
      <trkpt lat="48.41304" lon="2.46589">
        <ele>65.678483</ele>
        <time>2021-12-05T01:07:25.509Z</time>
      </trkpt>
      <trkpt lat="48.41392" lon="2.46571">
        <ele>65.4828</ele>
        <time>2021-12-05T01:07:46.134Z</time>
      </trkpt>
      <trkpt lat="48.41458" lon="2.46562">
        <ele>65.666263</ele>
        <time>2021-12-05T01:08:04.096Z</time>
      </trkpt>
      <trkpt lat="48.41588" lon="2.46546">
        <ele>66.009585</ele>
        <time>2021-12-05T01:08:36.133Z</time>
      </trkpt>
      <trkpt lat="48.41612" lon="2.46537">
        <ele>65.968777</ele>
        <time>2021-12-05T01:08:41.833Z</time>
      </trkpt>
      <trkpt lat="48.41633" lon="2.46523">
        <ele>65.93076</ele>
        <time>2021-12-05T01:08:46.953Z</time>
      </trkpt>
      <trkpt lat="48.417" lon="2.4645">
        <ele>65.792994</ele>
        <time>2021-12-05T01:09:05.658Z</time>
      </trkpt>
      <trkpt lat="48.41743" lon="2.46443">
        <ele>65.727819</ele>
        <time>2021-12-05T01:09:14.679Z</time>
      </trkpt>
      <trkpt lat="48.41755" lon="2.46458">
        <ele>65.717482</ele>
        <time>2021-12-05T01:09:17.933Z</time>
      </trkpt>
      <trkpt lat="48.41759" lon="2.46478">
        <ele>65.708394</ele>
        <time>2021-12-05T01:09:20.974Z</time>
      </trkpt>
      <trkpt lat="48.41762" lon="2.46493">
        <ele>65.701646</ele>
        <time>2021-12-05T01:09:23.288Z</time>
      </trkpt>
      <trkpt lat="48.41781" lon="2.46517">
        <ele>65.685707</ele>
        <time>2021-12-05T01:09:28.770Z</time>
      </trkpt>
      <trkpt lat="48.41793" lon="2.46519">
        <ele>65.677975</ele>
        <time>2021-12-05T01:09:31.515Z</time>
      </trkpt>
      <trkpt lat="48.4181" lon="2.46509">
        <ele>65.666329</ele>
        <time>2021-12-05T01:09:35.669Z</time>
      </trkpt>
      <trkpt lat="48.41816" lon="2.46497">
        <ele>65.659695</ele>
        <time>2021-12-05T01:09:38.084Z</time>
      </trkpt>
      <trkpt lat="48.41836" lon="2.46491">
        <ele>65.646775</ele>
        <time>2021-12-05T01:09:42.965Z</time>
      </trkpt>
      <trkpt lat="48.41867" lon="2.4651">
        <ele>65.624947</ele>
        <time>2021-12-05T01:09:51.430Z</time>
      </trkpt>
      <trkpt lat="48.41904" lon="2.46527">
        <ele>65.597862</ele>
        <time>2021-12-05T01:10:01.144Z</time>
      </trkpt>
      <trkpt lat="48.41973" lon="2.46527">
        <ele>65.547753</ele>
        <time>2021-12-05T01:10:17.265Z</time>
      </trkpt>
      <trkpt lat="48.41991" lon="2.46527">
        <ele>65.534767</ele>
        <time>2021-12-05T01:10:21.618Z</time>
      </trkpt>
      <trkpt lat="48.42019" lon="2.46526">
        <ele>65.514046</ele>
        <time>2021-12-05T01:10:28.456Z</time>
      </trkpt>
      <trkpt lat="48.42261" lon="2.46518">
        <ele>64.073997</ele>
        <time>2021-12-05T01:11:19.139Z</time>
      </trkpt>
      <trkpt lat="48.42266" lon="2.46413">
        <ele>63.394311</ele>
        <time>2021-12-05T01:11:38.145Z</time>
      </trkpt>
      <trkpt lat="48.42155" lon="2.46413">
        <ele>62.57477</ele>
        <time>2021-12-05T01:12:16.991Z</time>
      </trkpt>
      <trkpt lat="48.42099" lon="2.46392">
        <ele>62.678157</ele>
        <time>2021-12-05T01:12:38.177Z</time>
      </trkpt>
      <trkpt lat="48.42155" lon="2.46413">
        <ele>62.781544</ele>
        <time>2021-12-05T01:13:00.932Z</time>
      </trkpt>
      <trkpt lat="48.42266" lon="2.46413">
        <ele>64.283475</ele>
        <time>2021-12-05T01:13:52.505Z</time>
      </trkpt>
      <trkpt lat="48.42261" lon="2.46518">
        <ele>65.764634</ele>
        <time>2021-12-05T01:14:23.447Z</time>
      </trkpt>
      <trkpt lat="48.42319" lon="2.46516">
        <ele>67.172932</ele>
        <time>2021-12-05T01:14:47.571Z</time>
      </trkpt>
      <trkpt lat="48.42678" lon="2.4651">
        <ele>77.811236</ele>
        <time>2021-12-05T01:17:17.911Z</time>
      </trkpt>
      <trkpt lat="48.42683" lon="2.4651">
        <ele>77.889865</ele>
        <time>2021-12-05T01:17:19.944Z</time>
      </trkpt>
      <trkpt lat="48.42686" lon="2.46904">
        <ele>78.739482</ele>
        <time>2021-12-05T01:19:15.125Z</time>
      </trkpt>
      <trkpt lat="48.42716" lon="2.46928">
        <ele>78.290802</ele>
        <time>2021-12-05T01:19:20.927Z</time>
      </trkpt>
      <trkpt lat="48.42829" lon="2.47022">
        <ele>74.122478</ele>
        <time>2021-12-05T01:19:41.706Z</time>
      </trkpt>
      <trkpt lat="48.42931" lon="2.47103">
        <ele>69.845237</ele>
        <time>2021-12-05T01:20:00.717Z</time>
      </trkpt>
      <trkpt lat="48.42984" lon="2.47129">
        <ele>68.98717</ele>
        <time>2021-12-05T01:20:11.298Z</time>
      </trkpt>
      <trkpt lat="48.43072" lon="2.46727">
        <ele>66.771764</ele>
        <time>2021-12-05T01:21:14.646Z</time>
      </trkpt>
      <trkpt lat="48.43235" lon="2.46819">
        <ele>68.101244</ele>
        <time>2021-12-05T01:22:31.592Z</time>
      </trkpt>
      <trkpt lat="48.43276" lon="2.46849">
        <ele>68.1612</ele>
        <time>2021-12-05T01:22:51.464Z</time>
      </trkpt>
      <trkpt lat="48.43724" lon="2.47204">
        <ele>67.897374</ele>
        <time>2021-12-05T01:26:02.001Z</time>
      </trkpt>
      <trkpt lat="48.43753" lon="2.47084">
        <ele>67.654833</ele>
        <time>2021-12-05T01:26:22.233Z</time>
      </trkpt>
      <trkpt lat="48.43766" lon="2.47067">
        <ele>67.6053</ele>
        <time>2021-12-05T01:26:26.265Z</time>
      </trkpt>
      <trkpt lat="48.43775" lon="2.4707">
        <ele>67.578502</ele>
        <time>2021-12-05T01:26:28.427Z</time>
      </trkpt>
      <trkpt lat="48.43784" lon="2.47079">
        <ele>67.547802</ele>
        <time>2021-12-05T01:26:30.911Z</time>
      </trkpt>
      <trkpt lat="48.43836" lon="2.47173">
        <ele>67.368003</ele>
        <time>2021-12-05T01:26:49.115Z</time>
      </trkpt>
      <trkpt lat="48.43909" lon="2.47348">
        <ele>67.22782</ele>
        <time>2021-12-05T01:27:21.617Z</time>
      </trkpt>
      <trkpt lat="48.43924" lon="2.47369">
        <ele>67.255919</ele>
        <time>2021-12-05T01:27:27.299Z</time>
      </trkpt>
      <trkpt lat="48.43933" lon="2.47347">
        <ele>67.380375</ele>
        <time>2021-12-05T01:27:33.070Z</time>
      </trkpt>
      <trkpt lat="48.44003" lon="2.47241">
        <ele>68.084324</ele>
        <time>2021-12-05T01:28:11.043Z</time>
      </trkpt>
      <trkpt lat="48.44089" lon="2.4711">
        <ele>68.272843</ele>
        <time>2021-12-05T01:28:48.638Z</time>
      </trkpt>
      <trkpt lat="48.44159" lon="2.46996">
        <ele>67.916046</ele>
        <time>2021-12-05T01:29:17.816Z</time>
      </trkpt>
      <trkpt lat="48.44309" lon="2.47211">
        <ele>67.350606</ele>
        <time>2021-12-05T01:30:17.637Z</time>
      </trkpt>
      <trkpt lat="48.4433" lon="2.4724">
        <ele>67.63071</ele>
        <time>2021-12-05T01:30:27.253Z</time>
      </trkpt>
      <trkpt lat="48.4462" lon="2.47651">
        <ele>72.335075</ele>
        <time>2021-12-05T01:33:31.871Z</time>
      </trkpt>
      <trkpt lat="48.44638" lon="2.47667">
        <ele>72.56015</ele>
        <time>2021-12-05T01:33:41.417Z</time>
      </trkpt>
      <trkpt lat="48.44673" lon="2.47675">
        <ele>72.93637</ele>
        <time>2021-12-05T01:33:57.033Z</time>
      </trkpt>
      <trkpt lat="48.44661" lon="2.47693">
        <ele>73.119136</ele>
        <time>2021-12-05T01:34:04.415Z</time>
      </trkpt>
      <trkpt lat="48.44778" lon="2.47738">
        <ele>73.581523</ele>
        <time>2021-12-05T01:34:36.945Z</time>
      </trkpt>
      <trkpt lat="48.44862" lon="2.47784">
        <ele>73.72284</ele>
        <time>2021-12-05T01:34:58.468Z</time>
      </trkpt>
      <trkpt lat="48.44898" lon="2.47814">
        <ele>73.494884</ele>
        <time>2021-12-05T01:35:08.007Z</time>
      </trkpt>
      <trkpt lat="48.45022" lon="2.47945">
        <ele>72.534467</ele>
        <time>2021-12-05T01:35:41.602Z</time>
      </trkpt>
      <trkpt lat="48.45106" lon="2.4805">
        <ele>71.275829</ele>
        <time>2021-12-05T01:36:04.660Z</time>
      </trkpt>
      <trkpt lat="48.4517" lon="2.48148">
        <ele>70.438236</ele>
        <time>2021-12-05T01:36:23.561Z</time>
      </trkpt>
      <trkpt lat="48.45176" lon="2.4816">
        <ele>70.377656</ele>
        <time>2021-12-05T01:36:25.629Z</time>
      </trkpt>
      <trkpt lat="48.4523" lon="2.48199">
        <ele>70.010141</ele>
        <time>2021-12-05T01:36:39.165Z</time>
      </trkpt>
      <trkpt lat="48.45295" lon="2.48237">
        <ele>69.584961</ele>
        <time>2021-12-05T01:36:55.688Z</time>
      </trkpt>
      <trkpt lat="48.45275" lon="2.48316">
        <ele>69.427313</ele>
        <time>2021-12-05T01:37:10.058Z</time>
      </trkpt>
      <trkpt lat="48.4528" lon="2.48364">
        <ele>69.33922</ele>
        <time>2021-12-05T01:37:18.138Z</time>
      </trkpt>
      <trkpt lat="48.45298" lon="2.48408">
        <ele>69.243259</ele>
        <time>2021-12-05T01:37:26.756Z</time>
      </trkpt>
      <trkpt lat="48.45352" lon="2.48526">
        <ele>68.338817</ele>
        <time>2021-12-05T01:37:47.220Z</time>
      </trkpt>
      <trkpt lat="48.45391" lon="2.48576">
        <ele>67.293441</ele>
        <time>2021-12-05T01:37:57.379Z</time>
      </trkpt>
      <trkpt lat="48.4543" lon="2.4862">
        <ele>66.287916</ele>
        <time>2021-12-05T01:38:13.095Z</time>
      </trkpt>
      <trkpt lat="48.45551" lon="2.48781">
        <ele>63.31932</ele>
        <time>2021-12-05T01:39:04.483Z</time>
      </trkpt>
      <trkpt lat="48.45568" lon="2.4881">
        <ele>62.855339</ele>
        <time>2021-12-05T01:39:13.481Z</time>
      </trkpt>
      <trkpt lat="48.45605" lon="2.48899">
        <ele>62.717505</ele>
        <time>2021-12-05T01:39:39.731Z</time>
      </trkpt>
      <trkpt lat="48.45624" lon="2.48925">
        <ele>63.081546</ele>
        <time>2021-12-05T01:39:49.896Z</time>
      </trkpt>
      <trkpt lat="48.45675" lon="2.48969">
        <ele>63.910774</ele>
        <time>2021-12-05T01:40:16.752Z</time>
      </trkpt>
      <trkpt lat="48.45694" lon="2.48999">
        <ele>64.299807</ele>
        <time>2021-12-05T01:40:31.987Z</time>
      </trkpt>
      <trkpt lat="48.457" lon="2.49032">
        <ele>64.622267</ele>
        <time>2021-12-05T01:40:44.433Z</time>
      </trkpt>
      <trkpt lat="48.45692" lon="2.49108">
        <ele>66.145663</ele>
        <time>2021-12-05T01:41:14.309Z</time>
      </trkpt>
      <trkpt lat="48.45696" lon="2.49124">
        <ele>66.549504</ele>
        <time>2021-12-05T01:41:21.018Z</time>
      </trkpt>
      <trkpt lat="48.45759" lon="2.49161">
        <ele>68.879403</ele>
        <time>2021-12-05T01:42:02.958Z</time>
      </trkpt>
      <trkpt lat="48.45969" lon="2.49308">
        <ele>75.815104</ele>
        <time>2021-12-05T01:44:14.292Z</time>
      </trkpt>
      <trkpt lat="48.46018" lon="2.49378">
        <ele>76.526046</ele>
        <time>2021-12-05T01:44:45.434Z</time>
      </trkpt>
      <trkpt lat="48.46066" lon="2.49459">
        <ele>77.07536</ele>
        <time>2021-12-05T01:45:15.361Z</time>
      </trkpt>
      <trkpt lat="48.46103" lon="2.49489">
        <ele>77.402683</ele>
        <time>2021-12-05T01:45:31.808Z</time>
      </trkpt>
      <trkpt lat="48.46135" lon="2.49557">
        <ele>76.985296</ele>
        <time>2021-12-05T01:45:51.900Z</time>
      </trkpt>
      <trkpt lat="48.4616" lon="2.49646">
        <ele>76.345373</ele>
        <time>2021-12-05T01:46:14.833Z</time>
      </trkpt>
      <trkpt lat="48.46185" lon="2.4968">
        <ele>76.00408</ele>
        <time>2021-12-05T01:46:26.517Z</time>
      </trkpt>
      <trkpt lat="48.4621" lon="2.49664">
        <ele>75.735463</ele>
        <time>2021-12-05T01:46:35.537Z</time>
      </trkpt>
      <trkpt lat="48.46219" lon="2.49647">
        <ele>75.453161</ele>
        <time>2021-12-05T01:46:40.261Z</time>
      </trkpt>
      <trkpt lat="48.46197" lon="2.49593">
        <ele>74.251637</ele>
        <time>2021-12-05T01:46:53.890Z</time>
      </trkpt>
      <trkpt lat="48.46201" lon="2.49563">
        <ele>73.659166</ele>
        <time>2021-12-05T01:47:00.578Z</time>
      </trkpt>
      <trkpt lat="48.46289" lon="2.49481">
        <ele>70.715913</ele>
        <time>2021-12-05T01:47:32.652Z</time>
      </trkpt>
      <trkpt lat="48.46423" lon="2.4973">
        <ele>62.047539</ele>
        <time>2021-12-05T01:48:36.062Z</time>
      </trkpt>
      <trkpt lat="48.4647" lon="2.49797">
        <ele>59.199946</ele>
        <time>2021-12-05T01:48:54.871Z</time>
      </trkpt>
      <trkpt lat="48.46587" lon="2.49942">
        <ele>53.974959</ele>
        <time>2021-12-05T01:49:39.924Z</time>
      </trkpt>
      <trkpt lat="48.4668" lon="2.50147">
        <ele>51.517778</ele>
        <time>2021-12-05T01:50:37.230Z</time>
      </trkpt>
      <trkpt lat="48.46766" lon="2.50322">
        <ele>51.71482</ele>
        <time>2021-12-05T01:51:37.440Z</time>
      </trkpt>
      <trkpt lat="48.46863" lon="2.50497">
        <ele>52.514405</ele>
        <time>2021-12-05T01:52:41.155Z</time>
      </trkpt>
      <trkpt lat="48.46966" lon="2.50711">
        <ele>52.470045</ele>
        <time>2021-12-05T01:53:47.855Z</time>
      </trkpt>
      <trkpt lat="48.46984" lon="2.50694">
        <ele>52.452639</ele>
        <time>2021-12-05T01:53:55.473Z</time>
      </trkpt>
      <trkpt lat="48.47013" lon="2.50667">
        <ele>52.1022</ele>
        <time>2021-12-05T01:54:07.855Z</time>
      </trkpt>
      <trkpt lat="48.47022" lon="2.5066">
        <ele>51.999923</ele>
        <time>2021-12-05T01:54:10.056Z</time>
      </trkpt>
      <trkpt lat="48.47084" lon="2.50625">
        <ele>51.323767</ele>
        <time>2021-12-05T01:54:24.034Z</time>
      </trkpt>
      <trkpt lat="48.47129" lon="2.50709">
        <ele>50.60001</ele>
        <time>2021-12-05T01:54:38.997Z</time>
      </trkpt>
      <trkpt lat="48.47153" lon="2.5075">
        <ele>50.303867</ele>
        <time>2021-12-05T01:54:46.588Z</time>
      </trkpt>
      <trkpt lat="48.47174" lon="2.5077">
        <ele>50.097632</ele>
        <time>2021-12-05T01:54:51.896Z</time>
      </trkpt>
      <trkpt lat="48.47203" lon="2.50778">
        <ele>49.86139</ele>
        <time>2021-12-05T01:54:58.037Z</time>
      </trkpt>
      <trkpt lat="48.47236" lon="2.50804">
        <ele>49.558113</ele>
        <time>2021-12-05T01:55:05.985Z</time>
      </trkpt>
      <trkpt lat="48.47417" lon="2.50978">
        <ele>49.310252</ele>
        <time>2021-12-05T01:55:58.221Z</time>
      </trkpt>
      <trkpt lat="48.47451" lon="2.51013">
        <ele>49.376891</ele>
        <time>2021-12-05T01:56:10.355Z</time>
      </trkpt>
      <trkpt lat="48.47509" lon="2.50977">
        <ele>49.503503</ele>
        <time>2021-12-05T01:56:26.017Z</time>
      </trkpt>
      <trkpt lat="48.47531" lon="2.50948">
        <ele>49.562074</ele>
        <time>2021-12-05T01:56:33.180Z</time>
      </trkpt>
      <trkpt lat="48.47562" lon="2.50986">
        <ele>49.641729</ele>
        <time>2021-12-05T01:56:42.951Z</time>
      </trkpt>
      <trkpt lat="48.47554" lon="2.51006">
        <ele>49.671376</ele>
        <time>2021-12-05T01:56:46.629Z</time>
      </trkpt>
      <trkpt lat="48.47556" lon="2.51019">
        <ele>49.683428</ele>
        <time>2021-12-05T01:56:48.673Z</time>
      </trkpt>
      <trkpt lat="48.47587" lon="2.51077">
        <ele>49.413985</ele>
        <time>2021-12-05T01:57:07.012Z</time>
      </trkpt>
      <trkpt lat="48.47658" lon="2.51164">
        <ele>48.918615</ele>
        <time>2021-12-05T01:57:39.334Z</time>
      </trkpt>
      <trkpt lat="48.47705" lon="2.51259">
        <ele>48.671925</ele>
        <time>2021-12-05T01:58:07.885Z</time>
      </trkpt>
      <trkpt lat="48.47755" lon="2.51334">
        <ele>48.607772</ele>
        <time>2021-12-05T01:58:34.823Z</time>
      </trkpt>
      <trkpt lat="48.47774" lon="2.51397">
        <ele>48.565082</ele>
        <time>2021-12-05T01:58:53.168Z</time>
      </trkpt>
      <trkpt lat="48.47793" lon="2.5149">
        <ele>48.590411</ele>
        <time>2021-12-05T01:59:18.088Z</time>
      </trkpt>
      <trkpt lat="48.47802" lon="2.5151">
        <ele>48.609218</ele>
        <time>2021-12-05T01:59:22.339Z</time>
      </trkpt>
      <trkpt lat="48.4781" lon="2.51528">
        <ele>48.625619</ele>
        <time>2021-12-05T01:59:27.883Z</time>
      </trkpt>
      <trkpt lat="48.47829" lon="2.51572">
        <ele>48.665961</ele>
        <time>2021-12-05T01:59:36.499Z</time>
      </trkpt>
      <trkpt lat="48.47924" lon="2.51741">
        <ele>48.768101</ele>
        <time>2021-12-05T02:00:32.940Z</time>
      </trkpt>
      <trkpt lat="48.47982" lon="2.51864">
        <ele>48.792775</ele>
        <time>2021-12-05T02:01:11.056Z</time>
      </trkpt>
      <trkpt lat="48.47997" lon="2.51957">
        <ele>48.738558</ele>
        <time>2021-12-05T02:01:35.365Z</time>
      </trkpt>
      <trkpt lat="48.48045" lon="2.52106">
        <ele>48.630067</ele>
        <time>2021-12-05T02:02:16.545Z</time>
      </trkpt>
      <trkpt lat="48.48037" lon="2.52186">
        <ele>48.573881</ele>
        <time>2021-12-05T02:02:29.443Z</time>
      </trkpt>
      <trkpt lat="48.48049" lon="2.52265">
        <ele>48.517558</ele>
        <time>2021-12-05T02:02:42.106Z</time>
      </trkpt>
      <trkpt lat="48.4808" lon="2.52386">
        <ele>48.4262</ele>
        <time>2021-12-05T02:03:14.600Z</time>
      </trkpt>
      <trkpt lat="48.48104" lon="2.52598">
        <ele>48.419281</ele>
        <time>2021-12-05T02:04:08.892Z</time>
      </trkpt>
      <trkpt lat="48.48118" lon="2.52673">
        <ele>48.440422</ele>
        <time>2021-12-05T02:04:28.561Z</time>
      </trkpt>
      <trkpt lat="48.48195" lon="2.5292">
        <ele>48.937597</ele>
        <time>2021-12-05T02:05:38.947Z</time>
      </trkpt>
      <trkpt lat="48.48204" lon="2.5298">
        <ele>49.567945</ele>
        <time>2021-12-05T02:05:56.618Z</time>
      </trkpt>
      <trkpt lat="48.48212" lon="2.53009">
        <ele>49.887602</ele>
        <time>2021-12-05T02:06:05.983Z</time>
      </trkpt>
      <trkpt lat="48.48226" lon="2.53036">
        <ele>50.233625</ele>
        <time>2021-12-05T02:06:16.459Z</time>
      </trkpt>
      <trkpt lat="48.48286" lon="2.53113">
        <ele>51.445827</ele>
        <time>2021-12-05T02:06:55.891Z</time>
      </trkpt>
      <trkpt lat="48.48454" lon="2.52905">
        <ele>58.541409</ele>
        <time>2021-12-05T02:09:05.090Z</time>
      </trkpt>
      <trkpt lat="48.48499" lon="2.52863">
        <ele>60.122668</ele>
        <time>2021-12-05T02:09:36.038Z</time>
      </trkpt>
      <trkpt lat="48.48582" lon="2.52757">
        <ele>63.042555</ele>
        <time>2021-12-05T02:10:35.175Z</time>
      </trkpt>
      <trkpt lat="48.48641" lon="2.52836">
        <ele>63.773739</ele>
        <time>2021-12-05T02:11:12.821Z</time>
      </trkpt>
      <trkpt lat="48.48647" lon="2.52855">
        <ele>63.906617</ele>
        <time>2021-12-05T02:11:18.643Z</time>
      </trkpt>
      <trkpt lat="48.48656" lon="2.52911">
        <ele>64.258322</ele>
        <time>2021-12-05T02:11:33.389Z</time>
      </trkpt>
      <trkpt lat="48.48694" lon="2.5298">
        <ele>64.138339</ele>
        <time>2021-12-05T02:11:54.784Z</time>
      </trkpt>
      <trkpt lat="48.48732" lon="2.53025">
        <ele>63.453577</ele>
        <time>2021-12-05T02:12:11.493Z</time>
      </trkpt>
      <trkpt lat="48.4884" lon="2.5312">
        <ele>61.818396</ele>
        <time>2021-12-05T02:12:52.975Z</time>
      </trkpt>
      <trkpt lat="48.489" lon="2.53171">
        <ele>61.24064</ele>
        <time>2021-12-05T02:13:07.168Z</time>
      </trkpt>
      <trkpt lat="48.48977" lon="2.5327">
        <ele>60.530024</ele>
        <time>2021-12-05T02:13:44.901Z</time>
      </trkpt>
      <trkpt lat="48.49041" lon="2.53374">
        <ele>60.818017</ele>
        <time>2021-12-05T02:14:24.108Z</time>
      </trkpt>
      <trkpt lat="48.49084" lon="2.53462">
        <ele>61.038103</ele>
        <time>2021-12-05T02:14:52.772Z</time>
      </trkpt>
      <trkpt lat="48.49077" lon="2.53538">
        <ele>61.087885</ele>
        <time>2021-12-05T02:15:12.643Z</time>
      </trkpt>
      <trkpt lat="48.49124" lon="2.53661">
        <ele>61.176022</ele>
        <time>2021-12-05T02:15:48.904Z</time>
      </trkpt>
      <trkpt lat="48.49175" lon="2.53777">
        <ele>60.476721</ele>
        <time>2021-12-05T02:16:24.465Z</time>
      </trkpt>
      <trkpt lat="48.49193" lon="2.53802">
        <ele>60.158209</ele>
        <time>2021-12-05T02:16:33.334Z</time>
      </trkpt>
      <trkpt lat="48.49214" lon="2.5385">
        <ele>59.669116</ele>
        <time>2021-12-05T02:16:46.337Z</time>
      </trkpt>
      <trkpt lat="48.49247" lon="2.53906">
        <ele>59.021905</ele>
        <time>2021-12-05T02:17:02.568Z</time>
      </trkpt>
      <trkpt lat="48.49269" lon="2.53933">
        <ele>58.287285</ele>
        <time>2021-12-05T02:17:11.280Z</time>
      </trkpt>
      <trkpt lat="48.49316" lon="2.53972">
        <ele>56.433824</ele>
        <time>2021-12-05T02:17:27.555Z</time>
      </trkpt>
      <trkpt lat="48.49328" lon="2.54101">
        <ele>53.466259</ele>
        <time>2021-12-05T02:17:53.503Z</time>
      </trkpt>
      <trkpt lat="48.49333" lon="2.54202">
        <ele>52.190133</ele>
        <time>2021-12-05T02:18:14.476Z</time>
      </trkpt>
      <trkpt lat="48.4934" lon="2.54249">
        <ele>51.832301</ele>
        <time>2021-12-05T02:18:25.149Z</time>
      </trkpt>
      <trkpt lat="48.49351" lon="2.54278">
        <ele>51.580994</ele>
        <time>2021-12-05T02:18:33.086Z</time>
      </trkpt>
      <trkpt lat="48.49374" lon="2.54305">
        <ele>51.24748</ele>
        <time>2021-12-05T02:18:44.104Z</time>
      </trkpt>
      <trkpt lat="48.49381" lon="2.54317">
        <ele>51.13339</ele>
        <time>2021-12-05T02:18:47.957Z</time>
      </trkpt>
      <trkpt lat="48.49399" lon="2.54371">
        <ele>50.677337</ele>
        <time>2021-12-05T02:18:59.212Z</time>
      </trkpt>
      <trkpt lat="48.49407" lon="2.5438">
        <ele>50.707098</ele>
        <time>2021-12-05T02:19:02.469Z</time>
      </trkpt>
      <trkpt lat="48.49556" lon="2.54366">
        <ele>51.288474</ele>
        <time>2021-12-05T02:19:41.371Z</time>
      </trkpt>
      <trkpt lat="48.49607" lon="2.54374">
        <ele>51.479187</ele>
        <time>2021-12-05T02:19:52.576Z</time>
      </trkpt>
      <trkpt lat="48.49733" lon="2.54418">
        <ele>51.928104</ele>
        <time>2021-12-05T02:20:25.799Z</time>
      </trkpt>
      <trkpt lat="48.49747" lon="2.54412">
        <ele>51.977667</ele>
        <time>2021-12-05T02:20:29.031Z</time>
      </trkpt>
      <trkpt lat="48.49811" lon="2.54461">
        <ele>52.403166</ele>
        <time>2021-12-05T02:21:00.411Z</time>
      </trkpt>
      <trkpt lat="48.49813" lon="2.54486">
        <ele>52.506125</ele>
        <time>2021-12-05T02:21:08.259Z</time>
      </trkpt>
      <trkpt lat="48.4987" lon="2.54469">
        <ele>52.863723</ele>
        <time>2021-12-05T02:21:31.616Z</time>
      </trkpt>
      <trkpt lat="48.49868" lon="2.54446">
        <ele>52.959015</ele>
        <time>2021-12-05T02:21:38.869Z</time>
      </trkpt>
      <trkpt lat="48.49918" lon="2.54422">
        <ele>53.089149</ele>
        <time>2021-12-05T02:21:59.312Z</time>
      </trkpt>
      <trkpt lat="48.49948" lon="2.544">
        <ele>53.074364</ele>
        <time>2021-12-05T02:22:11.984Z</time>
      </trkpt>
      <trkpt lat="48.49973" lon="2.5436">
        <ele>53.058266</ele>
        <time>2021-12-05T02:22:24.999Z</time>
      </trkpt>
      <trkpt lat="48.49998" lon="2.54333">
        <ele>53.044971</ele>
        <time>2021-12-05T02:22:36.054Z</time>
      </trkpt>
      <trkpt lat="48.50069" lon="2.5422">
        <ele>53.749727</ele>
        <time>2021-12-05T02:23:17.312Z</time>
      </trkpt>
      <trkpt lat="48.50107" lon="2.54177">
        <ele>54.409766</ele>
        <time>2021-12-05T02:23:39.631Z</time>
      </trkpt>
      <trkpt lat="48.50209" lon="2.54132">
        <ele>56.014506</ele>
        <time>2021-12-05T02:24:34.060Z</time>
      </trkpt>
      <trkpt lat="48.50237" lon="2.54126">
        <ele>56.524181</ele>
        <time>2021-12-05T02:24:48.264Z</time>
      </trkpt>
      <trkpt lat="48.50301" lon="2.54135">
        <ele>57.706362</ele>
        <time>2021-12-05T02:25:20.258Z</time>
      </trkpt>
      <trkpt lat="48.5037" lon="2.5415">
        <ele>58.91628</ele>
        <time>2021-12-05T02:25:53.757Z</time>
      </trkpt>
      <trkpt lat="48.50964" lon="2.54629">
        <ele>64.531063</ele>
        <time>2021-12-05T02:30:47.918Z</time>
      </trkpt>
      <trkpt lat="48.51036" lon="2.54653">
        <ele>64.117735</ele>
        <time>2021-12-05T02:31:13.513Z</time>
      </trkpt>
      <trkpt lat="48.51069" lon="2.54654">
        <ele>63.618281</ele>
        <time>2021-12-05T02:31:24.752Z</time>
      </trkpt>
      <trkpt lat="48.51078" lon="2.54656">
        <ele>63.481937</ele>
        <time>2021-12-05T02:31:27.755Z</time>
      </trkpt>
      <trkpt lat="48.51094" lon="2.54658">
        <ele>63.251662</ele>
        <time>2021-12-05T02:31:32.775Z</time>
      </trkpt>
      <trkpt lat="48.51121" lon="2.54685">
        <ele>62.752231</ele>
        <time>2021-12-05T02:31:43.759Z</time>
      </trkpt>
      <trkpt lat="48.51128" lon="2.54705">
        <ele>62.531887</ele>
        <time>2021-12-05T02:31:48.663Z</time>
      </trkpt>
      <trkpt lat="48.5115" lon="2.54726">
        <ele>62.137198</ele>
        <time>2021-12-05T02:31:57.143Z</time>
      </trkpt>
      <trkpt lat="48.51212" lon="2.54829">
        <ele>61.292571</ele>
        <time>2021-12-05T02:32:28.692Z</time>
      </trkpt>
      <trkpt lat="48.51245" lon="2.54897">
        <ele>60.830714</ele>
        <time>2021-12-05T02:32:49.184Z</time>
      </trkpt>
      <trkpt lat="48.51276" lon="2.54979">
        <ele>60.552071</ele>
        <time>2021-12-05T02:33:12.414Z</time>
      </trkpt>
      <trkpt lat="48.51316" lon="2.55037">
        <ele>60.795127</ele>
        <time>2021-12-05T02:33:33.626Z</time>
      </trkpt>
      <trkpt lat="48.51328" lon="2.55074">
        <ele>60.916426</ele>
        <time>2021-12-05T02:33:45.204Z</time>
      </trkpt>
      <trkpt lat="48.51349" lon="2.55108">
        <ele>61.051765</ele>
        <time>2021-12-05T02:33:58.619Z</time>
      </trkpt>
      <trkpt lat="48.51377" lon="2.55174">
        <ele>61.246973</ele>
        <time>2021-12-05T02:34:21.592Z</time>
      </trkpt>
      <trkpt lat="48.51403" lon="2.55205">
        <ele>61.160153</ele>
        <time>2021-12-05T02:34:35.853Z</time>
      </trkpt>
      <trkpt lat="48.51413" lon="2.55232">
        <ele>61.10498</ele>
        <time>2021-12-05T02:34:45.150Z</time>
      </trkpt>
      <trkpt lat="48.51457" lon="2.55307">
        <ele>60.927361</ele>
        <time>2021-12-05T02:35:10.498Z</time>
      </trkpt>
      <trkpt lat="48.5148" lon="2.55331">
        <ele>60.854137</ele>
        <time>2021-12-05T02:35:20.204Z</time>
      </trkpt>
      <trkpt lat="48.5153" lon="2.55352">
        <ele>59.927959</ele>
        <time>2021-12-05T02:35:37.517Z</time>
      </trkpt>
      <trkpt lat="48.51573" lon="2.55346">
        <ele>58.437635</ele>
        <time>2021-12-05T02:35:50.561Z</time>
      </trkpt>
      <trkpt lat="48.51612" lon="2.55352">
        <ele>57.055302</ele>
        <time>2021-12-05T02:36:02.535Z</time>
      </trkpt>
      <trkpt lat="48.51679" lon="2.55341">
        <ele>54.726519</ele>
        <time>2021-12-05T02:36:22.551Z</time>
      </trkpt>
      <trkpt lat="48.51693" lon="2.5533">
        <ele>54.191172</ele>
        <time>2021-12-05T02:36:27.221Z</time>
      </trkpt>
      <trkpt lat="48.51734" lon="2.55326">
        <ele>52.902642</ele>
        <time>2021-12-05T02:36:39.283Z</time>
      </trkpt>
      <trkpt lat="48.51803" lon="2.5534">
        <ele>50.692817</ele>
        <time>2021-12-05T02:37:00.562Z</time>
      </trkpt>
      <trkpt lat="48.51825" lon="2.55328">
        <ele>49.952262</ele>
        <time>2021-12-05T02:37:07.735Z</time>
      </trkpt>
      <trkpt lat="48.51923" lon="2.55437">
        <ele>48.094708</ele>
        <time>2021-12-05T02:37:31.526Z</time>
      </trkpt>
      <trkpt lat="48.51948" lon="2.55404">
        <ele>47.81949</ele>
        <time>2021-12-05T02:37:38.339Z</time>
      </trkpt>
      <trkpt lat="48.51958" lon="2.55392">
        <ele>47.714246</ele>
        <time>2021-12-05T02:37:41.201Z</time>
      </trkpt>
      <trkpt lat="48.51963" lon="2.55387">
        <ele>47.665315</ele>
        <time>2021-12-05T02:37:42.529Z</time>
      </trkpt>
      <trkpt lat="48.51988" lon="2.55426">
        <ele>47.371526</ele>
        <time>2021-12-05T02:37:51.804Z</time>
      </trkpt>
      <trkpt lat="48.51997" lon="2.55399">
        <ele>47.458064</ele>
        <time>2021-12-05T02:38:00.526Z</time>
      </trkpt>
      <trkpt lat="48.51997" lon="2.55372">
        <ele>47.623244</ele>
        <time>2021-12-05T02:38:07.487Z</time>
      </trkpt>
      <trkpt lat="48.52022" lon="2.55348">
        <ele>47.899462</ele>
        <time>2021-12-05T02:38:19.862Z</time>
      </trkpt>
      <trkpt lat="48.52028" lon="2.55373">
        <ele>48.063878</ele>
        <time>2021-12-05T02:38:24.380Z</time>
      </trkpt>
      <trkpt lat="48.52115" lon="2.55367">
        <ele>48.879892</ele>
        <time>2021-12-05T02:38:52.951Z</time>
      </trkpt>
      <trkpt lat="48.52139" lon="2.55364">
        <ele>48.960715</ele>
        <time>2021-12-05T02:39:04.254Z</time>
      </trkpt>
      <trkpt lat="48.52141" lon="2.55374">
        <ele>48.935375</ele>
        <time>2021-12-05T02:39:06.113Z</time>
      </trkpt>
      <trkpt lat="48.52148" lon="2.55361">
        <ele>48.890521</ele>
        <time>2021-12-05T02:39:11.047Z</time>
      </trkpt>
      <trkpt lat="48.5217" lon="2.55321">
        <ele>48.759412</ele>
        <time>2021-12-05T02:39:18.881Z</time>
      </trkpt>
      <trkpt lat="48.52224" lon="2.5523">
        <ele>48.44792</ele>
        <time>2021-12-05T02:39:36.096Z</time>
      </trkpt>
      <trkpt lat="48.52233" lon="2.55226">
        <ele>48.410842</ele>
        <time>2021-12-05T02:39:38.018Z</time>
      </trkpt>
      <trkpt lat="48.52284" lon="2.55256">
        <ele>47.796193</ele>
        <time>2021-12-05T02:39:48.082Z</time>
      </trkpt>
      <trkpt lat="48.52314" lon="2.55207">
        <ele>46.990676</ele>
        <time>2021-12-05T02:39:56.317Z</time>
      </trkpt>
      <trkpt lat="48.52338" lon="2.55204">
        <ele>46.545906</ele>
        <time>2021-12-05T02:40:00.714Z</time>
      </trkpt>
      <trkpt lat="48.52351" lon="2.55202">
        <ele>46.311263</ele>
        <time>2021-12-05T02:40:03.133Z</time>
      </trkpt>
      <trkpt lat="48.52374" lon="2.55191">
        <ele>45.871382</ele>
        <time>2021-12-05T02:40:07.471Z</time>
      </trkpt>
      <trkpt lat="48.52401" lon="2.55159">
        <ele>45.240488</ele>
        <time>2021-12-05T02:40:13.929Z</time>
      </trkpt>
      <trkpt lat="48.52454" lon="2.55096">
        <ele>44.935144</ele>
        <time>2021-12-05T02:40:27.644Z</time>
      </trkpt>
      <trkpt lat="48.52514" lon="2.55059">
        <ele>44.824214</ele>
        <time>2021-12-05T02:40:42.335Z</time>
      </trkpt>
      <trkpt lat="48.52568" lon="2.55037">
        <ele>44.727549</ele>
        <time>2021-12-05T02:40:57.763Z</time>
      </trkpt>
      <trkpt lat="48.52628" lon="2.55021">
        <ele>44.992432</ele>
        <time>2021-12-05T02:41:16.031Z</time>
      </trkpt>
      <trkpt lat="48.52791" lon="2.54982">
        <ele>45.359483</ele>
        <time>2021-12-05T02:41:56.288Z</time>
      </trkpt>
      <trkpt lat="48.528" lon="2.54988">
        <ele>45.314347</ele>
        <time>2021-12-05T02:41:58.519Z</time>
      </trkpt>
      <trkpt lat="48.52823" lon="2.54926">
        <ele>45.097715</ele>
        <time>2021-12-05T02:42:08.578Z</time>
      </trkpt>
      <trkpt lat="48.52834" lon="2.54895">
        <ele>44.989669</ele>
        <time>2021-12-05T02:42:13.386Z</time>
      </trkpt>
      <trkpt lat="48.52876" lon="2.54782">
        <ele>44.679313</ele>
        <time>2021-12-05T02:42:31.114Z</time>
      </trkpt>
      <trkpt lat="48.52889" lon="2.54792">
        <ele>44.655166</ele>
        <time>2021-12-05T02:42:33.791Z</time>
      </trkpt>
      <trkpt lat="48.52911" lon="2.54792">
        <ele>44.615676</ele>
        <time>2021-12-05T02:42:38.413Z</time>
      </trkpt>
      <trkpt lat="48.5292" lon="2.54829">
        <ele>44.570393</ele>
        <time>2021-12-05T02:42:43.851Z</time>
      </trkpt>
      <trkpt lat="48.53007" lon="2.54825">
        <ele>44.416095</ele>
        <time>2021-12-05T02:43:05.216Z</time>
      </trkpt>
      <trkpt lat="48.53017" lon="2.54867">
        <ele>44.629527</ele>
        <time>2021-12-05T02:43:13.752Z</time>
      </trkpt>
      <trkpt lat="48.53021" lon="2.54891">
        <ele>44.753069</ele>
        <time>2021-12-05T02:43:19.135Z</time>
      </trkpt>
      <trkpt lat="48.5303" lon="2.54909">
        <ele>44.866145</ele>
        <time>2021-12-05T02:43:23.109Z</time>
      </trkpt>
      <trkpt lat="48.53077" lon="2.54958">
        <ele>45.294759</ele>
        <time>2021-12-05T02:43:39.989Z</time>
      </trkpt>
      <trkpt lat="48.53091" lon="2.54972">
        <ele>45.42048</ele>
        <time>2021-12-05T02:43:44.142Z</time>
      </trkpt>
      <trkpt lat="48.53086" lon="2.54985">
        <ele>45.49607</ele>
        <time>2021-12-05T02:43:46.877Z</time>
      </trkpt>
      <trkpt lat="48.53083" lon="2.54998">
        <ele>45.567503</ele>
        <time>2021-12-05T02:43:49.947Z</time>
      </trkpt>
      <trkpt lat="48.53086" lon="2.55009">
        <ele>45.628685</ele>
        <time>2021-12-05T02:43:52.096Z</time>
      </trkpt>
      <trkpt lat="48.53111" lon="2.55041">
        <ele>45.735004</ele>
        <time>2021-12-05T02:44:01.839Z</time>
      </trkpt>
      <trkpt lat="48.53134" lon="2.55056">
        <ele>45.660674</ele>
        <time>2021-12-05T02:44:08.598Z</time>
      </trkpt>
      <trkpt lat="48.53161" lon="2.55048">
        <ele>45.578227</ele>
        <time>2021-12-05T02:44:16.042Z</time>
      </trkpt>
      <trkpt lat="48.532" lon="2.55051">
        <ele>45.460474</ele>
        <time>2021-12-05T02:44:25.793Z</time>
      </trkpt>
      <trkpt lat="48.53279" lon="2.55035">
        <ele>45.173778</ele>
        <time>2021-12-05T02:44:43.971Z</time>
      </trkpt>
      <trkpt lat="48.53298" lon="2.55025">
        <ele>44.910841</ele>
        <time>2021-12-05T02:44:48.726Z</time>
      </trkpt>
      <trkpt lat="48.53329" lon="2.54988">
        <ele>44.412901</ele>
        <time>2021-12-05T02:44:57.587Z</time>
      </trkpt>
      <trkpt lat="48.53333" lon="2.5499">
        <ele>44.361453</ele>
        <time>2021-12-05T02:44:58.367Z</time>
      </trkpt>
      <trkpt lat="48.53327" lon="2.5501">
        <ele>44.178126</ele>
        <time>2021-12-05T02:45:01.531Z</time>
      </trkpt>
      <trkpt lat="48.5335" lon="2.54992">
        <ele>43.848783</ele>
        <time>2021-12-05T02:45:06.496Z</time>
      </trkpt>
      <trkpt lat="48.53356" lon="2.54993">
        <ele>43.766886</ele>
        <time>2021-12-05T02:45:07.866Z</time>
      </trkpt>
      <trkpt lat="48.5338" lon="2.55001">
        <ele>43.459725</ele>
        <time>2021-12-05T02:45:12.461Z</time>
      </trkpt>
      <trkpt lat="48.53471" lon="2.55014">
        <ele>42.316722</ele>
        <time>2021-12-05T02:45:30.345Z</time>
      </trkpt>
      <trkpt lat="48.53523" lon="2.55002">
        <ele>41.673611</ele>
        <time>2021-12-05T02:45:40.547Z</time>
      </trkpt>
      <trkpt lat="48.53631" lon="2.54932">
        <ele>40.785365</ele>
        <time>2021-12-05T02:46:04.153Z</time>
      </trkpt>
      <trkpt lat="48.53659" lon="2.54885">
        <ele>40.825466</ele>
        <time>2021-12-05T02:46:13.139Z</time>
      </trkpt>
      <trkpt lat="48.53665" lon="2.54838">
        <ele>40.855832</ele>
        <time>2021-12-05T02:46:20.746Z</time>
      </trkpt>
      <trkpt lat="48.53663" lon="2.54769">
        <ele>40.899496</ele>
        <time>2021-12-05T02:46:32.652Z</time>
      </trkpt>
      <trkpt lat="48.53677" lon="2.54753">
        <ele>40.916118</ele>
        <time>2021-12-05T02:46:37.734Z</time>
      </trkpt>
      <trkpt lat="48.53677" lon="2.54744">
        <ele>41.036599</ele>
        <time>2021-12-05T02:46:39.717Z</time>
      </trkpt>
      <trkpt lat="48.53691" lon="2.54755">
        <ele>41.528212</ele>
        <time>2021-12-05T02:46:46.629Z</time>
      </trkpt>
      <trkpt lat="48.53804" lon="2.54811">
        <ele>45.225829</ele>
        <time>2021-12-05T02:47:54.289Z</time>
      </trkpt>
      <trkpt lat="48.53833" lon="2.54826">
        <ele>46.175721</ele>
        <time>2021-12-05T02:48:08.966Z</time>
      </trkpt>
      <trkpt lat="48.53901" lon="2.54858">
        <ele>49.863315</ele>
        <time>2021-12-05T02:48:46.199Z</time>
      </trkpt>
      <trkpt lat="48.53914" lon="2.54864">
        <ele>50.619375</ele>
        <time>2021-12-05T02:48:55.503Z</time>
      </trkpt>
      <trkpt lat="48.53923" lon="2.5483">
        <ele>51.944553</ele>
        <time>2021-12-05T02:49:07.584Z</time>
      </trkpt>
      <trkpt lat="48.5393" lon="2.54821">
        <ele>52.468673</ele>
        <time>2021-12-05T02:49:14.384Z</time>
      </trkpt>
      <trkpt lat="48.53935" lon="2.54827">
        <ele>52.837221</ele>
        <time>2021-12-05T02:49:18.345Z</time>
      </trkpt>
      <trkpt lat="48.53937" lon="2.54854">
        <ele>53.846025</ele>
        <time>2021-12-05T02:49:28.044Z</time>
      </trkpt>
      <trkpt lat="48.53944" lon="2.54857">
        <ele>54.250692</ele>
        <time>2021-12-05T02:49:33.455Z</time>
      </trkpt>
      <trkpt lat="48.53956" lon="2.54833">
        <ele>55.362034</ele>
        <time>2021-12-05T02:49:45.812Z</time>
      </trkpt>
      <trkpt lat="48.53964" lon="2.54835">
        <ele>55.810228</ele>
        <time>2021-12-05T02:49:50.427Z</time>
      </trkpt>
      <trkpt lat="48.53972" lon="2.54866">
        <ele>56.991101</ele>
        <time>2021-12-05T02:50:05.218Z</time>
      </trkpt>
      <trkpt lat="48.54104" lon="2.54953">
        <ele>64.289703</ele>
        <time>2021-12-05T02:51:22.213Z</time>
      </trkpt>
      <trkpt lat="48.54102" lon="2.54965">
        <ele>64.714502</ele>
        <time>2021-12-05T02:51:26.407Z</time>
      </trkpt>
      <trkpt lat="48.54102" lon="2.54978">
        <ele>65.14863</ele>
        <time>2021-12-05T02:51:30.822Z</time>
      </trkpt>
      <trkpt lat="48.54111" lon="2.54985">
        <ele>65.652565</ele>
        <time>2021-12-05T02:51:35.963Z</time>
      </trkpt>
      <trkpt lat="48.54126" lon="2.54991">
        <ele>66.08586</ele>
        <time>2021-12-05T02:51:43.354Z</time>
      </trkpt>
      <trkpt lat="48.54257" lon="2.55107">
        <ele>70.419271</ele>
        <time>2021-12-05T02:52:43.462Z</time>
      </trkpt>
      <trkpt lat="48.54274" lon="2.5513">
        <ele>70.867776</ele>
        <time>2021-12-05T02:52:50.775Z</time>
      </trkpt>
      <trkpt lat="48.54319" lon="2.55123">
        <ele>71.304473</ele>
        <time>2021-12-05T02:53:04.994Z</time>
      </trkpt>
      <trkpt lat="48.5444" lon="2.55083">
        <ele>72.517117</ele>
        <time>2021-12-05T02:53:39.262Z</time>
      </trkpt>
      <trkpt lat="48.54697" lon="2.54984">
        <ele>70.351559</ele>
        <time>2021-12-05T02:54:36.665Z</time>
      </trkpt>
      <trkpt lat="48.55206" lon="2.54792">
        <ele>59.190948</ele>
        <time>2021-12-05T02:56:11.595Z</time>
      </trkpt>
      <trkpt lat="48.55222" lon="2.54791">
        <ele>58.791639</ele>
        <time>2021-12-05T02:56:14.650Z</time>
      </trkpt>
      <trkpt lat="48.55232" lon="2.54799">
        <ele>58.537053</ele>
        <time>2021-12-05T02:56:16.466Z</time>
      </trkpt>
      <trkpt lat="48.55248" lon="2.54826">
        <ele>57.956351</ele>
        <time>2021-12-05T02:56:20.935Z</time>
      </trkpt>
      <trkpt lat="48.55258" lon="2.54824">
        <ele>57.7135</ele>
        <time>2021-12-05T02:56:22.682Z</time>
      </trkpt>
      <trkpt lat="48.55268" lon="2.54823">
        <ele>57.478719</ele>
        <time>2021-12-05T02:56:29.543Z</time>
      </trkpt>
      <trkpt lat="48.55271" lon="2.54806">
        <ele>57.197179</ele>
        <time>2021-12-05T02:56:31.713Z</time>
      </trkpt>
      <trkpt lat="48.55277" lon="2.54777">
        <ele>56.714918</ele>
        <time>2021-12-05T02:56:35.305Z</time>
      </trkpt>
      <trkpt lat="48.55295" lon="2.54763">
        <ele>56.30673</ele>
        <time>2021-12-05T02:56:39.022Z</time>
      </trkpt>
      <trkpt lat="48.5531" lon="2.54761">
        <ele>56.015926</ele>
        <time>2021-12-05T02:56:41.748Z</time>
      </trkpt>
      <trkpt lat="48.55448" lon="2.54768">
        <ele>53.393984</ele>
        <time>2021-12-05T02:57:07.694Z</time>
      </trkpt>
      <trkpt lat="48.55535" lon="2.54809">
        <ele>52.169544</ele>
        <time>2021-12-05T02:57:25.684Z</time>
      </trkpt>
      <trkpt lat="48.55548" lon="2.54735">
        <ele>51.529544</ele>
        <time>2021-12-05T02:57:36.225Z</time>
      </trkpt>
      <trkpt lat="48.55609" lon="2.54747">
        <ele>50.752855</ele>
        <time>2021-12-05T02:57:48.368Z</time>
      </trkpt>
      <trkpt lat="48.55802" lon="2.54788">
        <ele>48.240358</ele>
        <time>2021-12-05T02:58:26.599Z</time>
      </trkpt>
      <trkpt lat="48.55874" lon="2.54802">
        <ele>47.399548</ele>
        <time>2021-12-05T02:58:40.908Z</time>
      </trkpt>
      <trkpt lat="48.55939" lon="2.54815">
        <ele>46.647109</ele>
        <time>2021-12-05T02:58:53.922Z</time>
      </trkpt>
      <trkpt lat="48.55942" lon="2.54816">
        <ele>46.611985</ele>
        <time>2021-12-05T02:58:54.562Z</time>
      </trkpt>
      <trkpt lat="48.55951" lon="2.54818">
        <ele>46.50741</ele>
        <time>2021-12-05T02:58:56.492Z</time>
      </trkpt>
      <trkpt lat="48.56045" lon="2.54836">
        <ele>46.092075</ele>
        <time>2021-12-05T02:59:17.032Z</time>
      </trkpt>
      <trkpt lat="48.56072" lon="2.54842">
        <ele>45.985196</ele>
        <time>2021-12-05T02:59:22.887Z</time>
      </trkpt>
      <trkpt lat="48.56135" lon="2.54854">
        <ele>45.741209</ele>
        <time>2021-12-05T02:59:36.818Z</time>
      </trkpt>
      <trkpt lat="48.56236" lon="2.54874">
        <ele>46.11047</ele>
        <time>2021-12-05T03:00:02.165Z</time>
      </trkpt>
      <trkpt lat="48.56706" lon="2.54966">
        <ele>48.961539</ele>
        <time>2021-12-05T03:02:09.304Z</time>
      </trkpt>
      <trkpt lat="48.56744" lon="2.54972">
        <ele>49.252654</ele>
        <time>2021-12-05T03:02:19.528Z</time>
      </trkpt>
      <trkpt lat="48.56872" lon="2.54892">
        <ele>50.789443</ele>
        <time>2021-12-05T03:02:57.381Z</time>
      </trkpt>
      <trkpt lat="48.56938" lon="2.5484">
        <ele>52.391505</ele>
        <time>2021-12-05T03:03:22.712Z</time>
      </trkpt>
      <trkpt lat="48.57125" lon="2.54731">
        <ele>59.03291</ele>
        <time>2021-12-05T03:05:02.631Z</time>
      </trkpt>
      <trkpt lat="48.57167" lon="2.54701">
        <ele>60.867996</ele>
        <time>2021-12-05T03:05:31.000Z</time>
      </trkpt>
      <trkpt lat="48.5719" lon="2.54682">
        <ele>62.405703</ele>
        <time>2021-12-05T03:05:50.009Z</time>
      </trkpt>
      <trkpt lat="48.57438" lon="2.54478">
        <ele>78.519528</ele>
        <time>2021-12-05T03:09:27.899Z</time>
      </trkpt>
      <trkpt lat="48.57506" lon="2.54397">
        <ele>81.397281</ele>
        <time>2021-12-05T03:10:02.440Z</time>
      </trkpt>
      <trkpt lat="48.57581" lon="2.53898">
        <ele>81.195269</ele>
        <time>2021-12-05T03:11:18.210Z</time>
      </trkpt>
      <trkpt lat="48.58145" lon="2.53817">
        <ele>91.002355</ele>
        <time>2021-12-05T03:16:01.165Z</time>
      </trkpt>
      <trkpt lat="48.58471" lon="2.53814">
        <ele>92.343698</ele>
        <time>2021-12-05T03:18:10.884Z</time>
      </trkpt>
      <trkpt lat="48.58493" lon="2.53806">
        <ele>92.240207</ele>
        <time>2021-12-05T03:18:19.186Z</time>
      </trkpt>
      <trkpt lat="48.5852" lon="2.53824">
        <ele>92.102984</ele>
        <time>2021-12-05T03:18:30.196Z</time>
      </trkpt>
      <trkpt lat="48.58522" lon="2.53831">
        <ele>92.079911</ele>
        <time>2021-12-05T03:18:31.390Z</time>
      </trkpt>
      <trkpt lat="48.58533" lon="2.53838">
        <ele>92.026838</ele>
        <time>2021-12-05T03:18:34.142Z</time>
      </trkpt>
      <trkpt lat="48.58541" lon="2.53833">
        <ele>91.989562</ele>
        <time>2021-12-05T03:18:35.969Z</time>
      </trkpt>
      <trkpt lat="48.58545" lon="2.53823">
        <ele>91.951452</ele>
        <time>2021-12-05T03:18:37.825Z</time>
      </trkpt>
      <trkpt lat="48.58544" lon="2.5381">
        <ele>91.913057</ele>
        <time>2021-12-05T03:18:39.760Z</time>
      </trkpt>
      <trkpt lat="48.58823" lon="2.53568">
        <ele>89.784331</ele>
        <time>2021-12-05T03:19:51.272Z</time>
      </trkpt>
      <trkpt lat="48.58912" lon="2.53491">
        <ele>88.90207</ele>
        <time>2021-12-05T03:20:13.081Z</time>
      </trkpt>
      <trkpt lat="48.58918" lon="2.53485">
        <ele>88.83527</ele>
        <time>2021-12-05T03:20:14.763Z</time>
      </trkpt>
      <trkpt lat="48.58937" lon="2.53468">
        <ele>88.745887</ele>
        <time>2021-12-05T03:20:19.639Z</time>
      </trkpt>
      <trkpt lat="48.58945" lon="2.53462">
        <ele>88.746369</ele>
        <time>2021-12-05T03:20:21.556Z</time>
      </trkpt>
      <trkpt lat="48.58955" lon="2.53453">
        <ele>88.747032</ele>
        <time>2021-12-05T03:20:24.124Z</time>
      </trkpt>
      <trkpt lat="48.59023" lon="2.53394">
        <ele>88.75136</ele>
        <time>2021-12-05T03:20:42.357Z</time>
      </trkpt>
      <trkpt lat="48.59029" lon="2.53389">
        <ele>88.751762</ele>
        <time>2021-12-05T03:20:44.343Z</time>
      </trkpt>
      <trkpt lat="48.59367" lon="2.53097">
        <ele>91.046813</ele>
        <time>2021-12-05T03:22:35.887Z</time>
      </trkpt>
      <trkpt lat="48.59379" lon="2.53085">
        <ele>91.144142</ele>
        <time>2021-12-05T03:22:41.976Z</time>
      </trkpt>
      <trkpt lat="48.59392" lon="2.53085">
        <ele>91.230927</ele>
        <time>2021-12-05T03:22:47.161Z</time>
      </trkpt>
      <trkpt lat="48.59634" lon="2.53064">
        <ele>91.896475</ele>
        <time>2021-12-05T03:23:55.929Z</time>
      </trkpt>
      <trkpt lat="48.59637" lon="2.53061">
        <ele>91.883156</ele>
        <time>2021-12-05T03:23:56.828Z</time>
      </trkpt>
      <trkpt lat="48.59645" lon="2.53054">
        <ele>91.847726</ele>
        <time>2021-12-05T03:23:59.156Z</time>
      </trkpt>
      <trkpt lat="48.60188" lon="2.53008">
        <ele>89.606437</ele>
        <time>2021-12-05T03:26:09.481Z</time>
      </trkpt>
      <trkpt lat="48.60756" lon="2.52962">
        <ele>88.331292</ele>
        <time>2021-12-05T03:28:31.308Z</time>
      </trkpt>
      <trkpt lat="48.60761" lon="2.52961">
        <ele>88.326891</ele>
        <time>2021-12-05T03:28:32.690Z</time>
      </trkpt>
      <trkpt lat="48.60981" lon="2.52942">
        <ele>88.269175</ele>
        <time>2021-12-05T03:29:30.331Z</time>
      </trkpt>
      <trkpt lat="48.60989" lon="2.52971">
        <ele>88.269456</ele>
        <time>2021-12-05T03:29:35.568Z</time>
      </trkpt>
      <trkpt lat="48.61267" lon="2.52948">
        <ele>87.139262</ele>
        <time>2021-12-05T03:30:43.245Z</time>
      </trkpt>
      <trkpt lat="48.61274" lon="2.52948">
        <ele>87.105747</ele>
        <time>2021-12-05T03:30:44.845Z</time>
      </trkpt>
      <trkpt lat="48.61281" lon="2.52947">
        <ele>87.068644</ele>
        <time>2021-12-05T03:30:47.548Z</time>
      </trkpt>
      <trkpt lat="48.61294" lon="2.52945">
        <ele>87.002857</ele>
        <time>2021-12-05T03:30:50.722Z</time>
      </trkpt>
      <trkpt lat="48.61304" lon="2.52945">
        <ele>86.953835</ele>
        <time>2021-12-05T03:30:53.091Z</time>
      </trkpt>
      <trkpt lat="48.61313" lon="2.52944">
        <ele>86.906267</ele>
        <time>2021-12-05T03:30:55.369Z</time>
      </trkpt>
      <trkpt lat="48.61328" lon="2.52943">
        <ele>86.834121</ele>
        <time>2021-12-05T03:30:58.836Z</time>
      </trkpt>
      <trkpt lat="48.61337" lon="2.52942">
        <ele>86.789531</ele>
        <time>2021-12-05T03:31:02.102Z</time>
      </trkpt>
      <trkpt lat="48.61616" lon="2.52919">
        <ele>85.258718</ele>
        <time>2021-12-05T03:32:08.653Z</time>
      </trkpt>
      <trkpt lat="48.61678" lon="2.52913">
        <ele>84.945833</ele>
        <time>2021-12-05T03:32:23.688Z</time>
      </trkpt>
      <trkpt lat="48.61686" lon="2.52914">
        <ele>84.909059</ele>
        <time>2021-12-05T03:32:25.437Z</time>
      </trkpt>
      <trkpt lat="48.61946" lon="2.52892">
        <ele>84.305175</ele>
        <time>2021-12-05T03:33:30.319Z</time>
      </trkpt>
      <trkpt lat="48.61952" lon="2.52891">
        <ele>84.303023</ele>
        <time>2021-12-05T03:33:31.895Z</time>
      </trkpt>
      <trkpt lat="48.61963" lon="2.5289">
        <ele>84.29905</ele>
        <time>2021-12-05T03:33:36.160Z</time>
      </trkpt>
      <trkpt lat="48.61969" lon="2.5289">
        <ele>84.296752</ele>
        <time>2021-12-05T03:33:37.652Z</time>
      </trkpt>
      <trkpt lat="48.61989" lon="2.52888">
        <ele>84.28946</ele>
        <time>2021-12-05T03:33:42.333Z</time>
      </trkpt>
      <trkpt lat="48.61998" lon="2.52887">
        <ele>84.286178</ele>
        <time>2021-12-05T03:33:44.490Z</time>
      </trkpt>
      <trkpt lat="48.62006" lon="2.52887">
        <ele>84.283188</ele>
        <time>2021-12-05T03:33:47.710Z</time>
      </trkpt>
      <trkpt lat="48.62381" lon="2.52856">
        <ele>84.467563</ele>
        <time>2021-12-05T03:35:25.815Z</time>
      </trkpt>
      <trkpt lat="48.62389" lon="2.52855">
        <ele>84.471991</ele>
        <time>2021-12-05T03:35:28.951Z</time>
      </trkpt>
      <trkpt lat="48.62395" lon="2.52855">
        <ele>84.4748</ele>
        <time>2021-12-05T03:35:30.171Z</time>
      </trkpt>
      <trkpt lat="48.624" lon="2.52854">
        <ele>84.477934</ele>
        <time>2021-12-05T03:35:31.523Z</time>
      </trkpt>
      <trkpt lat="48.62409" lon="2.52853">
        <ele>84.482308</ele>
        <time>2021-12-05T03:35:34.630Z</time>
      </trkpt>
      <trkpt lat="48.62419" lon="2.52852">
        <ele>84.487874</ele>
        <time>2021-12-05T03:35:37.286Z</time>
      </trkpt>
      <trkpt lat="48.6292" lon="2.52811">
        <ele>84.695222</ele>
        <time>2021-12-05T03:37:45.993Z</time>
      </trkpt>
      <trkpt lat="48.62977" lon="2.52806">
        <ele>84.789067</ele>
        <time>2021-12-05T03:38:01.964Z</time>
      </trkpt>
      <trkpt lat="48.62988" lon="2.52792">
        <ele>84.859378</ele>
        <time>2021-12-05T03:38:06.185Z</time>
      </trkpt>
      <trkpt lat="48.6318" lon="2.52777">
        <ele>85.538887</ele>
        <time>2021-12-05T03:38:59.066Z</time>
      </trkpt>
      <trkpt lat="48.63231" lon="2.52773">
        <ele>85.331347</ele>
        <time>2021-12-05T03:39:11.103Z</time>
      </trkpt>
      <trkpt lat="48.63339" lon="2.52765">
        <ele>84.859847</ele>
        <time>2021-12-05T03:39:35.054Z</time>
      </trkpt>
      <trkpt lat="48.63366" lon="2.52763">
        <ele>84.657957</ele>
        <time>2021-12-05T03:39:40.784Z</time>
      </trkpt>
      <trkpt lat="48.6337" lon="2.52762">
        <ele>84.634037</ele>
        <time>2021-12-05T03:39:41.428Z</time>
      </trkpt>
      <trkpt lat="48.63375" lon="2.52762">
        <ele>84.592188</ele>
        <time>2021-12-05T03:39:42.579Z</time>
      </trkpt>
      <trkpt lat="48.63383" lon="2.52761">
        <ele>84.533633</ele>
        <time>2021-12-05T03:39:45.275Z</time>
      </trkpt>
      <trkpt lat="48.63389" lon="2.52746">
        <ele>84.446744</ele>
        <time>2021-12-05T03:39:47.849Z</time>
      </trkpt>
      <trkpt lat="48.63403" lon="2.52741">
        <ele>84.338356</ele>
        <time>2021-12-05T03:39:51.140Z</time>
      </trkpt>
      <trkpt lat="48.63826" lon="2.52706">
        <ele>81.263891</ele>
        <time>2021-12-05T03:41:30.974Z</time>
      </trkpt>
      <trkpt lat="48.64088" lon="2.52685">
        <ele>80.333492</ele>
        <time>2021-12-05T03:42:32.355Z</time>
      </trkpt>
      <trkpt lat="48.64089" lon="2.52696">
        <ele>80.429264</ele>
        <time>2021-12-05T03:42:34.579Z</time>
      </trkpt>
      <trkpt lat="48.64156" lon="2.52689">
        <ele>81.321641</ele>
        <time>2021-12-05T03:42:59.025Z</time>
      </trkpt>
      <trkpt lat="48.64174" lon="2.52688">
        <ele>81.554338</ele>
        <time>2021-12-05T03:43:08.027Z</time>
      </trkpt>
      <trkpt lat="48.64203" lon="2.52685">
        <ele>81.93644</ele>
        <time>2021-12-05T03:43:23.326Z</time>
      </trkpt>
      <trkpt lat="48.64262" lon="2.52682">
        <ele>83.327224</ele>
        <time>2021-12-05T03:43:57.093Z</time>
      </trkpt>
      <trkpt lat="48.64601" lon="2.5265">
        <ele>91.609442</ele>
        <time>2021-12-05T03:46:59.161Z</time>
      </trkpt>
      <trkpt lat="48.64617" lon="2.5263">
        <ele>91.81741</ele>
        <time>2021-12-05T03:47:06.246Z</time>
      </trkpt>
      <trkpt lat="48.64837" lon="2.52367">
        <ele>93.466174</ele>
        <time>2021-12-05T03:48:26.084Z</time>
      </trkpt>
      <trkpt lat="48.65071" lon="2.52089">
        <ele>92.72303</ele>
        <time>2021-12-05T03:49:37.323Z</time>
      </trkpt>
      <trkpt lat="48.65304" lon="2.51814">
        <ele>93.427452</ele>
        <time>2021-12-05T03:51:01.158Z</time>
      </trkpt>
      <trkpt lat="48.65672" lon="2.51374">
        <ele>92.861954</ele>
        <time>2021-12-05T03:52:59.729Z</time>
      </trkpt>
      <trkpt lat="48.65744" lon="2.51292">
        <ele>92.774467</ele>
        <time>2021-12-05T03:53:20.600Z</time>
      </trkpt>
      <trkpt lat="48.65776" lon="2.51332">
        <ele>92.840646</ele>
        <time>2021-12-05T03:53:29.962Z</time>
      </trkpt>
      <trkpt lat="48.65809" lon="2.51404">
        <ele>92.932722</ele>
        <time>2021-12-05T03:53:43.230Z</time>
      </trkpt>
      <trkpt lat="48.65864" lon="2.51506">
        <ele>93.164019</ele>
        <time>2021-12-05T03:54:11.017Z</time>
      </trkpt>
      <trkpt lat="48.65883" lon="2.51528">
        <ele>93.249093</ele>
        <time>2021-12-05T03:54:18.142Z</time>
      </trkpt>
      <trkpt lat="48.65911" lon="2.51583">
        <ele>93.414644</ele>
        <time>2021-12-05T03:54:30.562Z</time>
      </trkpt>
      <trkpt lat="48.65927" lon="2.51596">
        <ele>93.481093</ele>
        <time>2021-12-05T03:54:35.124Z</time>
      </trkpt>
      <trkpt lat="48.65979" lon="2.51691">
        <ele>93.412749</ele>
        <time>2021-12-05T03:54:51.497Z</time>
      </trkpt>
      <trkpt lat="48.66006" lon="2.51788">
        <ele>92.942395</ele>
        <time>2021-12-05T03:55:05.797Z</time>
      </trkpt>
      <trkpt lat="48.66011" lon="2.51791">
        <ele>92.908674</ele>
        <time>2021-12-05T03:55:06.625Z</time>
      </trkpt>
      <trkpt lat="48.66033" lon="2.51794">
        <ele>92.758626</ele>
        <time>2021-12-05T03:55:11.611Z</time>
      </trkpt>
      <trkpt lat="48.66057" lon="2.5183">
        <ele>92.527914</ele>
        <time>2021-12-05T03:55:18.856Z</time>
      </trkpt>
      <trkpt lat="48.66057" lon="2.51855">
        <ele>92.45162</ele>
        <time>2021-12-05T03:55:22.248Z</time>
      </trkpt>
      <trkpt lat="48.66065" lon="2.51871">
        <ele>92.569997</ele>
        <time>2021-12-05T03:55:26.049Z</time>
      </trkpt>
      <trkpt lat="48.66094" lon="2.51888">
        <ele>92.836654</ele>
        <time>2021-12-05T03:55:33.356Z</time>
      </trkpt>
      <trkpt lat="48.66121" lon="2.51927">
        <ele>93.171784</ele>
        <time>2021-12-05T03:55:43.545Z</time>
      </trkpt>
      <trkpt lat="48.66132" lon="2.51949">
        <ele>93.325627</ele>
        <time>2021-12-05T03:55:48.709Z</time>
      </trkpt>
      <trkpt lat="48.66138" lon="2.51994">
        <ele>93.592397</ele>
        <time>2021-12-05T03:55:58.801Z</time>
      </trkpt>
      <trkpt lat="48.66177" lon="2.52052">
        <ele>94.08051</ele>
        <time>2021-12-05T03:56:17.447Z</time>
      </trkpt>
      <trkpt lat="48.66278" lon="2.5226">
        <ele>95.711875</ele>
        <time>2021-12-05T03:57:06.526Z</time>
      </trkpt>
      <trkpt lat="48.66325" lon="2.52329">
        <ele>95.827264</ele>
        <time>2021-12-05T03:57:21.878Z</time>
      </trkpt>
      <trkpt lat="48.66346" lon="2.52369">
        <ele>95.877529</ele>
        <time>2021-12-05T03:57:29.597Z</time>
      </trkpt>
      <trkpt lat="48.66366" lon="2.52435">
        <ele>95.950419</ele>
        <time>2021-12-05T03:57:40.730Z</time>
      </trkpt>
      <trkpt lat="48.66382" lon="2.52456">
        <ele>95.981909</ele>
        <time>2021-12-05T03:57:45.463Z</time>
      </trkpt>
      <trkpt lat="48.66422" lon="2.52492">
        <ele>96.009896</ele>
        <time>2021-12-05T03:57:56.233Z</time>
      </trkpt>
      <trkpt lat="48.66644" lon="2.52892">
        <ele>95.763102</ele>
        <time>2021-12-05T03:59:16.131Z</time>
      </trkpt>
      <trkpt lat="48.66646" lon="2.52889">
        <ele>95.733978</ele>
        <time>2021-12-05T03:59:16.767Z</time>
      </trkpt>
      <trkpt lat="48.66649" lon="2.52885">
        <ele>95.695046</ele>
        <time>2021-12-05T03:59:17.595Z</time>
      </trkpt>
      <trkpt lat="48.66706" lon="2.52803">
        <ele>94.952842</ele>
        <time>2021-12-05T03:59:33.387Z</time>
      </trkpt>
      <trkpt lat="48.66738" lon="2.52797">
        <ele>94.6484</ele>
        <time>2021-12-05T03:59:39.760Z</time>
      </trkpt>
      <trkpt lat="48.6685" lon="2.52762">
        <ele>93.945223</ele>
        <time>2021-12-05T04:00:02.610Z</time>
      </trkpt>
      <trkpt lat="48.67282" lon="2.52512">
        <ele>92.204876</ele>
        <time>2021-12-05T04:01:45.339Z</time>
      </trkpt>
      <trkpt lat="48.67323" lon="2.52497">
        <ele>91.662943</ele>
        <time>2021-12-05T04:01:54.044Z</time>
      </trkpt>
      <trkpt lat="48.6736" lon="2.52485">
        <ele>91.1083</ele>
        <time>2021-12-05T04:02:01.601Z</time>
      </trkpt>
      <trkpt lat="48.67377" lon="2.52469">
        <ele>90.807619</ele>
        <time>2021-12-05T04:02:05.664Z</time>
      </trkpt>
      <trkpt lat="48.67472" lon="2.52472">
        <ele>89.3296</ele>
        <time>2021-12-05T04:02:23.408Z</time>
      </trkpt>
      <trkpt lat="48.67518" lon="2.52484">
        <ele>88.216255</ele>
        <time>2021-12-05T04:02:31.776Z</time>
      </trkpt>
      <trkpt lat="48.67573" lon="2.52509">
        <ele>86.841436</ele>
        <time>2021-12-05T04:02:42.030Z</time>
      </trkpt>
      <trkpt lat="48.6764" lon="2.52556">
        <ele>85.122799</ele>
        <time>2021-12-05T04:02:55.262Z</time>
      </trkpt>
      <trkpt lat="48.67713" lon="2.52631">
        <ele>83.492541</ele>
        <time>2021-12-05T04:03:11.617Z</time>
      </trkpt>
      <trkpt lat="48.67792" lon="2.52717">
        <ele>81.771296</ele>
        <time>2021-12-05T04:03:31.492Z</time>
      </trkpt>
      <trkpt lat="48.67798" lon="2.52744">
        <ele>81.528476</ele>
        <time>2021-12-05T04:03:35.272Z</time>
      </trkpt>
      <trkpt lat="48.67801" lon="2.52746">
        <ele>81.485686</ele>
        <time>2021-12-05T04:03:35.921Z</time>
      </trkpt>
      <trkpt lat="48.67807" lon="2.52751">
        <ele>81.400105</ele>
        <time>2021-12-05T04:03:37.206Z</time>
      </trkpt>
      <trkpt lat="48.67813" lon="2.52757">
        <ele>81.309281</ele>
        <time>2021-12-05T04:03:38.584Z</time>
      </trkpt>
      <trkpt lat="48.6783" lon="2.52759">
        <ele>81.092969</ele>
        <time>2021-12-05T04:03:41.999Z</time>
      </trkpt>
      <trkpt lat="48.67904" lon="2.52835">
        <ele>79.94915</ele>
        <time>2021-12-05T04:03:59.601Z</time>
      </trkpt>
      <trkpt lat="48.67988" lon="2.52933">
        <ele>78.589168</ele>
        <time>2021-12-05T04:04:20.795Z</time>
      </trkpt>
      <trkpt lat="48.6799" lon="2.52929">
        <ele>78.554606</ele>
        <time>2021-12-05T04:04:21.708Z</time>
      </trkpt>
      <trkpt lat="48.68013" lon="2.52872">
        <ele>77.982218</ele>
        <time>2021-12-05T04:04:31.167Z</time>
      </trkpt>
      <trkpt lat="48.68009" lon="2.52867">
        <ele>77.909985</ele>
        <time>2021-12-05T04:04:32.302Z</time>
      </trkpt>
      <trkpt lat="48.67992" lon="2.52848">
        <ele>77.644399</ele>
        <time>2021-12-05T04:04:36.510Z</time>
      </trkpt>
      <trkpt lat="48.67991" lon="2.52839">
        <ele>77.566738</ele>
        <time>2021-12-05T04:04:37.699Z</time>
      </trkpt>
      <trkpt lat="48.68044" lon="2.52899">
        <ele>76.341979</ele>
        <time>2021-12-05T04:04:50.414Z</time>
      </trkpt>
      <trkpt lat="48.68129" lon="2.52974">
        <ele>74.277742</ele>
        <time>2021-12-05T04:05:08.336Z</time>
      </trkpt>
      <trkpt lat="48.68169" lon="2.52994">
        <ele>73.375735</ele>
        <time>2021-12-05T04:05:15.990Z</time>
      </trkpt>
      <trkpt lat="48.68179" lon="2.53001">
        <ele>73.099152</ele>
        <time>2021-12-05T04:05:17.961Z</time>
      </trkpt>
      <trkpt lat="48.68204" lon="2.53018">
        <ele>72.410175</ele>
        <time>2021-12-05T04:05:22.814Z</time>
      </trkpt>
      <trkpt lat="48.68221" lon="2.53033">
        <ele>71.920013</ele>
        <time>2021-12-05T04:05:26.188Z</time>
      </trkpt>
      <trkpt lat="48.68226" lon="2.53053">
        <ele>71.567337</ele>
        <time>2021-12-05T04:05:28.702Z</time>
      </trkpt>
      <trkpt lat="48.68228" lon="2.53091">
        <ele>70.933139</ele>
        <time>2021-12-05T04:05:33.192Z</time>
      </trkpt>
      <trkpt lat="48.68238" lon="2.53111">
        <ele>70.510704</ele>
        <time>2021-12-05T04:05:36.254Z</time>
      </trkpt>
      <trkpt lat="48.68246" lon="2.5312">
        <ele>70.270939</ele>
        <time>2021-12-05T04:05:37.992Z</time>
      </trkpt>
      <trkpt lat="48.68253" lon="2.53129">
        <ele>70.045494</ele>
        <time>2021-12-05T04:05:39.582Z</time>
      </trkpt>
      <trkpt lat="48.6832" lon="2.53195">
        <ele>67.994586</ele>
        <time>2021-12-05T04:05:54.154Z</time>
      </trkpt>
      <trkpt lat="48.68314" lon="2.53206">
        <ele>67.766272</ele>
        <time>2021-12-05T04:05:55.894Z</time>
      </trkpt>
      <trkpt lat="48.68301" lon="2.53227">
        <ele>67.249959</ele>
        <time>2021-12-05T04:05:59.478Z</time>
      </trkpt>
      <trkpt lat="48.68305" lon="2.5324">
        <ele>67.004743</ele>
        <time>2021-12-05T04:06:01.091Z</time>
      </trkpt>
      <trkpt lat="48.68303" lon="2.53251">
        <ele>66.803892</ele>
        <time>2021-12-05T04:06:02.564Z</time>
      </trkpt>
      <trkpt lat="48.68307" lon="2.53275">
        <ele>66.381089</ele>
        <time>2021-12-05T04:06:05.415Z</time>
      </trkpt>
      <trkpt lat="48.68315" lon="2.53285">
        <ele>66.095054</ele>
        <time>2021-12-05T04:06:07.220Z</time>
      </trkpt>
      <trkpt lat="48.68312" lon="2.53299">
        <ele>65.839827</ele>
        <time>2021-12-05T04:06:08.952Z</time>
      </trkpt>
      <trkpt lat="48.68319" lon="2.53315">
        <ele>65.51031</ele>
        <time>2021-12-05T04:06:11.128Z</time>
      </trkpt>
      <trkpt lat="48.68347" lon="2.53367">
        <ele>64.347477</ele>
        <time>2021-12-05T04:06:18.732Z</time>
      </trkpt>
      <trkpt lat="48.68433" lon="2.53557">
        <ele>60.10268</ele>
        <time>2021-12-05T04:06:45.403Z</time>
      </trkpt>
      <trkpt lat="48.68462" lon="2.53624">
        <ele>58.962113</ele>
        <time>2021-12-05T04:06:55.027Z</time>
      </trkpt>
      <trkpt lat="48.68464" lon="2.53641">
        <ele>58.803637</ele>
        <time>2021-12-05T04:06:57.126Z</time>
      </trkpt>
      <trkpt lat="48.68471" lon="2.5364">
        <ele>58.710554</ele>
        <time>2021-12-05T04:06:58.341Z</time>
      </trkpt>
      <trkpt lat="48.68471" lon="2.53644">
        <ele>58.679166</ele>
        <time>2021-12-05T04:06:58.769Z</time>
      </trkpt>
      <trkpt lat="48.68472" lon="2.53656">
        <ele>58.563584</ele>
        <time>2021-12-05T04:07:00.342Z</time>
      </trkpt>
      <trkpt lat="48.6848" lon="2.5367">
        <ele>58.391828</ele>
        <time>2021-12-05T04:07:02.651Z</time>
      </trkpt>
      <trkpt lat="48.68484" lon="2.53672">
        <ele>58.34419</ele>
        <time>2021-12-05T04:07:03.286Z</time>
      </trkpt>
      <trkpt lat="48.68495" lon="2.53671">
        <ele>58.187356</ele>
        <time>2021-12-05T04:07:05.431Z</time>
      </trkpt>
      <trkpt lat="48.68504" lon="2.53658">
        <ele>58.008448</ele>
        <time>2021-12-05T04:07:08.044Z</time>
      </trkpt>
      <trkpt lat="48.68534" lon="2.53644">
        <ele>57.583171</ele>
        <time>2021-12-05T04:07:14.303Z</time>
      </trkpt>
      <trkpt lat="48.6856" lon="2.53641">
        <ele>57.215111</ele>
        <time>2021-12-05T04:07:19.899Z</time>
      </trkpt>
      <trkpt lat="48.68623" lon="2.53635">
        <ele>56.782813</ele>
        <time>2021-12-05T04:07:33.325Z</time>
      </trkpt>
      <trkpt lat="48.68627" lon="2.53635">
        <ele>56.780377</ele>
        <time>2021-12-05T04:07:34.235Z</time>
      </trkpt>
      <trkpt lat="48.68627" lon="2.53667">
        <ele>56.768913</ele>
        <time>2021-12-05T04:07:38.714Z</time>
      </trkpt>
      <trkpt lat="48.68623" lon="2.53687">
        <ele>56.760975</ele>
        <time>2021-12-05T04:07:41.903Z</time>
      </trkpt>
      <trkpt lat="48.68594" lon="2.53755">
        <ele>56.731515</ele>
        <time>2021-12-05T04:07:54.955Z</time>
      </trkpt>
      <trkpt lat="48.68592" lon="2.53787">
        <ele>56.719699</ele>
        <time>2021-12-05T04:08:00.171Z</time>
      </trkpt>
      <trkpt lat="48.68595" lon="2.53809">
        <ele>56.711602</ele>
        <time>2021-12-05T04:08:03.870Z</time>
      </trkpt>
      <trkpt lat="48.68601" lon="2.53857">
        <ele>56.598806</ele>
        <time>2021-12-05T04:08:12.058Z</time>
      </trkpt>
      <trkpt lat="48.68603" lon="2.5388">
        <ele>56.48913</ele>
        <time>2021-12-05T04:08:16.082Z</time>
      </trkpt>
      <trkpt lat="48.68616" lon="2.53934">
        <ele>56.226275</ele>
        <time>2021-12-05T04:08:24.456Z</time>
      </trkpt>
      <trkpt lat="48.68669" lon="2.54107">
        <ele>55.137053</ele>
        <time>2021-12-05T04:09:08.688Z</time>
      </trkpt>
      <trkpt lat="48.68786" lon="2.5436">
        <ele>51.060002</ele>
        <time>2021-12-05T04:10:14.407Z</time>
      </trkpt>
      <trkpt lat="48.68864" lon="2.5457">
        <ele>48.74426</ele>
        <time>2021-12-05T04:11:08.965Z</time>
      </trkpt>
      <trkpt lat="48.68894" lon="2.5469">
        <ele>48.55937</ele>
        <time>2021-12-05T04:11:38.477Z</time>
      </trkpt>
      <trkpt lat="48.68943" lon="2.54828">
        <ele>49.061859</ele>
        <time>2021-12-05T04:12:23.198Z</time>
      </trkpt>
      <trkpt lat="48.68946" lon="2.54848">
        <ele>49.418</ele>
        <time>2021-12-05T04:12:29.458Z</time>
      </trkpt>
      <trkpt lat="48.68936" lon="2.54926">
        <ele>50.807399</ele>
        <time>2021-12-05T04:12:55.400Z</time>
      </trkpt>
      <trkpt lat="48.68978" lon="2.55026">
        <ele>52.890539</ele>
        <time>2021-12-05T04:13:41.113Z</time>
      </trkpt>
      <trkpt lat="48.69003" lon="2.55059">
        <ele>54.423506</ele>
        <time>2021-12-05T04:14:04.635Z</time>
      </trkpt>
      <trkpt lat="48.69031" lon="2.55085">
        <ele>56.184868</ele>
        <time>2021-12-05T04:14:26.649Z</time>
      </trkpt>
      <trkpt lat="48.69044" lon="2.55085">
        <ele>56.895411</ele>
        <time>2021-12-05T04:14:35.691Z</time>
      </trkpt>
      <trkpt lat="48.69057" lon="2.5507">
        <ele>57.788935</ele>
        <time>2021-12-05T04:14:45.588Z</time>
      </trkpt>
      <trkpt lat="48.69072" lon="2.55099">
        <ele>59.111548</ele>
        <time>2021-12-05T04:15:04.855Z</time>
      </trkpt>
      <trkpt lat="48.69085" lon="2.55113">
        <ele>59.961158</ele>
        <time>2021-12-05T04:15:14.580Z</time>
      </trkpt>
      <trkpt lat="48.69081" lon="2.55115">
        <ele>60.173331</ele>
        <time>2021-12-05T04:15:17.603Z</time>
      </trkpt>
      <trkpt lat="48.6907" lon="2.55124">
        <ele>60.843601</ele>
        <time>2021-12-05T04:15:27.282Z</time>
      </trkpt>
      <trkpt lat="48.69059" lon="2.55131">
        <ele>61.496008</ele>
        <time>2021-12-05T04:15:35.666Z</time>
      </trkpt>
      <trkpt lat="48.69022" lon="2.55128">
        <ele>63.518692</ele>
        <time>2021-12-05T04:16:04.455Z</time>
      </trkpt>
      <trkpt lat="48.68986" lon="2.55103">
        <ele>65.521035</ele>
        <time>2021-12-05T04:16:35.728Z</time>
      </trkpt>
      <trkpt lat="48.68964" lon="2.55124">
        <ele>66.84675</ele>
        <time>2021-12-05T04:16:58.531Z</time>
      </trkpt>
      <trkpt lat="48.68964" lon="2.55161">
        <ele>68.118323</ele>
        <time>2021-12-05T04:17:15.569Z</time>
      </trkpt>
      <trkpt lat="48.68927" lon="2.55265">
        <ele>72.08721</ele>
        <time>2021-12-05T04:18:02.378Z</time>
      </trkpt>
      <trkpt lat="48.68982" lon="2.55285">
        <ele>72.740107</ele>
        <time>2021-12-05T04:18:25.832Z</time>
      </trkpt>
      <trkpt lat="48.69012" lon="2.5529">
        <ele>73.048864</ele>
        <time>2021-12-05T04:18:35.655Z</time>
      </trkpt>
      <trkpt lat="48.69079" lon="2.55275">
        <ele>73.736702</ele>
        <time>2021-12-05T04:18:53.709Z</time>
      </trkpt>
      <trkpt lat="48.69101" lon="2.55296">
        <ele>73.99934</ele>
        <time>2021-12-05T04:18:59.409Z</time>
      </trkpt>
      <trkpt lat="48.69108" lon="2.55308">
        <ele>74.114906</ele>
        <time>2021-12-05T04:19:01.642Z</time>
      </trkpt>
      <trkpt lat="48.69133" lon="2.55351">
        <ele>74.533709</ele>
        <time>2021-12-05T04:19:10.593Z</time>
      </trkpt>
      <trkpt lat="48.69166" lon="2.55394">
        <ele>75.010683</ele>
        <time>2021-12-05T04:19:24.377Z</time>
      </trkpt>
      <trkpt lat="48.69171" lon="2.55388">
        <ele>75.080924</ele>
        <time>2021-12-05T04:19:26.508Z</time>
      </trkpt>
      <trkpt lat="48.69173" lon="2.55385">
        <ele>75.117367</ele>
        <time>2021-12-05T04:19:27.643Z</time>
      </trkpt>
      <trkpt lat="48.69219" lon="2.55333">
        <ele>75.749096</ele>
        <time>2021-12-05T04:19:48.841Z</time>
      </trkpt>
      <trkpt lat="48.693" lon="2.55235">
        <ele>77.869571</ele>
        <time>2021-12-05T04:20:26.600Z</time>
      </trkpt>
      <trkpt lat="48.69333" lon="2.55193">
        <ele>78.872612</ele>
        <time>2021-12-05T04:20:42.305Z</time>
      </trkpt>
      <trkpt lat="48.69366" lon="2.55137">
        <ele>80.008092</ele>
        <time>2021-12-05T04:21:01.081Z</time>
      </trkpt>
      <trkpt lat="48.69369" lon="2.55132">
        <ele>80.118954</ele>
        <time>2021-12-05T04:21:03.105Z</time>
      </trkpt>
      <trkpt lat="48.69367" lon="2.5512">
        <ele>80.310446</ele>
        <time>2021-12-05T04:21:05.704Z</time>
      </trkpt>
      <trkpt lat="48.69436" lon="2.54966">
        <ele>83.218299</ele>
        <time>2021-12-05T04:21:52.020Z</time>
      </trkpt>
      <trkpt lat="48.69446" lon="2.54975">
        <ele>83.484503</ele>
        <time>2021-12-05T04:21:58.576Z</time>
      </trkpt>
      <trkpt lat="48.6947" lon="2.54957">
        <ele>84.114573</ele>
        <time>2021-12-05T04:22:11.147Z</time>
      </trkpt>
      <trkpt lat="48.69484" lon="2.54968">
        <ele>84.476408</ele>
        <time>2021-12-05T04:22:19.730Z</time>
      </trkpt>
      <trkpt lat="48.69488" lon="2.54964">
        <ele>84.571112</ele>
        <time>2021-12-05T04:22:21.304Z</time>
      </trkpt>
      <trkpt lat="48.69522" lon="2.55003">
        <ele>85.360352</ele>
        <time>2021-12-05T04:22:36.502Z</time>
      </trkpt>
      <trkpt lat="48.69532" lon="2.55014">
        <ele>85.586176</ele>
        <time>2021-12-05T04:22:41.100Z</time>
      </trkpt>
      <trkpt lat="48.69571" lon="2.54923">
        <ele>86.918089</ele>
        <time>2021-12-05T04:23:07.006Z</time>
      </trkpt>
      <trkpt lat="48.69591" lon="2.54891">
        <ele>87.475507</ele>
        <time>2021-12-05T04:23:16.354Z</time>
      </trkpt>
      <trkpt lat="48.69647" lon="2.54809">
        <ele>88.375604</ele>
        <time>2021-12-05T04:23:37.433Z</time>
      </trkpt>
      <trkpt lat="48.6965" lon="2.54813">
        <ele>88.411861</ele>
        <time>2021-12-05T04:23:38.480Z</time>
      </trkpt>
      <trkpt lat="48.69647" lon="2.54809">
        <ele>88.448117</ele>
        <time>2021-12-05T04:23:39.433Z</time>
      </trkpt>
      <trkpt lat="48.69664" lon="2.54787">
        <ele>88.661925</ele>
        <time>2021-12-05T04:23:45.476Z</time>
      </trkpt>
      <trkpt lat="48.69681" lon="2.54763">
        <ele>88.882245</ele>
        <time>2021-12-05T04:23:52.198Z</time>
      </trkpt>
      <trkpt lat="48.69729" lon="2.54694">
        <ele>89.514518</ele>
        <time>2021-12-05T04:24:12.605Z</time>
      </trkpt>
      <trkpt lat="48.69766" lon="2.54628">
        <ele>90.229552</ele>
        <time>2021-12-05T04:24:30.707Z</time>
      </trkpt>
      <trkpt lat="48.69786" lon="2.54651">
        <ele>90.54877</ele>
        <time>2021-12-05T04:24:38.944Z</time>
      </trkpt>
      <trkpt lat="48.69798" lon="2.54666">
        <ele>90.743634</ele>
        <time>2021-12-05T04:24:43.965Z</time>
      </trkpt>
      <trkpt lat="48.69814" lon="2.54675">
        <ele>90.950263</ele>
        <time>2021-12-05T04:24:49.438Z</time>
      </trkpt>
      <trkpt lat="48.69844" lon="2.54667">
        <ele>91.341138</ele>
        <time>2021-12-05T04:24:59.599Z</time>
      </trkpt>
      <trkpt lat="48.69846" lon="2.54648">
        <ele>91.50072</ele>
        <time>2021-12-05T04:25:03.692Z</time>
      </trkpt>
      <trkpt lat="48.69887" lon="2.54637">
        <ele>91.913141</ele>
        <time>2021-12-05T04:25:16.600Z</time>
      </trkpt>
      <trkpt lat="48.69898" lon="2.54633">
        <ele>91.993994</ele>
        <time>2021-12-05T04:25:20.035Z</time>
      </trkpt>
      <trkpt lat="48.69907" lon="2.54622">
        <ele>92.07526</ele>
        <time>2021-12-05T04:25:23.450Z</time>
      </trkpt>
      <trkpt lat="48.69906" lon="2.54592">
        <ele>92.214225</ele>
        <time>2021-12-05T04:25:29.125Z</time>
      </trkpt>
      <trkpt lat="48.69949" lon="2.54583">
        <ele>92.525775</ele>
        <time>2021-12-05T04:25:47.791Z</time>
      </trkpt>
      <trkpt lat="48.6996" lon="2.54568">
        <ele>92.631417</ele>
        <time>2021-12-05T04:25:51.899Z</time>
      </trkpt>
      <trkpt lat="48.69979" lon="2.54534">
        <ele>92.839921</ele>
        <time>2021-12-05T04:25:59.943Z</time>
      </trkpt>
      <trkpt lat="48.70033" lon="2.54442">
        <ele>93.037875</ele>
        <time>2021-12-05T04:26:21.030Z</time>
      </trkpt>
      <trkpt lat="48.70032" lon="2.5443">
        <ele>93.035114</ele>
        <time>2021-12-05T04:26:22.989Z</time>
      </trkpt>
      <trkpt lat="48.70021" lon="2.5441">
        <ele>93.029107</ele>
        <time>2021-12-05T04:26:27.281Z</time>
      </trkpt>
      <trkpt lat="48.7005" lon="2.5436">
        <ele>93.014168</ele>
        <time>2021-12-05T04:26:37.736Z</time>
      </trkpt>
      <trkpt lat="48.70057" lon="2.54347">
        <ele>93.010331</ele>
        <time>2021-12-05T04:26:40.341Z</time>
      </trkpt>
      <trkpt lat="48.70089" lon="2.54399">
        <ele>92.994351</ele>
        <time>2021-12-05T04:26:50.549Z</time>
      </trkpt>
      <trkpt lat="48.70133" lon="2.54451">
        <ele>92.904633</ele>
        <time>2021-12-05T04:27:02.624Z</time>
      </trkpt>
      <trkpt lat="48.70155" lon="2.54479">
        <ele>92.856368</ele>
        <time>2021-12-05T04:27:08.966Z</time>
      </trkpt>
      <trkpt lat="48.70177" lon="2.54507">
        <ele>92.808824</ele>
        <time>2021-12-05T04:27:15.252Z</time>
      </trkpt>
      <trkpt lat="48.70191" lon="2.54486">
        <ele>92.776129</ele>
        <time>2021-12-05T04:27:21.141Z</time>
      </trkpt>
      <trkpt lat="48.70226" lon="2.54535">
        <ele>92.696993</ele>
        <time>2021-12-05T04:27:35.954Z</time>
      </trkpt>
      <trkpt lat="48.70243" lon="2.54516">
        <ele>92.744236</ele>
        <time>2021-12-05T04:27:41.129Z</time>
      </trkpt>
      <trkpt lat="48.70252" lon="2.54507">
        <ele>92.769171</ele>
        <time>2021-12-05T04:27:43.578Z</time>
      </trkpt>
      <trkpt lat="48.70265" lon="2.545">
        <ele>92.802965</ele>
        <time>2021-12-05T04:27:46.972Z</time>
      </trkpt>
      <trkpt lat="48.70272" lon="2.54496">
        <ele>92.822438</ele>
        <time>2021-12-05T04:27:48.929Z</time>
      </trkpt>
      <trkpt lat="48.70346" lon="2.54507">
        <ele>93.00506</ele>
        <time>2021-12-05T04:28:07.665Z</time>
      </trkpt>
      <trkpt lat="48.70382" lon="2.54539">
        <ele>93.107246</ele>
        <time>2021-12-05T04:28:18.074Z</time>
      </trkpt>
      <trkpt lat="48.70427" lon="2.54567">
        <ele>92.994019</ele>
        <time>2021-12-05T04:28:29.690Z</time>
      </trkpt>
      <trkpt lat="48.70457" lon="2.54575">
        <ele>92.877843</ele>
        <time>2021-12-05T04:28:36.405Z</time>
      </trkpt>
      <trkpt lat="48.70459" lon="2.54583">
        <ele>92.85487</ele>
        <time>2021-12-05T04:28:38.034Z</time>
      </trkpt>
      <trkpt lat="48.70494" lon="2.54583">
        <ele>92.716485</ele>
        <time>2021-12-05T04:28:48.133Z</time>
      </trkpt>
      <trkpt lat="48.70497" lon="2.54574">
        <ele>92.691584</ele>
        <time>2021-12-05T04:28:49.865Z</time>
      </trkpt>
      <trkpt lat="48.70535" lon="2.54558">
        <ele>92.538008</ele>
        <time>2021-12-05T04:28:58.056Z</time>
      </trkpt>
      <trkpt lat="48.70542" lon="2.54552">
        <ele>92.506807</ele>
        <time>2021-12-05T04:28:59.754Z</time>
      </trkpt>
      <trkpt lat="48.70622" lon="2.54443">
        <ele>92.183279</ele>
        <time>2021-12-05T04:29:22.702Z</time>
      </trkpt>
      <trkpt lat="48.70673" lon="2.54622">
        <ele>92.008285</ele>
        <time>2021-12-05T04:30:11.783Z</time>
      </trkpt>
      <trkpt lat="48.7068" lon="2.54625">
        <ele>92.022866</ele>
        <time>2021-12-05T04:30:14.592Z</time>
      </trkpt>
      <trkpt lat="48.70682" lon="2.54634">
        <ele>92.035805</ele>
        <time>2021-12-05T04:30:17.359Z</time>
      </trkpt>
      <trkpt lat="48.70687" lon="2.54624">
        <ele>92.052555</ele>
        <time>2021-12-05T04:30:19.479Z</time>
      </trkpt>
      <trkpt lat="48.70771" lon="2.54463">
        <ele>92.285537</ele>
        <time>2021-12-05T04:30:55.008Z</time>
      </trkpt>
      <trkpt lat="48.70845" lon="2.54591">
        <ele>92.233912</ele>
        <time>2021-12-05T04:31:21.975Z</time>
      </trkpt>
      <trkpt lat="48.70887" lon="2.54623">
        <ele>92.212623</ele>
        <time>2021-12-05T04:31:32.935Z</time>
      </trkpt>
      <trkpt lat="48.71043" lon="2.5474">
        <ele>91.921645</ele>
        <time>2021-12-05T04:32:14.370Z</time>
      </trkpt>
      <trkpt lat="48.71063" lon="2.54755">
        <ele>91.804543</ele>
        <time>2021-12-05T04:32:19.640Z</time>
      </trkpt>
      <trkpt lat="48.71112" lon="2.54792">
        <ele>91.379313</ele>
        <time>2021-12-05T04:32:32.236Z</time>
      </trkpt>
      <trkpt lat="48.71166" lon="2.54833">
        <ele>90.914483</ele>
        <time>2021-12-05T04:32:45.431Z</time>
      </trkpt>
      <trkpt lat="48.71184" lon="2.54847">
        <ele>90.754245</ele>
        <time>2021-12-05T04:32:49.878Z</time>
      </trkpt>
      <trkpt lat="48.71201" lon="2.5486">
        <ele>90.606209</ele>
        <time>2021-12-05T04:32:53.929Z</time>
      </trkpt>
      <trkpt lat="48.71245" lon="2.54893">
        <ele>89.841901</ele>
        <time>2021-12-05T04:33:03.905Z</time>
      </trkpt>
      <trkpt lat="48.71254" lon="2.54894">
        <ele>89.673634</ele>
        <time>2021-12-05T04:33:05.841Z</time>
      </trkpt>
      <trkpt lat="48.71287" lon="2.54931">
        <ele>88.918176</ele>
        <time>2021-12-05T04:33:14.582Z</time>
      </trkpt>
      <trkpt lat="48.71301" lon="2.54921">
        <ele>88.631532</ele>
        <time>2021-12-05T04:33:19.765Z</time>
      </trkpt>
      <trkpt lat="48.71413" lon="2.54858">
        <ele>86.284268</ele>
        <time>2021-12-05T04:33:58.804Z</time>
      </trkpt>
      <trkpt lat="48.71464" lon="2.54846">
        <ele>85.172457</ele>
        <time>2021-12-05T04:34:15.312Z</time>
      </trkpt>
      <trkpt lat="48.71519" lon="2.54834">
        <ele>83.949693</ele>
        <time>2021-12-05T04:34:33.404Z</time>
      </trkpt>
      <trkpt lat="48.71779" lon="2.54808">
        <ele>80.058988</ele>
        <time>2021-12-05T04:36:00.018Z</time>
      </trkpt>
      <trkpt lat="48.71781" lon="2.54808">
        <ele>80.061291</ele>
        <time>2021-12-05T04:36:00.876Z</time>
      </trkpt>
      <trkpt lat="48.71796" lon="2.54806">
        <ele>80.075533</ele>
        <time>2021-12-05T04:36:04.370Z</time>
      </trkpt>
      <trkpt lat="48.718" lon="2.54806">
        <ele>80.080143</ele>
        <time>2021-12-05T04:36:05.609Z</time>
      </trkpt>
      <trkpt lat="48.71861" lon="2.54798">
        <ele>80.140926</ele>
        <time>2021-12-05T04:36:23.727Z</time>
      </trkpt>
      <trkpt lat="48.71903" lon="2.54792">
        <ele>80.183522</ele>
        <time>2021-12-05T04:36:38.909Z</time>
      </trkpt>
      <trkpt lat="48.72061" lon="2.5479">
        <ele>81.612069</ele>
        <time>2021-12-05T04:37:33.342Z</time>
      </trkpt>
      <trkpt lat="48.72147" lon="2.54771">
        <ele>80.24559</ele>
        <time>2021-12-05T04:37:53.449Z</time>
      </trkpt>
      <trkpt lat="48.72214" lon="2.54733">
        <ele>78.285909</ele>
        <time>2021-12-05T04:38:07.447Z</time>
      </trkpt>
      <trkpt lat="48.72308" lon="2.54671">
        <ele>74.725571</ele>
        <time>2021-12-05T04:38:26.194Z</time>
      </trkpt>
      <trkpt lat="48.72391" lon="2.54586">
        <ele>70.514024</ele>
        <time>2021-12-05T04:38:44.873Z</time>
      </trkpt>
      <trkpt lat="48.72403" lon="2.54572">
        <ele>69.899763</ele>
        <time>2021-12-05T04:38:47.699Z</time>
      </trkpt>
      <trkpt lat="48.72464" lon="2.54488">
        <ele>68.080553</ele>
        <time>2021-12-05T04:39:04.192Z</time>
      </trkpt>
      <trkpt lat="48.72545" lon="2.54331">
        <ele>66.189304</ele>
        <time>2021-12-05T04:39:33.764Z</time>
      </trkpt>
      <trkpt lat="48.72573" lon="2.5425">
        <ele>66.567522</ele>
        <time>2021-12-05T04:39:50.295Z</time>
      </trkpt>
      <trkpt lat="48.72601" lon="2.54143">
        <ele>67.044458</ele>
        <time>2021-12-05T04:40:14.681Z</time>
      </trkpt>
      <trkpt lat="48.72629" lon="2.53947">
        <ele>69.99055</ele>
        <time>2021-12-05T04:41:05.530Z</time>
      </trkpt>
      <trkpt lat="48.72637" lon="2.53764">
        <ele>73.736903</ele>
        <time>2021-12-05T04:42:00.582Z</time>
      </trkpt>
      <trkpt lat="48.72624" lon="2.5354">
        <ele>79.422532</ele>
        <time>2021-12-05T04:43:15.053Z</time>
      </trkpt>
      <trkpt lat="48.72629" lon="2.5353">
        <ele>79.71719</ele>
        <time>2021-12-05T04:43:19.200Z</time>
      </trkpt>
      <trkpt lat="48.7263" lon="2.53524">
        <ele>79.871416</ele>
        <time>2021-12-05T04:43:21.362Z</time>
      </trkpt>
      <trkpt lat="48.72634" lon="2.53487">
        <ele>80.77388</ele>
        <time>2021-12-05T04:43:34.219Z</time>
      </trkpt>
      <trkpt lat="48.72613" lon="2.53395">
        <ele>83.137576</ele>
        <time>2021-12-05T04:44:06.431Z</time>
      </trkpt>
      <trkpt lat="48.72602" lon="2.53357">
        <ele>84.144175</ele>
        <time>2021-12-05T04:44:19.462Z</time>
      </trkpt>
      <trkpt lat="48.72605" lon="2.53158">
        <ele>86.66979</ele>
        <time>2021-12-05T04:45:10.772Z</time>
      </trkpt>
      <trkpt lat="48.72607" lon="2.53155">
        <ele>86.704431</ele>
        <time>2021-12-05T04:45:11.553Z</time>
      </trkpt>
      <trkpt lat="48.72618" lon="2.53137">
        <ele>86.939809</ele>
        <time>2021-12-05T04:45:16.628Z</time>
      </trkpt>
      <trkpt lat="48.72617" lon="2.53125">
        <ele>87.049208</ele>
        <time>2021-12-05T04:45:18.830Z</time>
      </trkpt>
      <trkpt lat="48.72719" lon="2.53098">
        <ele>87.628962</ele>
        <time>2021-12-05T04:45:42.361Z</time>
      </trkpt>
      <trkpt lat="48.72733" lon="2.53105">
        <ele>87.587271</ele>
        <time>2021-12-05T04:45:45.468Z</time>
      </trkpt>
      <trkpt lat="48.72739" lon="2.53108">
        <ele>87.570056</ele>
        <time>2021-12-05T04:45:46.681Z</time>
      </trkpt>
      <trkpt lat="48.72746" lon="2.53112">
        <ele>87.548332</ele>
        <time>2021-12-05T04:45:48.236Z</time>
      </trkpt>
      <trkpt lat="48.72755" lon="2.53116">
        <ele>87.519894</ele>
        <time>2021-12-05T04:45:50.327Z</time>
      </trkpt>
      <trkpt lat="48.72758" lon="2.53106">
        <ele>87.498728</ele>
        <time>2021-12-05T04:45:51.888Z</time>
      </trkpt>
      <trkpt lat="48.72764" lon="2.53102">
        <ele>87.481619</ele>
        <time>2021-12-05T04:45:53.554Z</time>
      </trkpt>
      <trkpt lat="48.72772" lon="2.53102">
        <ele>87.456335</ele>
        <time>2021-12-05T04:45:56.016Z</time>
      </trkpt>
      <trkpt lat="48.72797" lon="2.53014">
        <ele>87.276367</ele>
        <time>2021-12-05T04:46:19.214Z</time>
      </trkpt>
      <trkpt lat="48.7282" lon="2.52956">
        <ele>87.53269</ele>
        <time>2021-12-05T04:46:36.230Z</time>
      </trkpt>
      <trkpt lat="48.73138" lon="2.52389">
        <ele>90.780224</ele>
        <time>2021-12-05T04:50:07.168Z</time>
      </trkpt>
      <trkpt lat="48.73186" lon="2.52304">
        <ele>90.615686</ele>
        <time>2021-12-05T04:50:28.465Z</time>
      </trkpt>
      <trkpt lat="48.73194" lon="2.5229">
        <ele>90.572748</ele>
        <time>2021-12-05T04:50:32.004Z</time>
      </trkpt>
      <trkpt lat="48.73225" lon="2.52245">
        <ele>90.430657</ele>
        <time>2021-12-05T04:50:47.229Z</time>
      </trkpt>
      <trkpt lat="48.73428" lon="2.52076">
        <ele>89.905293</ele>
        <time>2021-12-05T04:52:13.410Z</time>
      </trkpt>
      <trkpt lat="48.74137" lon="2.51475">
        <ele>93.623897</ele>
        <time>2021-12-05T04:55:54.912Z</time>
      </trkpt>
      <trkpt lat="48.74164" lon="2.51485">
        <ele>93.707077</ele>
        <time>2021-12-05T04:56:06.123Z</time>
      </trkpt>
      <trkpt lat="48.74171" lon="2.51498">
        <ele>93.739505</ele>
        <time>2021-12-05T04:56:10.477Z</time>
      </trkpt>
      <trkpt lat="48.7417" lon="2.51493">
        <ele>93.749595</ele>
        <time>2021-12-05T04:56:11.842Z</time>
      </trkpt>
      <trkpt lat="48.74665" lon="2.51518">
        <ele>93.590657</ele>
        <time>2021-12-05T04:59:20.562Z</time>
      </trkpt>
      <trkpt lat="48.74711" lon="2.51529">
        <ele>93.369237</ele>
        <time>2021-12-05T04:59:37.313Z</time>
      </trkpt>
      <trkpt lat="48.7472" lon="2.51533">
        <ele>93.325702</ele>
        <time>2021-12-05T04:59:39.194Z</time>
      </trkpt>
      <trkpt lat="48.74728" lon="2.51521">
        <ele>93.270972</ele>
        <time>2021-12-05T04:59:41.502Z</time>
      </trkpt>
      <trkpt lat="48.74734" lon="2.51514">
        <ele>93.235506</ele>
        <time>2021-12-05T04:59:43.536Z</time>
      </trkpt>
      <trkpt lat="48.74853" lon="2.51316">
        <ele>91.930839</ele>
        <time>2021-12-05T05:00:46.039Z</time>
      </trkpt>
      <trkpt lat="48.74861" lon="2.51303">
        <ele>91.839468</ele>
        <time>2021-12-05T05:00:49.455Z</time>
      </trkpt>
      <trkpt lat="48.74868" lon="2.51291">
        <ele>91.760294</ele>
        <time>2021-12-05T05:00:52.404Z</time>
      </trkpt>
      <trkpt lat="48.74878" lon="2.51286">
        <ele>91.649956</ele>
        <time>2021-12-05T05:00:54.871Z</time>
      </trkpt>
      <trkpt lat="48.74895" lon="2.51268">
        <ele>91.423325</ele>
        <time>2021-12-05T05:00:59.450Z</time>
      </trkpt>
      <trkpt lat="48.74962" lon="2.51196">
        <ele>90.5176</ele>
        <time>2021-12-05T05:01:16.926Z</time>
      </trkpt>
      <trkpt lat="48.74967" lon="2.51192">
        <ele>90.459601</ele>
        <time>2021-12-05T05:01:17.999Z</time>
      </trkpt>
      <trkpt lat="48.75008" lon="2.51151">
        <ele>89.912526</ele>
        <time>2021-12-05T05:01:27.870Z</time>
      </trkpt>
      <trkpt lat="48.75017" lon="2.51143">
        <ele>89.804505</ele>
        <time>2021-12-05T05:01:29.743Z</time>
      </trkpt>
      <trkpt lat="48.75088" lon="2.51062">
        <ele>86.035143</ele>
        <time>2021-12-05T05:01:45.082Z</time>
      </trkpt>
      <trkpt lat="48.75114" lon="2.51026">
        <ele>84.481936</ele>
        <time>2021-12-05T05:01:50.735Z</time>
      </trkpt>
      <trkpt lat="48.75124" lon="2.51004">
        <ele>83.705439</ele>
        <time>2021-12-05T05:01:53.501Z</time>
      </trkpt>
      <trkpt lat="48.75151" lon="2.50965">
        <ele>82.069033</ele>
        <time>2021-12-05T05:01:59.233Z</time>
      </trkpt>
      <trkpt lat="48.75187" lon="2.50927">
        <ele>79.043822</ele>
        <time>2021-12-05T05:02:05.927Z</time>
      </trkpt>
      <trkpt lat="48.75197" lon="2.50916">
        <ele>78.120123</ele>
        <time>2021-12-05T05:02:07.849Z</time>
      </trkpt>
      <trkpt lat="48.75207" lon="2.50902">
        <ele>77.156942</ele>
        <time>2021-12-05T05:02:09.861Z</time>
      </trkpt>
      <trkpt lat="48.75235" lon="2.50865">
        <ele>74.466742</ele>
        <time>2021-12-05T05:02:15.423Z</time>
      </trkpt>
      <trkpt lat="48.75363" lon="2.50691">
        <ele>62.319209</ele>
        <time>2021-12-05T05:02:41.115Z</time>
      </trkpt>
      <trkpt lat="48.75365" lon="2.50678">
        <ele>61.70144</ele>
        <time>2021-12-05T05:02:42.468Z</time>
      </trkpt>
      <trkpt lat="48.75364" lon="2.50663">
        <ele>61.004123</ele>
        <time>2021-12-05T05:02:44.013Z</time>
      </trkpt>
      <trkpt lat="48.75378" lon="2.50659">
        <ele>60.012117</ele>
        <time>2021-12-05T05:02:46.216Z</time>
      </trkpt>
      <trkpt lat="48.75411" lon="2.50644">
        <ele>57.679561</ele>
        <time>2021-12-05T05:02:51.448Z</time>
      </trkpt>
      <trkpt lat="48.75443" lon="2.50607">
        <ele>55.426421</ele>
        <time>2021-12-05T05:02:57.828Z</time>
      </trkpt>
      <trkpt lat="48.75449" lon="2.50597">
        <ele>55.029778</ele>
        <time>2021-12-05T05:02:59.249Z</time>
      </trkpt>
      <trkpt lat="48.75501" lon="2.5053">
        <ele>52.060911</ele>
        <time>2021-12-05T05:03:10.218Z</time>
      </trkpt>
      <trkpt lat="48.75504" lon="2.50514">
        <ele>51.606352</ele>
        <time>2021-12-05T05:03:11.926Z</time>
      </trkpt>
      <trkpt lat="48.75494" lon="2.50503">
        <ele>51.057926</ele>
        <time>2021-12-05T05:03:14.048Z</time>
      </trkpt>
      <trkpt lat="48.75515" lon="2.50493">
        <ele>50.088806</ele>
        <time>2021-12-05T05:03:18.017Z</time>
      </trkpt>
      <trkpt lat="48.75574" lon="2.50476">
        <ele>47.915752</ele>
        <time>2021-12-05T05:03:29.117Z</time>
      </trkpt>
      <trkpt lat="48.75633" lon="2.50437">
        <ele>46.272399</ele>
        <time>2021-12-05T05:03:41.292Z</time>
      </trkpt>
      <trkpt lat="48.75674" lon="2.50395">
        <ele>45.020487</ele>
        <time>2021-12-05T05:03:50.705Z</time>
      </trkpt>
      <trkpt lat="48.75754" lon="2.50273">
        <ele>42.60998</ele>
        <time>2021-12-05T05:04:13.110Z</time>
      </trkpt>
      <trkpt lat="48.75757" lon="2.50261">
        <ele>42.453504</ele>
        <time>2021-12-05T05:04:14.814Z</time>
      </trkpt>
      <trkpt lat="48.75759" lon="2.50249">
        <ele>42.30083</ele>
        <time>2021-12-05T05:04:16.396Z</time>
      </trkpt>
      <trkpt lat="48.75759" lon="2.50244">
        <ele>42.248752</ele>
        <time>2021-12-05T05:04:16.926Z</time>
      </trkpt>
      <trkpt lat="48.75776" lon="2.50233">
        <ele>41.897195</ele>
        <time>2021-12-05T05:04:20.515Z</time>
      </trkpt>
      <trkpt lat="48.75814" lon="2.50176">
        <ele>40.904153</ele>
        <time>2021-12-05T05:04:31.385Z</time>
      </trkpt>
      <trkpt lat="48.75854" lon="2.50105">
        <ele>40.22853</ele>
        <time>2021-12-05T05:04:44.223Z</time>
      </trkpt>
      <trkpt lat="48.75861" lon="2.50078">
        <ele>40.074344</ele>
        <time>2021-12-05T05:04:48.130Z</time>
      </trkpt>
      <trkpt lat="48.7587" lon="2.50067">
        <ele>39.978786</ele>
        <time>2021-12-05T05:04:56.097Z</time>
      </trkpt>
      <trkpt lat="48.75879" lon="2.50061">
        <ele>39.894071</ele>
        <time>2021-12-05T05:04:58.248Z</time>
      </trkpt>
      <trkpt lat="48.75884" lon="2.5005">
        <ele>39.823032</ele>
        <time>2021-12-05T05:05:00.036Z</time>
      </trkpt>
      <trkpt lat="48.75884" lon="2.50044">
        <ele>39.793512</ele>
        <time>2021-12-05T05:05:00.783Z</time>
      </trkpt>
      <trkpt lat="48.759" lon="2.50037">
        <ele>39.652147</ele>
        <time>2021-12-05T05:05:04.499Z</time>
      </trkpt>
      <trkpt lat="48.75934" lon="2.49988">
        <ele>39.265233</ele>
        <time>2021-12-05T05:05:14.423Z</time>
      </trkpt>
      <trkpt lat="48.75992" lon="2.4988">
        <ele>39.036136</ele>
        <time>2021-12-05T05:05:34.881Z</time>
      </trkpt>
      <trkpt lat="48.7606" lon="2.49742">
        <ele>38.906277</ele>
        <time>2021-12-05T05:06:01.293Z</time>
      </trkpt>
      <trkpt lat="48.76075" lon="2.49678">
        <ele>38.79588</ele>
        <time>2021-12-05T05:06:11.237Z</time>
      </trkpt>
      <trkpt lat="48.76083" lon="2.4967">
        <ele>38.77388</ele>
        <time>2021-12-05T05:06:14.521Z</time>
      </trkpt>
      <trkpt lat="48.76086" lon="2.49667">
        <ele>38.763254</ele>
        <time>2021-12-05T05:06:16.053Z</time>
      </trkpt>
      <trkpt lat="48.76095" lon="2.49684">
        <ele>38.727438</ele>
        <time>2021-12-05T05:06:21.469Z</time>
      </trkpt>
      <trkpt lat="48.76101" lon="2.4968">
        <ele>38.71094</ele>
        <time>2021-12-05T05:06:23.960Z</time>
      </trkpt>
      <trkpt lat="48.76149" lon="2.49613">
        <ele>38.550292</ele>
        <time>2021-12-05T05:06:48.031Z</time>
      </trkpt>
      <trkpt lat="48.76166" lon="2.49573">
        <ele>38.466951</ele>
        <time>2021-12-05T05:06:59.887Z</time>
      </trkpt>
      <trkpt lat="48.76172" lon="2.49574">
        <ele>38.44504</ele>
        <time>2021-12-05T05:07:01.972Z</time>
      </trkpt>
      <trkpt lat="48.76179" lon="2.49571">
        <ele>38.415521</ele>
        <time>2021-12-05T05:07:04.852Z</time>
      </trkpt>
      <trkpt lat="48.76194" lon="2.49543">
        <ele>38.32507</ele>
        <time>2021-12-05T05:07:13.437Z</time>
      </trkpt>
      <trkpt lat="48.76207" lon="2.49541">
        <ele>38.276408</ele>
        <time>2021-12-05T05:07:18.104Z</time>
      </trkpt>
      <trkpt lat="48.76284" lon="2.49439">
        <ele>37.880401</ele>
        <time>2021-12-05T05:07:55.912Z</time>
      </trkpt>
      <trkpt lat="48.76287" lon="2.49424">
        <ele>37.841374</ele>
        <time>2021-12-05T05:07:59.696Z</time>
      </trkpt>
      <trkpt lat="48.76287" lon="2.49418">
        <ele>37.824181</ele>
        <time>2021-12-05T05:08:01.276Z</time>
      </trkpt>
      <trkpt lat="48.76323" lon="2.49389">
        <ele>37.768569</ele>
        <time>2021-12-05T05:08:16.606Z</time>
      </trkpt>
      <trkpt lat="48.76329" lon="2.49361">
        <ele>37.756993</ele>
        <time>2021-12-05T05:08:23.724Z</time>
      </trkpt>
      <trkpt lat="48.76332" lon="2.49352">
        <ele>37.753014</ele>
        <time>2021-12-05T05:08:26.237Z</time>
      </trkpt>
      <trkpt lat="48.76353" lon="2.49355">
        <ele>37.739786</ele>
        <time>2021-12-05T05:08:34.399Z</time>
      </trkpt>
      <trkpt lat="48.76422" lon="2.49255">
        <ele>37.682502</ele>
        <time>2021-12-05T05:09:10.923Z</time>
      </trkpt>
      <trkpt lat="48.76426" lon="2.49266">
        <ele>37.68331</ele>
        <time>2021-12-05T05:09:13.504Z</time>
      </trkpt>
      <trkpt lat="48.76429" lon="2.49275">
        <ele>37.694667</ele>
        <time>2021-12-05T05:09:15.821Z</time>
      </trkpt>
      <trkpt lat="48.76432" lon="2.49282">
        <ele>37.702817</ele>
        <time>2021-12-05T05:09:17.473Z</time>
      </trkpt>
      <trkpt lat="48.7654" lon="2.49141">
        <ele>37.925023</ele>
        <time>2021-12-05T05:09:54.091Z</time>
      </trkpt>
      <trkpt lat="48.76596" lon="2.49068">
        <ele>37.820561</ele>
        <time>2021-12-05T05:10:11.808Z</time>
      </trkpt>
      <trkpt lat="48.76617" lon="2.49039">
        <ele>37.745324</ele>
        <time>2021-12-05T05:10:18.370Z</time>
      </trkpt>
      <trkpt lat="48.76632" lon="2.49033">
        <ele>37.701936</ele>
        <time>2021-12-05T05:10:22.190Z</time>
      </trkpt>
      <trkpt lat="48.76639" lon="2.49024">
        <ele>37.677467</ele>
        <time>2021-12-05T05:10:24.279Z</time>
      </trkpt>
      <trkpt lat="48.76642" lon="2.49008">
        <ele>37.647263</ele>
        <time>2021-12-05T05:10:26.836Z</time>
      </trkpt>
      <trkpt lat="48.76649" lon="2.48997">
        <ele>37.620064</ele>
        <time>2021-12-05T05:10:29.173Z</time>
      </trkpt>
      <trkpt lat="48.7671" lon="2.48935">
        <ele>37.498488</ele>
        <time>2021-12-05T05:10:45.756Z</time>
      </trkpt>
      <trkpt lat="48.76725" lon="2.48913">
        <ele>37.524601</ele>
        <time>2021-12-05T05:10:50.446Z</time>
      </trkpt>
      <trkpt lat="48.76746" lon="2.4889">
        <ele>37.556781</ele>
        <time>2021-12-05T05:10:56.538Z</time>
      </trkpt>
      <trkpt lat="48.76779" lon="2.48855">
        <ele>37.607062</ele>
        <time>2021-12-05T05:11:06.574Z</time>
      </trkpt>
      <trkpt lat="48.76812" lon="2.48855">
        <ele>37.648082</ele>
        <time>2021-12-05T05:11:15.343Z</time>
      </trkpt>
      <trkpt lat="48.76853" lon="2.48859">
        <ele>37.704896</ele>
        <time>2021-12-05T05:11:26.345Z</time>
      </trkpt>
      <trkpt lat="48.76855" lon="2.48857">
        <ele>37.734979</ele>
        <time>2021-12-05T05:11:26.976Z</time>
      </trkpt>
      <trkpt lat="48.76858" lon="2.48852">
        <ele>37.801143</ele>
        <time>2021-12-05T05:11:28.346Z</time>
      </trkpt>
      <trkpt lat="48.7686" lon="2.4885">
        <ele>37.842806</ele>
        <time>2021-12-05T05:11:29.187Z</time>
      </trkpt>
      <trkpt lat="48.76862" lon="2.48847">
        <ele>37.873346</ele>
        <time>2021-12-05T05:11:29.842Z</time>
      </trkpt>
      <trkpt lat="48.76869" lon="2.48824">
        <ele>38.102586</ele>
        <time>2021-12-05T05:11:34.678Z</time>
      </trkpt>
      <trkpt lat="48.76872" lon="2.4882">
        <ele>38.167702</ele>
        <time>2021-12-05T05:11:35.999Z</time>
      </trkpt>
      <trkpt lat="48.76878" lon="2.48812">
        <ele>38.275676</ele>
        <time>2021-12-05T05:11:38.271Z</time>
      </trkpt>
      <trkpt lat="48.76871" lon="2.48792">
        <ele>38.481178</ele>
        <time>2021-12-05T05:11:42.763Z</time>
      </trkpt>
      <trkpt lat="48.76878" lon="2.48765">
        <ele>38.74708</ele>
        <time>2021-12-05T05:11:48.533Z</time>
      </trkpt>
      <trkpt lat="48.76883" lon="2.48758">
        <ele>38.839198</ele>
        <time>2021-12-05T05:11:50.627Z</time>
      </trkpt>
      <trkpt lat="48.771" lon="2.48539">
        <ele>43.263689</ele>
        <time>2021-12-05T05:13:22.666Z</time>
      </trkpt>
      <trkpt lat="48.77106" lon="2.48526">
        <ele>43.46081</ele>
        <time>2021-12-05T05:13:26.554Z</time>
      </trkpt>
      <trkpt lat="48.77259" lon="2.48366">
        <ele>47.273547</ele>
        <time>2021-12-05T05:14:35.006Z</time>
      </trkpt>
      <trkpt lat="48.77419" lon="2.48205">
        <ele>50.983737</ele>
        <time>2021-12-05T05:15:44.707Z</time>
      </trkpt>
      <trkpt lat="48.77571" lon="2.48048">
        <ele>53.663962</ele>
        <time>2021-12-05T05:16:46.709Z</time>
      </trkpt>
      <trkpt lat="48.77581" lon="2.48033">
        <ele>53.699997</ele>
        <time>2021-12-05T05:16:50.821Z</time>
      </trkpt>
      <trkpt lat="48.77601" lon="2.4802">
        <ele>53.754793</ele>
        <time>2021-12-05T05:16:56.912Z</time>
      </trkpt>
      <trkpt lat="48.77673" lon="2.47946">
        <ele>53.977452</ele>
        <time>2021-12-05T05:17:19.215Z</time>
      </trkpt>
      <trkpt lat="48.77781" lon="2.47833">
        <ele>53.104024</ele>
        <time>2021-12-05T05:17:47.894Z</time>
      </trkpt>
      <trkpt lat="48.78004" lon="2.47607">
        <ele>49.847006</ele>
        <time>2021-12-05T05:18:43.444Z</time>
      </trkpt>
      <trkpt lat="48.78011" lon="2.47615">
        <ele>49.8118</ele>
        <time>2021-12-05T05:18:45.494Z</time>
      </trkpt>
      <trkpt lat="48.78017" lon="2.47611">
        <ele>49.798457</ele>
        <time>2021-12-05T05:18:46.939Z</time>
      </trkpt>
      <trkpt lat="48.78024" lon="2.47606">
        <ele>49.784256</ele>
        <time>2021-12-05T05:18:48.556Z</time>
      </trkpt>
      <trkpt lat="48.78033" lon="2.47574">
        <ele>49.73791</ele>
        <time>2021-12-05T05:18:53.893Z</time>
      </trkpt>
      <trkpt lat="48.78119" lon="2.47485">
        <ele>49.532913</ele>
        <time>2021-12-05T05:19:18.935Z</time>
      </trkpt>
      <trkpt lat="48.78127" lon="2.47478">
        <ele>49.514862</ele>
        <time>2021-12-05T05:19:21.234Z</time>
      </trkpt>
      <trkpt lat="48.78163" lon="2.47442">
        <ele>49.533835</ele>
        <time>2021-12-05T05:19:32.925Z</time>
      </trkpt>
      <trkpt lat="48.78194" lon="2.47411">
        <ele>49.640588</ele>
        <time>2021-12-05T05:19:42.614Z</time>
      </trkpt>
      <trkpt lat="48.78366" lon="2.47234">
        <ele>50.086481</ele>
        <time>2021-12-05T05:20:36.070Z</time>
      </trkpt>
      <trkpt lat="48.78471" lon="2.47127">
        <ele>50.151889</ele>
        <time>2021-12-05T05:21:07.370Z</time>
      </trkpt>
      <trkpt lat="48.78602" lon="2.46991">
        <ele>49.971573</ele>
        <time>2021-12-05T05:21:45.052Z</time>
      </trkpt>
      <trkpt lat="48.78657" lon="2.46925">
        <ele>49.870726</ele>
        <time>2021-12-05T05:22:01.547Z</time>
      </trkpt>
      <trkpt lat="48.78664" lon="2.46927">
        <ele>49.860223</ele>
        <time>2021-12-05T05:22:03.278Z</time>
      </trkpt>
      <trkpt lat="48.78756" lon="2.46833">
        <ele>49.708409</ele>
        <time>2021-12-05T05:22:29.899Z</time>
      </trkpt>
      <trkpt lat="48.78811" lon="2.46777">
        <ele>49.637638</ele>
        <time>2021-12-05T05:22:45.737Z</time>
      </trkpt>
      <trkpt lat="48.78816" lon="2.46764">
        <ele>49.626908</ele>
        <time>2021-12-05T05:22:48.125Z</time>
      </trkpt>
      <trkpt lat="48.78854" lon="2.46732">
        <ele>49.579882</ele>
        <time>2021-12-05T05:22:58.499Z</time>
      </trkpt>
      <trkpt lat="48.78857" lon="2.46721">
        <ele>49.571798</ele>
        <time>2021-12-05T05:23:00.261Z</time>
      </trkpt>
      <trkpt lat="48.78878" lon="2.46698">
        <ele>49.544142</ele>
        <time>2021-12-05T05:23:06.365Z</time>
      </trkpt>
      <trkpt lat="48.78882" lon="2.46699">
        <ele>49.539415</ele>
        <time>2021-12-05T05:23:07.417Z</time>
      </trkpt>
      <trkpt lat="48.78952" lon="2.46613">
        <ele>49.261691</ele>
        <time>2021-12-05T05:23:28.433Z</time>
      </trkpt>
      <trkpt lat="48.78936" lon="2.46578">
        <ele>49.17407</ele>
        <time>2021-12-05T05:23:34.840Z</time>
      </trkpt>
      <trkpt lat="48.78937" lon="2.46577">
        <ele>49.169871</ele>
        <time>2021-12-05T05:23:35.127Z</time>
      </trkpt>
      <trkpt lat="48.78943" lon="2.46567">
        <ele>49.142635</ele>
        <time>2021-12-05T05:23:36.952Z</time>
      </trkpt>
      <trkpt lat="48.78968" lon="2.46511">
        <ele>49.001783</ele>
        <time>2021-12-05T05:23:46.637Z</time>
      </trkpt>
      <trkpt lat="48.78978" lon="2.46488">
        <ele>48.954436</ele>
        <time>2021-12-05T05:23:50.533Z</time>
      </trkpt>
      <trkpt lat="48.78993" lon="2.46455">
        <ele>48.898414</ele>
        <time>2021-12-05T05:23:56.326Z</time>
      </trkpt>
      <trkpt lat="48.79008" lon="2.46424">
        <ele>48.844846</ele>
        <time>2021-12-05T05:24:01.944Z</time>
      </trkpt>
      <trkpt lat="48.79019" lon="2.46397">
        <ele>48.800601</ele>
        <time>2021-12-05T05:24:08.172Z</time>
      </trkpt>
      <trkpt lat="48.7902" lon="2.46394">
        <ele>48.795477</ele>
        <time>2021-12-05T05:24:08.708Z</time>
      </trkpt>
      <trkpt lat="48.79035" lon="2.46367">
        <ele>48.74676</ele>
        <time>2021-12-05T05:24:13.811Z</time>
      </trkpt>
      <trkpt lat="48.79037" lon="2.46362">
        <ele>48.738971</ele>
        <time>2021-12-05T05:24:14.645Z</time>
      </trkpt>
      <trkpt lat="48.79055" lon="2.46334">
        <ele>48.683282</ele>
        <time>2021-12-05T05:24:20.526Z</time>
      </trkpt>
      <trkpt lat="48.79075" lon="2.4631">
        <ele>48.630302</ele>
        <time>2021-12-05T05:24:26.159Z</time>
      </trkpt>
      <trkpt lat="48.79123" lon="2.46254">
        <ele>48.62395</ele>
        <time>2021-12-05T05:24:40.145Z</time>
      </trkpt>
      <trkpt lat="48.79168" lon="2.4622">
        <ele>48.66183</ele>
        <time>2021-12-05T05:24:52.452Z</time>
      </trkpt>
      <trkpt lat="48.7924" lon="2.46182">
        <ele>48.718672</ele>
        <time>2021-12-05T05:25:10.805Z</time>
      </trkpt>
      <trkpt lat="48.7935" lon="2.46137">
        <ele>48.237007</ele>
        <time>2021-12-05T05:25:36.211Z</time>
      </trkpt>
      <trkpt lat="48.79358" lon="2.46135">
        <ele>48.199986</ele>
        <time>2021-12-05T05:25:37.888Z</time>
      </trkpt>
      <trkpt lat="48.79372" lon="2.46153">
        <ele>48.110743</ele>
        <time>2021-12-05T05:25:41.789Z</time>
      </trkpt>
      <trkpt lat="48.79376" lon="2.46149">
        <ele>48.089014</ele>
        <time>2021-12-05T05:25:42.745Z</time>
      </trkpt>
      <trkpt lat="48.79379" lon="2.46146">
        <ele>48.071569</ele>
        <time>2021-12-05T05:25:43.501Z</time>
      </trkpt>
      <trkpt lat="48.79389" lon="2.46134">
        <ele>48.010494</ele>
        <time>2021-12-05T05:25:46.186Z</time>
      </trkpt>
      <trkpt lat="48.79394" lon="2.46125">
        <ele>47.974178</ele>
        <time>2021-12-05T05:25:47.775Z</time>
      </trkpt>
      <trkpt lat="48.79394" lon="2.46123">
        <ele>47.967878</ele>
        <time>2021-12-05T05:25:48.039Z</time>
      </trkpt>
      <trkpt lat="48.79392" lon="2.46116">
        <ele>47.942988</ele>
        <time>2021-12-05T05:25:49.063Z</time>
      </trkpt>
      <trkpt lat="48.79408" lon="2.46088">
        <ele>47.746614</ele>
        <time>2021-12-05T05:25:54.112Z</time>
      </trkpt>
      <trkpt lat="48.79411" lon="2.46083">
        <ele>47.692681</ele>
        <time>2021-12-05T05:25:54.960Z</time>
      </trkpt>
      <trkpt lat="48.79443" lon="2.46027">
        <ele>47.044488</ele>
        <time>2021-12-05T05:26:04.707Z</time>
      </trkpt>
      <trkpt lat="48.79533" lon="2.45914">
        <ele>45.519152</ele>
        <time>2021-12-05T05:26:26.876Z</time>
      </trkpt>
      <trkpt lat="48.79606" lon="2.45832">
        <ele>44.906302</ele>
        <time>2021-12-05T05:26:45.846Z</time>
      </trkpt>
      <trkpt lat="48.79644" lon="2.45786">
        <ele>44.576311</ele>
        <time>2021-12-05T05:26:56.375Z</time>
      </trkpt>
      <trkpt lat="48.79703" lon="2.45718">
        <ele>44.306624</ele>
        <time>2021-12-05T05:27:12.433Z</time>
      </trkpt>
      <trkpt lat="48.79746" lon="2.45664">
        <ele>44.317436</ele>
        <time>2021-12-05T05:27:25.601Z</time>
      </trkpt>
      <trkpt lat="48.79787" lon="2.45614">
        <ele>44.327663</ele>
        <time>2021-12-05T05:27:38.545Z</time>
      </trkpt>
      <trkpt lat="48.79907" lon="2.45396">
        <ele>44.682395</ele>
        <time>2021-12-05T05:28:22.426Z</time>
      </trkpt>
      <trkpt lat="48.79909" lon="2.45392">
        <ele>44.689878</ele>
        <time>2021-12-05T05:28:23.291Z</time>
      </trkpt>
      <trkpt lat="48.79919" lon="2.45373">
        <ele>44.727292</ele>
        <time>2021-12-05T05:28:27.628Z</time>
      </trkpt>
      <trkpt lat="48.79931" lon="2.45351">
        <ele>44.778121</ele>
        <time>2021-12-05T05:28:33.079Z</time>
      </trkpt>
      <trkpt lat="48.79951" lon="2.45312">
        <ele>44.8926</ele>
        <time>2021-12-05T05:28:42.908Z</time>
      </trkpt>
      <trkpt lat="48.79992" lon="2.4523">
        <ele>45.127033</ele>
        <time>2021-12-05T05:29:01.476Z</time>
      </trkpt>
      <trkpt lat="48.80022" lon="2.45178">
        <ele>45.282975</ele>
        <time>2021-12-05T05:29:12.886Z</time>
      </trkpt>
      <trkpt lat="48.80043" lon="2.45132">
        <ele>45.315935</ele>
        <time>2021-12-05T05:29:21.875Z</time>
      </trkpt>
      <trkpt lat="48.80079" lon="2.45062">
        <ele>44.950822</ele>
        <time>2021-12-05T05:29:35.305Z</time>
      </trkpt>
      <trkpt lat="48.80125" lon="2.44973">
        <ele>44.490244</ele>
        <time>2021-12-05T05:29:50.618Z</time>
      </trkpt>
      <trkpt lat="48.80133" lon="2.44958">
        <ele>44.408684</ele>
        <time>2021-12-05T05:29:53.263Z</time>
      </trkpt>
      <trkpt lat="48.80191" lon="2.44847">
        <ele>44.184842</ele>
        <time>2021-12-05T05:30:12.337Z</time>
      </trkpt>
      <trkpt lat="48.8019" lon="2.44841">
        <ele>44.180584</ele>
        <time>2021-12-05T05:30:13.203Z</time>
      </trkpt>
      <trkpt lat="48.80199" lon="2.44824">
        <ele>44.165413</ele>
        <time>2021-12-05T05:30:16.471Z</time>
      </trkpt>
      <trkpt lat="48.80257" lon="2.44717">
        <ele>44.069683</ele>
        <time>2021-12-05T05:30:39.797Z</time>
      </trkpt>
      <trkpt lat="48.80259" lon="2.44715">
        <ele>44.075647</ele>
        <time>2021-12-05T05:30:40.449Z</time>
      </trkpt>
      <trkpt lat="48.80262" lon="2.44711">
        <ele>44.104943</ele>
        <time>2021-12-05T05:30:41.664Z</time>
      </trkpt>
      <trkpt lat="48.80267" lon="2.44704">
        <ele>44.146825</ele>
        <time>2021-12-05T05:30:43.440Z</time>
      </trkpt>
      <trkpt lat="48.8027" lon="2.44699">
        <ele>44.175824</ele>
        <time>2021-12-05T05:30:44.667Z</time>
      </trkpt>
      <trkpt lat="48.80274" lon="2.4469">
        <ele>44.223993</ele>
        <time>2021-12-05T05:30:46.740Z</time>
      </trkpt>
      <trkpt lat="48.8029" lon="2.4466">
        <ele>44.388504</ele>
        <time>2021-12-05T05:30:53.596Z</time>
      </trkpt>
      <trkpt lat="48.80292" lon="2.44657">
        <ele>44.402843</ele>
        <time>2021-12-05T05:30:54.207Z</time>
      </trkpt>
      <trkpt lat="48.80293" lon="2.44654">
        <ele>44.42229</ele>
        <time>2021-12-05T05:30:55.023Z</time>
      </trkpt>
      <trkpt lat="48.80348" lon="2.44552">
        <ele>44.984425</ele>
        <time>2021-12-05T05:31:19.260Z</time>
      </trkpt>
      <trkpt lat="48.80354" lon="2.44548">
        <ele>45.028796</ele>
        <time>2021-12-05T05:31:21.106Z</time>
      </trkpt>
      <trkpt lat="48.80457" lon="2.44355">
        <ele>45.181541</ele>
        <time>2021-12-05T05:32:01.817Z</time>
      </trkpt>
      <trkpt lat="48.80459" lon="2.44351">
        <ele>45.180111</ele>
        <time>2021-12-05T05:32:02.546Z</time>
      </trkpt>
      <trkpt lat="48.80504" lon="2.44263">
        <ele>44.775477</ele>
        <time>2021-12-05T05:32:17.650Z</time>
      </trkpt>
      <trkpt lat="48.8051" lon="2.44252">
        <ele>44.642099</ele>
        <time>2021-12-05T05:32:19.558Z</time>
      </trkpt>
      <trkpt lat="48.80576" lon="2.44124">
        <ele>43.154672</ele>
        <time>2021-12-05T05:32:40.310Z</time>
      </trkpt>
      <trkpt lat="48.80584" lon="2.44109">
        <ele>42.977793</ele>
        <time>2021-12-05T05:32:42.684Z</time>
      </trkpt>
      <trkpt lat="48.80597" lon="2.44083">
        <ele>42.673312</ele>
        <time>2021-12-05T05:32:46.801Z</time>
      </trkpt>
      <trkpt lat="48.8061" lon="2.44057">
        <ele>42.366413</ele>
        <time>2021-12-05T05:32:50.735Z</time>
      </trkpt>
      <trkpt lat="48.8065" lon="2.43981">
        <ele>41.426953</ele>
        <time>2021-12-05T05:33:02.906Z</time>
      </trkpt>
      <trkpt lat="48.80658" lon="2.43966">
        <ele>41.242453</ele>
        <time>2021-12-05T05:33:05.357Z</time>
      </trkpt>
      <trkpt lat="48.80667" lon="2.4395">
        <ele>41.041658</ele>
        <time>2021-12-05T05:33:08.011Z</time>
      </trkpt>
      <trkpt lat="48.80678" lon="2.43931">
        <ele>40.80166</ele>
        <time>2021-12-05T05:33:11.228Z</time>
      </trkpt>
      <trkpt lat="48.80745" lon="2.43805">
        <ele>39.640087</ele>
        <time>2021-12-05T05:33:33.006Z</time>
      </trkpt>
      <trkpt lat="48.8075" lon="2.43796">
        <ele>39.582266</ele>
        <time>2021-12-05T05:33:34.728Z</time>
      </trkpt>
      <trkpt lat="48.80759" lon="2.43778">
        <ele>39.471668</ele>
        <time>2021-12-05T05:33:37.893Z</time>
      </trkpt>
      <trkpt lat="48.80829" lon="2.43643">
        <ele>38.674635</ele>
        <time>2021-12-05T05:34:01.655Z</time>
      </trkpt>
      <trkpt lat="48.8084" lon="2.43624">
        <ele>38.623078</ele>
        <time>2021-12-05T05:34:04.951Z</time>
      </trkpt>
      <trkpt lat="48.80847" lon="2.43609">
        <ele>38.58338</ele>
        <time>2021-12-05T05:34:07.471Z</time>
      </trkpt>
      <trkpt lat="48.80926" lon="2.4346">
        <ele>38.174173</ele>
        <time>2021-12-05T05:34:35.374Z</time>
      </trkpt>
      <trkpt lat="48.80936" lon="2.4344">
        <ele>38.136789</ele>
        <time>2021-12-05T05:34:39.263Z</time>
      </trkpt>
      <trkpt lat="48.80943" lon="2.43426">
        <ele>38.206254</ele>
        <time>2021-12-05T05:34:41.786Z</time>
      </trkpt>
      <trkpt lat="48.80973" lon="2.43371">
        <ele>38.492004</ele>
        <time>2021-12-05T05:34:52.793Z</time>
      </trkpt>
      <trkpt lat="48.80981" lon="2.43355">
        <ele>38.571506</ele>
        <time>2021-12-05T05:34:56.195Z</time>
      </trkpt>
      <trkpt lat="48.80992" lon="2.43334">
        <ele>38.680496</ele>
        <time>2021-12-05T05:35:00.887Z</time>
      </trkpt>
      <trkpt lat="48.80997" lon="2.43326">
        <ele>38.722099</ele>
        <time>2021-12-05T05:35:02.703Z</time>
      </trkpt>
      <trkpt lat="48.81006" lon="2.43307">
        <ele>38.816033</ele>
        <time>2021-12-05T05:35:07.166Z</time>
      </trkpt>
      <trkpt lat="48.81014" lon="2.43293">
        <ele>38.891831</ele>
        <time>2021-12-05T05:35:10.804Z</time>
      </trkpt>
      <trkpt lat="48.81031" lon="2.43263">
        <ele>39.047991</ele>
        <time>2021-12-05T05:35:18.822Z</time>
      </trkpt>
      <trkpt lat="48.81037" lon="2.43253">
        <ele>39.104321</ele>
        <time>2021-12-05T05:35:21.812Z</time>
      </trkpt>
      <trkpt lat="48.81045" lon="2.43245">
        <ele>39.158063</ele>
        <time>2021-12-05T05:35:24.525Z</time>
      </trkpt>
      <trkpt lat="48.81095" lon="2.4315">
        <ele>39.703279</ele>
        <time>2021-12-05T05:35:49.034Z</time>
      </trkpt>
      <trkpt lat="48.81129" lon="2.43087">
        <ele>40.062842</ele>
        <time>2021-12-05T05:36:02.719Z</time>
      </trkpt>
      <trkpt lat="48.81161" lon="2.43026">
        <ele>40.416688</ele>
        <time>2021-12-05T05:36:15.189Z</time>
      </trkpt>
      <trkpt lat="48.81162" lon="2.43012">
        <ele>40.433417</ele>
        <time>2021-12-05T05:36:17.326Z</time>
      </trkpt>
      <trkpt lat="48.8117" lon="2.43008">
        <ele>40.417477</ele>
        <time>2021-12-05T05:36:19.239Z</time>
      </trkpt>
      <trkpt lat="48.81172" lon="2.42995">
        <ele>40.399061</ele>
        <time>2021-12-05T05:36:21.332Z</time>
      </trkpt>
      <trkpt lat="48.81197" lon="2.42951">
        <ele>40.319821</ele>
        <time>2021-12-05T05:36:30.268Z</time>
      </trkpt>
      <trkpt lat="48.81204" lon="2.42937">
        <ele>40.296509</ele>
        <time>2021-12-05T05:36:32.796Z</time>
      </trkpt>
      <trkpt lat="48.81231" lon="2.42888">
        <ele>40.21085</ele>
        <time>2021-12-05T05:36:41.946Z</time>
      </trkpt>
      <trkpt lat="48.81239" lon="2.42874">
        <ele>40.185605</ele>
        <time>2021-12-05T05:36:44.620Z</time>
      </trkpt>
      <trkpt lat="48.81255" lon="2.42842">
        <ele>40.130721</ele>
        <time>2021-12-05T05:36:50.497Z</time>
      </trkpt>
      <trkpt lat="48.81292" lon="2.42771">
        <ele>39.878032</ele>
        <time>2021-12-05T05:37:03.513Z</time>
      </trkpt>
      <trkpt lat="48.81304" lon="2.42751">
        <ele>39.768447</ele>
        <time>2021-12-05T05:37:07.193Z</time>
      </trkpt>
      <trkpt lat="48.81375" lon="2.42619">
        <ele>39.079805</ele>
        <time>2021-12-05T05:37:30.575Z</time>
      </trkpt>
      <trkpt lat="48.81379" lon="2.42609">
        <ele>39.035022</ele>
        <time>2021-12-05T05:37:32.081Z</time>
      </trkpt>
      <trkpt lat="48.81395" lon="2.42556">
        <ele>38.848467</ele>
        <time>2021-12-05T05:37:40.333Z</time>
      </trkpt>
      <trkpt lat="48.81415" lon="2.42489">
        <ele>38.63642</ele>
        <time>2021-12-05T05:37:51.050Z</time>
      </trkpt>
      <trkpt lat="48.8142" lon="2.42472">
        <ele>38.582706</ele>
        <time>2021-12-05T05:37:53.829Z</time>
      </trkpt>
      <trkpt lat="48.81441" lon="2.42398">
        <ele>38.349184</ele>
        <time>2021-12-05T05:38:05.198Z</time>
      </trkpt>
      <trkpt lat="48.81446" lon="2.42381">
        <ele>38.295118</ele>
        <time>2021-12-05T05:38:07.802Z</time>
      </trkpt>
      <trkpt lat="48.81477" lon="2.42275">
        <ele>37.914163</ele>
        <time>2021-12-05T05:38:24.501Z</time>
      </trkpt>
      <trkpt lat="48.81482" lon="2.4226">
        <ele>37.854988</ele>
        <time>2021-12-05T05:38:27.040Z</time>
      </trkpt>
      <trkpt lat="48.81499" lon="2.42203">
        <ele>37.634406</ele>
        <time>2021-12-05T05:38:36.365Z</time>
      </trkpt>
      <trkpt lat="48.81536" lon="2.42103">
        <ele>37.234829</ele>
        <time>2021-12-05T05:38:52.111Z</time>
      </trkpt>
      <trkpt lat="48.81539" lon="2.42096">
        <ele>37.214593</ele>
        <time>2021-12-05T05:38:53.300Z</time>
      </trkpt>
      <trkpt lat="48.81567" lon="2.42041">
        <ele>37.079764</ele>
        <time>2021-12-05T05:39:02.161Z</time>
      </trkpt>
      <trkpt lat="48.8158" lon="2.42027">
        <ele>37.032142</ele>
        <time>2021-12-05T05:39:05.230Z</time>
      </trkpt>
      <trkpt lat="48.81607" lon="2.42007">
        <ele>36.943369</ele>
        <time>2021-12-05T05:39:11.160Z</time>
      </trkpt>
      <trkpt lat="48.8164" lon="2.41994">
        <ele>36.842053</ele>
        <time>2021-12-05T05:39:18.282Z</time>
      </trkpt>
      <trkpt lat="48.81643" lon="2.41993">
        <ele>36.833377</ele>
        <time>2021-12-05T05:39:18.917Z</time>
      </trkpt>
      <trkpt lat="48.8165" lon="2.41993">
        <ele>36.81108</ele>
        <time>2021-12-05T05:39:20.496Z</time>
      </trkpt>
      <trkpt lat="48.8172" lon="2.4199">
        <ele>37.846733</ele>
        <time>2021-12-05T05:39:42.665Z</time>
      </trkpt>
      <trkpt lat="48.81726" lon="2.41995">
        <ele>38.113851</ele>
        <time>2021-12-05T05:39:45.266Z</time>
      </trkpt>
      <trkpt lat="48.81729" lon="2.41995">
        <ele>38.224703</ele>
        <time>2021-12-05T05:39:46.488Z</time>
      </trkpt>
      <trkpt lat="48.81736" lon="2.41989">
        <ele>38.526279</ele>
        <time>2021-12-05T05:39:49.809Z</time>
      </trkpt>
      <trkpt lat="48.81772" lon="2.4199">
        <ele>39.908706</ele>
        <time>2021-12-05T05:40:05.601Z</time>
      </trkpt>
      <trkpt lat="48.81774" lon="2.41992">
        <ele>40.009801</ele>
        <time>2021-12-05T05:40:06.810Z</time>
      </trkpt>
      <trkpt lat="48.81782" lon="2.41992">
        <ele>40.323013</ele>
        <time>2021-12-05T05:40:10.688Z</time>
      </trkpt>
      <trkpt lat="48.81794" lon="2.41986">
        <ele>40.810423</ele>
        <time>2021-12-05T05:40:16.770Z</time>
      </trkpt>
      <trkpt lat="48.81834" lon="2.41985">
        <ele>42.334624</ele>
        <time>2021-12-05T05:40:38.165Z</time>
      </trkpt>
      <trkpt lat="48.81849" lon="2.41969">
        <ele>43.040096</ele>
        <time>2021-12-05T05:40:48.851Z</time>
      </trkpt>
      <trkpt lat="48.8186" lon="2.41964">
        <ele>43.472769</ele>
        <time>2021-12-05T05:40:55.663Z</time>
      </trkpt>
      <trkpt lat="48.81898" lon="2.41966">
        <ele>45.363297</ele>
        <time>2021-12-05T05:41:18.923Z</time>
      </trkpt>
      <trkpt lat="48.82007" lon="2.41974">
        <ele>50.840876</ele>
        <time>2021-12-05T05:42:19.732Z</time>
      </trkpt>
      <trkpt lat="48.82075" lon="2.41977">
        <ele>53.326301</ele>
        <time>2021-12-05T05:42:49.335Z</time>
      </trkpt>
      <trkpt lat="48.82082" lon="2.41976">
        <ele>53.478019</ele>
        <time>2021-12-05T05:42:52.120Z</time>
      </trkpt>
      <trkpt lat="48.82082" lon="2.41984">
        <ele>53.583436</ele>
        <time>2021-12-05T05:42:53.997Z</time>
      </trkpt>
      <trkpt lat="48.82123" lon="2.41987">
        <ele>54.442421</ele>
        <time>2021-12-05T05:43:08.947Z</time>
      </trkpt>
      <trkpt lat="48.82132" lon="2.41988">
        <ele>54.629829</ele>
        <time>2021-12-05T05:43:12.065Z</time>
      </trkpt>
      <trkpt lat="48.82223" lon="2.41991">
        <ele>56.429009</ele>
        <time>2021-12-05T05:43:40.333Z</time>
      </trkpt>
      <trkpt lat="48.82231" lon="2.41991">
        <ele>56.43783</ele>
        <time>2021-12-05T05:43:42.675Z</time>
      </trkpt>
      <trkpt lat="48.82327" lon="2.41997">
        <ele>56.53711</ele>
        <time>2021-12-05T05:44:07.609Z</time>
      </trkpt>
      <trkpt lat="48.82342" lon="2.41992">
        <ele>56.553754</ele>
        <time>2021-12-05T05:44:11.256Z</time>
      </trkpt>
      <trkpt lat="48.82369" lon="2.41994">
        <ele>56.581573</ele>
        <time>2021-12-05T05:44:17.081Z</time>
      </trkpt>
      <trkpt lat="48.82407" lon="2.41996">
        <ele>56.460528</ele>
        <time>2021-12-05T05:44:24.783Z</time>
      </trkpt>
      <trkpt lat="48.8242" lon="2.41997">
        <ele>56.282553</ele>
        <time>2021-12-05T05:44:27.236Z</time>
      </trkpt>
      <trkpt lat="48.82423" lon="2.41997">
        <ele>56.245889</ele>
        <time>2021-12-05T05:44:27.743Z</time>
      </trkpt>
      <trkpt lat="48.82422" lon="2.4201">
        <ele>56.120481</ele>
        <time>2021-12-05T05:44:29.470Z</time>
      </trkpt>
      <trkpt lat="48.8243" lon="2.4201">
        <ele>56.017387</ele>
        <time>2021-12-05T05:44:31.923Z</time>
      </trkpt>
      <trkpt lat="48.82479" lon="2.42057">
        <ele>55.198469</ele>
        <time>2021-12-05T05:44:51.032Z</time>
      </trkpt>
      <trkpt lat="48.82523" lon="2.42077">
        <ele>54.543218</ele>
        <time>2021-12-05T05:45:06.566Z</time>
      </trkpt>
      <trkpt lat="48.8253" lon="2.42079">
        <ele>54.441814</ele>
        <time>2021-12-05T05:45:09.056Z</time>
      </trkpt>
      <trkpt lat="48.82538" lon="2.42083">
        <ele>54.326855</ele>
        <time>2021-12-05T05:45:11.919Z</time>
      </trkpt>
      <trkpt lat="48.82578" lon="2.42094">
        <ele>53.998736</ele>
        <time>2021-12-05T05:45:26.330Z</time>
      </trkpt>
      <trkpt lat="48.8262" lon="2.42109">
        <ele>53.854614</ele>
        <time>2021-12-05T05:45:41.767Z</time>
      </trkpt>
      <trkpt lat="48.82702" lon="2.42128">
        <ele>53.579003</ele>
        <time>2021-12-05T05:46:12.674Z</time>
      </trkpt>
      <trkpt lat="48.82712" lon="2.42127">
        <ele>53.546849</ele>
        <time>2021-12-05T05:46:16.486Z</time>
      </trkpt>
      <trkpt lat="48.82723" lon="2.42127">
        <ele>53.510591</ele>
        <time>2021-12-05T05:46:20.730Z</time>
      </trkpt>
      <trkpt lat="48.82754" lon="2.42149">
        <ele>53.513856</ele>
        <time>2021-12-05T05:46:35.343Z</time>
      </trkpt>
      <trkpt lat="48.82791" lon="2.42153">
        <ele>53.573386</ele>
        <time>2021-12-05T05:46:51.857Z</time>
      </trkpt>
      <trkpt lat="48.82813" lon="2.42175">
        <ele>53.614662</ele>
        <time>2021-12-05T05:47:02.645Z</time>
      </trkpt>
      <trkpt lat="48.82837" lon="2.4219">
        <ele>53.655727</ele>
        <time>2021-12-05T05:47:12.670Z</time>
      </trkpt>
      <trkpt lat="48.82853" lon="2.42189">
        <ele>53.680822</ele>
        <time>2021-12-05T05:47:18.491Z</time>
      </trkpt>
      <trkpt lat="48.82885" lon="2.42167">
        <ele>53.736357</ele>
        <time>2021-12-05T05:47:31.103Z</time>
      </trkpt>
      <trkpt lat="48.82887" lon="2.42165">
        <ele>53.739995</ele>
        <time>2021-12-05T05:47:31.955Z</time>
      </trkpt>
      <trkpt lat="48.82893" lon="2.4216">
        <ele>53.751753</ele>
        <time>2021-12-05T05:47:34.682Z</time>
      </trkpt>
      <trkpt lat="48.82896" lon="2.42158">
        <ele>53.756049</ele>
        <time>2021-12-05T05:47:35.698Z</time>
      </trkpt>
      <trkpt lat="48.82896" lon="2.42167">
        <ele>53.758583</ele>
        <time>2021-12-05T05:47:37.883Z</time>
      </trkpt>
      <trkpt lat="48.82914" lon="2.42158">
        <ele>53.737882</ele>
        <time>2021-12-05T05:47:44.907Z</time>
      </trkpt>
      <trkpt lat="48.82925" lon="2.42155">
        <ele>53.725068</ele>
        <time>2021-12-05T05:47:49.282Z</time>
      </trkpt>
      <trkpt lat="48.82954" lon="2.42159">
        <ele>53.693486</ele>
        <time>2021-12-05T05:48:00.079Z</time>
      </trkpt>
      <trkpt lat="48.8303" lon="2.4216">
        <ele>53.609068</ele>
        <time>2021-12-05T05:48:29.393Z</time>
      </trkpt>
      <trkpt lat="48.8312" lon="2.42102">
        <ele>53.671622</ele>
        <time>2021-12-05T05:49:06.310Z</time>
      </trkpt>
      <trkpt lat="48.83217" lon="2.42074">
        <ele>53.860319</ele>
        <time>2021-12-05T05:49:45.609Z</time>
      </trkpt>
      <trkpt lat="48.8323" lon="2.42075">
        <ele>53.886215</ele>
        <time>2021-12-05T05:49:51.344Z</time>
      </trkpt>
      <trkpt lat="48.83227" lon="2.42082">
        <ele>53.896787</ele>
        <time>2021-12-05T05:49:53.521Z</time>
      </trkpt>
      <trkpt lat="48.83253" lon="2.42085">
        <ele>53.987775</ele>
        <time>2021-12-05T05:50:03.641Z</time>
      </trkpt>
      <trkpt lat="48.83279" lon="2.42077">
        <ele>54.097116</ele>
        <time>2021-12-05T05:50:14.220Z</time>
      </trkpt>
      <trkpt lat="48.83303" lon="2.42096">
        <ele>54.205128</ele>
        <time>2021-12-05T05:50:26.220Z</time>
      </trkpt>
      <trkpt lat="48.83315" lon="2.4213">
        <ele>54.30908</ele>
        <time>2021-12-05T05:50:36.900Z</time>
      </trkpt>
      <trkpt lat="48.83338" lon="2.42157">
        <ele>54.42452</ele>
        <time>2021-12-05T05:50:48.379Z</time>
      </trkpt>
      <trkpt lat="48.83342" lon="2.42189">
        <ele>54.512122</ele>
        <time>2021-12-05T05:50:57.493Z</time>
      </trkpt>
      <trkpt lat="48.83337" lon="2.42216">
        <ele>54.584791</ele>
        <time>2021-12-05T05:51:04.290Z</time>
      </trkpt>
      <trkpt lat="48.83355" lon="2.42252">
        <ele>54.59231</ele>
        <time>2021-12-05T05:51:15.881Z</time>
      </trkpt>
      <trkpt lat="48.83361" lon="2.42278">
        <ele>54.551729</ele>
        <time>2021-12-05T05:51:23.593Z</time>
      </trkpt>
      <trkpt lat="48.8348" lon="2.42254">
        <ele>54.284107</ele>
        <time>2021-12-05T05:51:50.340Z</time>
      </trkpt>
      <trkpt lat="48.83494" lon="2.42248">
        <ele>54.251408</ele>
        <time>2021-12-05T05:51:53.463Z</time>
      </trkpt>
      <trkpt lat="48.8353" lon="2.42233">
        <ele>54.043407</ele>
        <time>2021-12-05T05:52:01.017Z</time>
      </trkpt>
      <trkpt lat="48.83564" lon="2.42222">
        <ele>53.814022</ele>
        <time>2021-12-05T05:52:07.995Z</time>
      </trkpt>
      <trkpt lat="48.83565" lon="2.4221">
        <ele>53.759727</ele>
        <time>2021-12-05T05:52:09.712Z</time>
      </trkpt>
      <trkpt lat="48.83607" lon="2.42308">
        <ele>53.247838</ele>
        <time>2021-12-05T05:52:25.778Z</time>
      </trkpt>
      <trkpt lat="48.83647" lon="2.42386">
        <ele>52.868043</ele>
        <time>2021-12-05T05:52:40.027Z</time>
      </trkpt>
      <trkpt lat="48.83742" lon="2.42545">
        <ele>52.15746</ele>
        <time>2021-12-05T05:53:10.506Z</time>
      </trkpt>
      <trkpt lat="48.83754" lon="2.42535">
        <ele>52.054068</ele>
        <time>2021-12-05T05:53:13.425Z</time>
      </trkpt>
      <trkpt lat="48.83765" lon="2.42526">
        <ele>51.930894</ele>
        <time>2021-12-05T05:53:16.291Z</time>
      </trkpt>
      <trkpt lat="48.83784" lon="2.42555">
        <ele>51.676898</ele>
        <time>2021-12-05T05:53:22.527Z</time>
      </trkpt>
      <trkpt lat="48.83839" lon="2.42507">
        <ele>51.084561</ele>
        <time>2021-12-05T05:53:44.769Z</time>
      </trkpt>
      <trkpt lat="48.83877" lon="2.42486">
        <ele>50.712403</ele>
        <time>2021-12-05T05:53:58.779Z</time>
      </trkpt>
      <trkpt lat="48.83928" lon="2.4248">
        <ele>50.336525</ele>
        <time>2021-12-05T05:54:16.911Z</time>
      </trkpt>
      <trkpt lat="48.83961" lon="2.42489">
        <ele>50.177798</ele>
        <time>2021-12-05T05:54:28.726Z</time>
      </trkpt>
      <trkpt lat="48.83985" lon="2.42514">
        <ele>50.037555</ele>
        <time>2021-12-05T05:54:39.468Z</time>
      </trkpt>
      <trkpt lat="48.8399" lon="2.4251">
        <ele>50.012</ele>
        <time>2021-12-05T05:54:40.789Z</time>
      </trkpt>
      <trkpt lat="48.83994" lon="2.42503">
        <ele>49.981951</ele>
        <time>2021-12-05T05:54:42.356Z</time>
      </trkpt>
      <trkpt lat="48.83998" lon="2.42497">
        <ele>49.954923</ele>
        <time>2021-12-05T05:54:43.595Z</time>
      </trkpt>
      <trkpt lat="48.84007" lon="2.42484">
        <ele>49.89815</ele>
        <time>2021-12-05T05:54:46.523Z</time>
      </trkpt>
      <trkpt lat="48.84034" lon="2.42495">
        <ele>49.762719</ele>
        <time>2021-12-05T05:54:53.605Z</time>
      </trkpt>
      <trkpt lat="48.84062" lon="2.42516">
        <ele>49.615442</ele>
        <time>2021-12-05T05:55:01.180Z</time>
      </trkpt>
      <trkpt lat="48.84085" lon="2.42543">
        <ele>49.654696</ele>
        <time>2021-12-05T05:55:08.963Z</time>
      </trkpt>
      <trkpt lat="48.84113" lon="2.42556">
        <ele>49.724351</ele>
        <time>2021-12-05T05:55:17.719Z</time>
      </trkpt>
      <trkpt lat="48.84122" lon="2.42555">
        <ele>49.746517</ele>
        <time>2021-12-05T05:55:20.764Z</time>
      </trkpt>
      <trkpt lat="48.84169" lon="2.42464">
        <ele>49.928523</ele>
        <time>2021-12-05T05:55:39.338Z</time>
      </trkpt>
      <trkpt lat="48.84178" lon="2.42451">
        <ele>49.957474</ele>
        <time>2021-12-05T05:55:42.142Z</time>
      </trkpt>
      <trkpt lat="48.84185" lon="2.42439">
        <ele>49.981916</ele>
        <time>2021-12-05T05:55:44.651Z</time>
      </trkpt>
      <trkpt lat="48.84217" lon="2.42392">
        <ele>50.175674</ele>
        <time>2021-12-05T05:55:55.881Z</time>
      </trkpt>
      <trkpt lat="48.84279" lon="2.42319">
        <ele>50.607457</ele>
        <time>2021-12-05T05:56:16.461Z</time>
      </trkpt>
      <trkpt lat="48.84282" lon="2.42335">
        <ele>50.666118</ele>
        <time>2021-12-05T05:56:19.875Z</time>
      </trkpt>
      <trkpt lat="48.84283" lon="2.42334">
        <ele>50.672084</ele>
        <time>2021-12-05T05:56:20.222Z</time>
      </trkpt>
      <trkpt lat="48.84321" lon="2.4231">
        <ele>50.896748</ele>
        <time>2021-12-05T05:56:32.120Z</time>
      </trkpt>
      <trkpt lat="48.84339" lon="2.42298">
        <ele>51.004971</ele>
        <time>2021-12-05T05:56:37.050Z</time>
      </trkpt>
      <trkpt lat="48.84356" lon="2.42285">
        <ele>51.192254</ele>
        <time>2021-12-05T05:56:42.266Z</time>
      </trkpt>
      <trkpt lat="48.84365" lon="2.42315">
        <ele>51.419673</ele>
        <time>2021-12-05T05:56:47.948Z</time>
      </trkpt>
      <trkpt lat="48.84372" lon="2.42324">
        <ele>51.511057</ele>
        <time>2021-12-05T05:56:50.973Z</time>
      </trkpt>
      <trkpt lat="48.84464" lon="2.42345">
        <ele>52.479737</ele>
        <time>2021-12-05T05:57:19.127Z</time>
      </trkpt>
      <trkpt lat="48.84491" lon="2.42351">
        <ele>52.768836</ele>
        <time>2021-12-05T05:57:27.522Z</time>
      </trkpt>
      <trkpt lat="48.84519" lon="2.42357">
        <ele>52.926334</ele>
        <time>2021-12-05T05:57:35.825Z</time>
      </trkpt>
      <trkpt lat="48.84557" lon="2.42366">
        <ele>52.996559</ele>
        <time>2021-12-05T05:57:46.203Z</time>
      </trkpt>
      <trkpt lat="48.84581" lon="2.42372">
        <ele>53.038787</ele>
        <time>2021-12-05T05:57:52.079Z</time>
      </trkpt>
      <trkpt lat="48.84584" lon="2.42367">
        <ele>53.047249</ele>
        <time>2021-12-05T05:57:53.241Z</time>
      </trkpt>
      <trkpt lat="48.84589" lon="2.42368">
        <ele>53.056517</ele>
        <time>2021-12-05T05:57:54.586Z</time>
      </trkpt>
      <trkpt lat="48.84598" lon="2.4237">
        <ele>53.071656</ele>
        <time>2021-12-05T05:57:56.506Z</time>
      </trkpt>
      <trkpt lat="48.84605" lon="2.42386">
        <ele>53.09481</ele>
        <time>2021-12-05T05:57:59.836Z</time>
      </trkpt>
      <trkpt lat="48.84631" lon="2.42412">
        <ele>53.15111</ele>
        <time>2021-12-05T05:58:06.977Z</time>
      </trkpt>
      <trkpt lat="48.84663" lon="2.42495">
        <ele>53.180942</ele>
        <time>2021-12-05T05:58:20.439Z</time>
      </trkpt>
      <trkpt lat="48.84689" lon="2.42576">
        <ele>53.080341</ele>
        <time>2021-12-05T05:58:32.833Z</time>
      </trkpt>
      <trkpt lat="48.84733" lon="2.42757">
        <ele>53.03837</ele>
        <time>2021-12-05T05:59:02.926Z</time>
      </trkpt>
      <trkpt lat="48.84732" lon="2.42777">
        <ele>53.091392</ele>
        <time>2021-12-05T05:59:06.341Z</time>
      </trkpt>
      <trkpt lat="48.84747" lon="2.42891">
        <ele>53.406223</ele>
        <time>2021-12-05T05:59:25.152Z</time>
      </trkpt>
      <trkpt lat="48.84748" lon="2.42905">
        <ele>53.444365</ele>
        <time>2021-12-05T05:59:27.464Z</time>
      </trkpt>
      <trkpt lat="48.84748" lon="2.4291">
        <ele>53.458027</ele>
        <time>2021-12-05T05:59:28.344Z</time>
      </trkpt>
      <trkpt lat="48.84751" lon="2.42944">
        <ele>53.552127</ele>
        <time>2021-12-05T05:59:34.535Z</time>
      </trkpt>
      <trkpt lat="48.84752" lon="2.42969">
        <ele>53.619372</ele>
        <time>2021-12-05T05:59:38.972Z</time>
      </trkpt>
      <trkpt lat="48.84756" lon="2.43062">
        <ele>54.277263</ele>
        <time>2021-12-05T05:59:56.668Z</time>
      </trkpt>
      <trkpt lat="48.84751" lon="2.43081">
        <ele>54.429637</ele>
        <time>2021-12-05T06:00:00.558Z</time>
      </trkpt>
      <trkpt lat="48.84761" lon="2.43097">
        <ele>54.596689</ele>
        <time>2021-12-05T06:00:04.648Z</time>
      </trkpt>
      <trkpt lat="48.84766" lon="2.43106">
        <ele>54.692586</ele>
        <time>2021-12-05T06:00:07.039Z</time>
      </trkpt>
      <trkpt lat="48.84856" lon="2.43249">
        <ele>56.35387</ele>
        <time>2021-12-05T06:00:47.890Z</time>
      </trkpt>
      <trkpt lat="48.84875" lon="2.43273">
        <ele>56.725872</ele>
        <time>2021-12-05T06:00:56.545Z</time>
      </trkpt>
      <trkpt lat="48.8499" lon="2.43459">
        <ele>58.845686</ele>
        <time>2021-12-05T06:01:50.266Z</time>
      </trkpt>
      <trkpt lat="48.85082" lon="2.43457">
        <ele>59.471316</ele>
        <time>2021-12-05T06:02:14.282Z</time>
      </trkpt>
      <trkpt lat="48.85157" lon="2.43463">
        <ele>59.900276</ele>
        <time>2021-12-05T06:02:31.436Z</time>
      </trkpt>
      <trkpt lat="48.85175" lon="2.43375">
        <ele>60.184743</ele>
        <time>2021-12-05T06:02:45.908Z</time>
      </trkpt>
      <trkpt lat="48.85252" lon="2.43395">
        <ele>60.54926</ele>
        <time>2021-12-05T06:03:07.792Z</time>
      </trkpt>
      <trkpt lat="48.85355" lon="2.43419">
        <ele>60.561624</ele>
        <time>2021-12-05T06:03:38.811Z</time>
      </trkpt>
      <trkpt lat="48.85388" lon="2.43435">
        <ele>60.561624</ele>
        <time>2021-12-05T06:03:49.334Z</time>
      </trkpt>
    </trkseg>
  </trk>
</gpx>